<?xml version="1.0" encoding="UTF-8" standalone="no" ?>
<gpx xmlns="http://www.topografix.com/GPX/1/1" xmlns:xsi="http://www.w3.org/2001/XMLSchema-instance" xsi:schemaLocation="http://www.topografix.com/GPX/1/1 http://www.topografix.com/GPX/1/1/gpx.xsd" version="1.1" creator="VisuGPX - https://www.visugpx.com">
  <metadata>
    <name>Les Nans depuis Le Rond des 3 sapins-ASCD</name>
  </metadata>
  <trk>
    <name><![CDATA[Les Nans depuis Le Rond des 3 sapins-ASCD_1]]></name>
    <extensions>
      <line xmlns="http://www.topografix.com/GPX/gpx_style/0/2">
        <color>0000FF</color>
        <width>4</width>
      </line>
    </extensions>
    <trkseg>
      <trkpt lat="46.82648" lon="5.99655">
        <ele>824</ele>
        <time>2022-05-26T07:54:09Z</time>
      </trkpt>
      <trkpt lat="46.82646" lon="5.99648">
        <ele>818.3</ele>
        <time>2022-05-26T07:56:47Z</time>
      </trkpt>
      <trkpt lat="46.82639" lon="5.99653">
        <ele>819.8</ele>
        <time>2022-05-26T08:03:02Z</time>
      </trkpt>
      <trkpt lat="46.82634" lon="5.99655">
        <ele>819.4</ele>
        <time>2022-05-26T08:03:39Z</time>
      </trkpt>
      <trkpt lat="46.82631" lon="5.9966">
        <ele>817.1</ele>
        <time>2022-05-26T08:03:46Z</time>
      </trkpt>
      <trkpt lat="46.82635" lon="5.99656">
        <ele>816</ele>
        <time>2022-05-26T08:03:57Z</time>
      </trkpt>
      <trkpt lat="46.82631" lon="5.99651">
        <ele>817.1</ele>
        <time>2022-05-26T08:04:43Z</time>
      </trkpt>
      <trkpt lat="46.82628" lon="5.99645">
        <ele>815</ele>
        <time>2022-05-26T08:05:58Z</time>
      </trkpt>
      <trkpt lat="46.82623" lon="5.99644">
        <ele>814.9</ele>
        <time>2022-05-26T08:06:03Z</time>
      </trkpt>
      <trkpt lat="46.82619" lon="5.9964">
        <ele>815.1</ele>
        <time>2022-05-26T08:06:09Z</time>
      </trkpt>
      <trkpt lat="46.82614" lon="5.99638">
        <ele>815.6</ele>
        <time>2022-05-26T08:06:13Z</time>
      </trkpt>
      <trkpt lat="46.8261" lon="5.99636">
        <ele>816.5</ele>
        <time>2022-05-26T08:06:17Z</time>
      </trkpt>
      <trkpt lat="46.82605" lon="5.99632">
        <ele>817.5</ele>
        <time>2022-05-26T08:06:21Z</time>
      </trkpt>
      <trkpt lat="46.826" lon="5.99631">
        <ele>818.5</ele>
        <time>2022-05-26T08:06:25Z</time>
      </trkpt>
      <trkpt lat="46.82595" lon="5.99629">
        <ele>819.3</ele>
        <time>2022-05-26T08:06:30Z</time>
      </trkpt>
      <trkpt lat="46.82591" lon="5.99626">
        <ele>820.3</ele>
        <time>2022-05-26T08:06:34Z</time>
      </trkpt>
      <trkpt lat="46.82586" lon="5.99623">
        <ele>821.2</ele>
        <time>2022-05-26T08:06:39Z</time>
      </trkpt>
      <trkpt lat="46.82581" lon="5.99621">
        <ele>821.6</ele>
        <time>2022-05-26T08:06:43Z</time>
      </trkpt>
      <trkpt lat="46.82577" lon="5.99619">
        <ele>822</ele>
        <time>2022-05-26T08:06:48Z</time>
      </trkpt>
      <trkpt lat="46.82572" lon="5.99616">
        <ele>822.1</ele>
        <time>2022-05-26T08:06:53Z</time>
      </trkpt>
      <trkpt lat="46.82568" lon="5.99612">
        <ele>821.8</ele>
        <time>2022-05-26T08:06:58Z</time>
      </trkpt>
      <trkpt lat="46.82563" lon="5.99611">
        <ele>821.6</ele>
        <time>2022-05-26T08:07:02Z</time>
      </trkpt>
      <trkpt lat="46.82559" lon="5.9961">
        <ele>821.6</ele>
        <time>2022-05-26T08:07:06Z</time>
      </trkpt>
      <trkpt lat="46.82554" lon="5.99606">
        <ele>821.6</ele>
        <time>2022-05-26T08:07:11Z</time>
      </trkpt>
      <trkpt lat="46.82549" lon="5.99602">
        <ele>821.6</ele>
        <time>2022-05-26T08:07:16Z</time>
      </trkpt>
      <trkpt lat="46.82545" lon="5.996">
        <ele>821.4</ele>
        <time>2022-05-26T08:07:22Z</time>
      </trkpt>
      <trkpt lat="46.8254" lon="5.99598">
        <ele>821.1</ele>
        <time>2022-05-26T08:07:27Z</time>
      </trkpt>
      <trkpt lat="46.82536" lon="5.99595">
        <ele>821.1</ele>
        <time>2022-05-26T08:07:32Z</time>
      </trkpt>
      <trkpt lat="46.82532" lon="5.99593">
        <ele>821.2</ele>
        <time>2022-05-26T08:07:36Z</time>
      </trkpt>
      <trkpt lat="46.82526" lon="5.99591">
        <ele>821.5</ele>
        <time>2022-05-26T08:07:40Z</time>
      </trkpt>
      <trkpt lat="46.82521" lon="5.99588">
        <ele>822</ele>
        <time>2022-05-26T08:07:45Z</time>
      </trkpt>
      <trkpt lat="46.82517" lon="5.99586">
        <ele>822.1</ele>
        <time>2022-05-26T08:07:49Z</time>
      </trkpt>
      <trkpt lat="46.82513" lon="5.99582">
        <ele>822</ele>
        <time>2022-05-26T08:07:54Z</time>
      </trkpt>
      <trkpt lat="46.82509" lon="5.9958">
        <ele>821.4</ele>
        <time>2022-05-26T08:07:59Z</time>
      </trkpt>
      <trkpt lat="46.82505" lon="5.99577">
        <ele>820.5</ele>
        <time>2022-05-26T08:08:04Z</time>
      </trkpt>
      <trkpt lat="46.82499" lon="5.99573">
        <ele>819.9</ele>
        <time>2022-05-26T08:08:09Z</time>
      </trkpt>
      <trkpt lat="46.82494" lon="5.9957">
        <ele>819.5</ele>
        <time>2022-05-26T08:08:12Z</time>
      </trkpt>
      <trkpt lat="46.8249" lon="5.99566">
        <ele>819.4</ele>
        <time>2022-05-26T08:08:15Z</time>
      </trkpt>
      <trkpt lat="46.82485" lon="5.99562">
        <ele>818.6</ele>
        <time>2022-05-26T08:08:23Z</time>
      </trkpt>
      <trkpt lat="46.82481" lon="5.99559">
        <ele>818.3</ele>
        <time>2022-05-26T08:08:26Z</time>
      </trkpt>
      <trkpt lat="46.82475" lon="5.99555">
        <ele>818.1</ele>
        <time>2022-05-26T08:08:29Z</time>
      </trkpt>
      <trkpt lat="46.8247" lon="5.99551">
        <ele>817.9</ele>
        <time>2022-05-26T08:08:32Z</time>
      </trkpt>
      <trkpt lat="46.82466" lon="5.99547">
        <ele>817.9</ele>
        <time>2022-05-26T08:08:35Z</time>
      </trkpt>
      <trkpt lat="46.82461" lon="5.99544">
        <ele>817.6</ele>
        <time>2022-05-26T08:08:40Z</time>
      </trkpt>
      <trkpt lat="46.82456" lon="5.99543">
        <ele>816.8</ele>
        <time>2022-05-26T08:08:46Z</time>
      </trkpt>
      <trkpt lat="46.82451" lon="5.99542">
        <ele>815.8</ele>
        <time>2022-05-26T08:08:50Z</time>
      </trkpt>
      <trkpt lat="46.82447" lon="5.99543">
        <ele>814.5</ele>
        <time>2022-05-26T08:08:54Z</time>
      </trkpt>
      <trkpt lat="46.82442" lon="5.99539">
        <ele>813.4</ele>
        <time>2022-05-26T08:09:01Z</time>
      </trkpt>
      <trkpt lat="46.82437" lon="5.99535">
        <ele>812.9</ele>
        <time>2022-05-26T08:09:06Z</time>
      </trkpt>
      <trkpt lat="46.82432" lon="5.99533">
        <ele>813.2</ele>
        <time>2022-05-26T08:09:10Z</time>
      </trkpt>
      <trkpt lat="46.82428" lon="5.99531">
        <ele>813.5</ele>
        <time>2022-05-26T08:09:13Z</time>
      </trkpt>
      <trkpt lat="46.82424" lon="5.99528">
        <ele>813.9</ele>
        <time>2022-05-26T08:09:16Z</time>
      </trkpt>
      <trkpt lat="46.82419" lon="5.99527">
        <ele>814.5</ele>
        <time>2022-05-26T08:09:21Z</time>
      </trkpt>
      <trkpt lat="46.82414" lon="5.99526">
        <ele>814.7</ele>
        <time>2022-05-26T08:09:27Z</time>
      </trkpt>
      <trkpt lat="46.82408" lon="5.99525">
        <ele>815.2</ele>
        <time>2022-05-26T08:09:32Z</time>
      </trkpt>
      <trkpt lat="46.82404" lon="5.99522">
        <ele>815.4</ele>
        <time>2022-05-26T08:09:37Z</time>
      </trkpt>
      <trkpt lat="46.824" lon="5.99518">
        <ele>815.8</ele>
        <time>2022-05-26T08:09:41Z</time>
      </trkpt>
      <trkpt lat="46.82396" lon="5.99514">
        <ele>816.4</ele>
        <time>2022-05-26T08:09:45Z</time>
      </trkpt>
      <trkpt lat="46.82391" lon="5.9951">
        <ele>816.7</ele>
        <time>2022-05-26T08:09:49Z</time>
      </trkpt>
      <trkpt lat="46.82386" lon="5.99509">
        <ele>816.4</ele>
        <time>2022-05-26T08:09:53Z</time>
      </trkpt>
      <trkpt lat="46.82382" lon="5.99507">
        <ele>815.8</ele>
        <time>2022-05-26T08:09:57Z</time>
      </trkpt>
      <trkpt lat="46.82378" lon="5.99503">
        <ele>815.2</ele>
        <time>2022-05-26T08:10:01Z</time>
      </trkpt>
      <trkpt lat="46.82374" lon="5.99501">
        <ele>814.8</ele>
        <time>2022-05-26T08:10:06Z</time>
      </trkpt>
      <trkpt lat="46.82369" lon="5.99498">
        <ele>813.9</ele>
        <time>2022-05-26T08:10:11Z</time>
      </trkpt>
      <trkpt lat="46.82364" lon="5.99495">
        <ele>813</ele>
        <time>2022-05-26T08:10:14Z</time>
      </trkpt>
      <trkpt lat="46.82359" lon="5.99491">
        <ele>812.4</ele>
        <time>2022-05-26T08:10:17Z</time>
      </trkpt>
      <trkpt lat="46.82353" lon="5.99489">
        <ele>812.6</ele>
        <time>2022-05-26T08:10:20Z</time>
      </trkpt>
      <trkpt lat="46.82348" lon="5.99486">
        <ele>812.8</ele>
        <time>2022-05-26T08:10:24Z</time>
      </trkpt>
      <trkpt lat="46.82345" lon="5.99482">
        <ele>813.1</ele>
        <time>2022-05-26T08:10:30Z</time>
      </trkpt>
      <trkpt lat="46.8234" lon="5.99477">
        <ele>813.5</ele>
        <time>2022-05-26T08:10:35Z</time>
      </trkpt>
      <trkpt lat="46.82337" lon="5.99473">
        <ele>814</ele>
        <time>2022-05-26T08:10:39Z</time>
      </trkpt>
      <trkpt lat="46.82332" lon="5.99469">
        <ele>815</ele>
        <time>2022-05-26T08:10:43Z</time>
      </trkpt>
      <trkpt lat="46.82328" lon="5.99465">
        <ele>815.8</ele>
        <time>2022-05-26T08:10:46Z</time>
      </trkpt>
      <trkpt lat="46.82323" lon="5.99461">
        <ele>816.5</ele>
        <time>2022-05-26T08:10:51Z</time>
      </trkpt>
      <trkpt lat="46.82317" lon="5.9946">
        <ele>816.8</ele>
        <time>2022-05-26T08:10:54Z</time>
      </trkpt>
      <trkpt lat="46.82312" lon="5.99457">
        <ele>816.5</ele>
        <time>2022-05-26T08:10:58Z</time>
      </trkpt>
      <trkpt lat="46.82308" lon="5.99454">
        <ele>815.3</ele>
        <time>2022-05-26T08:11:03Z</time>
      </trkpt>
      <trkpt lat="46.82302" lon="5.99454">
        <ele>814.3</ele>
        <time>2022-05-26T08:11:07Z</time>
      </trkpt>
      <trkpt lat="46.82298" lon="5.99453">
        <ele>813.1</ele>
        <time>2022-05-26T08:11:14Z</time>
      </trkpt>
      <trkpt lat="46.82294" lon="5.99449">
        <ele>813.3</ele>
        <time>2022-05-26T08:11:19Z</time>
      </trkpt>
      <trkpt lat="46.82289" lon="5.99445">
        <ele>814.3</ele>
        <time>2022-05-26T08:11:24Z</time>
      </trkpt>
      <trkpt lat="46.82284" lon="5.99443">
        <ele>814.8</ele>
        <time>2022-05-26T08:11:29Z</time>
      </trkpt>
      <trkpt lat="46.82279" lon="5.99441">
        <ele>814.7</ele>
        <time>2022-05-26T08:11:32Z</time>
      </trkpt>
      <trkpt lat="46.82274" lon="5.99438">
        <ele>814.3</ele>
        <time>2022-05-26T08:11:35Z</time>
      </trkpt>
      <trkpt lat="46.8227" lon="5.99435">
        <ele>814.1</ele>
        <time>2022-05-26T08:11:38Z</time>
      </trkpt>
      <trkpt lat="46.82266" lon="5.99432">
        <ele>813.9</ele>
        <time>2022-05-26T08:11:41Z</time>
      </trkpt>
      <trkpt lat="46.8226" lon="5.9943">
        <ele>813.8</ele>
        <time>2022-05-26T08:11:45Z</time>
      </trkpt>
      <trkpt lat="46.82255" lon="5.99427">
        <ele>813.9</ele>
        <time>2022-05-26T08:11:49Z</time>
      </trkpt>
      <trkpt lat="46.82251" lon="5.99423">
        <ele>812.8</ele>
        <time>2022-05-26T08:11:55Z</time>
      </trkpt>
      <trkpt lat="46.82247" lon="5.99419">
        <ele>811.7</ele>
        <time>2022-05-26T08:12:00Z</time>
      </trkpt>
      <trkpt lat="46.82243" lon="5.99415">
        <ele>811.2</ele>
        <time>2022-05-26T08:12:05Z</time>
      </trkpt>
      <trkpt lat="46.8224" lon="5.9941">
        <ele>810.9</ele>
        <time>2022-05-26T08:12:09Z</time>
      </trkpt>
      <trkpt lat="46.82237" lon="5.99405">
        <ele>810.9</ele>
        <time>2022-05-26T08:12:13Z</time>
      </trkpt>
      <trkpt lat="46.82232" lon="5.994">
        <ele>811.4</ele>
        <time>2022-05-26T08:12:18Z</time>
      </trkpt>
      <trkpt lat="46.82229" lon="5.99395">
        <ele>812.5</ele>
        <time>2022-05-26T08:12:22Z</time>
      </trkpt>
      <trkpt lat="46.82226" lon="5.99388">
        <ele>813.6</ele>
        <time>2022-05-26T08:12:27Z</time>
      </trkpt>
      <trkpt lat="46.82222" lon="5.99384">
        <ele>814.4</ele>
        <time>2022-05-26T08:12:31Z</time>
      </trkpt>
      <trkpt lat="46.8222" lon="5.99377">
        <ele>814.3</ele>
        <time>2022-05-26T08:12:36Z</time>
      </trkpt>
      <trkpt lat="46.82215" lon="5.99376">
        <ele>813.5</ele>
        <time>2022-05-26T08:12:41Z</time>
      </trkpt>
      <trkpt lat="46.82212" lon="5.99372">
        <ele>813.2</ele>
        <time>2022-05-26T08:12:44Z</time>
      </trkpt>
      <trkpt lat="46.82208" lon="5.99367">
        <ele>812.9</ele>
        <time>2022-05-26T08:12:48Z</time>
      </trkpt>
      <trkpt lat="46.82205" lon="5.99363">
        <ele>811.8</ele>
        <time>2022-05-26T08:12:56Z</time>
      </trkpt>
      <trkpt lat="46.82201" lon="5.99357">
        <ele>811.4</ele>
        <time>2022-05-26T08:13:00Z</time>
      </trkpt>
      <trkpt lat="46.82197" lon="5.99353">
        <ele>811.2</ele>
        <time>2022-05-26T08:13:04Z</time>
      </trkpt>
      <trkpt lat="46.82194" lon="5.99348">
        <ele>811.2</ele>
        <time>2022-05-26T08:13:07Z</time>
      </trkpt>
      <trkpt lat="46.8219" lon="5.99344">
        <ele>811.1</ele>
        <time>2022-05-26T08:13:11Z</time>
      </trkpt>
      <trkpt lat="46.82186" lon="5.99339">
        <ele>811.8</ele>
        <time>2022-05-26T08:13:19Z</time>
      </trkpt>
      <trkpt lat="46.82181" lon="5.99335">
        <ele>812.6</ele>
        <time>2022-05-26T08:13:23Z</time>
      </trkpt>
      <trkpt lat="46.82178" lon="5.9933">
        <ele>813.1</ele>
        <time>2022-05-26T08:13:26Z</time>
      </trkpt>
      <trkpt lat="46.82175" lon="5.99323">
        <ele>813.6</ele>
        <time>2022-05-26T08:13:30Z</time>
      </trkpt>
      <trkpt lat="46.82171" lon="5.99318">
        <ele>813.8</ele>
        <time>2022-05-26T08:13:34Z</time>
      </trkpt>
      <trkpt lat="46.82167" lon="5.99313">
        <ele>814.3</ele>
        <time>2022-05-26T08:13:38Z</time>
      </trkpt>
      <trkpt lat="46.82163" lon="5.99308">
        <ele>815.2</ele>
        <time>2022-05-26T08:13:42Z</time>
      </trkpt>
      <trkpt lat="46.82158" lon="5.99302">
        <ele>815.7</ele>
        <time>2022-05-26T08:13:46Z</time>
      </trkpt>
      <trkpt lat="46.82155" lon="5.99297">
        <ele>815.6</ele>
        <time>2022-05-26T08:13:49Z</time>
      </trkpt>
      <trkpt lat="46.82151" lon="5.99291">
        <ele>815.3</ele>
        <time>2022-05-26T08:13:53Z</time>
      </trkpt>
      <trkpt lat="46.82149" lon="5.99284">
        <ele>815.4</ele>
        <time>2022-05-26T08:13:57Z</time>
      </trkpt>
      <trkpt lat="46.82148" lon="5.99277">
        <ele>816</ele>
        <time>2022-05-26T08:14:02Z</time>
      </trkpt>
      <trkpt lat="46.82145" lon="5.99272">
        <ele>816.9</ele>
        <time>2022-05-26T08:14:08Z</time>
      </trkpt>
      <trkpt lat="46.82139" lon="5.9927">
        <ele>817.1</ele>
        <time>2022-05-26T08:14:12Z</time>
      </trkpt>
      <trkpt lat="46.82135" lon="5.99267">
        <ele>817.2</ele>
        <time>2022-05-26T08:14:16Z</time>
      </trkpt>
      <trkpt lat="46.8213" lon="5.99265">
        <ele>817.1</ele>
        <time>2022-05-26T08:14:19Z</time>
      </trkpt>
      <trkpt lat="46.82127" lon="5.9926">
        <ele>817.2</ele>
        <time>2022-05-26T08:14:24Z</time>
      </trkpt>
      <trkpt lat="46.82123" lon="5.99255">
        <ele>817.7</ele>
        <time>2022-05-26T08:14:29Z</time>
      </trkpt>
      <trkpt lat="46.82118" lon="5.9925">
        <ele>818.1</ele>
        <time>2022-05-26T08:14:33Z</time>
      </trkpt>
      <trkpt lat="46.82115" lon="5.99243">
        <ele>818.4</ele>
        <time>2022-05-26T08:14:37Z</time>
      </trkpt>
      <trkpt lat="46.82111" lon="5.99239">
        <ele>818.7</ele>
        <time>2022-05-26T08:14:42Z</time>
      </trkpt>
      <trkpt lat="46.82108" lon="5.99233">
        <ele>819</ele>
        <time>2022-05-26T08:14:49Z</time>
      </trkpt>
      <trkpt lat="46.82107" lon="5.99226">
        <ele>819.3</ele>
        <time>2022-05-26T08:14:54Z</time>
      </trkpt>
      <trkpt lat="46.82104" lon="5.99221">
        <ele>820.1</ele>
        <time>2022-05-26T08:14:58Z</time>
      </trkpt>
      <trkpt lat="46.821" lon="5.99217">
        <ele>820.8</ele>
        <time>2022-05-26T08:15:02Z</time>
      </trkpt>
      <trkpt lat="46.82096" lon="5.99213">
        <ele>821.5</ele>
        <time>2022-05-26T08:15:07Z</time>
      </trkpt>
      <trkpt lat="46.82092" lon="5.99209">
        <ele>821.6</ele>
        <time>2022-05-26T08:15:11Z</time>
      </trkpt>
      <trkpt lat="46.82087" lon="5.99204">
        <ele>821.4</ele>
        <time>2022-05-26T08:15:15Z</time>
      </trkpt>
      <trkpt lat="46.82084" lon="5.99197">
        <ele>821.5</ele>
        <time>2022-05-26T08:15:19Z</time>
      </trkpt>
      <trkpt lat="46.82079" lon="5.9919">
        <ele>822.2</ele>
        <time>2022-05-26T08:15:30Z</time>
      </trkpt>
      <trkpt lat="46.82074" lon="5.99187">
        <ele>822.3</ele>
        <time>2022-05-26T08:15:35Z</time>
      </trkpt>
      <trkpt lat="46.82069" lon="5.99183">
        <ele>822.2</ele>
        <time>2022-05-26T08:15:40Z</time>
      </trkpt>
      <trkpt lat="46.82065" lon="5.99178">
        <ele>822.1</ele>
        <time>2022-05-26T08:15:44Z</time>
      </trkpt>
      <trkpt lat="46.82062" lon="5.99172">
        <ele>821.9</ele>
        <time>2022-05-26T08:15:48Z</time>
      </trkpt>
      <trkpt lat="46.82059" lon="5.99167">
        <ele>821.7</ele>
        <time>2022-05-26T08:15:51Z</time>
      </trkpt>
      <trkpt lat="46.82055" lon="5.99161">
        <ele>821.6</ele>
        <time>2022-05-26T08:15:55Z</time>
      </trkpt>
      <trkpt lat="46.82051" lon="5.99158">
        <ele>821.2</ele>
        <time>2022-05-26T08:16:00Z</time>
      </trkpt>
      <trkpt lat="46.82046" lon="5.99156">
        <ele>820.8</ele>
        <time>2022-05-26T08:16:04Z</time>
      </trkpt>
      <trkpt lat="46.82042" lon="5.99152">
        <ele>820.5</ele>
        <time>2022-05-26T08:16:08Z</time>
      </trkpt>
      <trkpt lat="46.82038" lon="5.99149">
        <ele>820.1</ele>
        <time>2022-05-26T08:16:12Z</time>
      </trkpt>
      <trkpt lat="46.82034" lon="5.99145">
        <ele>819.9</ele>
        <time>2022-05-26T08:16:15Z</time>
      </trkpt>
      <trkpt lat="46.82031" lon="5.99141">
        <ele>820</ele>
        <time>2022-05-26T08:16:18Z</time>
      </trkpt>
      <trkpt lat="46.82027" lon="5.99136">
        <ele>820.2</ele>
        <time>2022-05-26T08:16:21Z</time>
      </trkpt>
      <trkpt lat="46.82024" lon="5.99128">
        <ele>821</ele>
        <time>2022-05-26T08:16:24Z</time>
      </trkpt>
      <trkpt lat="46.82021" lon="5.99121">
        <ele>822.3</ele>
        <time>2022-05-26T08:16:28Z</time>
      </trkpt>
      <trkpt lat="46.82017" lon="5.99118">
        <ele>823.4</ele>
        <time>2022-05-26T08:16:32Z</time>
      </trkpt>
      <trkpt lat="46.82012" lon="5.99114">
        <ele>824</ele>
        <time>2022-05-26T08:16:35Z</time>
      </trkpt>
      <trkpt lat="46.82007" lon="5.99111">
        <ele>824.5</ele>
        <time>2022-05-26T08:16:38Z</time>
      </trkpt>
      <trkpt lat="46.82004" lon="5.99104">
        <ele>825.4</ele>
        <time>2022-05-26T08:16:42Z</time>
      </trkpt>
      <trkpt lat="46.82" lon="5.991">
        <ele>826.3</ele>
        <time>2022-05-26T08:16:47Z</time>
      </trkpt>
      <trkpt lat="46.81997" lon="5.99094">
        <ele>826.4</ele>
        <time>2022-05-26T08:16:52Z</time>
      </trkpt>
      <trkpt lat="46.81995" lon="5.99089">
        <ele>825.9</ele>
        <time>2022-05-26T08:16:58Z</time>
      </trkpt>
      <trkpt lat="46.81991" lon="5.99084">
        <ele>824.9</ele>
        <time>2022-05-26T08:17:04Z</time>
      </trkpt>
      <trkpt lat="46.81987" lon="5.9908">
        <ele>822.7</ele>
        <time>2022-05-26T08:17:13Z</time>
      </trkpt>
      <trkpt lat="46.81985" lon="5.99074">
        <ele>821.7</ele>
        <time>2022-05-26T08:17:18Z</time>
      </trkpt>
      <trkpt lat="46.8198" lon="5.9907">
        <ele>821</ele>
        <time>2022-05-26T08:17:23Z</time>
      </trkpt>
      <trkpt lat="46.81975" lon="5.99067">
        <ele>820.5</ele>
        <time>2022-05-26T08:17:27Z</time>
      </trkpt>
      <trkpt lat="46.8197" lon="5.99063">
        <ele>820</ele>
        <time>2022-05-26T08:17:30Z</time>
      </trkpt>
      <trkpt lat="46.81966" lon="5.99057">
        <ele>820.3</ele>
        <time>2022-05-26T08:17:33Z</time>
      </trkpt>
      <trkpt lat="46.81961" lon="5.99054">
        <ele>819.3</ele>
        <time>2022-05-26T08:17:43Z</time>
      </trkpt>
      <trkpt lat="46.81957" lon="5.9905">
        <ele>819.1</ele>
        <time>2022-05-26T08:17:48Z</time>
      </trkpt>
      <trkpt lat="46.81952" lon="5.99045">
        <ele>819.1</ele>
        <time>2022-05-26T08:17:52Z</time>
      </trkpt>
      <trkpt lat="46.81947" lon="5.99042">
        <ele>819.4</ele>
        <time>2022-05-26T08:17:55Z</time>
      </trkpt>
      <trkpt lat="46.81942" lon="5.99039">
        <ele>819.5</ele>
        <time>2022-05-26T08:17:58Z</time>
      </trkpt>
      <trkpt lat="46.81937" lon="5.99035">
        <ele>819.5</ele>
        <time>2022-05-26T08:18:01Z</time>
      </trkpt>
      <trkpt lat="46.81933" lon="5.99032">
        <ele>819.4</ele>
        <time>2022-05-26T08:18:05Z</time>
      </trkpt>
      <trkpt lat="46.81928" lon="5.9903">
        <ele>819.2</ele>
        <time>2022-05-26T08:18:10Z</time>
      </trkpt>
      <trkpt lat="46.81923" lon="5.99028">
        <ele>819.1</ele>
        <time>2022-05-26T08:18:14Z</time>
      </trkpt>
      <trkpt lat="46.81918" lon="5.99028">
        <ele>819.7</ele>
        <time>2022-05-26T08:18:20Z</time>
      </trkpt>
      <trkpt lat="46.81914" lon="5.99027">
        <ele>819.7</ele>
        <time>2022-05-26T08:18:27Z</time>
      </trkpt>
      <trkpt lat="46.81909" lon="5.99023">
        <ele>819.5</ele>
        <time>2022-05-26T08:18:32Z</time>
      </trkpt>
      <trkpt lat="46.81905" lon="5.99019">
        <ele>819.2</ele>
        <time>2022-05-26T08:18:35Z</time>
      </trkpt>
      <trkpt lat="46.819" lon="5.99014">
        <ele>818.9</ele>
        <time>2022-05-26T08:18:39Z</time>
      </trkpt>
      <trkpt lat="46.81898" lon="5.99009">
        <ele>818.8</ele>
        <time>2022-05-26T08:18:42Z</time>
      </trkpt>
      <trkpt lat="46.81894" lon="5.99004">
        <ele>819.1</ele>
        <time>2022-05-26T08:18:46Z</time>
      </trkpt>
      <trkpt lat="46.8189" lon="5.99">
        <ele>819.8</ele>
        <time>2022-05-26T08:18:51Z</time>
      </trkpt>
      <trkpt lat="46.81886" lon="5.98998">
        <ele>820.3</ele>
        <time>2022-05-26T08:18:54Z</time>
      </trkpt>
      <trkpt lat="46.81881" lon="5.98995">
        <ele>820.9</ele>
        <time>2022-05-26T08:18:59Z</time>
      </trkpt>
      <trkpt lat="46.81878" lon="5.98992">
        <ele>821.5</ele>
        <time>2022-05-26T08:19:03Z</time>
      </trkpt>
      <trkpt lat="46.81873" lon="5.98987">
        <ele>822.8</ele>
        <time>2022-05-26T08:19:10Z</time>
      </trkpt>
      <trkpt lat="46.81869" lon="5.98982">
        <ele>823.3</ele>
        <time>2022-05-26T08:19:14Z</time>
      </trkpt>
      <trkpt lat="46.81866" lon="5.98976">
        <ele>824.1</ele>
        <time>2022-05-26T08:19:18Z</time>
      </trkpt>
      <trkpt lat="46.81862" lon="5.98972">
        <ele>825.3</ele>
        <time>2022-05-26T08:19:23Z</time>
      </trkpt>
      <trkpt lat="46.81858" lon="5.98973">
        <ele>826.1</ele>
        <time>2022-05-26T08:19:39Z</time>
      </trkpt>
      <trkpt lat="46.81853" lon="5.9897">
        <ele>826.5</ele>
        <time>2022-05-26T08:19:43Z</time>
      </trkpt>
      <trkpt lat="46.81848" lon="5.98965">
        <ele>827.2</ele>
        <time>2022-05-26T08:19:47Z</time>
      </trkpt>
      <trkpt lat="46.81845" lon="5.98961">
        <ele>827.7</ele>
        <time>2022-05-26T08:19:51Z</time>
      </trkpt>
      <trkpt lat="46.8184" lon="5.98958">
        <ele>828.2</ele>
        <time>2022-05-26T08:19:55Z</time>
      </trkpt>
      <trkpt lat="46.81835" lon="5.98955">
        <ele>828.7</ele>
        <time>2022-05-26T08:19:59Z</time>
      </trkpt>
      <trkpt lat="46.8183" lon="5.98951">
        <ele>829.1</ele>
        <time>2022-05-26T08:20:03Z</time>
      </trkpt>
      <trkpt lat="46.81826" lon="5.98948">
        <ele>829.5</ele>
        <time>2022-05-26T08:20:07Z</time>
      </trkpt>
      <trkpt lat="46.81821" lon="5.98945">
        <ele>830.3</ele>
        <time>2022-05-26T08:20:12Z</time>
      </trkpt>
      <trkpt lat="46.81817" lon="5.98939">
        <ele>831.3</ele>
        <time>2022-05-26T08:20:18Z</time>
      </trkpt>
      <trkpt lat="46.81813" lon="5.98936">
        <ele>832.2</ele>
        <time>2022-05-26T08:20:23Z</time>
      </trkpt>
      <trkpt lat="46.81809" lon="5.98934">
        <ele>832.9</ele>
        <time>2022-05-26T08:20:28Z</time>
      </trkpt>
      <trkpt lat="46.81804" lon="5.98932">
        <ele>833</ele>
        <time>2022-05-26T08:20:32Z</time>
      </trkpt>
      <trkpt lat="46.818" lon="5.9893">
        <ele>832.9</ele>
        <time>2022-05-26T08:20:36Z</time>
      </trkpt>
      <trkpt lat="46.81794" lon="5.98931">
        <ele>832.7</ele>
        <time>2022-05-26T08:20:41Z</time>
      </trkpt>
      <trkpt lat="46.81789" lon="5.98936">
        <ele>832.1</ele>
        <time>2022-05-26T08:20:44Z</time>
      </trkpt>
      <trkpt lat="46.81783" lon="5.98939">
        <ele>831.9</ele>
        <time>2022-05-26T08:20:47Z</time>
      </trkpt>
      <trkpt lat="46.81778" lon="5.9894">
        <ele>831.8</ele>
        <time>2022-05-26T08:20:50Z</time>
      </trkpt>
      <trkpt lat="46.81773" lon="5.98938">
        <ele>831.5</ele>
        <time>2022-05-26T08:20:54Z</time>
      </trkpt>
      <trkpt lat="46.81767" lon="5.98936">
        <ele>831.5</ele>
        <time>2022-05-26T08:20:57Z</time>
      </trkpt>
      <trkpt lat="46.81761" lon="5.98935">
        <ele>831.7</ele>
        <time>2022-05-26T08:21:00Z</time>
      </trkpt>
      <trkpt lat="46.81756" lon="5.98934">
        <ele>832.1</ele>
        <time>2022-05-26T08:21:03Z</time>
      </trkpt>
      <trkpt lat="46.81752" lon="5.98934">
        <ele>832.9</ele>
        <time>2022-05-26T08:21:06Z</time>
      </trkpt>
      <trkpt lat="46.81746" lon="5.98935">
        <ele>833.7</ele>
        <time>2022-05-26T08:21:11Z</time>
      </trkpt>
      <trkpt lat="46.81741" lon="5.98938">
        <ele>834.4</ele>
        <time>2022-05-26T08:21:15Z</time>
      </trkpt>
      <trkpt lat="46.81736" lon="5.9894">
        <ele>834.9</ele>
        <time>2022-05-26T08:21:19Z</time>
      </trkpt>
      <trkpt lat="46.81732" lon="5.98942">
        <ele>835.4</ele>
        <time>2022-05-26T08:21:22Z</time>
      </trkpt>
      <trkpt lat="46.81727" lon="5.98944">
        <ele>836.2</ele>
        <time>2022-05-26T08:21:26Z</time>
      </trkpt>
      <trkpt lat="46.81721" lon="5.98946">
        <ele>836.7</ele>
        <time>2022-05-26T08:21:30Z</time>
      </trkpt>
      <trkpt lat="46.81717" lon="5.98949">
        <ele>837</ele>
        <time>2022-05-26T08:21:34Z</time>
      </trkpt>
      <trkpt lat="46.81713" lon="5.98954">
        <ele>837.6</ele>
        <time>2022-05-26T08:21:39Z</time>
      </trkpt>
      <trkpt lat="46.81708" lon="5.98952">
        <ele>838.2</ele>
        <time>2022-05-26T08:21:43Z</time>
      </trkpt>
      <trkpt lat="46.81703" lon="5.98953">
        <ele>838.5</ele>
        <time>2022-05-26T08:21:48Z</time>
      </trkpt>
      <trkpt lat="46.81698" lon="5.98955">
        <ele>838.6</ele>
        <time>2022-05-26T08:21:55Z</time>
      </trkpt>
      <trkpt lat="46.81693" lon="5.98953">
        <ele>838.1</ele>
        <time>2022-05-26T08:22:01Z</time>
      </trkpt>
      <trkpt lat="46.81689" lon="5.98957">
        <ele>838.3</ele>
        <time>2022-05-26T08:22:04Z</time>
      </trkpt>
      <trkpt lat="46.81683" lon="5.98959">
        <ele>838.4</ele>
        <time>2022-05-26T08:22:07Z</time>
      </trkpt>
      <trkpt lat="46.81678" lon="5.9896">
        <ele>838.8</ele>
        <time>2022-05-26T08:22:11Z</time>
      </trkpt>
      <trkpt lat="46.81674" lon="5.98962">
        <ele>839.1</ele>
        <time>2022-05-26T08:22:15Z</time>
      </trkpt>
      <trkpt lat="46.81669" lon="5.98964">
        <ele>839.6</ele>
        <time>2022-05-26T08:22:20Z</time>
      </trkpt>
      <trkpt lat="46.81664" lon="5.98965">
        <ele>839.9</ele>
        <time>2022-05-26T08:22:28Z</time>
      </trkpt>
      <trkpt lat="46.8166" lon="5.98962">
        <ele>840.1</ele>
        <time>2022-05-26T08:22:32Z</time>
      </trkpt>
      <trkpt lat="46.81656" lon="5.98957">
        <ele>840.6</ele>
        <time>2022-05-26T08:22:35Z</time>
      </trkpt>
      <trkpt lat="46.81653" lon="5.98954">
        <ele>841.2</ele>
        <time>2022-05-26T08:22:38Z</time>
      </trkpt>
      <trkpt lat="46.81648" lon="5.98952">
        <ele>841.3</ele>
        <time>2022-05-26T08:22:41Z</time>
      </trkpt>
      <trkpt lat="46.81643" lon="5.98951">
        <ele>840.4</ele>
        <time>2022-05-26T08:22:46Z</time>
      </trkpt>
      <trkpt lat="46.81639" lon="5.98947">
        <ele>839.4</ele>
        <time>2022-05-26T08:22:51Z</time>
      </trkpt>
      <trkpt lat="46.81634" lon="5.98944">
        <ele>839.1</ele>
        <time>2022-05-26T08:22:56Z</time>
      </trkpt>
      <trkpt lat="46.81629" lon="5.98942">
        <ele>838.8</ele>
        <time>2022-05-26T08:23:00Z</time>
      </trkpt>
      <trkpt lat="46.81623" lon="5.98941">
        <ele>838.4</ele>
        <time>2022-05-26T08:23:03Z</time>
      </trkpt>
      <trkpt lat="46.81616" lon="5.98947">
        <ele>837.8</ele>
        <time>2022-05-26T08:23:06Z</time>
      </trkpt>
      <trkpt lat="46.81611" lon="5.98947">
        <ele>837.2</ele>
        <time>2022-05-26T08:23:09Z</time>
      </trkpt>
      <trkpt lat="46.81607" lon="5.98944">
        <ele>836.7</ele>
        <time>2022-05-26T08:23:12Z</time>
      </trkpt>
      <trkpt lat="46.81605" lon="5.98938">
        <ele>835</ele>
        <time>2022-05-26T08:23:20Z</time>
      </trkpt>
      <trkpt lat="46.81604" lon="5.98931">
        <ele>833.8</ele>
        <time>2022-05-26T08:23:25Z</time>
      </trkpt>
      <trkpt lat="46.81599" lon="5.98928">
        <ele>833.3</ele>
        <time>2022-05-26T08:23:30Z</time>
      </trkpt>
      <trkpt lat="46.81595" lon="5.98924">
        <ele>833.7</ele>
        <time>2022-05-26T08:23:36Z</time>
      </trkpt>
      <trkpt lat="46.81592" lon="5.98919">
        <ele>834.2</ele>
        <time>2022-05-26T08:23:40Z</time>
      </trkpt>
      <trkpt lat="46.81587" lon="5.98917">
        <ele>835.1</ele>
        <time>2022-05-26T08:23:44Z</time>
      </trkpt>
      <trkpt lat="46.81582" lon="5.98917">
        <ele>836.4</ele>
        <time>2022-05-26T08:23:48Z</time>
      </trkpt>
      <trkpt lat="46.81577" lon="5.98917">
        <ele>837</ele>
        <time>2022-05-26T08:23:51Z</time>
      </trkpt>
      <trkpt lat="46.8157" lon="5.98914">
        <ele>837.8</ele>
        <time>2022-05-26T08:23:54Z</time>
      </trkpt>
      <trkpt lat="46.81566" lon="5.98912">
        <ele>838.7</ele>
        <time>2022-05-26T08:23:57Z</time>
      </trkpt>
      <trkpt lat="46.81562" lon="5.98908">
        <ele>839.5</ele>
        <time>2022-05-26T08:24:03Z</time>
      </trkpt>
      <trkpt lat="46.81562" lon="5.98901">
        <ele>837.6</ele>
        <time>2022-05-26T08:24:12Z</time>
      </trkpt>
      <trkpt lat="46.81557" lon="5.989">
        <ele>836.1</ele>
        <time>2022-05-26T08:24:20Z</time>
      </trkpt>
      <trkpt lat="46.81551" lon="5.989">
        <ele>835.3</ele>
        <time>2022-05-26T08:24:24Z</time>
      </trkpt>
      <trkpt lat="46.81547" lon="5.98894">
        <ele>834.7</ele>
        <time>2022-05-26T08:24:28Z</time>
      </trkpt>
      <trkpt lat="46.81548" lon="5.98887">
        <ele>833.6</ele>
        <time>2022-05-26T08:24:31Z</time>
      </trkpt>
      <trkpt lat="46.81547" lon="5.9888">
        <ele>832.3</ele>
        <time>2022-05-26T08:24:37Z</time>
      </trkpt>
      <trkpt lat="46.81541" lon="5.98879">
        <ele>831.5</ele>
        <time>2022-05-26T08:24:43Z</time>
      </trkpt>
      <trkpt lat="46.81536" lon="5.98879">
        <ele>831</ele>
        <time>2022-05-26T08:24:47Z</time>
      </trkpt>
      <trkpt lat="46.8153" lon="5.98881">
        <ele>830.8</ele>
        <time>2022-05-26T08:24:50Z</time>
      </trkpt>
      <trkpt lat="46.81526" lon="5.98882">
        <ele>830.9</ele>
        <time>2022-05-26T08:24:53Z</time>
      </trkpt>
      <trkpt lat="46.81521" lon="5.98883">
        <ele>831</ele>
        <time>2022-05-26T08:24:59Z</time>
      </trkpt>
      <trkpt lat="46.81516" lon="5.98881">
        <ele>831.5</ele>
        <time>2022-05-26T08:25:03Z</time>
      </trkpt>
      <trkpt lat="46.8151" lon="5.98878">
        <ele>832.6</ele>
        <time>2022-05-26T08:25:07Z</time>
      </trkpt>
      <trkpt lat="46.81505" lon="5.98874">
        <ele>834</ele>
        <time>2022-05-26T08:25:10Z</time>
      </trkpt>
      <trkpt lat="46.81501" lon="5.98872">
        <ele>835.3</ele>
        <time>2022-05-26T08:25:13Z</time>
      </trkpt>
      <trkpt lat="46.81496" lon="5.98871">
        <ele>836.3</ele>
        <time>2022-05-26T08:25:16Z</time>
      </trkpt>
      <trkpt lat="46.81492" lon="5.98871">
        <ele>837.1</ele>
        <time>2022-05-26T08:25:19Z</time>
      </trkpt>
      <trkpt lat="46.81487" lon="5.98871">
        <ele>838.2</ele>
        <time>2022-05-26T08:25:23Z</time>
      </trkpt>
      <trkpt lat="46.81482" lon="5.98867">
        <ele>839.3</ele>
        <time>2022-05-26T08:25:31Z</time>
      </trkpt>
      <trkpt lat="46.81477" lon="5.98863">
        <ele>839.6</ele>
        <time>2022-05-26T08:25:34Z</time>
      </trkpt>
      <trkpt lat="46.81472" lon="5.98861">
        <ele>840</ele>
        <time>2022-05-26T08:25:37Z</time>
      </trkpt>
      <trkpt lat="46.81466" lon="5.98858">
        <ele>840.4</ele>
        <time>2022-05-26T08:25:41Z</time>
      </trkpt>
      <trkpt lat="46.81461" lon="5.98858">
        <ele>840.8</ele>
        <time>2022-05-26T08:25:44Z</time>
      </trkpt>
      <trkpt lat="46.81457" lon="5.98854">
        <ele>841.3</ele>
        <time>2022-05-26T08:25:48Z</time>
      </trkpt>
      <trkpt lat="46.81455" lon="5.98848">
        <ele>841.6</ele>
        <time>2022-05-26T08:25:53Z</time>
      </trkpt>
      <trkpt lat="46.81449" lon="5.98846">
        <ele>841.8</ele>
        <time>2022-05-26T08:25:57Z</time>
      </trkpt>
      <trkpt lat="46.81444" lon="5.98847">
        <ele>842</ele>
        <time>2022-05-26T08:26:01Z</time>
      </trkpt>
      <trkpt lat="46.81439" lon="5.98848">
        <ele>842.7</ele>
        <time>2022-05-26T08:26:07Z</time>
      </trkpt>
      <trkpt lat="46.81435" lon="5.98845">
        <ele>844.1</ele>
        <time>2022-05-26T08:26:19Z</time>
      </trkpt>
      <trkpt lat="46.8143" lon="5.98845">
        <ele>844.4</ele>
        <time>2022-05-26T08:26:24Z</time>
      </trkpt>
      <trkpt lat="46.81425" lon="5.98843">
        <ele>844.1</ele>
        <time>2022-05-26T08:26:28Z</time>
      </trkpt>
      <trkpt lat="46.8142" lon="5.9884">
        <ele>843.8</ele>
        <time>2022-05-26T08:26:32Z</time>
      </trkpt>
      <trkpt lat="46.81416" lon="5.98837">
        <ele>843.7</ele>
        <time>2022-05-26T08:26:35Z</time>
      </trkpt>
      <trkpt lat="46.81411" lon="5.98834">
        <ele>843.7</ele>
        <time>2022-05-26T08:26:38Z</time>
      </trkpt>
      <trkpt lat="46.81405" lon="5.98834">
        <ele>843.9</ele>
        <time>2022-05-26T08:26:41Z</time>
      </trkpt>
      <trkpt lat="46.81399" lon="5.98832">
        <ele>844.3</ele>
        <time>2022-05-26T08:26:44Z</time>
      </trkpt>
      <trkpt lat="46.81394" lon="5.9883">
        <ele>845.1</ele>
        <time>2022-05-26T08:26:47Z</time>
      </trkpt>
      <trkpt lat="46.81389" lon="5.98826">
        <ele>846.3</ele>
        <time>2022-05-26T08:26:52Z</time>
      </trkpt>
      <trkpt lat="46.81384" lon="5.98821">
        <ele>847.3</ele>
        <time>2022-05-26T08:26:57Z</time>
      </trkpt>
      <trkpt lat="46.8138" lon="5.98816">
        <ele>847.8</ele>
        <time>2022-05-26T08:27:01Z</time>
      </trkpt>
      <trkpt lat="46.81379" lon="5.9881">
        <ele>848.7</ele>
        <time>2022-05-26T08:27:06Z</time>
      </trkpt>
      <trkpt lat="46.81378" lon="5.98803">
        <ele>849.2</ele>
        <time>2022-05-26T08:27:10Z</time>
      </trkpt>
      <trkpt lat="46.81375" lon="5.98798">
        <ele>849.4</ele>
        <time>2022-05-26T08:27:14Z</time>
      </trkpt>
      <trkpt lat="46.81369" lon="5.98796">
        <ele>849.2</ele>
        <time>2022-05-26T08:27:19Z</time>
      </trkpt>
      <trkpt lat="46.81366" lon="5.98791">
        <ele>847.9</ele>
        <time>2022-05-26T08:27:27Z</time>
      </trkpt>
      <trkpt lat="46.81362" lon="5.98784">
        <ele>847.4</ele>
        <time>2022-05-26T08:27:30Z</time>
      </trkpt>
      <trkpt lat="46.81358" lon="5.98774">
        <ele>846.1</ele>
        <time>2022-05-26T08:27:33Z</time>
      </trkpt>
      <trkpt lat="46.81352" lon="5.98769">
        <ele>844.8</ele>
        <time>2022-05-26T08:27:36Z</time>
      </trkpt>
      <trkpt lat="46.81348" lon="5.98767">
        <ele>843.4</ele>
        <time>2022-05-26T08:27:40Z</time>
      </trkpt>
      <trkpt lat="46.81348" lon="5.9876">
        <ele>842.9</ele>
        <time>2022-05-26T08:27:46Z</time>
      </trkpt>
      <trkpt lat="46.81351" lon="5.98753">
        <ele>843.3</ele>
        <time>2022-05-26T08:27:50Z</time>
      </trkpt>
      <trkpt lat="46.81352" lon="5.98746">
        <ele>844.2</ele>
        <time>2022-05-26T08:27:56Z</time>
      </trkpt>
      <trkpt lat="46.8135" lon="5.98739">
        <ele>844.6</ele>
        <time>2022-05-26T08:28:00Z</time>
      </trkpt>
      <trkpt lat="46.81349" lon="5.98731">
        <ele>844.9</ele>
        <time>2022-05-26T08:28:03Z</time>
      </trkpt>
      <trkpt lat="46.8135" lon="5.98722">
        <ele>845.2</ele>
        <time>2022-05-26T08:28:07Z</time>
      </trkpt>
      <trkpt lat="46.81349" lon="5.98713">
        <ele>845.5</ele>
        <time>2022-05-26T08:28:10Z</time>
      </trkpt>
      <trkpt lat="46.81348" lon="5.98705">
        <ele>846</ele>
        <time>2022-05-26T08:28:14Z</time>
      </trkpt>
      <trkpt lat="46.81348" lon="5.98698">
        <ele>846.2</ele>
        <time>2022-05-26T08:28:18Z</time>
      </trkpt>
      <trkpt lat="46.81347" lon="5.98691">
        <ele>845</ele>
        <time>2022-05-26T08:28:29Z</time>
      </trkpt>
      <trkpt lat="46.81343" lon="5.98687">
        <ele>845.2</ele>
        <time>2022-05-26T08:28:32Z</time>
      </trkpt>
      <trkpt lat="46.8134" lon="5.98683">
        <ele>845.7</ele>
        <time>2022-05-26T08:28:35Z</time>
      </trkpt>
      <trkpt lat="46.81336" lon="5.98678">
        <ele>846.3</ele>
        <time>2022-05-26T08:28:38Z</time>
      </trkpt>
      <trkpt lat="46.81332" lon="5.98672">
        <ele>847</ele>
        <time>2022-05-26T08:28:42Z</time>
      </trkpt>
      <trkpt lat="46.81329" lon="5.98667">
        <ele>848.1</ele>
        <time>2022-05-26T08:28:46Z</time>
      </trkpt>
      <trkpt lat="46.81323" lon="5.98665">
        <ele>849.1</ele>
        <time>2022-05-26T08:28:50Z</time>
      </trkpt>
      <trkpt lat="46.81318" lon="5.98663">
        <ele>849.9</ele>
        <time>2022-05-26T08:28:54Z</time>
      </trkpt>
      <trkpt lat="46.81313" lon="5.9866">
        <ele>850.6</ele>
        <time>2022-05-26T08:28:59Z</time>
      </trkpt>
      <trkpt lat="46.81308" lon="5.9866">
        <ele>850.3</ele>
        <time>2022-05-26T08:29:06Z</time>
      </trkpt>
      <trkpt lat="46.81303" lon="5.98657">
        <ele>849</ele>
        <time>2022-05-26T08:29:11Z</time>
      </trkpt>
      <trkpt lat="46.81299" lon="5.98653">
        <ele>847.7</ele>
        <time>2022-05-26T08:29:16Z</time>
      </trkpt>
      <trkpt lat="46.81294" lon="5.9865">
        <ele>846.8</ele>
        <time>2022-05-26T08:29:20Z</time>
      </trkpt>
      <trkpt lat="46.81289" lon="5.98648">
        <ele>846.2</ele>
        <time>2022-05-26T08:29:23Z</time>
      </trkpt>
      <trkpt lat="46.81285" lon="5.98645">
        <ele>845.8</ele>
        <time>2022-05-26T08:29:26Z</time>
      </trkpt>
      <trkpt lat="46.8128" lon="5.98642">
        <ele>845.9</ele>
        <time>2022-05-26T08:29:29Z</time>
      </trkpt>
      <trkpt lat="46.81275" lon="5.9864">
        <ele>846.2</ele>
        <time>2022-05-26T08:29:33Z</time>
      </trkpt>
      <trkpt lat="46.81269" lon="5.98638">
        <ele>846.5</ele>
        <time>2022-05-26T08:29:36Z</time>
      </trkpt>
      <trkpt lat="46.81265" lon="5.98633">
        <ele>847.3</ele>
        <time>2022-05-26T08:29:41Z</time>
      </trkpt>
      <trkpt lat="46.81262" lon="5.98627">
        <ele>848</ele>
        <time>2022-05-26T08:29:45Z</time>
      </trkpt>
      <trkpt lat="46.81262" lon="5.9862">
        <ele>848.6</ele>
        <time>2022-05-26T08:29:48Z</time>
      </trkpt>
      <trkpt lat="46.81257" lon="5.98618">
        <ele>849.1</ele>
        <time>2022-05-26T08:29:55Z</time>
      </trkpt>
      <trkpt lat="46.81251" lon="5.98614">
        <ele>848.9</ele>
        <time>2022-05-26T08:29:59Z</time>
      </trkpt>
      <trkpt lat="46.81247" lon="5.98608">
        <ele>848.3</ele>
        <time>2022-05-26T08:30:02Z</time>
      </trkpt>
      <trkpt lat="46.81243" lon="5.98601">
        <ele>846.9</ele>
        <time>2022-05-26T08:30:05Z</time>
      </trkpt>
      <trkpt lat="46.81239" lon="5.98598">
        <ele>845.2</ele>
        <time>2022-05-26T08:30:09Z</time>
      </trkpt>
      <trkpt lat="46.81234" lon="5.98597">
        <ele>844.8</ele>
        <time>2022-05-26T08:30:14Z</time>
      </trkpt>
      <trkpt lat="46.81229" lon="5.98597">
        <ele>846.5</ele>
        <time>2022-05-26T08:30:19Z</time>
      </trkpt>
      <trkpt lat="46.81224" lon="5.98597">
        <ele>847.4</ele>
        <time>2022-05-26T08:30:23Z</time>
      </trkpt>
      <trkpt lat="46.8122" lon="5.98593">
        <ele>848.5</ele>
        <time>2022-05-26T08:30:27Z</time>
      </trkpt>
      <trkpt lat="46.81217" lon="5.98587">
        <ele>849.4</ele>
        <time>2022-05-26T08:30:32Z</time>
      </trkpt>
      <trkpt lat="46.81214" lon="5.98581">
        <ele>850.1</ele>
        <time>2022-05-26T08:30:37Z</time>
      </trkpt>
      <trkpt lat="46.81211" lon="5.98576">
        <ele>850.2</ele>
        <time>2022-05-26T08:30:41Z</time>
      </trkpt>
      <trkpt lat="46.81209" lon="5.98569">
        <ele>850</ele>
        <time>2022-05-26T08:30:46Z</time>
      </trkpt>
      <trkpt lat="46.81206" lon="5.98563">
        <ele>849.6</ele>
        <time>2022-05-26T08:30:52Z</time>
      </trkpt>
      <trkpt lat="46.81203" lon="5.98557">
        <ele>849</ele>
        <time>2022-05-26T08:30:57Z</time>
      </trkpt>
      <trkpt lat="46.81199" lon="5.98552">
        <ele>848.1</ele>
        <time>2022-05-26T08:31:01Z</time>
      </trkpt>
      <trkpt lat="46.81195" lon="5.98549">
        <ele>846.8</ele>
        <time>2022-05-26T08:31:08Z</time>
      </trkpt>
      <trkpt lat="46.81191" lon="5.98545">
        <ele>844.9</ele>
        <time>2022-05-26T08:31:20Z</time>
      </trkpt>
      <trkpt lat="46.81188" lon="5.98538">
        <ele>844.7</ele>
        <time>2022-05-26T08:31:23Z</time>
      </trkpt>
      <trkpt lat="46.81186" lon="5.9853">
        <ele>844.4</ele>
        <time>2022-05-26T08:31:26Z</time>
      </trkpt>
      <trkpt lat="46.81183" lon="5.98522">
        <ele>843.9</ele>
        <time>2022-05-26T08:31:30Z</time>
      </trkpt>
      <trkpt lat="46.8118" lon="5.98515">
        <ele>843.9</ele>
        <time>2022-05-26T08:31:33Z</time>
      </trkpt>
      <trkpt lat="46.81175" lon="5.98509">
        <ele>844.2</ele>
        <time>2022-05-26T08:31:36Z</time>
      </trkpt>
      <trkpt lat="46.81172" lon="5.98503">
        <ele>844.5</ele>
        <time>2022-05-26T08:31:39Z</time>
      </trkpt>
      <trkpt lat="46.81168" lon="5.98498">
        <ele>844.9</ele>
        <time>2022-05-26T08:31:42Z</time>
      </trkpt>
      <trkpt lat="46.81165" lon="5.98492">
        <ele>845.2</ele>
        <time>2022-05-26T08:31:46Z</time>
      </trkpt>
      <trkpt lat="46.81165" lon="5.98485">
        <ele>845.1</ele>
        <time>2022-05-26T08:31:54Z</time>
      </trkpt>
      <trkpt lat="46.81164" lon="5.98478">
        <ele>845.1</ele>
        <time>2022-05-26T08:31:58Z</time>
      </trkpt>
      <trkpt lat="46.81163" lon="5.9847">
        <ele>845.2</ele>
        <time>2022-05-26T08:32:02Z</time>
      </trkpt>
      <trkpt lat="46.81164" lon="5.98462">
        <ele>845.1</ele>
        <time>2022-05-26T08:32:06Z</time>
      </trkpt>
      <trkpt lat="46.81164" lon="5.98454">
        <ele>844.8</ele>
        <time>2022-05-26T08:32:09Z</time>
      </trkpt>
      <trkpt lat="46.81164" lon="5.98448">
        <ele>844.2</ele>
        <time>2022-05-26T08:32:13Z</time>
      </trkpt>
      <trkpt lat="46.81162" lon="5.9844">
        <ele>843.6</ele>
        <time>2022-05-26T08:32:18Z</time>
      </trkpt>
      <trkpt lat="46.81159" lon="5.98434">
        <ele>843.6</ele>
        <time>2022-05-26T08:32:22Z</time>
      </trkpt>
      <trkpt lat="46.81156" lon="5.98429">
        <ele>843.8</ele>
        <time>2022-05-26T08:32:25Z</time>
      </trkpt>
      <trkpt lat="46.81154" lon="5.98421">
        <ele>844.5</ele>
        <time>2022-05-26T08:32:29Z</time>
      </trkpt>
      <trkpt lat="46.81153" lon="5.98414">
        <ele>845.4</ele>
        <time>2022-05-26T08:32:33Z</time>
      </trkpt>
      <trkpt lat="46.81152" lon="5.98407">
        <ele>846.2</ele>
        <time>2022-05-26T08:32:40Z</time>
      </trkpt>
      <trkpt lat="46.81151" lon="5.98401">
        <ele>846.6</ele>
        <time>2022-05-26T08:32:45Z</time>
      </trkpt>
      <trkpt lat="46.81149" lon="5.98394">
        <ele>846.5</ele>
        <time>2022-05-26T08:32:51Z</time>
      </trkpt>
      <trkpt lat="46.81147" lon="5.98387">
        <ele>845.8</ele>
        <time>2022-05-26T08:32:56Z</time>
      </trkpt>
      <trkpt lat="46.8115" lon="5.98382">
        <ele>843.3</ele>
        <time>2022-05-26T08:33:04Z</time>
      </trkpt>
      <trkpt lat="46.81151" lon="5.98375">
        <ele>841.4</ele>
        <time>2022-05-26T08:33:09Z</time>
      </trkpt>
      <trkpt lat="46.81152" lon="5.98368">
        <ele>839.1</ele>
        <time>2022-05-26T08:33:14Z</time>
      </trkpt>
      <trkpt lat="46.8115" lon="5.9836">
        <ele>837.5</ele>
        <time>2022-05-26T08:33:20Z</time>
      </trkpt>
      <trkpt lat="46.81149" lon="5.98353">
        <ele>836.8</ele>
        <time>2022-05-26T08:33:24Z</time>
      </trkpt>
      <trkpt lat="46.81146" lon="5.98345">
        <ele>836.5</ele>
        <time>2022-05-26T08:33:27Z</time>
      </trkpt>
      <trkpt lat="46.81142" lon="5.98337">
        <ele>836.3</ele>
        <time>2022-05-26T08:33:30Z</time>
      </trkpt>
      <trkpt lat="46.8114" lon="5.98331">
        <ele>836.1</ele>
        <time>2022-05-26T08:33:33Z</time>
      </trkpt>
      <trkpt lat="46.81137" lon="5.98326">
        <ele>835.9</ele>
        <time>2022-05-26T08:33:37Z</time>
      </trkpt>
      <trkpt lat="46.81136" lon="5.98319">
        <ele>835.4</ele>
        <time>2022-05-26T08:33:42Z</time>
      </trkpt>
      <trkpt lat="46.81135" lon="5.9831">
        <ele>835.2</ele>
        <time>2022-05-26T08:33:46Z</time>
      </trkpt>
      <trkpt lat="46.81132" lon="5.98302">
        <ele>835.5</ele>
        <time>2022-05-26T08:33:49Z</time>
      </trkpt>
      <trkpt lat="46.8113" lon="5.98295">
        <ele>836</ele>
        <time>2022-05-26T08:33:52Z</time>
      </trkpt>
      <trkpt lat="46.81128" lon="5.98289">
        <ele>837.1</ele>
        <time>2022-05-26T08:33:55Z</time>
      </trkpt>
      <trkpt lat="46.81124" lon="5.98282">
        <ele>838.4</ele>
        <time>2022-05-26T08:33:59Z</time>
      </trkpt>
      <trkpt lat="46.81121" lon="5.98276">
        <ele>839.3</ele>
        <time>2022-05-26T08:34:03Z</time>
      </trkpt>
      <trkpt lat="46.81119" lon="5.98269">
        <ele>840</ele>
        <time>2022-05-26T08:34:07Z</time>
      </trkpt>
      <trkpt lat="46.81117" lon="5.98263">
        <ele>840.5</ele>
        <time>2022-05-26T08:34:11Z</time>
      </trkpt>
      <trkpt lat="46.81113" lon="5.98258">
        <ele>841.2</ele>
        <time>2022-05-26T08:34:14Z</time>
      </trkpt>
      <trkpt lat="46.81109" lon="5.98253">
        <ele>841.8</ele>
        <time>2022-05-26T08:34:17Z</time>
      </trkpt>
      <trkpt lat="46.81104" lon="5.98248">
        <ele>842.3</ele>
        <time>2022-05-26T08:34:20Z</time>
      </trkpt>
      <trkpt lat="46.81102" lon="5.98242">
        <ele>842.7</ele>
        <time>2022-05-26T08:34:24Z</time>
      </trkpt>
      <trkpt lat="46.81102" lon="5.98235">
        <ele>842.7</ele>
        <time>2022-05-26T08:34:29Z</time>
      </trkpt>
      <trkpt lat="46.81101" lon="5.98228">
        <ele>842.5</ele>
        <time>2022-05-26T08:34:35Z</time>
      </trkpt>
      <trkpt lat="46.81097" lon="5.98223">
        <ele>841.8</ele>
        <time>2022-05-26T08:34:40Z</time>
      </trkpt>
      <trkpt lat="46.81093" lon="5.98222">
        <ele>839.5</ele>
        <time>2022-05-26T08:34:47Z</time>
      </trkpt>
      <trkpt lat="46.81089" lon="5.98217">
        <ele>837.1</ele>
        <time>2022-05-26T08:34:52Z</time>
      </trkpt>
      <trkpt lat="46.81085" lon="5.98213">
        <ele>834.7</ele>
        <time>2022-05-26T08:34:57Z</time>
      </trkpt>
      <trkpt lat="46.8108" lon="5.98211">
        <ele>832.6</ele>
        <time>2022-05-26T08:35:03Z</time>
      </trkpt>
      <trkpt lat="46.81075" lon="5.98211">
        <ele>829.4</ele>
        <time>2022-05-26T08:35:11Z</time>
      </trkpt>
      <trkpt lat="46.81071" lon="5.98207">
        <ele>827.9</ele>
        <time>2022-05-26T08:35:16Z</time>
      </trkpt>
      <trkpt lat="46.81066" lon="5.98205">
        <ele>826.6</ele>
        <time>2022-05-26T08:35:20Z</time>
      </trkpt>
      <trkpt lat="46.81061" lon="5.98201">
        <ele>824.7</ele>
        <time>2022-05-26T08:35:25Z</time>
      </trkpt>
      <trkpt lat="46.81057" lon="5.98197">
        <ele>822.9</ele>
        <time>2022-05-26T08:35:30Z</time>
      </trkpt>
      <trkpt lat="46.81052" lon="5.98196">
        <ele>820.9</ele>
        <time>2022-05-26T08:35:36Z</time>
      </trkpt>
      <trkpt lat="46.81048" lon="5.98195">
        <ele>819.8</ele>
        <time>2022-05-26T08:35:40Z</time>
      </trkpt>
      <trkpt lat="46.81043" lon="5.98194">
        <ele>819.2</ele>
        <time>2022-05-26T08:35:43Z</time>
      </trkpt>
      <trkpt lat="46.81037" lon="5.98192">
        <ele>818.9</ele>
        <time>2022-05-26T08:35:46Z</time>
      </trkpt>
      <trkpt lat="46.81032" lon="5.9819">
        <ele>818.8</ele>
        <time>2022-05-26T08:35:49Z</time>
      </trkpt>
      <trkpt lat="46.81027" lon="5.98188">
        <ele>819.4</ele>
        <time>2022-05-26T08:35:52Z</time>
      </trkpt>
      <trkpt lat="46.81021" lon="5.98186">
        <ele>820</ele>
        <time>2022-05-26T08:35:55Z</time>
      </trkpt>
      <trkpt lat="46.81015" lon="5.98185">
        <ele>820.6</ele>
        <time>2022-05-26T08:35:58Z</time>
      </trkpt>
      <trkpt lat="46.8101" lon="5.98182">
        <ele>821.1</ele>
        <time>2022-05-26T08:36:02Z</time>
      </trkpt>
      <trkpt lat="46.81004" lon="5.98179">
        <ele>821.8</ele>
        <time>2022-05-26T08:36:06Z</time>
      </trkpt>
      <trkpt lat="46.80999" lon="5.98178">
        <ele>822.3</ele>
        <time>2022-05-26T08:36:09Z</time>
      </trkpt>
      <trkpt lat="46.80994" lon="5.98176">
        <ele>822.2</ele>
        <time>2022-05-26T08:36:17Z</time>
      </trkpt>
      <trkpt lat="46.80989" lon="5.98174">
        <ele>821.4</ele>
        <time>2022-05-26T08:36:23Z</time>
      </trkpt>
      <trkpt lat="46.80984" lon="5.98177">
        <ele>820.1</ele>
        <time>2022-05-26T08:36:28Z</time>
      </trkpt>
      <trkpt lat="46.80981" lon="5.98182">
        <ele>818.9</ele>
        <time>2022-05-26T08:36:33Z</time>
      </trkpt>
      <trkpt lat="46.80977" lon="5.98187">
        <ele>817.7</ele>
        <time>2022-05-26T08:36:38Z</time>
      </trkpt>
      <trkpt lat="46.80971" lon="5.98187">
        <ele>817.4</ele>
        <time>2022-05-26T08:36:41Z</time>
      </trkpt>
      <trkpt lat="46.80967" lon="5.98186">
        <ele>817.2</ele>
        <time>2022-05-26T08:36:44Z</time>
      </trkpt>
      <trkpt lat="46.80962" lon="5.98186">
        <ele>816.4</ele>
        <time>2022-05-26T08:36:51Z</time>
      </trkpt>
      <trkpt lat="46.80956" lon="5.98187">
        <ele>816.5</ele>
        <time>2022-05-26T08:36:58Z</time>
      </trkpt>
      <trkpt lat="46.80952" lon="5.98191">
        <ele>816.9</ele>
        <time>2022-05-26T08:37:02Z</time>
      </trkpt>
      <trkpt lat="46.80948" lon="5.98195">
        <ele>818.1</ele>
        <time>2022-05-26T08:37:13Z</time>
      </trkpt>
      <trkpt lat="46.80946" lon="5.98201">
        <ele>819.3</ele>
        <time>2022-05-26T08:37:44Z</time>
      </trkpt>
      <trkpt lat="46.80945" lon="5.98194">
        <ele>822.8</ele>
        <time>2022-05-26T08:38:27Z</time>
      </trkpt>
      <trkpt lat="46.80947" lon="5.98188">
        <ele>823</ele>
        <time>2022-05-26T08:38:34Z</time>
      </trkpt>
      <trkpt lat="46.80952" lon="5.98185">
        <ele>823.6</ele>
        <time>2022-05-26T08:39:02Z</time>
      </trkpt>
      <trkpt lat="46.80951" lon="5.98192">
        <ele>826.1</ele>
        <time>2022-05-26T08:39:14Z</time>
      </trkpt>
      <trkpt lat="46.80947" lon="5.98196">
        <ele>826.5</ele>
        <time>2022-05-26T08:39:30Z</time>
      </trkpt>
      <trkpt lat="46.80947" lon="5.98202">
        <ele>826.2</ele>
        <time>2022-05-26T08:39:37Z</time>
      </trkpt>
      <trkpt lat="46.80948" lon="5.982">
        <ele>827.5</ele>
        <time>2022-05-26T08:39:50Z</time>
      </trkpt>
      <trkpt lat="46.80943" lon="5.98197">
        <ele>829</ele>
        <time>2022-05-26T08:40:15Z</time>
      </trkpt>
      <trkpt lat="46.80945" lon="5.98191">
        <ele>827.7</ele>
        <time>2022-05-26T08:40:28Z</time>
      </trkpt>
      <trkpt lat="46.80941" lon="5.98191">
        <ele>826.8</ele>
        <time>2022-05-26T08:40:40Z</time>
      </trkpt>
      <trkpt lat="46.80936" lon="5.98192">
        <ele>827.3</ele>
        <time>2022-05-26T08:40:44Z</time>
      </trkpt>
      <trkpt lat="46.80932" lon="5.98188">
        <ele>828</ele>
        <time>2022-05-26T08:40:49Z</time>
      </trkpt>
      <trkpt lat="46.80928" lon="5.98186">
        <ele>829.1</ele>
        <time>2022-05-26T08:40:54Z</time>
      </trkpt>
      <trkpt lat="46.80924" lon="5.98183">
        <ele>829.2</ele>
        <time>2022-05-26T08:40:59Z</time>
      </trkpt>
      <trkpt lat="46.80919" lon="5.98181">
        <ele>829.5</ele>
        <time>2022-05-26T08:41:06Z</time>
      </trkpt>
      <trkpt lat="46.80914" lon="5.98182">
        <ele>830.4</ele>
        <time>2022-05-26T08:41:10Z</time>
      </trkpt>
      <trkpt lat="46.8091" lon="5.98177">
        <ele>831.4</ele>
        <time>2022-05-26T08:41:15Z</time>
      </trkpt>
      <trkpt lat="46.80907" lon="5.98172">
        <ele>831.5</ele>
        <time>2022-05-26T08:41:21Z</time>
      </trkpt>
      <trkpt lat="46.80904" lon="5.98166">
        <ele>831.5</ele>
        <time>2022-05-26T08:41:26Z</time>
      </trkpt>
      <trkpt lat="46.80902" lon="5.98161">
        <ele>831.3</ele>
        <time>2022-05-26T08:41:30Z</time>
      </trkpt>
      <trkpt lat="46.80898" lon="5.98156">
        <ele>831.1</ele>
        <time>2022-05-26T08:41:34Z</time>
      </trkpt>
      <trkpt lat="46.80893" lon="5.98152">
        <ele>830.9</ele>
        <time>2022-05-26T08:41:39Z</time>
      </trkpt>
      <trkpt lat="46.8089" lon="5.98148">
        <ele>831.2</ele>
        <time>2022-05-26T08:41:43Z</time>
      </trkpt>
      <trkpt lat="46.80888" lon="5.98141">
        <ele>831.8</ele>
        <time>2022-05-26T08:41:47Z</time>
      </trkpt>
      <trkpt lat="46.80885" lon="5.98136">
        <ele>832.1</ele>
        <time>2022-05-26T08:41:52Z</time>
      </trkpt>
      <trkpt lat="46.80884" lon="5.98128">
        <ele>832.1</ele>
        <time>2022-05-26T08:41:56Z</time>
      </trkpt>
      <trkpt lat="46.80884" lon="5.9812">
        <ele>831.9</ele>
        <time>2022-05-26T08:42:00Z</time>
      </trkpt>
      <trkpt lat="46.80882" lon="5.98113">
        <ele>832.1</ele>
        <time>2022-05-26T08:42:04Z</time>
      </trkpt>
      <trkpt lat="46.80879" lon="5.98108">
        <ele>832.3</ele>
        <time>2022-05-26T08:42:09Z</time>
      </trkpt>
      <trkpt lat="46.80875" lon="5.98103">
        <ele>831.4</ele>
        <time>2022-05-26T08:42:14Z</time>
      </trkpt>
      <trkpt lat="46.8087" lon="5.981">
        <ele>830.2</ele>
        <time>2022-05-26T08:42:19Z</time>
      </trkpt>
      <trkpt lat="46.80865" lon="5.98099">
        <ele>829.7</ele>
        <time>2022-05-26T08:42:23Z</time>
      </trkpt>
      <trkpt lat="46.80861" lon="5.98095">
        <ele>829.7</ele>
        <time>2022-05-26T08:42:27Z</time>
      </trkpt>
      <trkpt lat="46.80856" lon="5.98092">
        <ele>829.9</ele>
        <time>2022-05-26T08:42:31Z</time>
      </trkpt>
      <trkpt lat="46.80853" lon="5.98086">
        <ele>829.6</ele>
        <time>2022-05-26T08:42:36Z</time>
      </trkpt>
      <trkpt lat="46.80851" lon="5.98079">
        <ele>829</ele>
        <time>2022-05-26T08:42:39Z</time>
      </trkpt>
      <trkpt lat="46.8085" lon="5.98072">
        <ele>828.1</ele>
        <time>2022-05-26T08:42:42Z</time>
      </trkpt>
      <trkpt lat="46.80849" lon="5.98065">
        <ele>826.7</ele>
        <time>2022-05-26T08:42:46Z</time>
      </trkpt>
      <trkpt lat="46.80846" lon="5.98058">
        <ele>825.4</ele>
        <time>2022-05-26T08:42:50Z</time>
      </trkpt>
      <trkpt lat="46.80843" lon="5.98053">
        <ele>823.5</ele>
        <time>2022-05-26T08:42:56Z</time>
      </trkpt>
      <trkpt lat="46.80843" lon="5.98046">
        <ele>821.8</ele>
        <time>2022-05-26T08:43:01Z</time>
      </trkpt>
      <trkpt lat="46.80841" lon="5.98039">
        <ele>820.4</ele>
        <time>2022-05-26T08:43:06Z</time>
      </trkpt>
      <trkpt lat="46.80838" lon="5.98034">
        <ele>819.9</ele>
        <time>2022-05-26T08:43:10Z</time>
      </trkpt>
      <trkpt lat="46.80835" lon="5.98028">
        <ele>819.2</ele>
        <time>2022-05-26T08:43:15Z</time>
      </trkpt>
      <trkpt lat="46.80831" lon="5.98023">
        <ele>818.3</ele>
        <time>2022-05-26T08:43:20Z</time>
      </trkpt>
      <trkpt lat="46.80829" lon="5.98016">
        <ele>818</ele>
        <time>2022-05-26T08:43:23Z</time>
      </trkpt>
      <trkpt lat="46.80827" lon="5.98009">
        <ele>817.8</ele>
        <time>2022-05-26T08:43:27Z</time>
      </trkpt>
      <trkpt lat="46.80822" lon="5.98006">
        <ele>817.6</ele>
        <time>2022-05-26T08:43:32Z</time>
      </trkpt>
      <trkpt lat="46.8082" lon="5.97999">
        <ele>817.4</ele>
        <time>2022-05-26T08:43:39Z</time>
      </trkpt>
      <trkpt lat="46.80823" lon="5.97994">
        <ele>816.1</ele>
        <time>2022-05-26T08:43:47Z</time>
      </trkpt>
      <trkpt lat="46.80825" lon="5.97987">
        <ele>814.9</ele>
        <time>2022-05-26T08:43:54Z</time>
      </trkpt>
      <trkpt lat="46.80823" lon="5.97981">
        <ele>814.4</ele>
        <time>2022-05-26T08:43:57Z</time>
      </trkpt>
      <trkpt lat="46.80821" lon="5.97975">
        <ele>813.9</ele>
        <time>2022-05-26T08:44:00Z</time>
      </trkpt>
      <trkpt lat="46.80821" lon="5.97968">
        <ele>813.2</ele>
        <time>2022-05-26T08:44:04Z</time>
      </trkpt>
      <trkpt lat="46.80822" lon="5.97961">
        <ele>812.5</ele>
        <time>2022-05-26T08:44:09Z</time>
      </trkpt>
      <trkpt lat="46.80823" lon="5.97953">
        <ele>811.8</ele>
        <time>2022-05-26T08:44:13Z</time>
      </trkpt>
      <trkpt lat="46.80823" lon="5.97945">
        <ele>812</ele>
        <time>2022-05-26T08:44:16Z</time>
      </trkpt>
      <trkpt lat="46.80824" lon="5.97938">
        <ele>812</ele>
        <time>2022-05-26T08:44:19Z</time>
      </trkpt>
      <trkpt lat="46.80823" lon="5.9793">
        <ele>812</ele>
        <time>2022-05-26T08:44:25Z</time>
      </trkpt>
      <trkpt lat="46.80824" lon="5.97924">
        <ele>811.5</ele>
        <time>2022-05-26T08:44:32Z</time>
      </trkpt>
      <trkpt lat="46.80822" lon="5.97918">
        <ele>811.1</ele>
        <time>2022-05-26T08:44:36Z</time>
      </trkpt>
      <trkpt lat="46.8082" lon="5.97912">
        <ele>810.8</ele>
        <time>2022-05-26T08:44:40Z</time>
      </trkpt>
      <trkpt lat="46.80818" lon="5.97906">
        <ele>810.5</ele>
        <time>2022-05-26T08:44:45Z</time>
      </trkpt>
      <trkpt lat="46.80816" lon="5.979">
        <ele>810.3</ele>
        <time>2022-05-26T08:44:51Z</time>
      </trkpt>
      <trkpt lat="46.80813" lon="5.97893">
        <ele>810.5</ele>
        <time>2022-05-26T08:44:55Z</time>
      </trkpt>
      <trkpt lat="46.80812" lon="5.97886">
        <ele>810.4</ele>
        <time>2022-05-26T08:44:58Z</time>
      </trkpt>
      <trkpt lat="46.80812" lon="5.97879">
        <ele>810.4</ele>
        <time>2022-05-26T08:45:01Z</time>
      </trkpt>
      <trkpt lat="46.80813" lon="5.97872">
        <ele>810.1</ele>
        <time>2022-05-26T08:45:04Z</time>
      </trkpt>
      <trkpt lat="46.80813" lon="5.97865">
        <ele>809.6</ele>
        <time>2022-05-26T08:45:08Z</time>
      </trkpt>
      <trkpt lat="46.80811" lon="5.97858">
        <ele>809.2</ele>
        <time>2022-05-26T08:45:13Z</time>
      </trkpt>
      <trkpt lat="46.80808" lon="5.97852">
        <ele>808.7</ele>
        <time>2022-05-26T08:45:19Z</time>
      </trkpt>
      <trkpt lat="46.80805" lon="5.97846">
        <ele>808</ele>
        <time>2022-05-26T08:45:24Z</time>
      </trkpt>
      <trkpt lat="46.80806" lon="5.97839">
        <ele>807.2</ele>
        <time>2022-05-26T08:45:28Z</time>
      </trkpt>
      <trkpt lat="46.80808" lon="5.97832">
        <ele>806</ele>
        <time>2022-05-26T08:45:32Z</time>
      </trkpt>
      <trkpt lat="46.80808" lon="5.97826">
        <ele>803.7</ele>
        <time>2022-05-26T08:45:39Z</time>
      </trkpt>
      <trkpt lat="46.80805" lon="5.9782">
        <ele>802.3</ele>
        <time>2022-05-26T08:45:45Z</time>
      </trkpt>
      <trkpt lat="46.80802" lon="5.97815">
        <ele>801.3</ele>
        <time>2022-05-26T08:45:50Z</time>
      </trkpt>
      <trkpt lat="46.80799" lon="5.97808">
        <ele>798.4</ele>
        <time>2022-05-26T08:45:59Z</time>
      </trkpt>
      <trkpt lat="46.80797" lon="5.97802">
        <ele>796.9</ele>
        <time>2022-05-26T08:46:03Z</time>
      </trkpt>
      <trkpt lat="46.80792" lon="5.97801">
        <ele>794.9</ele>
        <time>2022-05-26T08:46:08Z</time>
      </trkpt>
      <trkpt lat="46.80789" lon="5.97796">
        <ele>793.8</ele>
        <time>2022-05-26T08:46:11Z</time>
      </trkpt>
      <trkpt lat="46.80786" lon="5.97791">
        <ele>792.6</ele>
        <time>2022-05-26T08:46:15Z</time>
      </trkpt>
      <trkpt lat="46.80784" lon="5.97784">
        <ele>791.9</ele>
        <time>2022-05-26T08:46:18Z</time>
      </trkpt>
      <trkpt lat="46.80785" lon="5.97776">
        <ele>791</ele>
        <time>2022-05-26T08:46:23Z</time>
      </trkpt>
      <trkpt lat="46.80787" lon="5.97769">
        <ele>790.8</ele>
        <time>2022-05-26T08:46:26Z</time>
      </trkpt>
      <trkpt lat="46.80789" lon="5.97761">
        <ele>790.6</ele>
        <time>2022-05-26T08:46:29Z</time>
      </trkpt>
      <trkpt lat="46.8079" lon="5.97754">
        <ele>790.6</ele>
        <time>2022-05-26T08:46:33Z</time>
      </trkpt>
      <trkpt lat="46.80788" lon="5.97747">
        <ele>790.9</ele>
        <time>2022-05-26T08:46:38Z</time>
      </trkpt>
      <trkpt lat="46.80787" lon="5.9774">
        <ele>791.4</ele>
        <time>2022-05-26T08:46:42Z</time>
      </trkpt>
      <trkpt lat="46.80786" lon="5.97733">
        <ele>791.9</ele>
        <time>2022-05-26T08:46:46Z</time>
      </trkpt>
      <trkpt lat="46.80783" lon="5.97726">
        <ele>792.1</ele>
        <time>2022-05-26T08:46:50Z</time>
      </trkpt>
      <trkpt lat="46.80781" lon="5.9772">
        <ele>792.3</ele>
        <time>2022-05-26T08:46:55Z</time>
      </trkpt>
      <trkpt lat="46.80783" lon="5.97713">
        <ele>792.3</ele>
        <time>2022-05-26T08:47:02Z</time>
      </trkpt>
      <trkpt lat="46.80785" lon="5.97707">
        <ele>791.9</ele>
        <time>2022-05-26T08:47:05Z</time>
      </trkpt>
      <trkpt lat="46.8079" lon="5.97704">
        <ele>790.7</ele>
        <time>2022-05-26T08:47:09Z</time>
      </trkpt>
      <trkpt lat="46.80794" lon="5.977">
        <ele>789</ele>
        <time>2022-05-26T08:47:14Z</time>
      </trkpt>
      <trkpt lat="46.80796" lon="5.97694">
        <ele>787.2</ele>
        <time>2022-05-26T08:47:19Z</time>
      </trkpt>
      <trkpt lat="46.80798" lon="5.97688">
        <ele>785.6</ele>
        <time>2022-05-26T08:47:25Z</time>
      </trkpt>
      <trkpt lat="46.80799" lon="5.97681">
        <ele>785</ele>
        <time>2022-05-26T08:47:29Z</time>
      </trkpt>
      <trkpt lat="46.80797" lon="5.97674">
        <ele>784.9</ele>
        <time>2022-05-26T08:47:33Z</time>
      </trkpt>
      <trkpt lat="46.80796" lon="5.97666">
        <ele>785.1</ele>
        <time>2022-05-26T08:47:37Z</time>
      </trkpt>
      <trkpt lat="46.808" lon="5.97661">
        <ele>785.4</ele>
        <time>2022-05-26T08:47:42Z</time>
      </trkpt>
      <trkpt lat="46.80798" lon="5.97654">
        <ele>784.8</ele>
        <time>2022-05-26T08:47:49Z</time>
      </trkpt>
      <trkpt lat="46.80794" lon="5.97652">
        <ele>783.6</ele>
        <time>2022-05-26T08:47:54Z</time>
      </trkpt>
      <trkpt lat="46.80789" lon="5.97649">
        <ele>781.3</ele>
        <time>2022-05-26T08:48:03Z</time>
      </trkpt>
      <trkpt lat="46.80784" lon="5.9765">
        <ele>779.8</ele>
        <time>2022-05-26T08:48:15Z</time>
      </trkpt>
      <trkpt lat="46.8078" lon="5.97651">
        <ele>779</ele>
        <time>2022-05-26T08:48:21Z</time>
      </trkpt>
      <trkpt lat="46.80775" lon="5.9765">
        <ele>778</ele>
        <time>2022-05-26T08:48:26Z</time>
      </trkpt>
      <trkpt lat="46.8077" lon="5.9765">
        <ele>776.7</ele>
        <time>2022-05-26T08:48:31Z</time>
      </trkpt>
      <trkpt lat="46.80765" lon="5.97649">
        <ele>775</ele>
        <time>2022-05-26T08:48:38Z</time>
      </trkpt>
      <trkpt lat="46.8076" lon="5.9765">
        <ele>773</ele>
        <time>2022-05-26T08:48:45Z</time>
      </trkpt>
      <trkpt lat="46.80755" lon="5.97651">
        <ele>771.4</ele>
        <time>2022-05-26T08:48:50Z</time>
      </trkpt>
      <trkpt lat="46.80749" lon="5.97653">
        <ele>769.6</ele>
        <time>2022-05-26T08:48:55Z</time>
      </trkpt>
      <trkpt lat="46.80745" lon="5.97657">
        <ele>767.9</ele>
        <time>2022-05-26T08:48:59Z</time>
      </trkpt>
      <trkpt lat="46.80744" lon="5.97664">
        <ele>766.3</ele>
        <time>2022-05-26T08:49:04Z</time>
      </trkpt>
      <trkpt lat="46.80739" lon="5.97665">
        <ele>763.4</ele>
        <time>2022-05-26T08:49:17Z</time>
      </trkpt>
      <trkpt lat="46.80735" lon="5.97664">
        <ele>762.2</ele>
        <time>2022-05-26T08:49:23Z</time>
      </trkpt>
      <trkpt lat="46.8073" lon="5.97665">
        <ele>761.3</ele>
        <time>2022-05-26T08:49:28Z</time>
      </trkpt>
      <trkpt lat="46.80725" lon="5.97666">
        <ele>760.2</ele>
        <time>2022-05-26T08:49:32Z</time>
      </trkpt>
      <trkpt lat="46.8072" lon="5.97667">
        <ele>758.6</ele>
        <time>2022-05-26T08:49:38Z</time>
      </trkpt>
      <trkpt lat="46.80715" lon="5.97665">
        <ele>756.8</ele>
        <time>2022-05-26T08:49:46Z</time>
      </trkpt>
      <trkpt lat="46.80711" lon="5.97661">
        <ele>755.4</ele>
        <time>2022-05-26T08:49:52Z</time>
      </trkpt>
      <trkpt lat="46.80706" lon="5.97661">
        <ele>754.7</ele>
        <time>2022-05-26T08:49:56Z</time>
      </trkpt>
      <trkpt lat="46.80701" lon="5.97662">
        <ele>753.7</ele>
        <time>2022-05-26T08:50:01Z</time>
      </trkpt>
      <trkpt lat="46.80696" lon="5.97664">
        <ele>752.7</ele>
        <time>2022-05-26T08:50:06Z</time>
      </trkpt>
      <trkpt lat="46.80691" lon="5.97664">
        <ele>750.6</ele>
        <time>2022-05-26T08:50:13Z</time>
      </trkpt>
      <trkpt lat="46.80686" lon="5.97665">
        <ele>749.4</ele>
        <time>2022-05-26T08:50:18Z</time>
      </trkpt>
      <trkpt lat="46.80681" lon="5.97665">
        <ele>748.2</ele>
        <time>2022-05-26T08:50:23Z</time>
      </trkpt>
      <trkpt lat="46.80675" lon="5.97663">
        <ele>747.5</ele>
        <time>2022-05-26T08:50:27Z</time>
      </trkpt>
      <trkpt lat="46.80671" lon="5.97667">
        <ele>746.6</ele>
        <time>2022-05-26T08:50:33Z</time>
      </trkpt>
      <trkpt lat="46.80667" lon="5.97664">
        <ele>745.8</ele>
        <time>2022-05-26T08:50:43Z</time>
      </trkpt>
      <trkpt lat="46.80663" lon="5.97668">
        <ele>744</ele>
        <time>2022-05-26T08:50:59Z</time>
      </trkpt>
      <trkpt lat="46.80661" lon="5.97662">
        <ele>744.7</ele>
        <time>2022-05-26T08:51:05Z</time>
      </trkpt>
      <trkpt lat="46.8066" lon="5.97655">
        <ele>745.2</ele>
        <time>2022-05-26T08:51:09Z</time>
      </trkpt>
      <trkpt lat="46.80662" lon="5.9765">
        <ele>744.5</ele>
        <time>2022-05-26T08:51:25Z</time>
      </trkpt>
      <trkpt lat="46.80659" lon="5.97655">
        <ele>741.5</ele>
        <time>2022-05-26T08:51:35Z</time>
      </trkpt>
      <trkpt lat="46.80655" lon="5.9766">
        <ele>735.9</ele>
        <time>2022-05-26T08:52:28Z</time>
      </trkpt>
      <trkpt lat="46.8065" lon="5.97659">
        <ele>738.6</ele>
        <time>2022-05-26T08:52:40Z</time>
      </trkpt>
      <trkpt lat="46.80646" lon="5.97662">
        <ele>738.6</ele>
        <time>2022-05-26T08:52:50Z</time>
      </trkpt>
      <trkpt lat="46.80641" lon="5.97662">
        <ele>737.4</ele>
        <time>2022-05-26T08:53:00Z</time>
      </trkpt>
      <trkpt lat="46.80637" lon="5.97666">
        <ele>736.9</ele>
        <time>2022-05-26T08:53:06Z</time>
      </trkpt>
      <trkpt lat="46.80632" lon="5.97669">
        <ele>736.5</ele>
        <time>2022-05-26T08:53:10Z</time>
      </trkpt>
      <trkpt lat="46.80626" lon="5.97669">
        <ele>736.2</ele>
        <time>2022-05-26T08:53:18Z</time>
      </trkpt>
      <trkpt lat="46.80626" lon="5.97678">
        <ele>735.7</ele>
        <time>2022-05-26T08:53:23Z</time>
      </trkpt>
      <trkpt lat="46.80624" lon="5.97684">
        <ele>735.4</ele>
        <time>2022-05-26T08:53:27Z</time>
      </trkpt>
      <trkpt lat="46.80619" lon="5.97686">
        <ele>734.8</ele>
        <time>2022-05-26T08:53:32Z</time>
      </trkpt>
      <trkpt lat="46.80614" lon="5.97685">
        <ele>733.8</ele>
        <time>2022-05-26T08:53:37Z</time>
      </trkpt>
      <trkpt lat="46.80609" lon="5.97686">
        <ele>733.5</ele>
        <time>2022-05-26T08:53:42Z</time>
      </trkpt>
      <trkpt lat="46.80606" lon="5.97692">
        <ele>733.4</ele>
        <time>2022-05-26T08:53:47Z</time>
      </trkpt>
      <trkpt lat="46.80601" lon="5.97694">
        <ele>733.4</ele>
        <time>2022-05-26T08:53:50Z</time>
      </trkpt>
      <trkpt lat="46.80599" lon="5.97699">
        <ele>733.5</ele>
        <time>2022-05-26T08:53:57Z</time>
      </trkpt>
      <trkpt lat="46.80597" lon="5.97706">
        <ele>733.8</ele>
        <time>2022-05-26T08:54:01Z</time>
      </trkpt>
      <trkpt lat="46.80597" lon="5.97713">
        <ele>734.1</ele>
        <time>2022-05-26T08:54:04Z</time>
      </trkpt>
      <trkpt lat="46.80595" lon="5.9772">
        <ele>734.2</ele>
        <time>2022-05-26T08:54:10Z</time>
      </trkpt>
      <trkpt lat="46.80589" lon="5.97718">
        <ele>733.9</ele>
        <time>2022-05-26T08:54:15Z</time>
      </trkpt>
      <trkpt lat="46.80585" lon="5.97715">
        <ele>733.8</ele>
        <time>2022-05-26T08:54:18Z</time>
      </trkpt>
      <trkpt lat="46.8058" lon="5.97715">
        <ele>733.9</ele>
        <time>2022-05-26T08:54:24Z</time>
      </trkpt>
      <trkpt lat="46.80578" lon="5.97723">
        <ele>734.1</ele>
        <time>2022-05-26T08:54:27Z</time>
      </trkpt>
      <trkpt lat="46.80577" lon="5.97734">
        <ele>734.2</ele>
        <time>2022-05-26T08:54:30Z</time>
      </trkpt>
      <trkpt lat="46.80575" lon="5.97741">
        <ele>734.3</ele>
        <time>2022-05-26T08:54:34Z</time>
      </trkpt>
      <trkpt lat="46.80571" lon="5.97744">
        <ele>735.5</ele>
        <time>2022-05-26T08:54:42Z</time>
      </trkpt>
      <trkpt lat="46.80568" lon="5.97749">
        <ele>736.1</ele>
        <time>2022-05-26T08:54:47Z</time>
      </trkpt>
      <trkpt lat="46.80565" lon="5.97755">
        <ele>737.5</ele>
        <time>2022-05-26T08:54:53Z</time>
      </trkpt>
      <trkpt lat="46.80561" lon="5.97758">
        <ele>738.3</ele>
        <time>2022-05-26T08:55:02Z</time>
      </trkpt>
      <trkpt lat="46.80561" lon="5.97765">
        <ele>737.9</ele>
        <time>2022-05-26T08:55:12Z</time>
      </trkpt>
      <trkpt lat="46.80564" lon="5.97773">
        <ele>736.9</ele>
        <time>2022-05-26T08:55:18Z</time>
      </trkpt>
      <trkpt lat="46.80559" lon="5.97776">
        <ele>737</ele>
        <time>2022-05-26T08:55:35Z</time>
      </trkpt>
      <trkpt lat="46.80554" lon="5.97779">
        <ele>737.1</ele>
        <time>2022-05-26T08:55:40Z</time>
      </trkpt>
      <trkpt lat="46.8055" lon="5.97777">
        <ele>737.2</ele>
        <time>2022-05-26T08:55:47Z</time>
      </trkpt>
      <trkpt lat="46.80545" lon="5.97774">
        <ele>737.7</ele>
        <time>2022-05-26T08:55:52Z</time>
      </trkpt>
      <trkpt lat="46.80542" lon="5.97769">
        <ele>738.3</ele>
        <time>2022-05-26T08:55:57Z</time>
      </trkpt>
      <trkpt lat="46.80537" lon="5.9777">
        <ele>739.2</ele>
        <time>2022-05-26T08:56:04Z</time>
      </trkpt>
      <trkpt lat="46.80533" lon="5.97775">
        <ele>741.1</ele>
        <time>2022-05-26T08:56:15Z</time>
      </trkpt>
      <trkpt lat="46.80529" lon="5.97777">
        <ele>742</ele>
        <time>2022-05-26T08:56:23Z</time>
      </trkpt>
      <trkpt lat="46.80524" lon="5.97779">
        <ele>742.7</ele>
        <time>2022-05-26T08:56:30Z</time>
      </trkpt>
      <trkpt lat="46.80524" lon="5.97786">
        <ele>743.8</ele>
        <time>2022-05-26T08:56:35Z</time>
      </trkpt>
      <trkpt lat="46.80525" lon="5.97792">
        <ele>744.8</ele>
        <time>2022-05-26T08:56:41Z</time>
      </trkpt>
      <trkpt lat="46.80524" lon="5.978">
        <ele>744.4</ele>
        <time>2022-05-26T08:56:46Z</time>
      </trkpt>
      <trkpt lat="46.80519" lon="5.978">
        <ele>744.2</ele>
        <time>2022-05-26T08:56:53Z</time>
      </trkpt>
      <trkpt lat="46.80515" lon="5.97802">
        <ele>744.8</ele>
        <time>2022-05-26T08:56:58Z</time>
      </trkpt>
      <trkpt lat="46.80514" lon="5.97809">
        <ele>745.9</ele>
        <time>2022-05-26T08:57:05Z</time>
      </trkpt>
      <trkpt lat="46.80509" lon="5.97811">
        <ele>746.8</ele>
        <time>2022-05-26T08:57:12Z</time>
      </trkpt>
      <trkpt lat="46.80505" lon="5.97815">
        <ele>748.1</ele>
        <time>2022-05-26T08:57:23Z</time>
      </trkpt>
      <trkpt lat="46.80502" lon="5.97821">
        <ele>749.7</ele>
        <time>2022-05-26T08:57:31Z</time>
      </trkpt>
      <trkpt lat="46.80498" lon="5.97827">
        <ele>751.5</ele>
        <time>2022-05-26T08:57:36Z</time>
      </trkpt>
      <trkpt lat="46.80496" lon="5.97833">
        <ele>753.4</ele>
        <time>2022-05-26T08:57:42Z</time>
      </trkpt>
      <trkpt lat="46.80495" lon="5.97841">
        <ele>756</ele>
        <time>2022-05-26T08:57:49Z</time>
      </trkpt>
      <trkpt lat="46.80491" lon="5.97843">
        <ele>758.9</ele>
        <time>2022-05-26T08:57:59Z</time>
      </trkpt>
      <trkpt lat="46.80488" lon="5.9785">
        <ele>759.5</ele>
        <time>2022-05-26T08:58:02Z</time>
      </trkpt>
      <trkpt lat="46.80484" lon="5.97855">
        <ele>762.1</ele>
        <time>2022-05-26T08:58:09Z</time>
      </trkpt>
      <trkpt lat="46.8048" lon="5.97857">
        <ele>764</ele>
        <time>2022-05-26T08:58:14Z</time>
      </trkpt>
      <trkpt lat="46.80475" lon="5.97857">
        <ele>767.3</ele>
        <time>2022-05-26T08:58:23Z</time>
      </trkpt>
      <trkpt lat="46.80472" lon="5.97852">
        <ele>768.6</ele>
        <time>2022-05-26T08:58:27Z</time>
      </trkpt>
      <trkpt lat="46.8047" lon="5.97858">
        <ele>772.1</ele>
        <time>2022-05-26T08:58:41Z</time>
      </trkpt>
      <trkpt lat="46.80468" lon="5.97864">
        <ele>775.5</ele>
        <time>2022-05-26T08:59:05Z</time>
      </trkpt>
      <trkpt lat="46.80463" lon="5.97865">
        <ele>775.5</ele>
        <time>2022-05-26T08:59:09Z</time>
      </trkpt>
      <trkpt lat="46.80461" lon="5.97872">
        <ele>775.5</ele>
        <time>2022-05-26T08:59:16Z</time>
      </trkpt>
      <trkpt lat="46.8046" lon="5.97878">
        <ele>775.7</ele>
        <time>2022-05-26T08:59:21Z</time>
      </trkpt>
      <trkpt lat="46.80459" lon="5.97884">
        <ele>776.2</ele>
        <time>2022-05-26T08:59:28Z</time>
      </trkpt>
      <trkpt lat="46.80455" lon="5.97888">
        <ele>776.3</ele>
        <time>2022-05-26T08:59:33Z</time>
      </trkpt>
      <trkpt lat="46.80451" lon="5.97891">
        <ele>776</ele>
        <time>2022-05-26T08:59:39Z</time>
      </trkpt>
      <trkpt lat="46.80455" lon="5.9789">
        <ele>777.5</ele>
        <time>2022-05-26T08:59:55Z</time>
      </trkpt>
      <trkpt lat="46.8045" lon="5.97885">
        <ele>778.1</ele>
        <time>2022-05-26T09:00:11Z</time>
      </trkpt>
      <trkpt lat="46.80444" lon="5.9788">
        <ele>778.2</ele>
        <time>2022-05-26T09:00:14Z</time>
      </trkpt>
      <trkpt lat="46.80439" lon="5.97881">
        <ele>778.3</ele>
        <time>2022-05-26T09:00:19Z</time>
      </trkpt>
      <trkpt lat="46.80437" lon="5.97887">
        <ele>778.8</ele>
        <time>2022-05-26T09:00:27Z</time>
      </trkpt>
      <trkpt lat="46.80435" lon="5.97894">
        <ele>780</ele>
        <time>2022-05-26T09:00:32Z</time>
      </trkpt>
      <trkpt lat="46.80432" lon="5.979">
        <ele>782.8</ele>
        <time>2022-05-26T09:00:40Z</time>
      </trkpt>
      <trkpt lat="46.80431" lon="5.97906">
        <ele>784.6</ele>
        <time>2022-05-26T09:00:47Z</time>
      </trkpt>
      <trkpt lat="46.80426" lon="5.97909">
        <ele>787.2</ele>
        <time>2022-05-26T09:00:53Z</time>
      </trkpt>
      <trkpt lat="46.80423" lon="5.97917">
        <ele>791.2</ele>
        <time>2022-05-26T09:01:07Z</time>
      </trkpt>
      <trkpt lat="46.80419" lon="5.97921">
        <ele>791.4</ele>
        <time>2022-05-26T09:01:11Z</time>
      </trkpt>
      <trkpt lat="46.8042" lon="5.97928">
        <ele>791.1</ele>
        <time>2022-05-26T09:01:16Z</time>
      </trkpt>
      <trkpt lat="46.80416" lon="5.97923">
        <ele>791.1</ele>
        <time>2022-05-26T09:01:35Z</time>
      </trkpt>
      <trkpt lat="46.80416" lon="5.97916">
        <ele>791.4</ele>
        <time>2022-05-26T09:01:50Z</time>
      </trkpt>
      <trkpt lat="46.80417" lon="5.97923">
        <ele>791.1</ele>
        <time>2022-05-26T09:01:59Z</time>
      </trkpt>
      <trkpt lat="46.80422" lon="5.97928">
        <ele>790</ele>
        <time>2022-05-26T09:02:04Z</time>
      </trkpt>
      <trkpt lat="46.80424" lon="5.97935">
        <ele>788.9</ele>
        <time>2022-05-26T09:02:10Z</time>
      </trkpt>
      <trkpt lat="46.80426" lon="5.97943">
        <ele>789.8</ele>
        <time>2022-05-26T09:02:16Z</time>
      </trkpt>
      <trkpt lat="46.8043" lon="5.97949">
        <ele>791</ele>
        <time>2022-05-26T09:02:19Z</time>
      </trkpt>
      <trkpt lat="46.80434" lon="5.97953">
        <ele>793</ele>
        <time>2022-05-26T09:02:27Z</time>
      </trkpt>
      <trkpt lat="46.80433" lon="5.9796">
        <ele>793.6</ele>
        <time>2022-05-26T09:02:33Z</time>
      </trkpt>
      <trkpt lat="46.80429" lon="5.97961">
        <ele>794.2</ele>
        <time>2022-05-26T09:02:39Z</time>
      </trkpt>
      <trkpt lat="46.80426" lon="5.97955">
        <ele>794.6</ele>
        <time>2022-05-26T09:02:53Z</time>
      </trkpt>
      <trkpt lat="46.80421" lon="5.9795">
        <ele>795.2</ele>
        <time>2022-05-26T09:02:56Z</time>
      </trkpt>
      <trkpt lat="46.80415" lon="5.97944">
        <ele>798.5</ele>
        <time>2022-05-26T09:03:11Z</time>
      </trkpt>
      <trkpt lat="46.80412" lon="5.97938">
        <ele>800</ele>
        <time>2022-05-26T09:03:14Z</time>
      </trkpt>
      <trkpt lat="46.80413" lon="5.97932">
        <ele>802.3</ele>
        <time>2022-05-26T09:03:22Z</time>
      </trkpt>
      <trkpt lat="46.80418" lon="5.97933">
        <ele>802.8</ele>
        <time>2022-05-26T09:03:26Z</time>
      </trkpt>
      <trkpt lat="46.80422" lon="5.97937">
        <ele>803.1</ele>
        <time>2022-05-26T09:03:29Z</time>
      </trkpt>
      <trkpt lat="46.80418" lon="5.97933">
        <ele>804.6</ele>
        <time>2022-05-26T09:03:47Z</time>
      </trkpt>
      <trkpt lat="46.80406" lon="5.97926">
        <ele>805.6</ele>
        <time>2022-05-26T09:04:00Z</time>
      </trkpt>
      <trkpt lat="46.80409" lon="5.97932">
        <ele>805.8</ele>
        <time>2022-05-26T09:04:06Z</time>
      </trkpt>
      <trkpt lat="46.80408" lon="5.97939">
        <ele>805.5</ele>
        <time>2022-05-26T09:04:16Z</time>
      </trkpt>
      <trkpt lat="46.80411" lon="5.97945">
        <ele>805.2</ele>
        <time>2022-05-26T09:04:25Z</time>
      </trkpt>
      <trkpt lat="46.80407" lon="5.97948">
        <ele>805.5</ele>
        <time>2022-05-26T09:04:39Z</time>
      </trkpt>
      <trkpt lat="46.80405" lon="5.97955">
        <ele>804.8</ele>
        <time>2022-05-26T09:04:44Z</time>
      </trkpt>
      <trkpt lat="46.80402" lon="5.97949">
        <ele>801</ele>
        <time>2022-05-26T09:05:01Z</time>
      </trkpt>
      <trkpt lat="46.80397" lon="5.97949">
        <ele>800.5</ele>
        <time>2022-05-26T09:05:08Z</time>
      </trkpt>
      <trkpt lat="46.80401" lon="5.97953">
        <ele>800.2</ele>
        <time>2022-05-26T09:05:21Z</time>
      </trkpt>
      <trkpt lat="46.80401" lon="5.9796">
        <ele>800.2</ele>
        <time>2022-05-26T09:05:39Z</time>
      </trkpt>
      <trkpt lat="46.804" lon="5.97966">
        <ele>799.7</ele>
        <time>2022-05-26T09:05:42Z</time>
      </trkpt>
      <trkpt lat="46.80398" lon="5.97973">
        <ele>798.8</ele>
        <time>2022-05-26T09:05:49Z</time>
      </trkpt>
      <trkpt lat="46.80393" lon="5.97976">
        <ele>799.8</ele>
        <time>2022-05-26T09:06:03Z</time>
      </trkpt>
      <trkpt lat="46.80388" lon="5.97975">
        <ele>800.7</ele>
        <time>2022-05-26T09:06:10Z</time>
      </trkpt>
      <trkpt lat="46.80387" lon="5.97983">
        <ele>800.9</ele>
        <time>2022-05-26T09:06:35Z</time>
      </trkpt>
      <trkpt lat="46.80391" lon="5.97988">
        <ele>799.3</ele>
        <time>2022-05-26T09:06:42Z</time>
      </trkpt>
      <trkpt lat="46.80393" lon="5.97997">
        <ele>798.2</ele>
        <time>2022-05-26T09:06:46Z</time>
      </trkpt>
      <trkpt lat="46.80392" lon="5.98004">
        <ele>797.6</ele>
        <time>2022-05-26T09:06:50Z</time>
      </trkpt>
      <trkpt lat="46.80389" lon="5.98009">
        <ele>797.6</ele>
        <time>2022-05-26T09:06:53Z</time>
      </trkpt>
      <trkpt lat="46.80389" lon="5.98016">
        <ele>797.5</ele>
        <time>2022-05-26T09:07:00Z</time>
      </trkpt>
      <trkpt lat="46.80386" lon="5.98021">
        <ele>799</ele>
        <time>2022-05-26T09:07:14Z</time>
      </trkpt>
      <trkpt lat="46.80382" lon="5.98026">
        <ele>799.1</ele>
        <time>2022-05-26T09:07:18Z</time>
      </trkpt>
      <trkpt lat="46.80381" lon="5.98033">
        <ele>799.5</ele>
        <time>2022-05-26T09:07:24Z</time>
      </trkpt>
      <trkpt lat="46.80378" lon="5.98037">
        <ele>800.2</ele>
        <time>2022-05-26T09:07:37Z</time>
      </trkpt>
      <trkpt lat="46.80373" lon="5.98035">
        <ele>801.8</ele>
        <time>2022-05-26T09:07:44Z</time>
      </trkpt>
      <trkpt lat="46.80369" lon="5.98032">
        <ele>803.3</ele>
        <time>2022-05-26T09:07:50Z</time>
      </trkpt>
      <trkpt lat="46.80365" lon="5.9803">
        <ele>804.6</ele>
        <time>2022-05-26T09:07:55Z</time>
      </trkpt>
      <trkpt lat="46.80361" lon="5.98026">
        <ele>805.7</ele>
        <time>2022-05-26T09:08:00Z</time>
      </trkpt>
      <trkpt lat="46.80359" lon="5.98033">
        <ele>807.2</ele>
        <time>2022-05-26T09:08:07Z</time>
      </trkpt>
      <trkpt lat="46.80356" lon="5.9804">
        <ele>808.1</ele>
        <time>2022-05-26T09:08:11Z</time>
      </trkpt>
      <trkpt lat="46.80352" lon="5.98045">
        <ele>808.9</ele>
        <time>2022-05-26T09:08:15Z</time>
      </trkpt>
      <trkpt lat="46.80346" lon="5.98047">
        <ele>809.7</ele>
        <time>2022-05-26T09:08:18Z</time>
      </trkpt>
      <trkpt lat="46.80341" lon="5.98048">
        <ele>810.7</ele>
        <time>2022-05-26T09:08:22Z</time>
      </trkpt>
      <trkpt lat="46.80337" lon="5.9805">
        <ele>814</ele>
        <time>2022-05-26T09:08:33Z</time>
      </trkpt>
      <trkpt lat="46.80333" lon="5.98056">
        <ele>814.9</ele>
        <time>2022-05-26T09:08:38Z</time>
      </trkpt>
      <trkpt lat="46.80335" lon="5.98048">
        <ele>816.3</ele>
        <time>2022-05-26T09:08:45Z</time>
      </trkpt>
      <trkpt lat="46.80332" lon="5.98039">
        <ele>817.9</ele>
        <time>2022-05-26T09:08:56Z</time>
      </trkpt>
      <trkpt lat="46.80327" lon="5.98048">
        <ele>818.1</ele>
        <time>2022-05-26T09:08:59Z</time>
      </trkpt>
      <trkpt lat="46.80324" lon="5.98055">
        <ele>818.2</ele>
        <time>2022-05-26T09:09:02Z</time>
      </trkpt>
      <trkpt lat="46.80321" lon="5.98062">
        <ele>818.1</ele>
        <time>2022-05-26T09:09:05Z</time>
      </trkpt>
      <trkpt lat="46.80319" lon="5.98075">
        <ele>818.1</ele>
        <time>2022-05-26T09:09:08Z</time>
      </trkpt>
      <trkpt lat="46.80317" lon="5.98083">
        <ele>818.2</ele>
        <time>2022-05-26T09:09:11Z</time>
      </trkpt>
      <trkpt lat="46.80312" lon="5.98086">
        <ele>817.9</ele>
        <time>2022-05-26T09:09:16Z</time>
      </trkpt>
      <trkpt lat="46.80309" lon="5.98081">
        <ele>818.9</ele>
        <time>2022-05-26T09:09:29Z</time>
      </trkpt>
      <trkpt lat="46.80308" lon="5.98073">
        <ele>820.7</ele>
        <time>2022-05-26T09:09:42Z</time>
      </trkpt>
      <trkpt lat="46.80303" lon="5.98074">
        <ele>822.3</ele>
        <time>2022-05-26T09:09:54Z</time>
      </trkpt>
      <trkpt lat="46.80298" lon="5.98075">
        <ele>822.5</ele>
        <time>2022-05-26T09:10:02Z</time>
      </trkpt>
      <trkpt lat="46.80296" lon="5.98082">
        <ele>823.1</ele>
        <time>2022-05-26T09:10:08Z</time>
      </trkpt>
      <trkpt lat="46.80295" lon="5.98075">
        <ele>824.9</ele>
        <time>2022-05-26T09:10:24Z</time>
      </trkpt>
      <trkpt lat="46.80291" lon="5.98079">
        <ele>825.3</ele>
        <time>2022-05-26T09:10:33Z</time>
      </trkpt>
      <trkpt lat="46.80287" lon="5.98084">
        <ele>825.4</ele>
        <time>2022-05-26T09:10:37Z</time>
      </trkpt>
      <trkpt lat="46.80283" lon="5.98089">
        <ele>825.3</ele>
        <time>2022-05-26T09:10:42Z</time>
      </trkpt>
      <trkpt lat="46.80278" lon="5.98093">
        <ele>825.5</ele>
        <time>2022-05-26T09:10:45Z</time>
      </trkpt>
      <trkpt lat="46.80271" lon="5.98097">
        <ele>825.8</ele>
        <time>2022-05-26T09:10:48Z</time>
      </trkpt>
      <trkpt lat="46.80267" lon="5.98098">
        <ele>826.4</ele>
        <time>2022-05-26T09:10:52Z</time>
      </trkpt>
      <trkpt lat="46.80263" lon="5.98102">
        <ele>828</ele>
        <time>2022-05-26T09:10:58Z</time>
      </trkpt>
      <trkpt lat="46.80258" lon="5.98102">
        <ele>829</ele>
        <time>2022-05-26T09:11:01Z</time>
      </trkpt>
      <trkpt lat="46.80253" lon="5.98104">
        <ele>830.4</ele>
        <time>2022-05-26T09:11:05Z</time>
      </trkpt>
      <trkpt lat="46.80251" lon="5.9811">
        <ele>833.5</ele>
        <time>2022-05-26T09:11:15Z</time>
      </trkpt>
      <trkpt lat="46.80246" lon="5.98112">
        <ele>835.6</ele>
        <time>2022-05-26T09:11:21Z</time>
      </trkpt>
      <trkpt lat="46.80243" lon="5.98117">
        <ele>837.9</ele>
        <time>2022-05-26T09:11:29Z</time>
      </trkpt>
      <trkpt lat="46.8024" lon="5.98122">
        <ele>839.6</ele>
        <time>2022-05-26T09:11:37Z</time>
      </trkpt>
      <trkpt lat="46.80237" lon="5.98127">
        <ele>840.8</ele>
        <time>2022-05-26T09:11:48Z</time>
      </trkpt>
      <trkpt lat="46.80233" lon="5.98132">
        <ele>842.6</ele>
        <time>2022-05-26T09:11:54Z</time>
      </trkpt>
      <trkpt lat="46.80228" lon="5.98133">
        <ele>844.7</ele>
        <time>2022-05-26T09:12:01Z</time>
      </trkpt>
      <trkpt lat="46.80224" lon="5.98133">
        <ele>846.9</ele>
        <time>2022-05-26T09:12:12Z</time>
      </trkpt>
      <trkpt lat="46.80219" lon="5.98131">
        <ele>848.7</ele>
        <time>2022-05-26T09:12:26Z</time>
      </trkpt>
      <trkpt lat="46.80215" lon="5.98136">
        <ele>849.7</ele>
        <time>2022-05-26T09:12:36Z</time>
      </trkpt>
      <trkpt lat="46.80211" lon="5.9814">
        <ele>850</ele>
        <time>2022-05-26T09:12:42Z</time>
      </trkpt>
      <trkpt lat="46.80208" lon="5.98144">
        <ele>850.8</ele>
        <time>2022-05-26T09:12:47Z</time>
      </trkpt>
      <trkpt lat="46.80203" lon="5.98149">
        <ele>851.5</ele>
        <time>2022-05-26T09:12:52Z</time>
      </trkpt>
      <trkpt lat="46.80201" lon="5.98155">
        <ele>852.2</ele>
        <time>2022-05-26T09:12:58Z</time>
      </trkpt>
      <trkpt lat="46.80197" lon="5.98162">
        <ele>852.6</ele>
        <time>2022-05-26T09:13:03Z</time>
      </trkpt>
      <trkpt lat="46.80196" lon="5.98168">
        <ele>852.5</ele>
        <time>2022-05-26T09:13:10Z</time>
      </trkpt>
      <trkpt lat="46.80191" lon="5.98169">
        <ele>853.6</ele>
        <time>2022-05-26T09:13:17Z</time>
      </trkpt>
      <trkpt lat="46.80186" lon="5.98167">
        <ele>854.6</ele>
        <time>2022-05-26T09:13:23Z</time>
      </trkpt>
      <trkpt lat="46.80182" lon="5.98172">
        <ele>855.4</ele>
        <time>2022-05-26T09:13:29Z</time>
      </trkpt>
      <trkpt lat="46.8018" lon="5.98177">
        <ele>855.9</ele>
        <time>2022-05-26T09:13:34Z</time>
      </trkpt>
      <trkpt lat="46.80182" lon="5.98184">
        <ele>856.6</ele>
        <time>2022-05-26T09:13:40Z</time>
      </trkpt>
      <trkpt lat="46.80179" lon="5.9819">
        <ele>858.6</ele>
        <time>2022-05-26T09:13:47Z</time>
      </trkpt>
      <trkpt lat="46.80175" lon="5.98194">
        <ele>860.1</ele>
        <time>2022-05-26T09:13:57Z</time>
      </trkpt>
      <trkpt lat="46.8017" lon="5.98192">
        <ele>860</ele>
        <time>2022-05-26T09:14:01Z</time>
      </trkpt>
      <trkpt lat="46.80168" lon="5.98199">
        <ele>860.3</ele>
        <time>2022-05-26T09:14:16Z</time>
      </trkpt>
      <trkpt lat="46.80164" lon="5.98204">
        <ele>860.3</ele>
        <time>2022-05-26T09:14:21Z</time>
      </trkpt>
      <trkpt lat="46.80159" lon="5.98206">
        <ele>860.5</ele>
        <time>2022-05-26T09:14:26Z</time>
      </trkpt>
      <trkpt lat="46.80155" lon="5.98211">
        <ele>862.2</ele>
        <time>2022-05-26T09:14:35Z</time>
      </trkpt>
      <trkpt lat="46.80152" lon="5.98216">
        <ele>863.6</ele>
        <time>2022-05-26T09:14:40Z</time>
      </trkpt>
      <trkpt lat="46.80148" lon="5.98221">
        <ele>866.3</ele>
        <time>2022-05-26T09:14:49Z</time>
      </trkpt>
      <trkpt lat="46.80144" lon="5.98222">
        <ele>865.6</ele>
        <time>2022-05-26T09:15:13Z</time>
      </trkpt>
      <trkpt lat="46.80141" lon="5.9823">
        <ele>866</ele>
        <time>2022-05-26T09:15:17Z</time>
      </trkpt>
      <trkpt lat="46.80138" lon="5.98236">
        <ele>866.7</ele>
        <time>2022-05-26T09:15:21Z</time>
      </trkpt>
      <trkpt lat="46.80138" lon="5.98244">
        <ele>867.8</ele>
        <time>2022-05-26T09:15:26Z</time>
      </trkpt>
      <trkpt lat="46.80134" lon="5.98248">
        <ele>868.8</ele>
        <time>2022-05-26T09:15:33Z</time>
      </trkpt>
      <trkpt lat="46.80131" lon="5.98255">
        <ele>869.2</ele>
        <time>2022-05-26T09:15:39Z</time>
      </trkpt>
      <trkpt lat="46.80126" lon="5.98259">
        <ele>869.4</ele>
        <time>2022-05-26T09:15:43Z</time>
      </trkpt>
      <trkpt lat="46.80122" lon="5.98263">
        <ele>869.4</ele>
        <time>2022-05-26T09:15:49Z</time>
      </trkpt>
      <trkpt lat="46.80119" lon="5.98269">
        <ele>869.3</ele>
        <time>2022-05-26T09:15:57Z</time>
      </trkpt>
      <trkpt lat="46.80115" lon="5.98295">
        <ele>869.7</ele>
        <time>2022-05-26T09:16:12Z</time>
      </trkpt>
      <trkpt lat="46.80112" lon="5.98289">
        <ele>869.9</ele>
        <time>2022-05-26T09:16:17Z</time>
      </trkpt>
      <trkpt lat="46.80107" lon="5.9829">
        <ele>871.7</ele>
        <time>2022-05-26T09:16:28Z</time>
      </trkpt>
      <trkpt lat="46.80104" lon="5.98293">
        <ele>872</ele>
        <time>2022-05-26T09:16:31Z</time>
      </trkpt>
      <trkpt lat="46.80101" lon="5.983">
        <ele>872.5</ele>
        <time>2022-05-26T09:16:38Z</time>
      </trkpt>
      <trkpt lat="46.80096" lon="5.98301">
        <ele>872.7</ele>
        <time>2022-05-26T09:16:44Z</time>
      </trkpt>
      <trkpt lat="46.80092" lon="5.98304">
        <ele>873.8</ele>
        <time>2022-05-26T09:16:52Z</time>
      </trkpt>
      <trkpt lat="46.80089" lon="5.9831">
        <ele>874.9</ele>
        <time>2022-05-26T09:16:58Z</time>
      </trkpt>
      <trkpt lat="46.80085" lon="5.98314">
        <ele>875.5</ele>
        <time>2022-05-26T09:17:05Z</time>
      </trkpt>
      <trkpt lat="46.80079" lon="5.98313">
        <ele>875.9</ele>
        <time>2022-05-26T09:17:11Z</time>
      </trkpt>
      <trkpt lat="46.80075" lon="5.98312">
        <ele>875.8</ele>
        <time>2022-05-26T09:17:15Z</time>
      </trkpt>
      <trkpt lat="46.8007" lon="5.98311">
        <ele>875.9</ele>
        <time>2022-05-26T09:17:19Z</time>
      </trkpt>
      <trkpt lat="46.80066" lon="5.98308">
        <ele>875.7</ele>
        <time>2022-05-26T09:17:24Z</time>
      </trkpt>
      <trkpt lat="46.80061" lon="5.98308">
        <ele>875.4</ele>
        <time>2022-05-26T09:17:31Z</time>
      </trkpt>
      <trkpt lat="46.80059" lon="5.98315">
        <ele>875.3</ele>
        <time>2022-05-26T09:17:37Z</time>
      </trkpt>
      <trkpt lat="46.80054" lon="5.98318">
        <ele>874.5</ele>
        <time>2022-05-26T09:17:46Z</time>
      </trkpt>
      <trkpt lat="46.80051" lon="5.98323">
        <ele>873.1</ele>
        <time>2022-05-26T09:17:59Z</time>
      </trkpt>
      <trkpt lat="46.80046" lon="5.98324">
        <ele>872.5</ele>
        <time>2022-05-26T09:18:06Z</time>
      </trkpt>
      <trkpt lat="46.80041" lon="5.98326">
        <ele>872</ele>
        <time>2022-05-26T09:18:11Z</time>
      </trkpt>
      <trkpt lat="46.80036" lon="5.98327">
        <ele>871.6</ele>
        <time>2022-05-26T09:18:15Z</time>
      </trkpt>
      <trkpt lat="46.80032" lon="5.9833">
        <ele>871.2</ele>
        <time>2022-05-26T09:18:23Z</time>
      </trkpt>
      <trkpt lat="46.80028" lon="5.98334">
        <ele>871.1</ele>
        <time>2022-05-26T09:18:27Z</time>
      </trkpt>
      <trkpt lat="46.80028" lon="5.98342">
        <ele>870.8</ele>
        <time>2022-05-26T09:18:30Z</time>
      </trkpt>
      <trkpt lat="46.80023" lon="5.98346">
        <ele>870.6</ele>
        <time>2022-05-26T09:18:33Z</time>
      </trkpt>
      <trkpt lat="46.80016" lon="5.98347">
        <ele>870.6</ele>
        <time>2022-05-26T09:18:36Z</time>
      </trkpt>
      <trkpt lat="46.8001" lon="5.98349">
        <ele>870.5</ele>
        <time>2022-05-26T09:18:39Z</time>
      </trkpt>
      <trkpt lat="46.80005" lon="5.98353">
        <ele>870.4</ele>
        <time>2022-05-26T09:18:45Z</time>
      </trkpt>
      <trkpt lat="46.8" lon="5.98355">
        <ele>870.6</ele>
        <time>2022-05-26T09:18:54Z</time>
      </trkpt>
      <trkpt lat="46.79996" lon="5.98357">
        <ele>870.7</ele>
        <time>2022-05-26T09:18:58Z</time>
      </trkpt>
      <trkpt lat="46.79991" lon="5.98358">
        <ele>871.1</ele>
        <time>2022-05-26T09:19:01Z</time>
      </trkpt>
      <trkpt lat="46.79987" lon="5.9836">
        <ele>871.5</ele>
        <time>2022-05-26T09:19:04Z</time>
      </trkpt>
      <trkpt lat="46.79984" lon="5.98367">
        <ele>871.9</ele>
        <time>2022-05-26T09:19:10Z</time>
      </trkpt>
      <trkpt lat="46.7998" lon="5.98369">
        <ele>871.5</ele>
        <time>2022-05-26T09:19:16Z</time>
      </trkpt>
      <trkpt lat="46.79975" lon="5.98371">
        <ele>871.3</ele>
        <time>2022-05-26T09:19:23Z</time>
      </trkpt>
      <trkpt lat="46.7997" lon="5.98369">
        <ele>872</ele>
        <time>2022-05-26T09:19:28Z</time>
      </trkpt>
      <trkpt lat="46.79966" lon="5.98371">
        <ele>873.1</ele>
        <time>2022-05-26T09:19:32Z</time>
      </trkpt>
      <trkpt lat="46.79962" lon="5.98375">
        <ele>874.3</ele>
        <time>2022-05-26T09:19:36Z</time>
      </trkpt>
      <trkpt lat="46.79959" lon="5.9838">
        <ele>875.1</ele>
        <time>2022-05-26T09:19:41Z</time>
      </trkpt>
      <trkpt lat="46.79958" lon="5.98387">
        <ele>875</ele>
        <time>2022-05-26T09:19:46Z</time>
      </trkpt>
      <trkpt lat="46.79958" lon="5.98394">
        <ele>875</ele>
        <time>2022-05-26T09:19:50Z</time>
      </trkpt>
      <trkpt lat="46.7996" lon="5.98402">
        <ele>875</ele>
        <time>2022-05-26T09:19:57Z</time>
      </trkpt>
      <trkpt lat="46.79962" lon="5.98408">
        <ele>874.9</ele>
        <time>2022-05-26T09:20:00Z</time>
      </trkpt>
      <trkpt lat="46.79966" lon="5.98412">
        <ele>874.5</ele>
        <time>2022-05-26T09:20:05Z</time>
      </trkpt>
      <trkpt lat="46.79969" lon="5.98417">
        <ele>873.4</ele>
        <time>2022-05-26T09:20:10Z</time>
      </trkpt>
      <trkpt lat="46.79971" lon="5.98424">
        <ele>872.9</ele>
        <time>2022-05-26T09:20:15Z</time>
      </trkpt>
      <trkpt lat="46.79971" lon="5.98431">
        <ele>872.9</ele>
        <time>2022-05-26T09:20:19Z</time>
      </trkpt>
      <trkpt lat="46.79972" lon="5.98439">
        <ele>872.8</ele>
        <time>2022-05-26T09:20:24Z</time>
      </trkpt>
      <trkpt lat="46.79973" lon="5.98445">
        <ele>872.6</ele>
        <time>2022-05-26T09:20:38Z</time>
      </trkpt>
      <trkpt lat="46.79973" lon="5.98452">
        <ele>872.5</ele>
        <time>2022-05-26T09:20:41Z</time>
      </trkpt>
      <trkpt lat="46.79973" lon="5.9846">
        <ele>872.1</ele>
        <time>2022-05-26T09:20:44Z</time>
      </trkpt>
      <trkpt lat="46.79972" lon="5.98468">
        <ele>871.6</ele>
        <time>2022-05-26T09:20:47Z</time>
      </trkpt>
      <trkpt lat="46.79969" lon="5.98476">
        <ele>871.3</ele>
        <time>2022-05-26T09:20:50Z</time>
      </trkpt>
      <trkpt lat="46.7997" lon="5.98484">
        <ele>871.4</ele>
        <time>2022-05-26T09:20:54Z</time>
      </trkpt>
      <trkpt lat="46.7997" lon="5.98493">
        <ele>871.3</ele>
        <time>2022-05-26T09:20:57Z</time>
      </trkpt>
      <trkpt lat="46.79971" lon="5.98499">
        <ele>871.6</ele>
        <time>2022-05-26T09:21:06Z</time>
      </trkpt>
      <trkpt lat="46.79975" lon="5.98503">
        <ele>871.4</ele>
        <time>2022-05-26T09:21:11Z</time>
      </trkpt>
      <trkpt lat="46.79978" lon="5.9851">
        <ele>871.4</ele>
        <time>2022-05-26T09:21:16Z</time>
      </trkpt>
      <trkpt lat="46.79981" lon="5.98515">
        <ele>870.7</ele>
        <time>2022-05-26T09:21:21Z</time>
      </trkpt>
      <trkpt lat="46.79984" lon="5.9852">
        <ele>869.6</ele>
        <time>2022-05-26T09:21:26Z</time>
      </trkpt>
      <trkpt lat="46.79986" lon="5.98526">
        <ele>868.3</ele>
        <time>2022-05-26T09:21:31Z</time>
      </trkpt>
      <trkpt lat="46.79986" lon="5.98533">
        <ele>866.7</ele>
        <time>2022-05-26T09:21:38Z</time>
      </trkpt>
      <trkpt lat="46.79987" lon="5.98539">
        <ele>866.2</ele>
        <time>2022-05-26T09:21:43Z</time>
      </trkpt>
      <trkpt lat="46.79986" lon="5.98547">
        <ele>865.9</ele>
        <time>2022-05-26T09:21:48Z</time>
      </trkpt>
      <trkpt lat="46.79986" lon="5.98554">
        <ele>865.9</ele>
        <time>2022-05-26T09:21:53Z</time>
      </trkpt>
      <trkpt lat="46.79985" lon="5.9856">
        <ele>867.2</ele>
        <time>2022-05-26T09:22:01Z</time>
      </trkpt>
      <trkpt lat="46.79987" lon="5.98567">
        <ele>868.3</ele>
        <time>2022-05-26T09:22:07Z</time>
      </trkpt>
      <trkpt lat="46.79992" lon="5.98574">
        <ele>869</ele>
        <time>2022-05-26T09:22:10Z</time>
      </trkpt>
      <trkpt lat="46.79997" lon="5.98578">
        <ele>869.5</ele>
        <time>2022-05-26T09:22:13Z</time>
      </trkpt>
      <trkpt lat="46.80001" lon="5.98582">
        <ele>869.9</ele>
        <time>2022-05-26T09:22:18Z</time>
      </trkpt>
      <trkpt lat="46.80006" lon="5.98586">
        <ele>869.8</ele>
        <time>2022-05-26T09:22:23Z</time>
      </trkpt>
      <trkpt lat="46.80005" lon="5.98594">
        <ele>869.6</ele>
        <time>2022-05-26T09:22:29Z</time>
      </trkpt>
      <trkpt lat="46.80009" lon="5.986">
        <ele>870.5</ele>
        <time>2022-05-26T09:22:45Z</time>
      </trkpt>
      <trkpt lat="46.80011" lon="5.98606">
        <ele>872.1</ele>
        <time>2022-05-26T09:22:51Z</time>
      </trkpt>
      <trkpt lat="46.80009" lon="5.98612">
        <ele>873.5</ele>
        <time>2022-05-26T09:22:56Z</time>
      </trkpt>
      <trkpt lat="46.80006" lon="5.98622">
        <ele>875</ele>
        <time>2022-05-26T09:22:59Z</time>
      </trkpt>
      <trkpt lat="46.80007" lon="5.98629">
        <ele>876.5</ele>
        <time>2022-05-26T09:23:03Z</time>
      </trkpt>
      <trkpt lat="46.80011" lon="5.98634">
        <ele>877.3</ele>
        <time>2022-05-26T09:23:09Z</time>
      </trkpt>
      <trkpt lat="46.80009" lon="5.98641">
        <ele>876.6</ele>
        <time>2022-05-26T09:23:17Z</time>
      </trkpt>
      <trkpt lat="46.8001" lon="5.98648">
        <ele>874.8</ele>
        <time>2022-05-26T09:23:26Z</time>
      </trkpt>
      <trkpt lat="46.80009" lon="5.98655">
        <ele>872.1</ele>
        <time>2022-05-26T09:23:34Z</time>
      </trkpt>
      <trkpt lat="46.80011" lon="5.98661">
        <ele>868.9</ele>
        <time>2022-05-26T09:23:40Z</time>
      </trkpt>
      <trkpt lat="46.8001" lon="5.98669">
        <ele>861.1</ele>
        <time>2022-05-26T09:23:54Z</time>
      </trkpt>
      <trkpt lat="46.80008" lon="5.98676">
        <ele>858.7</ele>
        <time>2022-05-26T09:23:59Z</time>
      </trkpt>
      <trkpt lat="46.80008" lon="5.98684">
        <ele>856</ele>
        <time>2022-05-26T09:24:04Z</time>
      </trkpt>
      <trkpt lat="46.80009" lon="5.9869">
        <ele>854.3</ele>
        <time>2022-05-26T09:24:07Z</time>
      </trkpt>
      <trkpt lat="46.8001" lon="5.98698">
        <ele>852.3</ele>
        <time>2022-05-26T09:24:10Z</time>
      </trkpt>
      <trkpt lat="46.80012" lon="5.98705">
        <ele>850.1</ele>
        <time>2022-05-26T09:24:13Z</time>
      </trkpt>
      <trkpt lat="46.80013" lon="5.98712">
        <ele>846.9</ele>
        <time>2022-05-26T09:24:18Z</time>
      </trkpt>
      <trkpt lat="46.80013" lon="5.9872">
        <ele>840.6</ele>
        <time>2022-05-26T09:24:29Z</time>
      </trkpt>
      <trkpt lat="46.80012" lon="5.98727">
        <ele>839.2</ele>
        <time>2022-05-26T09:24:32Z</time>
      </trkpt>
      <trkpt lat="46.80012" lon="5.98735">
        <ele>837.7</ele>
        <time>2022-05-26T09:24:36Z</time>
      </trkpt>
      <trkpt lat="46.80012" lon="5.98742">
        <ele>835.8</ele>
        <time>2022-05-26T09:25:02Z</time>
      </trkpt>
      <trkpt lat="46.80012" lon="5.98748">
        <ele>835.9</ele>
        <time>2022-05-26T09:25:09Z</time>
      </trkpt>
      <trkpt lat="46.80017" lon="5.98749">
        <ele>837.3</ele>
        <time>2022-05-26T09:25:59Z</time>
      </trkpt>
      <trkpt lat="46.80014" lon="5.98754">
        <ele>838.6</ele>
        <time>2022-05-26T09:26:11Z</time>
      </trkpt>
      <trkpt lat="46.80018" lon="5.98755">
        <ele>838.7</ele>
        <time>2022-05-26T09:26:46Z</time>
      </trkpt>
      <trkpt lat="46.80022" lon="5.98758">
        <ele>837.8</ele>
        <time>2022-05-26T09:26:52Z</time>
      </trkpt>
      <trkpt lat="46.80025" lon="5.98766">
        <ele>837.1</ele>
        <time>2022-05-26T09:27:01Z</time>
      </trkpt>
      <trkpt lat="46.80027" lon="5.98772">
        <ele>837.4</ele>
        <time>2022-05-26T09:27:05Z</time>
      </trkpt>
      <trkpt lat="46.80032" lon="5.98776">
        <ele>838.3</ele>
        <time>2022-05-26T09:27:11Z</time>
      </trkpt>
      <trkpt lat="46.80036" lon="5.9878">
        <ele>839.5</ele>
        <time>2022-05-26T09:27:17Z</time>
      </trkpt>
      <trkpt lat="46.80039" lon="5.98785">
        <ele>840.5</ele>
        <time>2022-05-26T09:27:25Z</time>
      </trkpt>
      <trkpt lat="46.80042" lon="5.98791">
        <ele>840.7</ele>
        <time>2022-05-26T09:27:32Z</time>
      </trkpt>
      <trkpt lat="46.80043" lon="5.98798">
        <ele>840.5</ele>
        <time>2022-05-26T09:27:35Z</time>
      </trkpt>
      <trkpt lat="46.80045" lon="5.98806">
        <ele>840.3</ele>
        <time>2022-05-26T09:27:38Z</time>
      </trkpt>
      <trkpt lat="46.80046" lon="5.98812">
        <ele>839.9</ele>
        <time>2022-05-26T09:27:43Z</time>
      </trkpt>
      <trkpt lat="46.8005" lon="5.98814">
        <ele>839.3</ele>
        <time>2022-05-26T09:27:48Z</time>
      </trkpt>
      <trkpt lat="46.80054" lon="5.98821">
        <ele>836.8</ele>
        <time>2022-05-26T09:28:02Z</time>
      </trkpt>
      <trkpt lat="46.80055" lon="5.98829">
        <ele>836</ele>
        <time>2022-05-26T09:28:06Z</time>
      </trkpt>
      <trkpt lat="46.80057" lon="5.98835">
        <ele>835.4</ele>
        <time>2022-05-26T09:28:10Z</time>
      </trkpt>
      <trkpt lat="46.80057" lon="5.98842">
        <ele>834.8</ele>
        <time>2022-05-26T09:28:17Z</time>
      </trkpt>
      <trkpt lat="46.80058" lon="5.98848">
        <ele>834.9</ele>
        <time>2022-05-26T09:28:23Z</time>
      </trkpt>
      <trkpt lat="46.80063" lon="5.98851">
        <ele>835</ele>
        <time>2022-05-26T09:28:29Z</time>
      </trkpt>
      <trkpt lat="46.80068" lon="5.9885">
        <ele>835.3</ele>
        <time>2022-05-26T09:28:40Z</time>
      </trkpt>
      <trkpt lat="46.80062" lon="5.98853">
        <ele>836.1</ele>
        <time>2022-05-26T09:28:49Z</time>
      </trkpt>
      <trkpt lat="46.80058" lon="5.9886">
        <ele>836.6</ele>
        <time>2022-05-26T09:28:52Z</time>
      </trkpt>
      <trkpt lat="46.80055" lon="5.98865">
        <ele>837.2</ele>
        <time>2022-05-26T09:28:56Z</time>
      </trkpt>
      <trkpt lat="46.80051" lon="5.98867">
        <ele>837.3</ele>
        <time>2022-05-26T09:29:03Z</time>
      </trkpt>
      <trkpt lat="46.80048" lon="5.98873">
        <ele>836.9</ele>
        <time>2022-05-26T09:29:11Z</time>
      </trkpt>
      <trkpt lat="46.80045" lon="5.98878">
        <ele>836.7</ele>
        <time>2022-05-26T09:29:17Z</time>
      </trkpt>
      <trkpt lat="46.80041" lon="5.98882">
        <ele>836.4</ele>
        <time>2022-05-26T09:29:23Z</time>
      </trkpt>
      <trkpt lat="46.80037" lon="5.98886">
        <ele>836.1</ele>
        <time>2022-05-26T09:29:29Z</time>
      </trkpt>
      <trkpt lat="46.80033" lon="5.98892">
        <ele>835.5</ele>
        <time>2022-05-26T09:29:35Z</time>
      </trkpt>
      <trkpt lat="46.80029" lon="5.98896">
        <ele>834.7</ele>
        <time>2022-05-26T09:29:41Z</time>
      </trkpt>
      <trkpt lat="46.80025" lon="5.989">
        <ele>834.5</ele>
        <time>2022-05-26T09:29:46Z</time>
      </trkpt>
      <trkpt lat="46.80021" lon="5.98904">
        <ele>834.4</ele>
        <time>2022-05-26T09:29:50Z</time>
      </trkpt>
      <trkpt lat="46.80016" lon="5.98909">
        <ele>834.6</ele>
        <time>2022-05-26T09:29:54Z</time>
      </trkpt>
      <trkpt lat="46.80013" lon="5.98914">
        <ele>834.9</ele>
        <time>2022-05-26T09:29:57Z</time>
      </trkpt>
      <trkpt lat="46.80008" lon="5.98918">
        <ele>835.3</ele>
        <time>2022-05-26T09:30:01Z</time>
      </trkpt>
      <trkpt lat="46.80004" lon="5.98923">
        <ele>835.7</ele>
        <time>2022-05-26T09:30:05Z</time>
      </trkpt>
      <trkpt lat="46.8" lon="5.98927">
        <ele>835.9</ele>
        <time>2022-05-26T09:30:09Z</time>
      </trkpt>
      <trkpt lat="46.79997" lon="5.98932">
        <ele>836.1</ele>
        <time>2022-05-26T09:30:14Z</time>
      </trkpt>
      <trkpt lat="46.79993" lon="5.98937">
        <ele>836.3</ele>
        <time>2022-05-26T09:30:19Z</time>
      </trkpt>
      <trkpt lat="46.79989" lon="5.9894">
        <ele>836.7</ele>
        <time>2022-05-26T09:30:26Z</time>
      </trkpt>
      <trkpt lat="46.79984" lon="5.98943">
        <ele>839.1</ele>
        <time>2022-05-26T09:30:41Z</time>
      </trkpt>
      <trkpt lat="46.79981" lon="5.98948">
        <ele>840.9</ele>
        <time>2022-05-26T09:30:57Z</time>
      </trkpt>
      <trkpt lat="46.79975" lon="5.98949">
        <ele>842</ele>
        <time>2022-05-26T09:31:04Z</time>
      </trkpt>
      <trkpt lat="46.79975" lon="5.98956">
        <ele>844.1</ele>
        <time>2022-05-26T09:31:19Z</time>
      </trkpt>
      <trkpt lat="46.7997" lon="5.98955">
        <ele>846.7</ele>
        <time>2022-05-26T09:31:44Z</time>
      </trkpt>
      <trkpt lat="46.7997" lon="5.98948">
        <ele>846.7</ele>
        <time>2022-05-26T09:32:10Z</time>
      </trkpt>
      <trkpt lat="46.79971" lon="5.98955">
        <ele>846.8</ele>
        <time>2022-05-26T09:32:21Z</time>
      </trkpt>
      <trkpt lat="46.79967" lon="5.9895">
        <ele>847.9</ele>
        <time>2022-05-26T09:32:29Z</time>
      </trkpt>
      <trkpt lat="46.79962" lon="5.98951">
        <ele>852.5</ele>
        <time>2022-05-26T09:32:59Z</time>
      </trkpt>
      <trkpt lat="46.79958" lon="5.98956">
        <ele>852.8</ele>
        <time>2022-05-26T09:33:04Z</time>
      </trkpt>
      <trkpt lat="46.79953" lon="5.98959">
        <ele>853.3</ele>
        <time>2022-05-26T09:33:14Z</time>
      </trkpt>
      <trkpt lat="46.79949" lon="5.98964">
        <ele>854</ele>
        <time>2022-05-26T09:33:23Z</time>
      </trkpt>
      <trkpt lat="46.79944" lon="5.98966">
        <ele>854.4</ele>
        <time>2022-05-26T09:33:30Z</time>
      </trkpt>
      <trkpt lat="46.79939" lon="5.98967">
        <ele>854.7</ele>
        <time>2022-05-26T09:33:35Z</time>
      </trkpt>
      <trkpt lat="46.79939" lon="5.98959">
        <ele>855.2</ele>
        <time>2022-05-26T09:33:42Z</time>
      </trkpt>
      <trkpt lat="46.79936" lon="5.98954">
        <ele>855.2</ele>
        <time>2022-05-26T09:33:48Z</time>
      </trkpt>
      <trkpt lat="46.79931" lon="5.98953">
        <ele>855.2</ele>
        <time>2022-05-26T09:33:55Z</time>
      </trkpt>
      <trkpt lat="46.79926" lon="5.98953">
        <ele>855.1</ele>
        <time>2022-05-26T09:34:00Z</time>
      </trkpt>
      <trkpt lat="46.79922" lon="5.98955">
        <ele>855.1</ele>
        <time>2022-05-26T09:34:06Z</time>
      </trkpt>
      <trkpt lat="46.79917" lon="5.98954">
        <ele>855.1</ele>
        <time>2022-05-26T09:34:15Z</time>
      </trkpt>
      <trkpt lat="46.79914" lon="5.98948">
        <ele>855.5</ele>
        <time>2022-05-26T09:34:25Z</time>
      </trkpt>
      <trkpt lat="46.79909" lon="5.9895">
        <ele>856.2</ele>
        <time>2022-05-26T09:34:30Z</time>
      </trkpt>
      <trkpt lat="46.79904" lon="5.98952">
        <ele>856.6</ele>
        <time>2022-05-26T09:34:33Z</time>
      </trkpt>
      <trkpt lat="46.799" lon="5.98955">
        <ele>856.9</ele>
        <time>2022-05-26T09:34:37Z</time>
      </trkpt>
      <trkpt lat="46.79896" lon="5.98951">
        <ele>857.3</ele>
        <time>2022-05-26T09:34:46Z</time>
      </trkpt>
      <trkpt lat="46.79893" lon="5.98957">
        <ele>857.8</ele>
        <time>2022-05-26T09:34:53Z</time>
      </trkpt>
      <trkpt lat="46.79889" lon="5.98956">
        <ele>858</ele>
        <time>2022-05-26T09:34:58Z</time>
      </trkpt>
      <trkpt lat="46.79883" lon="5.98951">
        <ele>858</ele>
        <time>2022-05-26T09:35:01Z</time>
      </trkpt>
      <trkpt lat="46.79882" lon="5.98939">
        <ele>858.2</ele>
        <time>2022-05-26T09:35:04Z</time>
      </trkpt>
      <trkpt lat="46.79877" lon="5.9894">
        <ele>858.4</ele>
        <time>2022-05-26T09:35:08Z</time>
      </trkpt>
      <trkpt lat="46.79873" lon="5.98943">
        <ele>858</ele>
        <time>2022-05-26T09:35:23Z</time>
      </trkpt>
      <trkpt lat="46.79869" lon="5.98947">
        <ele>858.3</ele>
        <time>2022-05-26T09:35:30Z</time>
      </trkpt>
      <trkpt lat="46.79866" lon="5.98941">
        <ele>859.7</ele>
        <time>2022-05-26T09:35:39Z</time>
      </trkpt>
      <trkpt lat="46.79861" lon="5.98939">
        <ele>861.6</ele>
        <time>2022-05-26T09:35:48Z</time>
      </trkpt>
      <trkpt lat="46.79855" lon="5.98937">
        <ele>862.9</ele>
        <time>2022-05-26T09:35:52Z</time>
      </trkpt>
      <trkpt lat="46.79851" lon="5.98939">
        <ele>865.4</ele>
        <time>2022-05-26T09:36:00Z</time>
      </trkpt>
      <trkpt lat="46.79846" lon="5.98936">
        <ele>866.8</ele>
        <time>2022-05-26T09:36:09Z</time>
      </trkpt>
      <trkpt lat="46.79842" lon="5.98932">
        <ele>867</ele>
        <time>2022-05-26T09:36:15Z</time>
      </trkpt>
      <trkpt lat="46.79837" lon="5.9893">
        <ele>867.4</ele>
        <time>2022-05-26T09:36:21Z</time>
      </trkpt>
      <trkpt lat="46.79832" lon="5.98928">
        <ele>868.3</ele>
        <time>2022-05-26T09:36:25Z</time>
      </trkpt>
      <trkpt lat="46.79829" lon="5.98923">
        <ele>869.2</ele>
        <time>2022-05-26T09:36:28Z</time>
      </trkpt>
      <trkpt lat="46.79828" lon="5.98916">
        <ele>870.2</ele>
        <time>2022-05-26T09:36:32Z</time>
      </trkpt>
      <trkpt lat="46.79826" lon="5.98911">
        <ele>871.2</ele>
        <time>2022-05-26T09:36:37Z</time>
      </trkpt>
      <trkpt lat="46.79821" lon="5.98913">
        <ele>871.7</ele>
        <time>2022-05-26T09:36:43Z</time>
      </trkpt>
      <trkpt lat="46.79816" lon="5.98913">
        <ele>872.5</ele>
        <time>2022-05-26T09:36:48Z</time>
      </trkpt>
      <trkpt lat="46.79811" lon="5.98914">
        <ele>873.5</ele>
        <time>2022-05-26T09:36:52Z</time>
      </trkpt>
      <trkpt lat="46.79806" lon="5.98913">
        <ele>875.5</ele>
        <time>2022-05-26T09:36:58Z</time>
      </trkpt>
      <trkpt lat="46.79802" lon="5.98911">
        <ele>877.6</ele>
        <time>2022-05-26T09:37:04Z</time>
      </trkpt>
      <trkpt lat="46.79797" lon="5.98909">
        <ele>881.4</ele>
        <time>2022-05-26T09:37:12Z</time>
      </trkpt>
      <trkpt lat="46.79792" lon="5.98908">
        <ele>882.7</ele>
        <time>2022-05-26T09:37:17Z</time>
      </trkpt>
      <trkpt lat="46.79786" lon="5.98909">
        <ele>883.2</ele>
        <time>2022-05-26T09:37:24Z</time>
      </trkpt>
      <trkpt lat="46.79781" lon="5.98913">
        <ele>883</ele>
        <time>2022-05-26T09:37:27Z</time>
      </trkpt>
      <trkpt lat="46.79777" lon="5.98912">
        <ele>883.3</ele>
        <time>2022-05-26T09:37:32Z</time>
      </trkpt>
      <trkpt lat="46.79772" lon="5.9891">
        <ele>884.1</ele>
        <time>2022-05-26T09:37:36Z</time>
      </trkpt>
      <trkpt lat="46.79772" lon="5.98903">
        <ele>886.5</ele>
        <time>2022-05-26T09:37:47Z</time>
      </trkpt>
      <trkpt lat="46.79767" lon="5.989">
        <ele>886.5</ele>
        <time>2022-05-26T09:37:52Z</time>
      </trkpt>
      <trkpt lat="46.79763" lon="5.989">
        <ele>886.7</ele>
        <time>2022-05-26T09:37:58Z</time>
      </trkpt>
      <trkpt lat="46.79759" lon="5.98895">
        <ele>887.5</ele>
        <time>2022-05-26T09:38:05Z</time>
      </trkpt>
      <trkpt lat="46.79757" lon="5.98889">
        <ele>888.5</ele>
        <time>2022-05-26T09:38:10Z</time>
      </trkpt>
      <trkpt lat="46.79753" lon="5.98884">
        <ele>889.9</ele>
        <time>2022-05-26T09:38:17Z</time>
      </trkpt>
      <trkpt lat="46.79748" lon="5.98881">
        <ele>890.4</ele>
        <time>2022-05-26T09:38:23Z</time>
      </trkpt>
      <trkpt lat="46.79743" lon="5.98877">
        <ele>890.4</ele>
        <time>2022-05-26T09:38:27Z</time>
      </trkpt>
      <trkpt lat="46.79738" lon="5.98876">
        <ele>890.2</ele>
        <time>2022-05-26T09:38:30Z</time>
      </trkpt>
      <trkpt lat="46.79733" lon="5.98876">
        <ele>889.9</ele>
        <time>2022-05-26T09:38:35Z</time>
      </trkpt>
      <trkpt lat="46.79728" lon="5.98873">
        <ele>889.3</ele>
        <time>2022-05-26T09:38:40Z</time>
      </trkpt>
      <trkpt lat="46.79732" lon="5.98878">
        <ele>892.6</ele>
        <time>2022-05-26T09:39:09Z</time>
      </trkpt>
      <trkpt lat="46.79736" lon="5.98877">
        <ele>893.8</ele>
        <time>2022-05-26T09:39:15Z</time>
      </trkpt>
      <trkpt lat="46.79739" lon="5.98871">
        <ele>896.2</ele>
        <time>2022-05-26T09:39:33Z</time>
      </trkpt>
      <trkpt lat="46.79744" lon="5.98868">
        <ele>896.2</ele>
        <time>2022-05-26T09:39:38Z</time>
      </trkpt>
      <trkpt lat="46.79736" lon="5.98867">
        <ele>897.3</ele>
        <time>2022-05-26T09:40:43Z</time>
      </trkpt>
      <trkpt lat="46.79732" lon="5.9887">
        <ele>898.2</ele>
        <time>2022-05-26T09:40:51Z</time>
      </trkpt>
      <trkpt lat="46.79727" lon="5.98871">
        <ele>896.6</ele>
        <time>2022-05-26T09:41:11Z</time>
      </trkpt>
      <trkpt lat="46.79722" lon="5.98872">
        <ele>889.3</ele>
        <time>2022-05-26T09:41:48Z</time>
      </trkpt>
      <trkpt lat="46.79718" lon="5.98867">
        <ele>890.1</ele>
        <time>2022-05-26T09:42:23Z</time>
      </trkpt>
      <trkpt lat="46.79718" lon="5.9886">
        <ele>889.8</ele>
        <time>2022-05-26T09:42:30Z</time>
      </trkpt>
      <trkpt lat="46.79714" lon="5.98856">
        <ele>889.4</ele>
        <time>2022-05-26T09:42:35Z</time>
      </trkpt>
      <trkpt lat="46.79709" lon="5.98851">
        <ele>889</ele>
        <time>2022-05-26T09:42:39Z</time>
      </trkpt>
      <trkpt lat="46.79705" lon="5.98847">
        <ele>888.5</ele>
        <time>2022-05-26T09:42:43Z</time>
      </trkpt>
      <trkpt lat="46.79701" lon="5.98845">
        <ele>888</ele>
        <time>2022-05-26T09:42:47Z</time>
      </trkpt>
      <trkpt lat="46.797" lon="5.98838">
        <ele>887.5</ele>
        <time>2022-05-26T09:42:58Z</time>
      </trkpt>
      <trkpt lat="46.79696" lon="5.98835">
        <ele>887</ele>
        <time>2022-05-26T09:43:05Z</time>
      </trkpt>
      <trkpt lat="46.79691" lon="5.98833">
        <ele>886.3</ele>
        <time>2022-05-26T09:43:22Z</time>
      </trkpt>
      <trkpt lat="46.79686" lon="5.98831">
        <ele>886.1</ele>
        <time>2022-05-26T09:43:27Z</time>
      </trkpt>
      <trkpt lat="46.79681" lon="5.9883">
        <ele>886.1</ele>
        <time>2022-05-26T09:43:31Z</time>
      </trkpt>
      <trkpt lat="46.79675" lon="5.9883">
        <ele>886.2</ele>
        <time>2022-05-26T09:43:34Z</time>
      </trkpt>
      <trkpt lat="46.7967" lon="5.98829">
        <ele>886.1</ele>
        <time>2022-05-26T09:43:39Z</time>
      </trkpt>
      <trkpt lat="46.79666" lon="5.98834">
        <ele>885.3</ele>
        <time>2022-05-26T09:43:46Z</time>
      </trkpt>
      <trkpt lat="46.79662" lon="5.98839">
        <ele>885.1</ele>
        <time>2022-05-26T09:43:54Z</time>
      </trkpt>
      <trkpt lat="46.79658" lon="5.98844">
        <ele>884.7</ele>
        <time>2022-05-26T09:44:05Z</time>
      </trkpt>
      <trkpt lat="46.79654" lon="5.98847">
        <ele>883.9</ele>
        <time>2022-05-26T09:44:13Z</time>
      </trkpt>
      <trkpt lat="46.79649" lon="5.98848">
        <ele>883.4</ele>
        <time>2022-05-26T09:44:17Z</time>
      </trkpt>
      <trkpt lat="46.79644" lon="5.98849">
        <ele>883.1</ele>
        <time>2022-05-26T09:44:21Z</time>
      </trkpt>
      <trkpt lat="46.79639" lon="5.9885">
        <ele>883</ele>
        <time>2022-05-26T09:44:24Z</time>
      </trkpt>
      <trkpt lat="46.79633" lon="5.98851">
        <ele>882.8</ele>
        <time>2022-05-26T09:44:28Z</time>
      </trkpt>
      <trkpt lat="46.79628" lon="5.98852">
        <ele>882.8</ele>
        <time>2022-05-26T09:44:31Z</time>
      </trkpt>
      <trkpt lat="46.79623" lon="5.98853">
        <ele>882.7</ele>
        <time>2022-05-26T09:44:35Z</time>
      </trkpt>
      <trkpt lat="46.79619" lon="5.98851">
        <ele>882.4</ele>
        <time>2022-05-26T09:44:40Z</time>
      </trkpt>
      <trkpt lat="46.79616" lon="5.98846">
        <ele>882</ele>
        <time>2022-05-26T09:44:48Z</time>
      </trkpt>
      <trkpt lat="46.7961" lon="5.98845">
        <ele>881.9</ele>
        <time>2022-05-26T09:44:54Z</time>
      </trkpt>
      <trkpt lat="46.79605" lon="5.98844">
        <ele>881.7</ele>
        <time>2022-05-26T09:44:58Z</time>
      </trkpt>
      <trkpt lat="46.796" lon="5.98843">
        <ele>881.4</ele>
        <time>2022-05-26T09:45:01Z</time>
      </trkpt>
      <trkpt lat="46.79595" lon="5.98843">
        <ele>881.2</ele>
        <time>2022-05-26T09:45:05Z</time>
      </trkpt>
      <trkpt lat="46.7959" lon="5.98841">
        <ele>880.8</ele>
        <time>2022-05-26T09:45:10Z</time>
      </trkpt>
      <trkpt lat="46.79586" lon="5.98837">
        <ele>880.4</ele>
        <time>2022-05-26T09:45:15Z</time>
      </trkpt>
      <trkpt lat="46.79582" lon="5.98836">
        <ele>880</ele>
        <time>2022-05-26T09:45:18Z</time>
      </trkpt>
      <trkpt lat="46.79577" lon="5.98833">
        <ele>879.8</ele>
        <time>2022-05-26T09:45:22Z</time>
      </trkpt>
      <trkpt lat="46.79573" lon="5.98828">
        <ele>879</ele>
        <time>2022-05-26T09:45:30Z</time>
      </trkpt>
      <trkpt lat="46.79569" lon="5.98823">
        <ele>878.8</ele>
        <time>2022-05-26T09:45:34Z</time>
      </trkpt>
      <trkpt lat="46.79564" lon="5.9882">
        <ele>878.7</ele>
        <time>2022-05-26T09:45:40Z</time>
      </trkpt>
      <trkpt lat="46.79561" lon="5.98815">
        <ele>878.8</ele>
        <time>2022-05-26T09:45:45Z</time>
      </trkpt>
      <trkpt lat="46.79557" lon="5.9881">
        <ele>878.8</ele>
        <time>2022-05-26T09:45:50Z</time>
      </trkpt>
      <trkpt lat="46.79553" lon="5.98806">
        <ele>878.8</ele>
        <time>2022-05-26T09:45:54Z</time>
      </trkpt>
      <trkpt lat="46.79548" lon="5.98802">
        <ele>878.8</ele>
        <time>2022-05-26T09:45:58Z</time>
      </trkpt>
      <trkpt lat="46.79544" lon="5.988">
        <ele>877.4</ele>
        <time>2022-05-26T09:46:06Z</time>
      </trkpt>
      <trkpt lat="46.79539" lon="5.98798">
        <ele>876.9</ele>
        <time>2022-05-26T09:46:13Z</time>
      </trkpt>
      <trkpt lat="46.79534" lon="5.98795">
        <ele>877.3</ele>
        <time>2022-05-26T09:46:17Z</time>
      </trkpt>
      <trkpt lat="46.7953" lon="5.9879">
        <ele>877.4</ele>
        <time>2022-05-26T09:46:21Z</time>
      </trkpt>
      <trkpt lat="46.79526" lon="5.98784">
        <ele>877.4</ele>
        <time>2022-05-26T09:46:24Z</time>
      </trkpt>
      <trkpt lat="46.79521" lon="5.98779">
        <ele>877.1</ele>
        <time>2022-05-26T09:46:28Z</time>
      </trkpt>
      <trkpt lat="46.79519" lon="5.98773">
        <ele>876.1</ele>
        <time>2022-05-26T09:46:32Z</time>
      </trkpt>
      <trkpt lat="46.79516" lon="5.98768">
        <ele>875.2</ele>
        <time>2022-05-26T09:46:36Z</time>
      </trkpt>
      <trkpt lat="46.79513" lon="5.98761">
        <ele>874.9</ele>
        <time>2022-05-26T09:46:41Z</time>
      </trkpt>
      <trkpt lat="46.7951" lon="5.98757">
        <ele>875</ele>
        <time>2022-05-26T09:46:48Z</time>
      </trkpt>
      <trkpt lat="46.79507" lon="5.98751">
        <ele>874.6</ele>
        <time>2022-05-26T09:46:56Z</time>
      </trkpt>
      <trkpt lat="46.79504" lon="5.98746">
        <ele>874.4</ele>
        <time>2022-05-26T09:47:01Z</time>
      </trkpt>
      <trkpt lat="46.795" lon="5.98742">
        <ele>873.8</ele>
        <time>2022-05-26T09:47:09Z</time>
      </trkpt>
      <trkpt lat="46.79495" lon="5.9874">
        <ele>873.5</ele>
        <time>2022-05-26T09:47:12Z</time>
      </trkpt>
      <trkpt lat="46.7949" lon="5.98741">
        <ele>873.3</ele>
        <time>2022-05-26T09:47:17Z</time>
      </trkpt>
      <trkpt lat="46.79484" lon="5.98743">
        <ele>872.8</ele>
        <time>2022-05-26T09:47:21Z</time>
      </trkpt>
      <trkpt lat="46.7948" lon="5.98745">
        <ele>872.4</ele>
        <time>2022-05-26T09:47:25Z</time>
      </trkpt>
      <trkpt lat="46.79475" lon="5.98747">
        <ele>872</ele>
        <time>2022-05-26T09:47:29Z</time>
      </trkpt>
      <trkpt lat="46.7947" lon="5.98749">
        <ele>871.4</ele>
        <time>2022-05-26T09:47:34Z</time>
      </trkpt>
      <trkpt lat="46.79465" lon="5.98752">
        <ele>870.7</ele>
        <time>2022-05-26T09:47:39Z</time>
      </trkpt>
      <trkpt lat="46.79461" lon="5.98755">
        <ele>869.3</ele>
        <time>2022-05-26T09:47:48Z</time>
      </trkpt>
      <trkpt lat="46.79456" lon="5.98758">
        <ele>868.2</ele>
        <time>2022-05-26T09:47:56Z</time>
      </trkpt>
      <trkpt lat="46.79451" lon="5.98759">
        <ele>867.8</ele>
        <time>2022-05-26T09:48:01Z</time>
      </trkpt>
      <trkpt lat="46.79446" lon="5.98761">
        <ele>867.5</ele>
        <time>2022-05-26T09:48:04Z</time>
      </trkpt>
      <trkpt lat="46.79443" lon="5.98765">
        <ele>867</ele>
        <time>2022-05-26T09:48:08Z</time>
      </trkpt>
      <trkpt lat="46.79439" lon="5.9877">
        <ele>866.4</ele>
        <time>2022-05-26T09:48:13Z</time>
      </trkpt>
      <trkpt lat="46.79435" lon="5.98774">
        <ele>865.9</ele>
        <time>2022-05-26T09:48:20Z</time>
      </trkpt>
      <trkpt lat="46.79431" lon="5.98778">
        <ele>865.5</ele>
        <time>2022-05-26T09:48:26Z</time>
      </trkpt>
      <trkpt lat="46.79427" lon="5.98783">
        <ele>865.2</ele>
        <time>2022-05-26T09:48:31Z</time>
      </trkpt>
      <trkpt lat="46.79425" lon="5.9879">
        <ele>864</ele>
        <time>2022-05-26T09:48:39Z</time>
      </trkpt>
      <trkpt lat="46.79423" lon="5.98796">
        <ele>861.9</ele>
        <time>2022-05-26T09:48:47Z</time>
      </trkpt>
      <trkpt lat="46.7942" lon="5.98801">
        <ele>860.4</ele>
        <time>2022-05-26T09:48:55Z</time>
      </trkpt>
      <trkpt lat="46.7942" lon="5.98809">
        <ele>859.8</ele>
        <time>2022-05-26T09:49:01Z</time>
      </trkpt>
      <trkpt lat="46.79419" lon="5.98816">
        <ele>859.3</ele>
        <time>2022-05-26T09:49:07Z</time>
      </trkpt>
      <trkpt lat="46.79419" lon="5.98824">
        <ele>858.7</ele>
        <time>2022-05-26T09:49:13Z</time>
      </trkpt>
      <trkpt lat="46.79419" lon="5.98831">
        <ele>857.8</ele>
        <time>2022-05-26T09:49:19Z</time>
      </trkpt>
      <trkpt lat="46.79412" lon="5.98829">
        <ele>857.4</ele>
        <time>2022-05-26T09:49:24Z</time>
      </trkpt>
      <trkpt lat="46.79407" lon="5.98827">
        <ele>857.3</ele>
        <time>2022-05-26T09:49:27Z</time>
      </trkpt>
      <trkpt lat="46.79403" lon="5.98833">
        <ele>855.8</ele>
        <time>2022-05-26T09:49:56Z</time>
      </trkpt>
      <trkpt lat="46.79399" lon="5.98829">
        <ele>854.3</ele>
        <time>2022-05-26T09:50:02Z</time>
      </trkpt>
      <trkpt lat="46.79394" lon="5.98825">
        <ele>853.3</ele>
        <time>2022-05-26T09:50:06Z</time>
      </trkpt>
      <trkpt lat="46.79395" lon="5.98818">
        <ele>851.9</ele>
        <time>2022-05-26T09:50:13Z</time>
      </trkpt>
      <trkpt lat="46.794" lon="5.98816">
        <ele>851.3</ele>
        <time>2022-05-26T09:50:18Z</time>
      </trkpt>
      <trkpt lat="46.79399" lon="5.98809">
        <ele>850.8</ele>
        <time>2022-05-26T09:50:24Z</time>
      </trkpt>
      <trkpt lat="46.79396" lon="5.98803">
        <ele>850.1</ele>
        <time>2022-05-26T09:50:30Z</time>
      </trkpt>
      <trkpt lat="46.79393" lon="5.98797">
        <ele>849.7</ele>
        <time>2022-05-26T09:50:34Z</time>
      </trkpt>
      <trkpt lat="46.79397" lon="5.98792">
        <ele>848.9</ele>
        <time>2022-05-26T09:50:40Z</time>
      </trkpt>
      <trkpt lat="46.79397" lon="5.98785">
        <ele>848.2</ele>
        <time>2022-05-26T09:50:44Z</time>
      </trkpt>
      <trkpt lat="46.79395" lon="5.98779">
        <ele>847.4</ele>
        <time>2022-05-26T09:50:49Z</time>
      </trkpt>
      <trkpt lat="46.79392" lon="5.98773">
        <ele>846.5</ele>
        <time>2022-05-26T09:50:55Z</time>
      </trkpt>
      <trkpt lat="46.79392" lon="5.98766">
        <ele>845.5</ele>
        <time>2022-05-26T09:51:03Z</time>
      </trkpt>
      <trkpt lat="46.7939" lon="5.9876">
        <ele>844.8</ele>
        <time>2022-05-26T09:51:08Z</time>
      </trkpt>
      <trkpt lat="46.79387" lon="5.98754">
        <ele>844.3</ele>
        <time>2022-05-26T09:51:13Z</time>
      </trkpt>
      <trkpt lat="46.79386" lon="5.98746">
        <ele>843.6</ele>
        <time>2022-05-26T09:51:19Z</time>
      </trkpt>
      <trkpt lat="46.79385" lon="5.9874">
        <ele>843.4</ele>
        <time>2022-05-26T09:51:24Z</time>
      </trkpt>
      <trkpt lat="46.79384" lon="5.98732">
        <ele>843.1</ele>
        <time>2022-05-26T09:51:32Z</time>
      </trkpt>
      <trkpt lat="46.79384" lon="5.98725">
        <ele>842.5</ele>
        <time>2022-05-26T09:51:38Z</time>
      </trkpt>
      <trkpt lat="46.79384" lon="5.98718">
        <ele>842.5</ele>
        <time>2022-05-26T09:51:43Z</time>
      </trkpt>
      <trkpt lat="46.79382" lon="5.98711">
        <ele>843</ele>
        <time>2022-05-26T09:51:48Z</time>
      </trkpt>
      <trkpt lat="46.79381" lon="5.98704">
        <ele>844.4</ele>
        <time>2022-05-26T09:51:55Z</time>
      </trkpt>
      <trkpt lat="46.7938" lon="5.98697">
        <ele>845.1</ele>
        <time>2022-05-26T09:52:01Z</time>
      </trkpt>
      <trkpt lat="46.7938" lon="5.9869">
        <ele>845.8</ele>
        <time>2022-05-26T09:52:09Z</time>
      </trkpt>
      <trkpt lat="46.79379" lon="5.98684">
        <ele>846.1</ele>
        <time>2022-05-26T09:52:15Z</time>
      </trkpt>
      <trkpt lat="46.79383" lon="5.98678">
        <ele>845.8</ele>
        <time>2022-05-26T09:52:25Z</time>
      </trkpt>
      <trkpt lat="46.7938" lon="5.98673">
        <ele>845.5</ele>
        <time>2022-05-26T09:52:33Z</time>
      </trkpt>
      <trkpt lat="46.79375" lon="5.98667">
        <ele>845.5</ele>
        <time>2022-05-26T09:52:56Z</time>
      </trkpt>
      <trkpt lat="46.79372" lon="5.98661">
        <ele>845.9</ele>
        <time>2022-05-26T09:53:01Z</time>
      </trkpt>
      <trkpt lat="46.7937" lon="5.98655">
        <ele>847.1</ele>
        <time>2022-05-26T09:53:09Z</time>
      </trkpt>
      <trkpt lat="46.79369" lon="5.98648">
        <ele>848.7</ele>
        <time>2022-05-26T09:53:23Z</time>
      </trkpt>
      <trkpt lat="46.79375" lon="5.98645">
        <ele>849.1</ele>
        <time>2022-05-26T09:53:43Z</time>
      </trkpt>
      <trkpt lat="46.7937" lon="5.98643">
        <ele>849.4</ele>
        <time>2022-05-26T09:54:16Z</time>
      </trkpt>
      <trkpt lat="46.79375" lon="5.98644">
        <ele>849.9</ele>
        <time>2022-05-26T09:54:42Z</time>
      </trkpt>
      <trkpt lat="46.79378" lon="5.98649">
        <ele>850.2</ele>
        <time>2022-05-26T09:54:47Z</time>
      </trkpt>
      <trkpt lat="46.79376" lon="5.98643">
        <ele>851.5</ele>
        <time>2022-05-26T09:55:47Z</time>
      </trkpt>
      <trkpt lat="46.79372" lon="5.98643">
        <ele>851.7</ele>
        <time>2022-05-26T09:56:03Z</time>
      </trkpt>
      <trkpt lat="46.7937" lon="5.98637">
        <ele>852.3</ele>
        <time>2022-05-26T09:56:15Z</time>
      </trkpt>
      <trkpt lat="46.79367" lon="5.98632">
        <ele>852.7</ele>
        <time>2022-05-26T09:56:22Z</time>
      </trkpt>
      <trkpt lat="46.79366" lon="5.98625">
        <ele>852.2</ele>
        <time>2022-05-26T09:56:35Z</time>
      </trkpt>
      <trkpt lat="46.79361" lon="5.98624">
        <ele>852.3</ele>
        <time>2022-05-26T09:56:40Z</time>
      </trkpt>
      <trkpt lat="46.79357" lon="5.9862">
        <ele>853</ele>
        <time>2022-05-26T09:56:51Z</time>
      </trkpt>
      <trkpt lat="46.79357" lon="5.98613">
        <ele>853.5</ele>
        <time>2022-05-26T09:56:58Z</time>
      </trkpt>
      <trkpt lat="46.79356" lon="5.98606">
        <ele>854</ele>
        <time>2022-05-26T09:57:04Z</time>
      </trkpt>
      <trkpt lat="46.79354" lon="5.98599">
        <ele>854.2</ele>
        <time>2022-05-26T09:57:09Z</time>
      </trkpt>
      <trkpt lat="46.79355" lon="5.98592">
        <ele>854</ele>
        <time>2022-05-26T09:57:15Z</time>
      </trkpt>
      <trkpt lat="46.79356" lon="5.98585">
        <ele>853.9</ele>
        <time>2022-05-26T09:57:20Z</time>
      </trkpt>
      <trkpt lat="46.79357" lon="5.98577">
        <ele>853.8</ele>
        <time>2022-05-26T09:57:24Z</time>
      </trkpt>
      <trkpt lat="46.7936" lon="5.98572">
        <ele>853.5</ele>
        <time>2022-05-26T09:57:28Z</time>
      </trkpt>
      <trkpt lat="46.79364" lon="5.98567">
        <ele>853.1</ele>
        <time>2022-05-26T09:57:32Z</time>
      </trkpt>
      <trkpt lat="46.79362" lon="5.98561">
        <ele>852.2</ele>
        <time>2022-05-26T09:57:41Z</time>
      </trkpt>
      <trkpt lat="46.79361" lon="5.98554">
        <ele>851.6</ele>
        <time>2022-05-26T09:57:48Z</time>
      </trkpt>
      <trkpt lat="46.79362" lon="5.98548">
        <ele>851.3</ele>
        <time>2022-05-26T09:57:52Z</time>
      </trkpt>
      <trkpt lat="46.7936" lon="5.9854">
        <ele>850.7</ele>
        <time>2022-05-26T09:57:55Z</time>
      </trkpt>
      <trkpt lat="46.79355" lon="5.98532">
        <ele>850.4</ele>
        <time>2022-05-26T09:57:58Z</time>
      </trkpt>
      <trkpt lat="46.79355" lon="5.98525">
        <ele>849.9</ele>
        <time>2022-05-26T09:58:02Z</time>
      </trkpt>
      <trkpt lat="46.79361" lon="5.98525">
        <ele>849.2</ele>
        <time>2022-05-26T09:58:06Z</time>
      </trkpt>
      <trkpt lat="46.79366" lon="5.98527">
        <ele>848.7</ele>
        <time>2022-05-26T09:58:09Z</time>
      </trkpt>
      <trkpt lat="46.79371" lon="5.98527">
        <ele>845.5</ele>
        <time>2022-05-26T09:58:13Z</time>
      </trkpt>
      <trkpt lat="46.7937" lon="5.9852">
        <ele>842.4</ele>
        <time>2022-05-26T09:58:17Z</time>
      </trkpt>
      <trkpt lat="46.79368" lon="5.98512">
        <ele>837.9</ele>
        <time>2022-05-26T09:58:31Z</time>
      </trkpt>
      <trkpt lat="46.79366" lon="5.98506">
        <ele>837.5</ele>
        <time>2022-05-26T09:58:35Z</time>
      </trkpt>
      <trkpt lat="46.79362" lon="5.98501">
        <ele>838</ele>
        <time>2022-05-26T09:58:40Z</time>
      </trkpt>
      <trkpt lat="46.79366" lon="5.98495">
        <ele>838.9</ele>
        <time>2022-05-26T09:58:46Z</time>
      </trkpt>
      <trkpt lat="46.79365" lon="5.98488">
        <ele>840.1</ele>
        <time>2022-05-26T09:58:53Z</time>
      </trkpt>
      <trkpt lat="46.79363" lon="5.98482">
        <ele>840.9</ele>
        <time>2022-05-26T09:58:57Z</time>
      </trkpt>
      <trkpt lat="46.79359" lon="5.98477">
        <ele>843</ele>
        <time>2022-05-26T09:59:04Z</time>
      </trkpt>
      <trkpt lat="46.79357" lon="5.9847">
        <ele>847.6</ele>
        <time>2022-05-26T09:59:28Z</time>
      </trkpt>
      <trkpt lat="46.79353" lon="5.98466">
        <ele>848.6</ele>
        <time>2022-05-26T09:59:36Z</time>
      </trkpt>
      <trkpt lat="46.79349" lon="5.98465">
        <ele>848.5</ele>
        <time>2022-05-26T09:59:44Z</time>
      </trkpt>
      <trkpt lat="46.79344" lon="5.98466">
        <ele>849</ele>
        <time>2022-05-26T09:59:54Z</time>
      </trkpt>
      <trkpt lat="46.79339" lon="5.98468">
        <ele>849.5</ele>
        <time>2022-05-26T10:00:01Z</time>
      </trkpt>
      <trkpt lat="46.79335" lon="5.98465">
        <ele>849.9</ele>
        <time>2022-05-26T10:00:09Z</time>
      </trkpt>
      <trkpt lat="46.79331" lon="5.98462">
        <ele>850.3</ele>
        <time>2022-05-26T10:00:15Z</time>
      </trkpt>
      <trkpt lat="46.7933" lon="5.98468">
        <ele>850.5</ele>
        <time>2022-05-26T10:00:32Z</time>
      </trkpt>
      <trkpt lat="46.79327" lon="5.98463">
        <ele>851</ele>
        <time>2022-05-26T10:00:44Z</time>
      </trkpt>
      <trkpt lat="46.79328" lon="5.9847">
        <ele>851.2</ele>
        <time>2022-05-26T10:01:02Z</time>
      </trkpt>
      <trkpt lat="46.79329" lon="5.98464">
        <ele>852.3</ele>
        <time>2022-05-26T10:01:12Z</time>
      </trkpt>
      <trkpt lat="46.7933" lon="5.98457">
        <ele>853.9</ele>
        <time>2022-05-26T10:01:19Z</time>
      </trkpt>
      <trkpt lat="46.79329" lon="5.98451">
        <ele>854.8</ele>
        <time>2022-05-26T10:02:25Z</time>
      </trkpt>
      <trkpt lat="46.79325" lon="5.98446">
        <ele>856.3</ele>
        <time>2022-05-26T10:03:03Z</time>
      </trkpt>
      <trkpt lat="46.79328" lon="5.98451">
        <ele>855.9</ele>
        <time>2022-05-26T10:03:26Z</time>
      </trkpt>
      <trkpt lat="46.79326" lon="5.98458">
        <ele>856.1</ele>
        <time>2022-05-26T10:03:34Z</time>
      </trkpt>
      <trkpt lat="46.79323" lon="5.98462">
        <ele>856.2</ele>
        <time>2022-05-26T10:03:37Z</time>
      </trkpt>
      <trkpt lat="46.79318" lon="5.98467">
        <ele>856.4</ele>
        <time>2022-05-26T10:03:40Z</time>
      </trkpt>
      <trkpt lat="46.79312" lon="5.98467">
        <ele>856.7</ele>
        <time>2022-05-26T10:03:44Z</time>
      </trkpt>
      <trkpt lat="46.79309" lon="5.98474">
        <ele>856.4</ele>
        <time>2022-05-26T10:04:07Z</time>
      </trkpt>
      <trkpt lat="46.79305" lon="5.9848">
        <ele>856.4</ele>
        <time>2022-05-26T10:04:11Z</time>
      </trkpt>
      <trkpt lat="46.79301" lon="5.98477">
        <ele>856.6</ele>
        <time>2022-05-26T10:04:18Z</time>
      </trkpt>
      <trkpt lat="46.79296" lon="5.98478">
        <ele>854.6</ele>
        <time>2022-05-26T10:04:35Z</time>
      </trkpt>
      <trkpt lat="46.7929" lon="5.98481">
        <ele>854.3</ele>
        <time>2022-05-26T10:04:40Z</time>
      </trkpt>
      <trkpt lat="46.79284" lon="5.98484">
        <ele>854</ele>
        <time>2022-05-26T10:04:45Z</time>
      </trkpt>
      <trkpt lat="46.79279" lon="5.98483">
        <ele>853.7</ele>
        <time>2022-05-26T10:04:52Z</time>
      </trkpt>
      <trkpt lat="46.79275" lon="5.98485">
        <ele>854.9</ele>
        <time>2022-05-26T10:05:02Z</time>
      </trkpt>
      <trkpt lat="46.7927" lon="5.98488">
        <ele>855.2</ele>
        <time>2022-05-26T10:05:13Z</time>
      </trkpt>
      <trkpt lat="46.79266" lon="5.9849">
        <ele>854.9</ele>
        <time>2022-05-26T10:05:20Z</time>
      </trkpt>
      <trkpt lat="46.79262" lon="5.98485">
        <ele>854.5</ele>
        <time>2022-05-26T10:05:26Z</time>
      </trkpt>
      <trkpt lat="46.79258" lon="5.98481">
        <ele>853.6</ele>
        <time>2022-05-26T10:05:36Z</time>
      </trkpt>
      <trkpt lat="46.79253" lon="5.98482">
        <ele>852.1</ele>
        <time>2022-05-26T10:05:44Z</time>
      </trkpt>
      <trkpt lat="46.79249" lon="5.98481">
        <ele>850.9</ele>
        <time>2022-05-26T10:05:50Z</time>
      </trkpt>
      <trkpt lat="46.79244" lon="5.9848">
        <ele>849.6</ele>
        <time>2022-05-26T10:05:58Z</time>
      </trkpt>
      <trkpt lat="46.7924" lon="5.98475">
        <ele>848.7</ele>
        <time>2022-05-26T10:06:04Z</time>
      </trkpt>
      <trkpt lat="46.79235" lon="5.98471">
        <ele>847.7</ele>
        <time>2022-05-26T10:06:08Z</time>
      </trkpt>
      <trkpt lat="46.7923" lon="5.98471">
        <ele>846.7</ele>
        <time>2022-05-26T10:06:13Z</time>
      </trkpt>
      <trkpt lat="46.79227" lon="5.98465">
        <ele>844.3</ele>
        <time>2022-05-26T10:06:30Z</time>
      </trkpt>
      <trkpt lat="46.79223" lon="5.9846">
        <ele>843.6</ele>
        <time>2022-05-26T10:06:33Z</time>
      </trkpt>
      <trkpt lat="46.79218" lon="5.98456">
        <ele>842.7</ele>
        <time>2022-05-26T10:06:37Z</time>
      </trkpt>
      <trkpt lat="46.79215" lon="5.98452">
        <ele>842.2</ele>
        <time>2022-05-26T10:06:41Z</time>
      </trkpt>
      <trkpt lat="46.79211" lon="5.98446">
        <ele>841.9</ele>
        <time>2022-05-26T10:06:45Z</time>
      </trkpt>
      <trkpt lat="46.7921" lon="5.98439">
        <ele>841.5</ele>
        <time>2022-05-26T10:06:50Z</time>
      </trkpt>
      <trkpt lat="46.79209" lon="5.98433">
        <ele>841.5</ele>
        <time>2022-05-26T10:06:55Z</time>
      </trkpt>
      <trkpt lat="46.79205" lon="5.98428">
        <ele>841.6</ele>
        <time>2022-05-26T10:06:59Z</time>
      </trkpt>
      <trkpt lat="46.79201" lon="5.98431">
        <ele>842.4</ele>
        <time>2022-05-26T10:07:09Z</time>
      </trkpt>
      <trkpt lat="46.79197" lon="5.98435">
        <ele>842.3</ele>
        <time>2022-05-26T10:07:13Z</time>
      </trkpt>
      <trkpt lat="46.79193" lon="5.98436">
        <ele>842</ele>
        <time>2022-05-26T10:07:18Z</time>
      </trkpt>
      <trkpt lat="46.79188" lon="5.98438">
        <ele>841.7</ele>
        <time>2022-05-26T10:07:23Z</time>
      </trkpt>
      <trkpt lat="46.79184" lon="5.9844">
        <ele>842</ele>
        <time>2022-05-26T10:07:31Z</time>
      </trkpt>
      <trkpt lat="46.79179" lon="5.98436">
        <ele>842.1</ele>
        <time>2022-05-26T10:07:34Z</time>
      </trkpt>
      <trkpt lat="46.79175" lon="5.98433">
        <ele>842</ele>
        <time>2022-05-26T10:07:41Z</time>
      </trkpt>
      <trkpt lat="46.79171" lon="5.98429">
        <ele>842.1</ele>
        <time>2022-05-26T10:07:50Z</time>
      </trkpt>
      <trkpt lat="46.79167" lon="5.9843">
        <ele>842.3</ele>
        <time>2022-05-26T10:08:00Z</time>
      </trkpt>
      <trkpt lat="46.79162" lon="5.98431">
        <ele>842</ele>
        <time>2022-05-26T10:08:10Z</time>
      </trkpt>
      <trkpt lat="46.79158" lon="5.98426">
        <ele>841.6</ele>
        <time>2022-05-26T10:08:23Z</time>
      </trkpt>
      <trkpt lat="46.79154" lon="5.98421">
        <ele>841.4</ele>
        <time>2022-05-26T10:08:27Z</time>
      </trkpt>
      <trkpt lat="46.7915" lon="5.98418">
        <ele>841.3</ele>
        <time>2022-05-26T10:08:31Z</time>
      </trkpt>
      <trkpt lat="46.79147" lon="5.98423">
        <ele>840.3</ele>
        <time>2022-05-26T10:08:41Z</time>
      </trkpt>
      <trkpt lat="46.79142" lon="5.98421">
        <ele>838.2</ele>
        <time>2022-05-26T10:08:50Z</time>
      </trkpt>
      <trkpt lat="46.79138" lon="5.98422">
        <ele>837.6</ele>
        <time>2022-05-26T10:08:53Z</time>
      </trkpt>
      <trkpt lat="46.79133" lon="5.98423">
        <ele>837.3</ele>
        <time>2022-05-26T10:08:57Z</time>
      </trkpt>
      <trkpt lat="46.79127" lon="5.98422">
        <ele>836.5</ele>
        <time>2022-05-26T10:09:05Z</time>
      </trkpt>
      <trkpt lat="46.79125" lon="5.98416">
        <ele>836.3</ele>
        <time>2022-05-26T10:09:11Z</time>
      </trkpt>
      <trkpt lat="46.79123" lon="5.98409">
        <ele>835.3</ele>
        <time>2022-05-26T10:09:20Z</time>
      </trkpt>
      <trkpt lat="46.7912" lon="5.98403">
        <ele>834.9</ele>
        <time>2022-05-26T10:09:28Z</time>
      </trkpt>
      <trkpt lat="46.79116" lon="5.98398">
        <ele>835.1</ele>
        <time>2022-05-26T10:09:32Z</time>
      </trkpt>
      <trkpt lat="46.79112" lon="5.98395">
        <ele>835.3</ele>
        <time>2022-05-26T10:09:36Z</time>
      </trkpt>
      <trkpt lat="46.79107" lon="5.98393">
        <ele>835.2</ele>
        <time>2022-05-26T10:09:41Z</time>
      </trkpt>
      <trkpt lat="46.79103" lon="5.9839">
        <ele>834.7</ele>
        <time>2022-05-26T10:09:49Z</time>
      </trkpt>
      <trkpt lat="46.79099" lon="5.98393">
        <ele>834</ele>
        <time>2022-05-26T10:09:55Z</time>
      </trkpt>
      <trkpt lat="46.79094" lon="5.98392">
        <ele>833.7</ele>
        <time>2022-05-26T10:10:01Z</time>
      </trkpt>
      <trkpt lat="46.7909" lon="5.98389">
        <ele>834</ele>
        <time>2022-05-26T10:10:08Z</time>
      </trkpt>
      <trkpt lat="46.79089" lon="5.98382">
        <ele>834.2</ele>
        <time>2022-05-26T10:10:14Z</time>
      </trkpt>
      <trkpt lat="46.79085" lon="5.9838">
        <ele>833.9</ele>
        <time>2022-05-26T10:10:21Z</time>
      </trkpt>
      <trkpt lat="46.79081" lon="5.98374">
        <ele>833.6</ele>
        <time>2022-05-26T10:10:41Z</time>
      </trkpt>
      <trkpt lat="46.79078" lon="5.98369">
        <ele>833.5</ele>
        <time>2022-05-26T10:10:47Z</time>
      </trkpt>
      <trkpt lat="46.79073" lon="5.98369">
        <ele>833.3</ele>
        <time>2022-05-26T10:10:50Z</time>
      </trkpt>
      <trkpt lat="46.79067" lon="5.98371">
        <ele>832.2</ele>
        <time>2022-05-26T10:10:58Z</time>
      </trkpt>
      <trkpt lat="46.79063" lon="5.98374">
        <ele>831.5</ele>
        <time>2022-05-26T10:11:01Z</time>
      </trkpt>
      <trkpt lat="46.79059" lon="5.98371">
        <ele>828.1</ele>
        <time>2022-05-26T10:11:17Z</time>
      </trkpt>
      <trkpt lat="46.79056" lon="5.98366">
        <ele>827.5</ele>
        <time>2022-05-26T10:11:25Z</time>
      </trkpt>
      <trkpt lat="46.7905" lon="5.98372">
        <ele>826</ele>
        <time>2022-05-26T10:11:40Z</time>
      </trkpt>
      <trkpt lat="46.79046" lon="5.98367">
        <ele>824.5</ele>
        <time>2022-05-26T10:12:05Z</time>
      </trkpt>
      <trkpt lat="46.79041" lon="5.98369">
        <ele>822.6</ele>
        <time>2022-05-26T10:12:21Z</time>
      </trkpt>
      <trkpt lat="46.79044" lon="5.98363">
        <ele>820.1</ele>
        <time>2022-05-26T10:12:53Z</time>
      </trkpt>
      <trkpt lat="46.79043" lon="5.98356">
        <ele>818.7</ele>
        <time>2022-05-26T10:13:13Z</time>
      </trkpt>
      <trkpt lat="46.79039" lon="5.98352">
        <ele>816.6</ele>
        <time>2022-05-26T10:13:18Z</time>
      </trkpt>
      <trkpt lat="46.79035" lon="5.98348">
        <ele>814.1</ele>
        <time>2022-05-26T10:13:27Z</time>
      </trkpt>
      <trkpt lat="46.79031" lon="5.98344">
        <ele>813.2</ele>
        <time>2022-05-26T10:13:34Z</time>
      </trkpt>
      <trkpt lat="46.79028" lon="5.98338">
        <ele>812.5</ele>
        <time>2022-05-26T10:13:42Z</time>
      </trkpt>
      <trkpt lat="46.79026" lon="5.98333">
        <ele>812.2</ele>
        <time>2022-05-26T10:13:49Z</time>
      </trkpt>
      <trkpt lat="46.79021" lon="5.9833">
        <ele>812.4</ele>
        <time>2022-05-26T10:13:54Z</time>
      </trkpt>
      <trkpt lat="46.79018" lon="5.98325">
        <ele>813</ele>
        <time>2022-05-26T10:14:02Z</time>
      </trkpt>
      <trkpt lat="46.79015" lon="5.98321">
        <ele>813.2</ele>
        <time>2022-05-26T10:14:11Z</time>
      </trkpt>
      <trkpt lat="46.79011" lon="5.98317">
        <ele>813.3</ele>
        <time>2022-05-26T10:14:18Z</time>
      </trkpt>
      <trkpt lat="46.79006" lon="5.98316">
        <ele>813.4</ele>
        <time>2022-05-26T10:14:23Z</time>
      </trkpt>
      <trkpt lat="46.79002" lon="5.98318">
        <ele>812.9</ele>
        <time>2022-05-26T10:14:33Z</time>
      </trkpt>
      <trkpt lat="46.78998" lon="5.98322">
        <ele>812.4</ele>
        <time>2022-05-26T10:14:42Z</time>
      </trkpt>
      <trkpt lat="46.78995" lon="5.98328">
        <ele>813.1</ele>
        <time>2022-05-26T10:14:48Z</time>
      </trkpt>
      <trkpt lat="46.7899" lon="5.98331">
        <ele>813.9</ele>
        <time>2022-05-26T10:14:53Z</time>
      </trkpt>
      <trkpt lat="46.78987" lon="5.98334">
        <ele>814.7</ele>
        <time>2022-05-26T10:15:01Z</time>
      </trkpt>
      <trkpt lat="46.78983" lon="5.98338">
        <ele>815.2</ele>
        <time>2022-05-26T10:15:08Z</time>
      </trkpt>
      <trkpt lat="46.78978" lon="5.9834">
        <ele>815.7</ele>
        <time>2022-05-26T10:15:12Z</time>
      </trkpt>
      <trkpt lat="46.78974" lon="5.98344">
        <ele>816</ele>
        <time>2022-05-26T10:15:17Z</time>
      </trkpt>
      <trkpt lat="46.7897" lon="5.98347">
        <ele>815.8</ele>
        <time>2022-05-26T10:15:22Z</time>
      </trkpt>
      <trkpt lat="46.78973" lon="5.98352">
        <ele>814.1</ele>
        <time>2022-05-26T10:16:02Z</time>
      </trkpt>
      <trkpt lat="46.78968" lon="5.98352">
        <ele>814.3</ele>
        <time>2022-05-26T10:16:12Z</time>
      </trkpt>
      <trkpt lat="46.78962" lon="5.98355">
        <ele>813.8</ele>
        <time>2022-05-26T10:16:16Z</time>
      </trkpt>
      <trkpt lat="46.78958" lon="5.98358">
        <ele>813.2</ele>
        <time>2022-05-26T10:16:20Z</time>
      </trkpt>
      <trkpt lat="46.78952" lon="5.98356">
        <ele>812.2</ele>
        <time>2022-05-26T10:16:26Z</time>
      </trkpt>
      <trkpt lat="46.7895" lon="5.98349">
        <ele>812</ele>
        <time>2022-05-26T10:16:31Z</time>
      </trkpt>
      <trkpt lat="46.78946" lon="5.98344">
        <ele>811.7</ele>
        <time>2022-05-26T10:16:36Z</time>
      </trkpt>
      <trkpt lat="46.78941" lon="5.98341">
        <ele>811.1</ele>
        <time>2022-05-26T10:16:41Z</time>
      </trkpt>
      <trkpt lat="46.78937" lon="5.98341">
        <ele>810.7</ele>
        <time>2022-05-26T10:16:45Z</time>
      </trkpt>
      <trkpt lat="46.78934" lon="5.98335">
        <ele>810.3</ele>
        <time>2022-05-26T10:16:52Z</time>
      </trkpt>
      <trkpt lat="46.78929" lon="5.98333">
        <ele>810.2</ele>
        <time>2022-05-26T10:16:58Z</time>
      </trkpt>
      <trkpt lat="46.78924" lon="5.98329">
        <ele>809.8</ele>
        <time>2022-05-26T10:17:04Z</time>
      </trkpt>
      <trkpt lat="46.7892" lon="5.98324">
        <ele>809.6</ele>
        <time>2022-05-26T10:17:09Z</time>
      </trkpt>
      <trkpt lat="46.78915" lon="5.98323">
        <ele>809.4</ele>
        <time>2022-05-26T10:17:13Z</time>
      </trkpt>
      <trkpt lat="46.7891" lon="5.98323">
        <ele>809.2</ele>
        <time>2022-05-26T10:17:20Z</time>
      </trkpt>
      <trkpt lat="46.78905" lon="5.98325">
        <ele>808.9</ele>
        <time>2022-05-26T10:17:24Z</time>
      </trkpt>
      <trkpt lat="46.78901" lon="5.98323">
        <ele>808.6</ele>
        <time>2022-05-26T10:17:28Z</time>
      </trkpt>
      <trkpt lat="46.78896" lon="5.9832">
        <ele>807.6</ele>
        <time>2022-05-26T10:17:34Z</time>
      </trkpt>
      <trkpt lat="46.78893" lon="5.98313">
        <ele>806.7</ele>
        <time>2022-05-26T10:17:38Z</time>
      </trkpt>
      <trkpt lat="46.7889" lon="5.98308">
        <ele>805.4</ele>
        <time>2022-05-26T10:17:42Z</time>
      </trkpt>
      <trkpt lat="46.78887" lon="5.98302">
        <ele>802.5</ele>
        <time>2022-05-26T10:17:51Z</time>
      </trkpt>
      <trkpt lat="46.78883" lon="5.983">
        <ele>801.2</ele>
        <time>2022-05-26T10:17:56Z</time>
      </trkpt>
      <trkpt lat="46.78887" lon="5.98296">
        <ele>801.9</ele>
        <time>2022-05-26T10:18:27Z</time>
      </trkpt>
      <trkpt lat="46.78891" lon="5.98295">
        <ele>802.9</ele>
        <time>2022-05-26T10:18:51Z</time>
      </trkpt>
      <trkpt lat="46.78888" lon="5.98291">
        <ele>803.2</ele>
        <time>2022-05-26T10:18:57Z</time>
      </trkpt>
      <trkpt lat="46.78884" lon="5.98286">
        <ele>803.2</ele>
        <time>2022-05-26T10:19:03Z</time>
      </trkpt>
      <trkpt lat="46.78879" lon="5.98283">
        <ele>803.2</ele>
        <time>2022-05-26T10:19:14Z</time>
      </trkpt>
      <trkpt lat="46.78874" lon="5.98285">
        <ele>802.7</ele>
        <time>2022-05-26T10:19:26Z</time>
      </trkpt>
      <trkpt lat="46.78878" lon="5.98289">
        <ele>801.7</ele>
        <time>2022-05-26T10:19:34Z</time>
      </trkpt>
      <trkpt lat="46.78882" lon="5.98292">
        <ele>800.9</ele>
        <time>2022-05-26T10:19:38Z</time>
      </trkpt>
      <trkpt lat="46.78883" lon="5.98299">
        <ele>800.6</ele>
        <time>2022-05-26T10:19:45Z</time>
      </trkpt>
      <trkpt lat="46.78881" lon="5.98305">
        <ele>801</ele>
        <time>2022-05-26T10:19:51Z</time>
      </trkpt>
      <trkpt lat="46.78877" lon="5.98308">
        <ele>801.1</ele>
        <time>2022-05-26T10:19:56Z</time>
      </trkpt>
      <trkpt lat="46.78875" lon="5.98315">
        <ele>801.6</ele>
        <time>2022-05-26T10:20:09Z</time>
      </trkpt>
      <trkpt lat="46.78878" lon="5.9832">
        <ele>802.9</ele>
        <time>2022-05-26T10:20:14Z</time>
      </trkpt>
      <trkpt lat="46.7888" lon="5.98327">
        <ele>804.6</ele>
        <time>2022-05-26T10:20:20Z</time>
      </trkpt>
      <trkpt lat="46.78878" lon="5.98334">
        <ele>806.6</ele>
        <time>2022-05-26T10:20:26Z</time>
      </trkpt>
      <trkpt lat="46.78875" lon="5.9834">
        <ele>807.8</ele>
        <time>2022-05-26T10:20:31Z</time>
      </trkpt>
      <trkpt lat="46.78872" lon="5.98346">
        <ele>808.4</ele>
        <time>2022-05-26T10:20:35Z</time>
      </trkpt>
      <trkpt lat="46.78871" lon="5.98353">
        <ele>808.5</ele>
        <time>2022-05-26T10:20:39Z</time>
      </trkpt>
      <trkpt lat="46.7887" lon="5.9836">
        <ele>808.5</ele>
        <time>2022-05-26T10:20:48Z</time>
      </trkpt>
      <trkpt lat="46.78869" lon="5.98367">
        <ele>808.3</ele>
        <time>2022-05-26T10:20:56Z</time>
      </trkpt>
      <trkpt lat="46.78868" lon="5.98374">
        <ele>808.4</ele>
        <time>2022-05-26T10:21:00Z</time>
      </trkpt>
      <trkpt lat="46.78865" lon="5.98383">
        <ele>808.1</ele>
        <time>2022-05-26T10:21:03Z</time>
      </trkpt>
      <trkpt lat="46.78864" lon="5.9839">
        <ele>807.8</ele>
        <time>2022-05-26T10:21:11Z</time>
      </trkpt>
      <trkpt lat="46.78861" lon="5.98396">
        <ele>808.1</ele>
        <time>2022-05-26T10:21:19Z</time>
      </trkpt>
      <trkpt lat="46.78857" lon="5.984">
        <ele>808.3</ele>
        <time>2022-05-26T10:21:24Z</time>
      </trkpt>
      <trkpt lat="46.78855" lon="5.98406">
        <ele>808.6</ele>
        <time>2022-05-26T10:21:30Z</time>
      </trkpt>
      <trkpt lat="46.78852" lon="5.98412">
        <ele>808.4</ele>
        <time>2022-05-26T10:21:35Z</time>
      </trkpt>
      <trkpt lat="46.7885" lon="5.98418">
        <ele>807.1</ele>
        <time>2022-05-26T10:21:40Z</time>
      </trkpt>
      <trkpt lat="46.78846" lon="5.98423">
        <ele>805</ele>
        <time>2022-05-26T10:21:44Z</time>
      </trkpt>
      <trkpt lat="46.78843" lon="5.98429">
        <ele>800.6</ele>
        <time>2022-05-26T10:21:57Z</time>
      </trkpt>
      <trkpt lat="46.7884" lon="5.98437">
        <ele>799.3</ele>
        <time>2022-05-26T10:22:01Z</time>
      </trkpt>
      <trkpt lat="46.78838" lon="5.98447">
        <ele>799.1</ele>
        <time>2022-05-26T10:22:04Z</time>
      </trkpt>
      <trkpt lat="46.78838" lon="5.98455">
        <ele>798.9</ele>
        <time>2022-05-26T10:22:09Z</time>
      </trkpt>
      <trkpt lat="46.78837" lon="5.98461">
        <ele>798.7</ele>
        <time>2022-05-26T10:22:14Z</time>
      </trkpt>
      <trkpt lat="46.78836" lon="5.98469">
        <ele>798</ele>
        <time>2022-05-26T10:22:21Z</time>
      </trkpt>
      <trkpt lat="46.78835" lon="5.98477">
        <ele>797.6</ele>
        <time>2022-05-26T10:22:26Z</time>
      </trkpt>
      <trkpt lat="46.78835" lon="5.98484">
        <ele>797.4</ele>
        <time>2022-05-26T10:22:31Z</time>
      </trkpt>
      <trkpt lat="46.78834" lon="5.98491">
        <ele>797.8</ele>
        <time>2022-05-26T10:22:37Z</time>
      </trkpt>
      <trkpt lat="46.78832" lon="5.98498">
        <ele>798.3</ele>
        <time>2022-05-26T10:22:42Z</time>
      </trkpt>
      <trkpt lat="46.7883" lon="5.98504">
        <ele>799</ele>
        <time>2022-05-26T10:22:48Z</time>
      </trkpt>
      <trkpt lat="46.78828" lon="5.98512">
        <ele>799.7</ele>
        <time>2022-05-26T10:22:53Z</time>
      </trkpt>
      <trkpt lat="46.78826" lon="5.98518">
        <ele>800.3</ele>
        <time>2022-05-26T10:22:57Z</time>
      </trkpt>
      <trkpt lat="46.78823" lon="5.98524">
        <ele>800.8</ele>
        <time>2022-05-26T10:23:01Z</time>
      </trkpt>
      <trkpt lat="46.78822" lon="5.98531">
        <ele>801.4</ele>
        <time>2022-05-26T10:23:05Z</time>
      </trkpt>
      <trkpt lat="46.78818" lon="5.98537">
        <ele>802.1</ele>
        <time>2022-05-26T10:23:09Z</time>
      </trkpt>
      <trkpt lat="46.78813" lon="5.98537">
        <ele>802</ele>
        <time>2022-05-26T10:23:17Z</time>
      </trkpt>
      <trkpt lat="46.78808" lon="5.98539">
        <ele>801.1</ele>
        <time>2022-05-26T10:23:23Z</time>
      </trkpt>
      <trkpt lat="46.78803" lon="5.98539">
        <ele>801</ele>
        <time>2022-05-26T10:23:30Z</time>
      </trkpt>
      <trkpt lat="46.78798" lon="5.98538">
        <ele>800.7</ele>
        <time>2022-05-26T10:23:35Z</time>
      </trkpt>
      <trkpt lat="46.78795" lon="5.98533">
        <ele>800.2</ele>
        <time>2022-05-26T10:23:40Z</time>
      </trkpt>
      <trkpt lat="46.78792" lon="5.98528">
        <ele>799.7</ele>
        <time>2022-05-26T10:23:46Z</time>
      </trkpt>
      <trkpt lat="46.78788" lon="5.98523">
        <ele>799.6</ele>
        <time>2022-05-26T10:23:52Z</time>
      </trkpt>
      <trkpt lat="46.78783" lon="5.98523">
        <ele>799.6</ele>
        <time>2022-05-26T10:23:59Z</time>
      </trkpt>
      <trkpt lat="46.78778" lon="5.98521">
        <ele>799.8</ele>
        <time>2022-05-26T10:24:05Z</time>
      </trkpt>
      <trkpt lat="46.78773" lon="5.98519">
        <ele>799.7</ele>
        <time>2022-05-26T10:24:09Z</time>
      </trkpt>
      <trkpt lat="46.78768" lon="5.98519">
        <ele>799.8</ele>
        <time>2022-05-26T10:24:13Z</time>
      </trkpt>
      <trkpt lat="46.78763" lon="5.98518">
        <ele>800.1</ele>
        <time>2022-05-26T10:24:18Z</time>
      </trkpt>
      <trkpt lat="46.78759" lon="5.98519">
        <ele>800</ele>
        <time>2022-05-26T10:24:21Z</time>
      </trkpt>
      <trkpt lat="46.78754" lon="5.98515">
        <ele>800</ele>
        <time>2022-05-26T10:24:28Z</time>
      </trkpt>
      <trkpt lat="46.7875" lon="5.98517">
        <ele>800.2</ele>
        <time>2022-05-26T10:24:33Z</time>
      </trkpt>
      <trkpt lat="46.78745" lon="5.98516">
        <ele>800.7</ele>
        <time>2022-05-26T10:24:38Z</time>
      </trkpt>
      <trkpt lat="46.7874" lon="5.98513">
        <ele>801.2</ele>
        <time>2022-05-26T10:24:44Z</time>
      </trkpt>
      <trkpt lat="46.78736" lon="5.9851">
        <ele>802</ele>
        <time>2022-05-26T10:24:51Z</time>
      </trkpt>
      <trkpt lat="46.78732" lon="5.98507">
        <ele>801.9</ele>
        <time>2022-05-26T10:25:00Z</time>
      </trkpt>
      <trkpt lat="46.78727" lon="5.98506">
        <ele>802.2</ele>
        <time>2022-05-26T10:25:06Z</time>
      </trkpt>
      <trkpt lat="46.78721" lon="5.98508">
        <ele>802.2</ele>
        <time>2022-05-26T10:25:10Z</time>
      </trkpt>
      <trkpt lat="46.78715" lon="5.9851">
        <ele>802.2</ele>
        <time>2022-05-26T10:25:13Z</time>
      </trkpt>
      <trkpt lat="46.7871" lon="5.98512">
        <ele>802</ele>
        <time>2022-05-26T10:25:17Z</time>
      </trkpt>
      <trkpt lat="46.78706" lon="5.98508">
        <ele>800.9</ele>
        <time>2022-05-26T10:25:27Z</time>
      </trkpt>
      <trkpt lat="46.78699" lon="5.98509">
        <ele>800.6</ele>
        <time>2022-05-26T10:25:31Z</time>
      </trkpt>
      <trkpt lat="46.78693" lon="5.9851">
        <ele>800.3</ele>
        <time>2022-05-26T10:25:34Z</time>
      </trkpt>
      <trkpt lat="46.78688" lon="5.98511">
        <ele>800.4</ele>
        <time>2022-05-26T10:25:37Z</time>
      </trkpt>
      <trkpt lat="46.78682" lon="5.98512">
        <ele>800.4</ele>
        <time>2022-05-26T10:25:41Z</time>
      </trkpt>
      <trkpt lat="46.78677" lon="5.98512">
        <ele>800.4</ele>
        <time>2022-05-26T10:25:45Z</time>
      </trkpt>
      <trkpt lat="46.78672" lon="5.98509">
        <ele>800.3</ele>
        <time>2022-05-26T10:25:49Z</time>
      </trkpt>
      <trkpt lat="46.78667" lon="5.98505">
        <ele>800.1</ele>
        <time>2022-05-26T10:25:54Z</time>
      </trkpt>
      <trkpt lat="46.78663" lon="5.98504">
        <ele>799.2</ele>
        <time>2022-05-26T10:25:58Z</time>
      </trkpt>
      <trkpt lat="46.78658" lon="5.98505">
        <ele>797.9</ele>
        <time>2022-05-26T10:26:03Z</time>
      </trkpt>
      <trkpt lat="46.78654" lon="5.98501">
        <ele>796.8</ele>
        <time>2022-05-26T10:26:08Z</time>
      </trkpt>
      <trkpt lat="46.78651" lon="5.98496">
        <ele>796.3</ele>
        <time>2022-05-26T10:26:13Z</time>
      </trkpt>
      <trkpt lat="46.78647" lon="5.98491">
        <ele>795.4</ele>
        <time>2022-05-26T10:26:19Z</time>
      </trkpt>
      <trkpt lat="46.78643" lon="5.98487">
        <ele>794.4</ele>
        <time>2022-05-26T10:26:23Z</time>
      </trkpt>
      <trkpt lat="46.78638" lon="5.98482">
        <ele>793.2</ele>
        <time>2022-05-26T10:26:28Z</time>
      </trkpt>
      <trkpt lat="46.78635" lon="5.98478">
        <ele>792.1</ele>
        <time>2022-05-26T10:26:35Z</time>
      </trkpt>
      <trkpt lat="46.78631" lon="5.98474">
        <ele>790.9</ele>
        <time>2022-05-26T10:26:42Z</time>
      </trkpt>
      <trkpt lat="46.78626" lon="5.98471">
        <ele>790.5</ele>
        <time>2022-05-26T10:26:46Z</time>
      </trkpt>
      <trkpt lat="46.78621" lon="5.98469">
        <ele>790.4</ele>
        <time>2022-05-26T10:26:50Z</time>
      </trkpt>
      <trkpt lat="46.78616" lon="5.98466">
        <ele>790.4</ele>
        <time>2022-05-26T10:26:55Z</time>
      </trkpt>
      <trkpt lat="46.78611" lon="5.98464">
        <ele>790.7</ele>
        <time>2022-05-26T10:27:00Z</time>
      </trkpt>
      <trkpt lat="46.78607" lon="5.9846">
        <ele>791</ele>
        <time>2022-05-26T10:27:06Z</time>
      </trkpt>
      <trkpt lat="46.78603" lon="5.98458">
        <ele>791.3</ele>
        <time>2022-05-26T10:27:10Z</time>
      </trkpt>
      <trkpt lat="46.78599" lon="5.98453">
        <ele>791.7</ele>
        <time>2022-05-26T10:27:15Z</time>
      </trkpt>
      <trkpt lat="46.78595" lon="5.98447">
        <ele>792.5</ele>
        <time>2022-05-26T10:27:21Z</time>
      </trkpt>
      <trkpt lat="46.78591" lon="5.98444">
        <ele>793.1</ele>
        <time>2022-05-26T10:27:26Z</time>
      </trkpt>
      <trkpt lat="46.78586" lon="5.98443">
        <ele>793.3</ele>
        <time>2022-05-26T10:27:31Z</time>
      </trkpt>
      <trkpt lat="46.78582" lon="5.98446">
        <ele>792.8</ele>
        <time>2022-05-26T10:27:35Z</time>
      </trkpt>
      <trkpt lat="46.78577" lon="5.98445">
        <ele>792.4</ele>
        <time>2022-05-26T10:27:42Z</time>
      </trkpt>
      <trkpt lat="46.78573" lon="5.98442">
        <ele>792.5</ele>
        <time>2022-05-26T10:27:48Z</time>
      </trkpt>
      <trkpt lat="46.78568" lon="5.9844">
        <ele>792.4</ele>
        <time>2022-05-26T10:27:52Z</time>
      </trkpt>
      <trkpt lat="46.78564" lon="5.98438">
        <ele>793.2</ele>
        <time>2022-05-26T10:27:58Z</time>
      </trkpt>
      <trkpt lat="46.78563" lon="5.98431">
        <ele>794.5</ele>
        <time>2022-05-26T10:28:04Z</time>
      </trkpt>
      <trkpt lat="46.7856" lon="5.98425">
        <ele>795.5</ele>
        <time>2022-05-26T10:28:12Z</time>
      </trkpt>
      <trkpt lat="46.78558" lon="5.98419">
        <ele>796.3</ele>
        <time>2022-05-26T10:28:17Z</time>
      </trkpt>
      <trkpt lat="46.78559" lon="5.98412">
        <ele>796.7</ele>
        <time>2022-05-26T10:28:20Z</time>
      </trkpt>
      <trkpt lat="46.78559" lon="5.98404">
        <ele>797.2</ele>
        <time>2022-05-26T10:28:24Z</time>
      </trkpt>
      <trkpt lat="46.78563" lon="5.98399">
        <ele>797.2</ele>
        <time>2022-05-26T10:28:30Z</time>
      </trkpt>
      <trkpt lat="46.78567" lon="5.98399">
        <ele>796.9</ele>
        <time>2022-05-26T10:28:33Z</time>
      </trkpt>
      <trkpt lat="46.78572" lon="5.984">
        <ele>796.6</ele>
        <time>2022-05-26T10:28:37Z</time>
      </trkpt>
      <trkpt lat="46.78573" lon="5.98392">
        <ele>796.6</ele>
        <time>2022-05-26T10:28:44Z</time>
      </trkpt>
      <trkpt lat="46.78572" lon="5.98385">
        <ele>796.8</ele>
        <time>2022-05-26T10:28:47Z</time>
      </trkpt>
      <trkpt lat="46.7857" lon="5.98378">
        <ele>797.1</ele>
        <time>2022-05-26T10:28:51Z</time>
      </trkpt>
      <trkpt lat="46.78569" lon="5.9837">
        <ele>798</ele>
        <time>2022-05-26T10:28:56Z</time>
      </trkpt>
      <trkpt lat="46.78567" lon="5.98364">
        <ele>798.5</ele>
        <time>2022-05-26T10:29:00Z</time>
      </trkpt>
      <trkpt lat="46.7857" lon="5.98357">
        <ele>798.7</ele>
        <time>2022-05-26T10:29:04Z</time>
      </trkpt>
      <trkpt lat="46.78565" lon="5.98358">
        <ele>796.8</ele>
        <time>2022-05-26T10:29:34Z</time>
      </trkpt>
      <trkpt lat="46.78564" lon="5.98351">
        <ele>797.8</ele>
        <time>2022-05-26T10:29:49Z</time>
      </trkpt>
      <trkpt lat="46.7856" lon="5.98354">
        <ele>799.2</ele>
        <time>2022-05-26T10:29:57Z</time>
      </trkpt>
      <trkpt lat="46.78565" lon="5.98355">
        <ele>799.9</ele>
        <time>2022-05-26T10:30:05Z</time>
      </trkpt>
      <trkpt lat="46.78566" lon="5.98348">
        <ele>800.5</ele>
        <time>2022-05-26T10:30:23Z</time>
      </trkpt>
      <trkpt lat="46.78562" lon="5.98346">
        <ele>799.5</ele>
        <time>2022-05-26T10:30:48Z</time>
      </trkpt>
      <trkpt lat="46.78563" lon="5.98339">
        <ele>798.2</ele>
        <time>2022-05-26T10:30:59Z</time>
      </trkpt>
      <trkpt lat="46.78557" lon="5.98341">
        <ele>797.6</ele>
        <time>2022-05-26T10:31:32Z</time>
      </trkpt>
      <trkpt lat="46.78552" lon="5.98342">
        <ele>797.7</ele>
        <time>2022-05-26T10:31:36Z</time>
      </trkpt>
      <trkpt lat="46.78547" lon="5.98339">
        <ele>798.1</ele>
        <time>2022-05-26T10:31:42Z</time>
      </trkpt>
      <trkpt lat="46.78545" lon="5.98333">
        <ele>798.7</ele>
        <time>2022-05-26T10:31:48Z</time>
      </trkpt>
      <trkpt lat="46.78546" lon="5.98326">
        <ele>799.6</ele>
        <time>2022-05-26T10:31:54Z</time>
      </trkpt>
      <trkpt lat="46.78543" lon="5.98321">
        <ele>800.3</ele>
        <time>2022-05-26T10:32:04Z</time>
      </trkpt>
      <trkpt lat="46.78538" lon="5.98319">
        <ele>799.7</ele>
        <time>2022-05-26T10:32:11Z</time>
      </trkpt>
      <trkpt lat="46.78533" lon="5.98316">
        <ele>799.7</ele>
        <time>2022-05-26T10:32:18Z</time>
      </trkpt>
      <trkpt lat="46.78533" lon="5.98309">
        <ele>799.6</ele>
        <time>2022-05-26T10:32:26Z</time>
      </trkpt>
      <trkpt lat="46.78534" lon="5.98303">
        <ele>798.6</ele>
        <time>2022-05-26T10:32:38Z</time>
      </trkpt>
      <trkpt lat="46.7853" lon="5.98301">
        <ele>797.8</ele>
        <time>2022-05-26T10:32:44Z</time>
      </trkpt>
      <trkpt lat="46.78527" lon="5.98295">
        <ele>797.2</ele>
        <time>2022-05-26T10:32:51Z</time>
      </trkpt>
      <trkpt lat="46.78529" lon="5.98289">
        <ele>796.4</ele>
        <time>2022-05-26T10:33:00Z</time>
      </trkpt>
      <trkpt lat="46.78531" lon="5.98282">
        <ele>794.9</ele>
        <time>2022-05-26T10:33:10Z</time>
      </trkpt>
      <trkpt lat="46.78531" lon="5.98274">
        <ele>794</ele>
        <time>2022-05-26T10:33:14Z</time>
      </trkpt>
      <trkpt lat="46.78531" lon="5.98268">
        <ele>793</ele>
        <time>2022-05-26T10:33:19Z</time>
      </trkpt>
      <trkpt lat="46.78531" lon="5.9826">
        <ele>792.5</ele>
        <time>2022-05-26T10:33:24Z</time>
      </trkpt>
      <trkpt lat="46.78532" lon="5.98253">
        <ele>792.2</ele>
        <time>2022-05-26T10:33:29Z</time>
      </trkpt>
      <trkpt lat="46.78533" lon="5.98245">
        <ele>792</ele>
        <time>2022-05-26T10:33:36Z</time>
      </trkpt>
      <trkpt lat="46.78531" lon="5.98239">
        <ele>791.4</ele>
        <time>2022-05-26T10:33:46Z</time>
      </trkpt>
      <trkpt lat="46.78532" lon="5.98232">
        <ele>791.1</ele>
        <time>2022-05-26T10:33:59Z</time>
      </trkpt>
      <trkpt lat="46.78533" lon="5.98224">
        <ele>791</ele>
        <time>2022-05-26T10:34:03Z</time>
      </trkpt>
      <trkpt lat="46.78536" lon="5.98217">
        <ele>791.2</ele>
        <time>2022-05-26T10:34:08Z</time>
      </trkpt>
      <trkpt lat="46.78538" lon="5.98211">
        <ele>791.9</ele>
        <time>2022-05-26T10:34:15Z</time>
      </trkpt>
      <trkpt lat="46.78538" lon="5.98203">
        <ele>791.5</ele>
        <time>2022-05-26T10:34:24Z</time>
      </trkpt>
      <trkpt lat="46.7854" lon="5.98197">
        <ele>791</ele>
        <time>2022-05-26T10:34:28Z</time>
      </trkpt>
      <trkpt lat="46.78541" lon="5.98189">
        <ele>790.3</ele>
        <time>2022-05-26T10:34:33Z</time>
      </trkpt>
      <trkpt lat="46.7854" lon="5.98183">
        <ele>786.1</ele>
        <time>2022-05-26T10:34:49Z</time>
      </trkpt>
      <trkpt lat="46.78542" lon="5.98176">
        <ele>784.6</ele>
        <time>2022-05-26T10:34:53Z</time>
      </trkpt>
      <trkpt lat="46.78546" lon="5.98172">
        <ele>780.2</ele>
        <time>2022-05-26T10:35:02Z</time>
      </trkpt>
      <trkpt lat="46.78548" lon="5.98166">
        <ele>777.6</ele>
        <time>2022-05-26T10:35:09Z</time>
      </trkpt>
      <trkpt lat="46.78551" lon="5.9816">
        <ele>775.8</ele>
        <time>2022-05-26T10:35:17Z</time>
      </trkpt>
      <trkpt lat="46.78551" lon="5.98153">
        <ele>775.3</ele>
        <time>2022-05-26T10:35:21Z</time>
      </trkpt>
      <trkpt lat="46.78553" lon="5.98146">
        <ele>775.1</ele>
        <time>2022-05-26T10:35:28Z</time>
      </trkpt>
      <trkpt lat="46.78557" lon="5.98142">
        <ele>775</ele>
        <time>2022-05-26T10:35:35Z</time>
      </trkpt>
      <trkpt lat="46.78559" lon="5.98136">
        <ele>774.8</ele>
        <time>2022-05-26T10:35:42Z</time>
      </trkpt>
      <trkpt lat="46.78558" lon="5.98129">
        <ele>774.6</ele>
        <time>2022-05-26T10:35:50Z</time>
      </trkpt>
      <trkpt lat="46.78562" lon="5.98126">
        <ele>774.4</ele>
        <time>2022-05-26T10:35:57Z</time>
      </trkpt>
      <trkpt lat="46.78565" lon="5.98121">
        <ele>774.1</ele>
        <time>2022-05-26T10:36:03Z</time>
      </trkpt>
      <trkpt lat="46.78568" lon="5.98116">
        <ele>773.8</ele>
        <time>2022-05-26T10:36:08Z</time>
      </trkpt>
      <trkpt lat="46.78572" lon="5.98111">
        <ele>773.6</ele>
        <time>2022-05-26T10:36:14Z</time>
      </trkpt>
      <trkpt lat="46.78574" lon="5.98105">
        <ele>773.4</ele>
        <time>2022-05-26T10:36:21Z</time>
      </trkpt>
      <trkpt lat="46.78573" lon="5.98098">
        <ele>773.1</ele>
        <time>2022-05-26T10:36:27Z</time>
      </trkpt>
      <trkpt lat="46.78575" lon="5.98091">
        <ele>772.8</ele>
        <time>2022-05-26T10:36:33Z</time>
      </trkpt>
      <trkpt lat="46.78578" lon="5.98085">
        <ele>772.4</ele>
        <time>2022-05-26T10:36:39Z</time>
      </trkpt>
      <trkpt lat="46.78581" lon="5.98079">
        <ele>771.9</ele>
        <time>2022-05-26T10:36:45Z</time>
      </trkpt>
      <trkpt lat="46.78583" lon="5.98072">
        <ele>771.4</ele>
        <time>2022-05-26T10:36:51Z</time>
      </trkpt>
      <trkpt lat="46.78586" lon="5.98066">
        <ele>771</ele>
        <time>2022-05-26T10:36:56Z</time>
      </trkpt>
      <trkpt lat="46.78589" lon="5.98062">
        <ele>770.5</ele>
        <time>2022-05-26T10:37:01Z</time>
      </trkpt>
      <trkpt lat="46.78592" lon="5.98057">
        <ele>769.5</ele>
        <time>2022-05-26T10:37:13Z</time>
      </trkpt>
      <trkpt lat="46.7859" lon="5.98051">
        <ele>769.3</ele>
        <time>2022-05-26T10:37:26Z</time>
      </trkpt>
      <trkpt lat="46.78593" lon="5.98044">
        <ele>768.8</ele>
        <time>2022-05-26T10:37:31Z</time>
      </trkpt>
      <trkpt lat="46.78596" lon="5.98039">
        <ele>768.5</ele>
        <time>2022-05-26T10:37:36Z</time>
      </trkpt>
      <trkpt lat="46.786" lon="5.98033">
        <ele>768.1</ele>
        <time>2022-05-26T10:37:41Z</time>
      </trkpt>
      <trkpt lat="46.78603" lon="5.98028">
        <ele>767.1</ele>
        <time>2022-05-26T10:37:49Z</time>
      </trkpt>
      <trkpt lat="46.78599" lon="5.98023">
        <ele>763.4</ele>
        <time>2022-05-26T10:38:12Z</time>
      </trkpt>
      <trkpt lat="46.78594" lon="5.98022">
        <ele>760.3</ele>
        <time>2022-05-26T10:38:24Z</time>
      </trkpt>
      <trkpt lat="46.78591" lon="5.98027">
        <ele>759</ele>
        <time>2022-05-26T10:38:29Z</time>
      </trkpt>
      <trkpt lat="46.78595" lon="5.98031">
        <ele>757.9</ele>
        <time>2022-05-26T10:38:35Z</time>
      </trkpt>
      <trkpt lat="46.786" lon="5.98032">
        <ele>757.4</ele>
        <time>2022-05-26T10:38:40Z</time>
      </trkpt>
      <trkpt lat="46.78604" lon="5.98037">
        <ele>756.5</ele>
        <time>2022-05-26T10:38:49Z</time>
      </trkpt>
      <trkpt lat="46.78601" lon="5.98043">
        <ele>755</ele>
        <time>2022-05-26T10:38:55Z</time>
      </trkpt>
      <trkpt lat="46.78605" lon="5.98044">
        <ele>752.6</ele>
        <time>2022-05-26T10:39:09Z</time>
      </trkpt>
      <trkpt lat="46.786" lon="5.98044">
        <ele>744</ele>
        <time>2022-05-26T10:39:42Z</time>
      </trkpt>
      <trkpt lat="46.78595" lon="5.98042">
        <ele>741.6</ele>
        <time>2022-05-26T10:39:52Z</time>
      </trkpt>
      <trkpt lat="46.78591" lon="5.98044">
        <ele>740</ele>
        <time>2022-05-26T10:39:57Z</time>
      </trkpt>
      <trkpt lat="46.78587" lon="5.98049">
        <ele>738.7</ele>
        <time>2022-05-26T10:40:01Z</time>
      </trkpt>
      <trkpt lat="46.78583" lon="5.98049">
        <ele>736.7</ele>
        <time>2022-05-26T10:40:09Z</time>
      </trkpt>
      <trkpt lat="46.78578" lon="5.98048">
        <ele>735.9</ele>
        <time>2022-05-26T10:40:15Z</time>
      </trkpt>
      <trkpt lat="46.78573" lon="5.9805">
        <ele>734.9</ele>
        <time>2022-05-26T10:40:23Z</time>
      </trkpt>
      <trkpt lat="46.78569" lon="5.98049">
        <ele>734.4</ele>
        <time>2022-05-26T10:40:28Z</time>
      </trkpt>
      <trkpt lat="46.78564" lon="5.98046">
        <ele>734</ele>
        <time>2022-05-26T10:40:33Z</time>
      </trkpt>
      <trkpt lat="46.7856" lon="5.98044">
        <ele>733.4</ele>
        <time>2022-05-26T10:40:39Z</time>
      </trkpt>
      <trkpt lat="46.78555" lon="5.98045">
        <ele>733.1</ele>
        <time>2022-05-26T10:40:42Z</time>
      </trkpt>
      <trkpt lat="46.7855" lon="5.98044">
        <ele>732.7</ele>
        <time>2022-05-26T10:40:47Z</time>
      </trkpt>
      <trkpt lat="46.78545" lon="5.98047">
        <ele>730.5</ele>
        <time>2022-05-26T10:41:04Z</time>
      </trkpt>
      <trkpt lat="46.78541" lon="5.98053">
        <ele>730</ele>
        <time>2022-05-26T10:41:08Z</time>
      </trkpt>
      <trkpt lat="46.78537" lon="5.98055">
        <ele>729.5</ele>
        <time>2022-05-26T10:41:13Z</time>
      </trkpt>
      <trkpt lat="46.78532" lon="5.98063">
        <ele>728.8</ele>
        <time>2022-05-26T10:41:16Z</time>
      </trkpt>
      <trkpt lat="46.78528" lon="5.98066">
        <ele>727.5</ele>
        <time>2022-05-26T10:41:22Z</time>
      </trkpt>
      <trkpt lat="46.78523" lon="5.98067">
        <ele>726.1</ele>
        <time>2022-05-26T10:41:33Z</time>
      </trkpt>
      <trkpt lat="46.78517" lon="5.98068">
        <ele>725.6</ele>
        <time>2022-05-26T10:41:37Z</time>
      </trkpt>
      <trkpt lat="46.78513" lon="5.98072">
        <ele>725.1</ele>
        <time>2022-05-26T10:41:40Z</time>
      </trkpt>
      <trkpt lat="46.78508" lon="5.98075">
        <ele>724.5</ele>
        <time>2022-05-26T10:41:44Z</time>
      </trkpt>
      <trkpt lat="46.78503" lon="5.98078">
        <ele>723.5</ele>
        <time>2022-05-26T10:41:50Z</time>
      </trkpt>
      <trkpt lat="46.78498" lon="5.9808">
        <ele>723</ele>
        <time>2022-05-26T10:41:53Z</time>
      </trkpt>
      <trkpt lat="46.78494" lon="5.98083">
        <ele>722.3</ele>
        <time>2022-05-26T10:41:57Z</time>
      </trkpt>
      <trkpt lat="46.78491" lon="5.98089">
        <ele>721.5</ele>
        <time>2022-05-26T10:42:03Z</time>
      </trkpt>
      <trkpt lat="46.78488" lon="5.98084">
        <ele>720.8</ele>
        <time>2022-05-26T10:42:11Z</time>
      </trkpt>
      <trkpt lat="46.78483" lon="5.98083">
        <ele>720.3</ele>
        <time>2022-05-26T10:42:17Z</time>
      </trkpt>
      <trkpt lat="46.78479" lon="5.98085">
        <ele>719.7</ele>
        <time>2022-05-26T10:42:23Z</time>
      </trkpt>
      <trkpt lat="46.78475" lon="5.98089">
        <ele>719</ele>
        <time>2022-05-26T10:42:29Z</time>
      </trkpt>
      <trkpt lat="46.7847" lon="5.98093">
        <ele>718.5</ele>
        <time>2022-05-26T10:42:34Z</time>
      </trkpt>
      <trkpt lat="46.78466" lon="5.98097">
        <ele>718.3</ele>
        <time>2022-05-26T10:42:38Z</time>
      </trkpt>
      <trkpt lat="46.78463" lon="5.98102">
        <ele>717.9</ele>
        <time>2022-05-26T10:42:42Z</time>
      </trkpt>
      <trkpt lat="46.7846" lon="5.98108">
        <ele>717.6</ele>
        <time>2022-05-26T10:42:46Z</time>
      </trkpt>
      <trkpt lat="46.78457" lon="5.98114">
        <ele>716.8</ele>
        <time>2022-05-26T10:42:53Z</time>
      </trkpt>
      <trkpt lat="46.78455" lon="5.9812">
        <ele>716.6</ele>
        <time>2022-05-26T10:42:57Z</time>
      </trkpt>
      <trkpt lat="46.78451" lon="5.98125">
        <ele>716.2</ele>
        <time>2022-05-26T10:43:02Z</time>
      </trkpt>
      <trkpt lat="46.7845" lon="5.98132">
        <ele>715.8</ele>
        <time>2022-05-26T10:43:05Z</time>
      </trkpt>
      <trkpt lat="46.78451" lon="5.98139">
        <ele>715.3</ele>
        <time>2022-05-26T10:43:09Z</time>
      </trkpt>
      <trkpt lat="46.78454" lon="5.98145">
        <ele>714.6</ele>
        <time>2022-05-26T10:43:16Z</time>
      </trkpt>
      <trkpt lat="46.7845" lon="5.9815">
        <ele>713</ele>
        <time>2022-05-26T10:43:29Z</time>
      </trkpt>
      <trkpt lat="46.78447" lon="5.98157">
        <ele>712.3</ele>
        <time>2022-05-26T10:43:35Z</time>
      </trkpt>
      <trkpt lat="46.78448" lon="5.98164">
        <ele>711.7</ele>
        <time>2022-05-26T10:43:47Z</time>
      </trkpt>
      <trkpt lat="46.78444" lon="5.98167">
        <ele>711.5</ele>
        <time>2022-05-26T10:43:51Z</time>
      </trkpt>
      <trkpt lat="46.7844" lon="5.98171">
        <ele>710.9</ele>
        <time>2022-05-26T10:43:58Z</time>
      </trkpt>
      <trkpt lat="46.78431" lon="5.98178">
        <ele>709.7</ele>
        <time>2022-05-26T10:44:08Z</time>
      </trkpt>
      <trkpt lat="46.78431" lon="5.98186">
        <ele>708.8</ele>
        <time>2022-05-26T10:44:13Z</time>
      </trkpt>
      <trkpt lat="46.78428" lon="5.98191">
        <ele>707.7</ele>
        <time>2022-05-26T10:44:20Z</time>
      </trkpt>
      <trkpt lat="46.78432" lon="5.98187">
        <ele>705.2</ele>
        <time>2022-05-26T10:44:56Z</time>
      </trkpt>
      <trkpt lat="46.78429" lon="5.98181">
        <ele>704.8</ele>
        <time>2022-05-26T10:45:02Z</time>
      </trkpt>
      <trkpt lat="46.78428" lon="5.98174">
        <ele>704.6</ele>
        <time>2022-05-26T10:45:07Z</time>
      </trkpt>
      <trkpt lat="46.78426" lon="5.98167">
        <ele>704.3</ele>
        <time>2022-05-26T10:45:15Z</time>
      </trkpt>
      <trkpt lat="46.78426" lon="5.98159">
        <ele>704.2</ele>
        <time>2022-05-26T10:45:20Z</time>
      </trkpt>
      <trkpt lat="46.78426" lon="5.98152">
        <ele>703.9</ele>
        <time>2022-05-26T10:45:26Z</time>
      </trkpt>
      <trkpt lat="46.78424" lon="5.98145">
        <ele>703.7</ele>
        <time>2022-05-26T10:45:31Z</time>
      </trkpt>
      <trkpt lat="46.78429" lon="5.98142">
        <ele>701.9</ele>
        <time>2022-05-26T10:46:08Z</time>
      </trkpt>
      <trkpt lat="46.78431" lon="5.98136">
        <ele>702</ele>
        <time>2022-05-26T10:46:14Z</time>
      </trkpt>
      <trkpt lat="46.78433" lon="5.98129">
        <ele>702</ele>
        <time>2022-05-26T10:46:18Z</time>
      </trkpt>
      <trkpt lat="46.78429" lon="5.98123">
        <ele>701.9</ele>
        <time>2022-05-26T10:46:22Z</time>
      </trkpt>
      <trkpt lat="46.78425" lon="5.98117">
        <ele>701.6</ele>
        <time>2022-05-26T10:46:26Z</time>
      </trkpt>
      <trkpt lat="46.78422" lon="5.9811">
        <ele>701.1</ele>
        <time>2022-05-26T10:46:30Z</time>
      </trkpt>
      <trkpt lat="46.78417" lon="5.98106">
        <ele>700.2</ele>
        <time>2022-05-26T10:46:34Z</time>
      </trkpt>
      <trkpt lat="46.78416" lon="5.981">
        <ele>698.3</ele>
        <time>2022-05-26T10:46:41Z</time>
      </trkpt>
      <trkpt lat="46.78414" lon="5.98092">
        <ele>696.3</ele>
        <time>2022-05-26T10:46:52Z</time>
      </trkpt>
      <trkpt lat="46.78411" lon="5.98087">
        <ele>696.1</ele>
        <time>2022-05-26T10:46:57Z</time>
      </trkpt>
      <trkpt lat="46.78407" lon="5.98082">
        <ele>695.9</ele>
        <time>2022-05-26T10:47:03Z</time>
      </trkpt>
      <trkpt lat="46.78402" lon="5.98077">
        <ele>695.9</ele>
        <time>2022-05-26T10:47:11Z</time>
      </trkpt>
      <trkpt lat="46.78399" lon="5.98072">
        <ele>696.1</ele>
        <time>2022-05-26T10:47:16Z</time>
      </trkpt>
      <trkpt lat="46.78395" lon="5.98067">
        <ele>696.2</ele>
        <time>2022-05-26T10:47:24Z</time>
      </trkpt>
      <trkpt lat="46.7839" lon="5.98066">
        <ele>695.4</ele>
        <time>2022-05-26T10:47:31Z</time>
      </trkpt>
      <trkpt lat="46.78384" lon="5.98065">
        <ele>693.4</ele>
        <time>2022-05-26T10:47:38Z</time>
      </trkpt>
      <trkpt lat="46.7838" lon="5.98069">
        <ele>691.9</ele>
        <time>2022-05-26T10:47:43Z</time>
      </trkpt>
      <trkpt lat="46.78379" lon="5.98076">
        <ele>688.9</ele>
        <time>2022-05-26T10:47:57Z</time>
      </trkpt>
      <trkpt lat="46.78383" lon="5.98081">
        <ele>688.1</ele>
        <time>2022-05-26T10:48:02Z</time>
      </trkpt>
      <trkpt lat="46.78389" lon="5.9808">
        <ele>685</ele>
        <time>2022-05-26T10:48:31Z</time>
      </trkpt>
      <trkpt lat="46.78393" lon="5.98076">
        <ele>686.1</ele>
        <time>2022-05-26T10:48:35Z</time>
      </trkpt>
      <trkpt lat="46.78396" lon="5.98071">
        <ele>687.3</ele>
        <time>2022-05-26T10:48:53Z</time>
      </trkpt>
      <trkpt lat="46.78396" lon="5.98065">
        <ele>687.3</ele>
        <time>2022-05-26T10:49:03Z</time>
      </trkpt>
      <trkpt lat="46.78388" lon="5.9807">
        <ele>686.5</ele>
        <time>2022-05-26T10:49:38Z</time>
      </trkpt>
      <trkpt lat="46.78384" lon="5.98073">
        <ele>686.2</ele>
        <time>2022-05-26T10:49:42Z</time>
      </trkpt>
      <trkpt lat="46.78379" lon="5.98075">
        <ele>686.1</ele>
        <time>2022-05-26T10:49:49Z</time>
      </trkpt>
      <trkpt lat="46.7838" lon="5.98068">
        <ele>685.9</ele>
        <time>2022-05-26T10:49:55Z</time>
      </trkpt>
      <trkpt lat="46.78373" lon="5.98072">
        <ele>682.6</ele>
        <time>2022-05-26T10:50:10Z</time>
      </trkpt>
      <trkpt lat="46.78368" lon="5.98074">
        <ele>682</ele>
        <time>2022-05-26T10:50:13Z</time>
      </trkpt>
      <trkpt lat="46.78373" lon="5.98076">
        <ele>681.5</ele>
        <time>2022-05-26T10:50:32Z</time>
      </trkpt>
      <trkpt lat="46.7838" lon="5.98073">
        <ele>682.1</ele>
        <time>2022-05-26T10:50:35Z</time>
      </trkpt>
      <trkpt lat="46.78384" lon="5.98069">
        <ele>683.4</ele>
        <time>2022-05-26T10:50:39Z</time>
      </trkpt>
      <trkpt lat="46.7839" lon="5.98074">
        <ele>683.2</ele>
        <time>2022-05-26T10:51:06Z</time>
      </trkpt>
      <trkpt lat="46.78394" lon="5.98075">
        <ele>683.3</ele>
        <time>2022-05-26T10:51:09Z</time>
      </trkpt>
      <trkpt lat="46.78389" lon="5.98075">
        <ele>682</ele>
        <time>2022-05-26T10:51:37Z</time>
      </trkpt>
      <trkpt lat="46.78385" lon="5.98079">
        <ele>678.4</ele>
        <time>2022-05-26T10:52:24Z</time>
      </trkpt>
      <trkpt lat="46.78389" lon="5.98075">
        <ele>678.2</ele>
        <time>2022-05-26T10:53:41Z</time>
      </trkpt>
      <trkpt lat="46.78384" lon="5.98074">
        <ele>683.2</ele>
        <time>2022-05-26T10:54:52Z</time>
      </trkpt>
      <trkpt lat="46.78388" lon="5.9807">
        <ele>685.3</ele>
        <time>2022-05-26T10:57:04Z</time>
      </trkpt>
      <trkpt lat="46.78384" lon="5.98074">
        <ele>681</ele>
        <time>2022-05-26T11:02:56Z</time>
      </trkpt>
      <trkpt lat="46.78387" lon="5.98069">
        <ele>681.9</ele>
        <time>2022-05-26T11:06:57Z</time>
      </trkpt>
      <trkpt lat="46.78383" lon="5.98073">
        <ele>683.9</ele>
        <time>2022-05-26T11:08:43Z</time>
      </trkpt>
      <trkpt lat="46.78387" lon="5.98072">
        <ele>685.4</ele>
        <time>2022-05-26T11:09:43Z</time>
      </trkpt>
      <trkpt lat="46.78391" lon="5.98069">
        <ele>686</ele>
        <time>2022-05-26T11:10:34Z</time>
      </trkpt>
      <trkpt lat="46.78388" lon="5.98074">
        <ele>685.1</ele>
        <time>2022-05-26T11:12:56Z</time>
      </trkpt>
      <trkpt lat="46.78381" lon="5.98074">
        <ele>684.9</ele>
        <time>2022-05-26T11:15:05Z</time>
      </trkpt>
      <trkpt lat="46.78386" lon="5.98072">
        <ele>686.3</ele>
        <time>2022-05-26T11:16:48Z</time>
      </trkpt>
      <trkpt lat="46.78391" lon="5.98074">
        <ele>688.2</ele>
        <time>2022-05-26T11:20:35Z</time>
      </trkpt>
      <trkpt lat="46.78386" lon="5.98072">
        <ele>685.5</ele>
        <time>2022-05-26T11:22:10Z</time>
      </trkpt>
      <trkpt lat="46.78391" lon="5.98072">
        <ele>687</ele>
        <time>2022-05-26T11:22:51Z</time>
      </trkpt>
      <trkpt lat="46.78395" lon="5.98075">
        <ele>683.8</ele>
        <time>2022-05-26T11:26:40Z</time>
      </trkpt>
      <trkpt lat="46.78389" lon="5.98076">
        <ele>681.4</ele>
        <time>2022-05-26T11:33:00Z</time>
      </trkpt>
      <trkpt lat="46.78383" lon="5.98075">
        <ele>680.8</ele>
        <time>2022-05-26T11:41:45Z</time>
      </trkpt>
      <trkpt lat="46.78388" lon="5.98073">
        <ele>672.4</ele>
        <time>2022-05-26T11:45:37Z</time>
      </trkpt>
      <trkpt lat="46.78388" lon="5.98085">
        <ele>675.4</ele>
        <time>2022-05-26T11:54:47Z</time>
      </trkpt>
      <trkpt lat="46.78377" lon="5.98084">
        <ele>675.5</ele>
        <time>2022-05-26T11:55:11Z</time>
      </trkpt>
      <trkpt lat="46.78376" lon="5.98077">
        <ele>675.8</ele>
        <time>2022-05-26T11:55:18Z</time>
      </trkpt>
      <trkpt lat="46.78381" lon="5.98075">
        <ele>676.1</ele>
        <time>2022-05-26T11:55:27Z</time>
      </trkpt>
      <trkpt lat="46.78386" lon="5.98076">
        <ele>676</ele>
        <time>2022-05-26T11:56:03Z</time>
      </trkpt>
      <trkpt lat="46.78391" lon="5.98079">
        <ele>676.4</ele>
        <time>2022-05-26T11:56:07Z</time>
      </trkpt>
      <trkpt lat="46.78395" lon="5.98084">
        <ele>677</ele>
        <time>2022-05-26T11:56:11Z</time>
      </trkpt>
      <trkpt lat="46.78396" lon="5.98091">
        <ele>677.7</ele>
        <time>2022-05-26T11:56:16Z</time>
      </trkpt>
      <trkpt lat="46.78397" lon="5.98099">
        <ele>678.3</ele>
        <time>2022-05-26T11:56:23Z</time>
      </trkpt>
      <trkpt lat="46.78398" lon="5.98105">
        <ele>678.6</ele>
        <time>2022-05-26T11:56:29Z</time>
      </trkpt>
      <trkpt lat="46.78398" lon="5.98112">
        <ele>678.2</ele>
        <time>2022-05-26T11:56:34Z</time>
      </trkpt>
      <trkpt lat="46.78402" lon="5.98117">
        <ele>677.5</ele>
        <time>2022-05-26T11:56:39Z</time>
      </trkpt>
      <trkpt lat="46.78404" lon="5.98124">
        <ele>676.2</ele>
        <time>2022-05-26T11:56:45Z</time>
      </trkpt>
      <trkpt lat="46.78405" lon="5.98131">
        <ele>675.8</ele>
        <time>2022-05-26T11:56:54Z</time>
      </trkpt>
      <trkpt lat="46.78409" lon="5.98135">
        <ele>675.8</ele>
        <time>2022-05-26T11:56:59Z</time>
      </trkpt>
      <trkpt lat="46.78413" lon="5.98139">
        <ele>675.9</ele>
        <time>2022-05-26T11:57:02Z</time>
      </trkpt>
      <trkpt lat="46.78416" lon="5.98146">
        <ele>676</ele>
        <time>2022-05-26T11:57:06Z</time>
      </trkpt>
      <trkpt lat="46.78419" lon="5.98151">
        <ele>676.2</ele>
        <time>2022-05-26T11:57:10Z</time>
      </trkpt>
      <trkpt lat="46.78422" lon="5.98157">
        <ele>676.4</ele>
        <time>2022-05-26T11:57:18Z</time>
      </trkpt>
      <trkpt lat="46.78422" lon="5.98164">
        <ele>676.3</ele>
        <time>2022-05-26T11:57:23Z</time>
      </trkpt>
      <trkpt lat="46.78419" lon="5.98169">
        <ele>676.1</ele>
        <time>2022-05-26T11:57:28Z</time>
      </trkpt>
      <trkpt lat="46.78414" lon="5.98171">
        <ele>675.9</ele>
        <time>2022-05-26T11:57:32Z</time>
      </trkpt>
      <trkpt lat="46.7841" lon="5.98174">
        <ele>677.2</ele>
        <time>2022-05-26T11:57:44Z</time>
      </trkpt>
      <trkpt lat="46.78406" lon="5.98173">
        <ele>680.7</ele>
        <time>2022-05-26T11:58:17Z</time>
      </trkpt>
      <trkpt lat="46.78404" lon="5.98166">
        <ele>681.8</ele>
        <time>2022-05-26T11:58:29Z</time>
      </trkpt>
      <trkpt lat="46.7842" lon="5.98164">
        <ele>710.2</ele>
        <time>2022-05-26T12:00:35Z</time>
      </trkpt>
      <trkpt lat="46.78401" lon="5.98175">
        <ele>697.1</ele>
        <time>2022-05-26T12:02:32Z</time>
      </trkpt>
      <trkpt lat="46.78399" lon="5.98186">
        <ele>691.9</ele>
        <time>2022-05-26T12:02:35Z</time>
      </trkpt>
      <trkpt lat="46.78402" lon="5.9818">
        <ele>677.9</ele>
        <time>2022-05-26T12:02:46Z</time>
      </trkpt>
      <trkpt lat="46.78407" lon="5.98178">
        <ele>677.6</ele>
        <time>2022-05-26T12:02:55Z</time>
      </trkpt>
      <trkpt lat="46.78412" lon="5.98175">
        <ele>678.8</ele>
        <time>2022-05-26T12:03:01Z</time>
      </trkpt>
      <trkpt lat="46.78417" lon="5.98173">
        <ele>680</ele>
        <time>2022-05-26T12:03:04Z</time>
      </trkpt>
      <trkpt lat="46.78421" lon="5.98169">
        <ele>683.4</ele>
        <time>2022-05-26T12:03:13Z</time>
      </trkpt>
      <trkpt lat="46.78416" lon="5.98169">
        <ele>686</ele>
        <time>2022-05-26T12:03:26Z</time>
      </trkpt>
      <trkpt lat="46.78411" lon="5.9817">
        <ele>687.6</ele>
        <time>2022-05-26T12:03:31Z</time>
      </trkpt>
      <trkpt lat="46.78406" lon="5.98171">
        <ele>689.2</ele>
        <time>2022-05-26T12:03:37Z</time>
      </trkpt>
      <trkpt lat="46.78403" lon="5.98176">
        <ele>690.3</ele>
        <time>2022-05-26T12:03:46Z</time>
      </trkpt>
      <trkpt lat="46.78408" lon="5.98175">
        <ele>689.8</ele>
        <time>2022-05-26T12:03:51Z</time>
      </trkpt>
      <trkpt lat="46.78412" lon="5.98177">
        <ele>688.6</ele>
        <time>2022-05-26T12:03:56Z</time>
      </trkpt>
      <trkpt lat="46.78409" lon="5.98173">
        <ele>688.3</ele>
        <time>2022-05-26T12:04:13Z</time>
      </trkpt>
      <trkpt lat="46.78405" lon="5.98167">
        <ele>688.7</ele>
        <time>2022-05-26T12:04:35Z</time>
      </trkpt>
      <trkpt lat="46.78403" lon="5.98161">
        <ele>689</ele>
        <time>2022-05-26T12:04:39Z</time>
      </trkpt>
      <trkpt lat="46.78404" lon="5.9817">
        <ele>690.1</ele>
        <time>2022-05-26T12:04:51Z</time>
      </trkpt>
      <trkpt lat="46.78399" lon="5.98173">
        <ele>690</ele>
        <time>2022-05-26T12:05:03Z</time>
      </trkpt>
      <trkpt lat="46.784" lon="5.98165">
        <ele>688.6</ele>
        <time>2022-05-26T12:05:13Z</time>
      </trkpt>
      <trkpt lat="46.78397" lon="5.98158">
        <ele>686.3</ele>
        <time>2022-05-26T12:05:36Z</time>
      </trkpt>
      <trkpt lat="46.78393" lon="5.98154">
        <ele>686.5</ele>
        <time>2022-05-26T12:05:39Z</time>
      </trkpt>
      <trkpt lat="46.78388" lon="5.98154">
        <ele>687.3</ele>
        <time>2022-05-26T12:05:46Z</time>
      </trkpt>
      <trkpt lat="46.78384" lon="5.98157">
        <ele>687.2</ele>
        <time>2022-05-26T12:05:50Z</time>
      </trkpt>
      <trkpt lat="46.7838" lon="5.98162">
        <ele>687.5</ele>
        <time>2022-05-26T12:05:59Z</time>
      </trkpt>
      <trkpt lat="46.78382" lon="5.98169">
        <ele>687.4</ele>
        <time>2022-05-26T12:06:05Z</time>
      </trkpt>
      <trkpt lat="46.78379" lon="5.98175">
        <ele>687.3</ele>
        <time>2022-05-26T12:06:11Z</time>
      </trkpt>
      <trkpt lat="46.78383" lon="5.98181">
        <ele>687.7</ele>
        <time>2022-05-26T12:06:18Z</time>
      </trkpt>
      <trkpt lat="46.78388" lon="5.98184">
        <ele>687.1</ele>
        <time>2022-05-26T12:06:40Z</time>
      </trkpt>
      <trkpt lat="46.78392" lon="5.98189">
        <ele>688</ele>
        <time>2022-05-26T12:06:45Z</time>
      </trkpt>
      <trkpt lat="46.78395" lon="5.98195">
        <ele>688.8</ele>
        <time>2022-05-26T12:06:49Z</time>
      </trkpt>
      <trkpt lat="46.78396" lon="5.98202">
        <ele>690.2</ele>
        <time>2022-05-26T12:06:56Z</time>
      </trkpt>
      <trkpt lat="46.78401" lon="5.98203">
        <ele>697.3</ele>
        <time>2022-05-26T12:07:27Z</time>
      </trkpt>
      <trkpt lat="46.78399" lon="5.98209">
        <ele>698.8</ele>
        <time>2022-05-26T12:07:39Z</time>
      </trkpt>
      <trkpt lat="46.78395" lon="5.98212">
        <ele>698.2</ele>
        <time>2022-05-26T12:07:45Z</time>
      </trkpt>
      <trkpt lat="46.78394" lon="5.98219">
        <ele>697</ele>
        <time>2022-05-26T12:07:55Z</time>
      </trkpt>
      <trkpt lat="46.78394" lon="5.98227">
        <ele>696.5</ele>
        <time>2022-05-26T12:07:59Z</time>
      </trkpt>
      <trkpt lat="46.78394" lon="5.98236">
        <ele>696.1</ele>
        <time>2022-05-26T12:08:03Z</time>
      </trkpt>
      <trkpt lat="46.78396" lon="5.98243">
        <ele>695.7</ele>
        <time>2022-05-26T12:08:07Z</time>
      </trkpt>
      <trkpt lat="46.784" lon="5.98248">
        <ele>695.9</ele>
        <time>2022-05-26T12:08:14Z</time>
      </trkpt>
      <trkpt lat="46.78404" lon="5.98244">
        <ele>695.4</ele>
        <time>2022-05-26T12:08:18Z</time>
      </trkpt>
      <trkpt lat="46.78408" lon="5.98239">
        <ele>695.7</ele>
        <time>2022-05-26T12:08:21Z</time>
      </trkpt>
      <trkpt lat="46.78412" lon="5.98236">
        <ele>695.9</ele>
        <time>2022-05-26T12:08:24Z</time>
      </trkpt>
      <trkpt lat="46.78415" lon="5.98231">
        <ele>696.5</ele>
        <time>2022-05-26T12:08:28Z</time>
      </trkpt>
      <trkpt lat="46.78418" lon="5.98226">
        <ele>697.4</ele>
        <time>2022-05-26T12:08:31Z</time>
      </trkpt>
      <trkpt lat="46.78423" lon="5.98221">
        <ele>698.9</ele>
        <time>2022-05-26T12:08:35Z</time>
      </trkpt>
      <trkpt lat="46.78427" lon="5.98217">
        <ele>700.4</ele>
        <time>2022-05-26T12:08:39Z</time>
      </trkpt>
      <trkpt lat="46.7843" lon="5.98213">
        <ele>701.7</ele>
        <time>2022-05-26T12:08:42Z</time>
      </trkpt>
      <trkpt lat="46.78434" lon="5.98207">
        <ele>703.6</ele>
        <time>2022-05-26T12:08:46Z</time>
      </trkpt>
      <trkpt lat="46.78434" lon="5.98199">
        <ele>705.4</ele>
        <time>2022-05-26T12:08:50Z</time>
      </trkpt>
      <trkpt lat="46.78434" lon="5.98192">
        <ele>706.6</ele>
        <time>2022-05-26T12:08:53Z</time>
      </trkpt>
      <trkpt lat="46.78434" lon="5.98185">
        <ele>707.7</ele>
        <time>2022-05-26T12:08:56Z</time>
      </trkpt>
      <trkpt lat="46.78433" lon="5.98178">
        <ele>708.8</ele>
        <time>2022-05-26T12:09:01Z</time>
      </trkpt>
      <trkpt lat="46.78433" lon="5.98171">
        <ele>708.7</ele>
        <time>2022-05-26T12:09:06Z</time>
      </trkpt>
      <trkpt lat="46.78431" lon="5.98164">
        <ele>706.7</ele>
        <time>2022-05-26T12:09:12Z</time>
      </trkpt>
      <trkpt lat="46.78429" lon="5.98157">
        <ele>705.2</ele>
        <time>2022-05-26T12:09:16Z</time>
      </trkpt>
      <trkpt lat="46.78427" lon="5.98151">
        <ele>703.8</ele>
        <time>2022-05-26T12:09:21Z</time>
      </trkpt>
      <trkpt lat="46.78426" lon="5.98145">
        <ele>702.6</ele>
        <time>2022-05-26T12:09:26Z</time>
      </trkpt>
      <trkpt lat="46.78424" lon="5.98139">
        <ele>700.4</ele>
        <time>2022-05-26T12:09:32Z</time>
      </trkpt>
      <trkpt lat="46.78421" lon="5.98133">
        <ele>698.4</ele>
        <time>2022-05-26T12:09:36Z</time>
      </trkpt>
      <trkpt lat="46.78419" lon="5.98125">
        <ele>696.3</ele>
        <time>2022-05-26T12:09:40Z</time>
      </trkpt>
      <trkpt lat="46.78417" lon="5.98119">
        <ele>694.1</ele>
        <time>2022-05-26T12:09:44Z</time>
      </trkpt>
      <trkpt lat="46.78416" lon="5.98112">
        <ele>690.8</ele>
        <time>2022-05-26T12:09:49Z</time>
      </trkpt>
      <trkpt lat="46.78412" lon="5.98106">
        <ele>688.5</ele>
        <time>2022-05-26T12:09:54Z</time>
      </trkpt>
      <trkpt lat="46.78408" lon="5.98102">
        <ele>687.6</ele>
        <time>2022-05-26T12:09:57Z</time>
      </trkpt>
      <trkpt lat="46.78405" lon="5.98096">
        <ele>686.7</ele>
        <time>2022-05-26T12:10:00Z</time>
      </trkpt>
      <trkpt lat="46.78402" lon="5.9809">
        <ele>685.6</ele>
        <time>2022-05-26T12:10:03Z</time>
      </trkpt>
      <trkpt lat="46.78399" lon="5.98085">
        <ele>683.7</ele>
        <time>2022-05-26T12:10:08Z</time>
      </trkpt>
      <trkpt lat="46.78395" lon="5.98079">
        <ele>682.4</ele>
        <time>2022-05-26T12:10:13Z</time>
      </trkpt>
      <trkpt lat="46.78391" lon="5.98074">
        <ele>681.3</ele>
        <time>2022-05-26T12:10:18Z</time>
      </trkpt>
      <trkpt lat="46.78386" lon="5.98074">
        <ele>678.7</ele>
        <time>2022-05-26T12:10:31Z</time>
      </trkpt>
      <trkpt lat="46.78391" lon="5.98078">
        <ele>678.5</ele>
        <time>2022-05-26T12:11:26Z</time>
      </trkpt>
      <trkpt lat="46.78395" lon="5.98075">
        <ele>679.2</ele>
        <time>2022-05-26T12:12:02Z</time>
      </trkpt>
      <trkpt lat="46.78396" lon="5.98069">
        <ele>678.1</ele>
        <time>2022-05-26T12:12:08Z</time>
      </trkpt>
      <trkpt lat="46.78397" lon="5.98062">
        <ele>676</ele>
        <time>2022-05-26T12:12:17Z</time>
      </trkpt>
      <trkpt lat="46.78398" lon="5.98054">
        <ele>675.1</ele>
        <time>2022-05-26T12:12:24Z</time>
      </trkpt>
      <trkpt lat="46.784" lon="5.98047">
        <ele>674.7</ele>
        <time>2022-05-26T12:12:31Z</time>
      </trkpt>
      <trkpt lat="46.78402" lon="5.9804">
        <ele>673.9</ele>
        <time>2022-05-26T12:12:37Z</time>
      </trkpt>
      <trkpt lat="46.78404" lon="5.98033">
        <ele>673.6</ele>
        <time>2022-05-26T12:12:42Z</time>
      </trkpt>
      <trkpt lat="46.78406" lon="5.98025">
        <ele>673.7</ele>
        <time>2022-05-26T12:12:46Z</time>
      </trkpt>
      <trkpt lat="46.78409" lon="5.98019">
        <ele>674</ele>
        <time>2022-05-26T12:12:50Z</time>
      </trkpt>
      <trkpt lat="46.78412" lon="5.98012">
        <ele>674.4</ele>
        <time>2022-05-26T12:12:55Z</time>
      </trkpt>
      <trkpt lat="46.78415" lon="5.98006">
        <ele>674.8</ele>
        <time>2022-05-26T12:13:01Z</time>
      </trkpt>
      <trkpt lat="46.78417" lon="5.97999">
        <ele>674.9</ele>
        <time>2022-05-26T12:13:07Z</time>
      </trkpt>
      <trkpt lat="46.7842" lon="5.97994">
        <ele>674.5</ele>
        <time>2022-05-26T12:13:12Z</time>
      </trkpt>
      <trkpt lat="46.78423" lon="5.97988">
        <ele>674</ele>
        <time>2022-05-26T12:13:18Z</time>
      </trkpt>
      <trkpt lat="46.78428" lon="5.97989">
        <ele>672.9</ele>
        <time>2022-05-26T12:13:31Z</time>
      </trkpt>
      <trkpt lat="46.78432" lon="5.97986">
        <ele>672.1</ele>
        <time>2022-05-26T12:13:40Z</time>
      </trkpt>
      <trkpt lat="46.78436" lon="5.97982">
        <ele>672.1</ele>
        <time>2022-05-26T12:13:46Z</time>
      </trkpt>
      <trkpt lat="46.78439" lon="5.97977">
        <ele>672.9</ele>
        <time>2022-05-26T12:13:53Z</time>
      </trkpt>
      <trkpt lat="46.78442" lon="5.9797">
        <ele>673.5</ele>
        <time>2022-05-26T12:13:58Z</time>
      </trkpt>
      <trkpt lat="46.78446" lon="5.97965">
        <ele>673.7</ele>
        <time>2022-05-26T12:14:02Z</time>
      </trkpt>
      <trkpt lat="46.78449" lon="5.97959">
        <ele>673.7</ele>
        <time>2022-05-26T12:14:07Z</time>
      </trkpt>
      <trkpt lat="46.78453" lon="5.97954">
        <ele>673.5</ele>
        <time>2022-05-26T12:14:11Z</time>
      </trkpt>
      <trkpt lat="46.78458" lon="5.9795">
        <ele>673.3</ele>
        <time>2022-05-26T12:14:16Z</time>
      </trkpt>
      <trkpt lat="46.7846" lon="5.97944">
        <ele>672.8</ele>
        <time>2022-05-26T12:14:21Z</time>
      </trkpt>
      <trkpt lat="46.78463" lon="5.97939">
        <ele>672.5</ele>
        <time>2022-05-26T12:14:25Z</time>
      </trkpt>
      <trkpt lat="46.78466" lon="5.97933">
        <ele>672.6</ele>
        <time>2022-05-26T12:14:29Z</time>
      </trkpt>
      <trkpt lat="46.78469" lon="5.97927">
        <ele>672.4</ele>
        <time>2022-05-26T12:14:33Z</time>
      </trkpt>
      <trkpt lat="46.78472" lon="5.97922">
        <ele>671.9</ele>
        <time>2022-05-26T12:14:37Z</time>
      </trkpt>
      <trkpt lat="46.78475" lon="5.97917">
        <ele>671.7</ele>
        <time>2022-05-26T12:14:41Z</time>
      </trkpt>
      <trkpt lat="46.78479" lon="5.97912">
        <ele>671.5</ele>
        <time>2022-05-26T12:14:46Z</time>
      </trkpt>
      <trkpt lat="46.78483" lon="5.97908">
        <ele>671.3</ele>
        <time>2022-05-26T12:14:52Z</time>
      </trkpt>
      <trkpt lat="46.78487" lon="5.97904">
        <ele>671.2</ele>
        <time>2022-05-26T12:14:58Z</time>
      </trkpt>
      <trkpt lat="46.78491" lon="5.97901">
        <ele>671</ele>
        <time>2022-05-26T12:15:03Z</time>
      </trkpt>
      <trkpt lat="46.78496" lon="5.97896">
        <ele>670.5</ele>
        <time>2022-05-26T12:15:08Z</time>
      </trkpt>
      <trkpt lat="46.785" lon="5.97893">
        <ele>670.2</ele>
        <time>2022-05-26T12:15:12Z</time>
      </trkpt>
      <trkpt lat="46.78505" lon="5.97889">
        <ele>670.2</ele>
        <time>2022-05-26T12:15:17Z</time>
      </trkpt>
      <trkpt lat="46.78509" lon="5.97886">
        <ele>670.3</ele>
        <time>2022-05-26T12:15:21Z</time>
      </trkpt>
      <trkpt lat="46.78513" lon="5.97881">
        <ele>670.6</ele>
        <time>2022-05-26T12:15:25Z</time>
      </trkpt>
      <trkpt lat="46.78517" lon="5.97877">
        <ele>670.6</ele>
        <time>2022-05-26T12:15:29Z</time>
      </trkpt>
      <trkpt lat="46.78521" lon="5.97873">
        <ele>670.4</ele>
        <time>2022-05-26T12:15:34Z</time>
      </trkpt>
      <trkpt lat="46.78526" lon="5.97869">
        <ele>669.8</ele>
        <time>2022-05-26T12:15:39Z</time>
      </trkpt>
      <trkpt lat="46.7853" lon="5.97867">
        <ele>668.9</ele>
        <time>2022-05-26T12:15:43Z</time>
      </trkpt>
      <trkpt lat="46.78534" lon="5.97863">
        <ele>668.6</ele>
        <time>2022-05-26T12:15:47Z</time>
      </trkpt>
      <trkpt lat="46.7854" lon="5.97859">
        <ele>668.3</ele>
        <time>2022-05-26T12:15:52Z</time>
      </trkpt>
      <trkpt lat="46.78545" lon="5.97857">
        <ele>668.3</ele>
        <time>2022-05-26T12:15:57Z</time>
      </trkpt>
      <trkpt lat="46.78549" lon="5.97854">
        <ele>668.2</ele>
        <time>2022-05-26T12:16:02Z</time>
      </trkpt>
      <trkpt lat="46.78554" lon="5.97852">
        <ele>668.1</ele>
        <time>2022-05-26T12:16:07Z</time>
      </trkpt>
      <trkpt lat="46.78559" lon="5.9785">
        <ele>667.8</ele>
        <time>2022-05-26T12:16:11Z</time>
      </trkpt>
      <trkpt lat="46.78564" lon="5.97848">
        <ele>667.5</ele>
        <time>2022-05-26T12:16:16Z</time>
      </trkpt>
      <trkpt lat="46.78569" lon="5.97847">
        <ele>667</ele>
        <time>2022-05-26T12:16:20Z</time>
      </trkpt>
      <trkpt lat="46.78574" lon="5.97845">
        <ele>666.3</ele>
        <time>2022-05-26T12:16:25Z</time>
      </trkpt>
      <trkpt lat="46.78579" lon="5.97843">
        <ele>666</ele>
        <time>2022-05-26T12:16:30Z</time>
      </trkpt>
      <trkpt lat="46.78584" lon="5.97841">
        <ele>665.6</ele>
        <time>2022-05-26T12:16:34Z</time>
      </trkpt>
      <trkpt lat="46.78589" lon="5.9784">
        <ele>665.5</ele>
        <time>2022-05-26T12:16:38Z</time>
      </trkpt>
      <trkpt lat="46.78593" lon="5.97838">
        <ele>665</ele>
        <time>2022-05-26T12:16:42Z</time>
      </trkpt>
      <trkpt lat="46.78598" lon="5.97836">
        <ele>664.9</ele>
        <time>2022-05-26T12:16:47Z</time>
      </trkpt>
      <trkpt lat="46.78603" lon="5.97835">
        <ele>665.1</ele>
        <time>2022-05-26T12:16:51Z</time>
      </trkpt>
      <trkpt lat="46.78609" lon="5.97833">
        <ele>665.2</ele>
        <time>2022-05-26T12:16:56Z</time>
      </trkpt>
      <trkpt lat="46.78614" lon="5.97831">
        <ele>665.1</ele>
        <time>2022-05-26T12:17:01Z</time>
      </trkpt>
      <trkpt lat="46.78618" lon="5.97828">
        <ele>665.1</ele>
        <time>2022-05-26T12:17:05Z</time>
      </trkpt>
      <trkpt lat="46.78623" lon="5.97825">
        <ele>665.3</ele>
        <time>2022-05-26T12:17:09Z</time>
      </trkpt>
      <trkpt lat="46.78627" lon="5.97821">
        <ele>665.3</ele>
        <time>2022-05-26T12:17:13Z</time>
      </trkpt>
      <trkpt lat="46.78631" lon="5.97817">
        <ele>665.1</ele>
        <time>2022-05-26T12:17:17Z</time>
      </trkpt>
      <trkpt lat="46.78634" lon="5.9781">
        <ele>665.5</ele>
        <time>2022-05-26T12:17:21Z</time>
      </trkpt>
      <trkpt lat="46.78638" lon="5.97806">
        <ele>666</ele>
        <time>2022-05-26T12:17:25Z</time>
      </trkpt>
      <trkpt lat="46.78642" lon="5.97802">
        <ele>665.8</ele>
        <time>2022-05-26T12:17:30Z</time>
      </trkpt>
      <trkpt lat="46.78646" lon="5.97798">
        <ele>665.5</ele>
        <time>2022-05-26T12:17:34Z</time>
      </trkpt>
      <trkpt lat="46.7865" lon="5.97793">
        <ele>665.7</ele>
        <time>2022-05-26T12:17:39Z</time>
      </trkpt>
      <trkpt lat="46.78655" lon="5.97788">
        <ele>666.1</ele>
        <time>2022-05-26T12:17:44Z</time>
      </trkpt>
      <trkpt lat="46.78659" lon="5.97783">
        <ele>666.3</ele>
        <time>2022-05-26T12:17:49Z</time>
      </trkpt>
      <trkpt lat="46.78663" lon="5.9778">
        <ele>666.5</ele>
        <time>2022-05-26T12:17:53Z</time>
      </trkpt>
      <trkpt lat="46.78668" lon="5.97776">
        <ele>666.6</ele>
        <time>2022-05-26T12:17:58Z</time>
      </trkpt>
      <trkpt lat="46.78673" lon="5.97773">
        <ele>666.8</ele>
        <time>2022-05-26T12:18:02Z</time>
      </trkpt>
      <trkpt lat="46.78677" lon="5.97769">
        <ele>666.9</ele>
        <time>2022-05-26T12:18:06Z</time>
      </trkpt>
      <trkpt lat="46.78682" lon="5.97765">
        <ele>666.9</ele>
        <time>2022-05-26T12:18:10Z</time>
      </trkpt>
      <trkpt lat="46.78686" lon="5.97761">
        <ele>667.1</ele>
        <time>2022-05-26T12:18:14Z</time>
      </trkpt>
      <trkpt lat="46.78689" lon="5.97756">
        <ele>667.1</ele>
        <time>2022-05-26T12:18:22Z</time>
      </trkpt>
      <trkpt lat="46.78692" lon="5.97751">
        <ele>666.7</ele>
        <time>2022-05-26T12:18:28Z</time>
      </trkpt>
      <trkpt lat="46.78696" lon="5.97746">
        <ele>666.9</ele>
        <time>2022-05-26T12:18:34Z</time>
      </trkpt>
      <trkpt lat="46.787" lon="5.97742">
        <ele>666.8</ele>
        <time>2022-05-26T12:18:39Z</time>
      </trkpt>
      <trkpt lat="46.78704" lon="5.97739">
        <ele>666.5</ele>
        <time>2022-05-26T12:18:43Z</time>
      </trkpt>
      <trkpt lat="46.78709" lon="5.97736">
        <ele>666.4</ele>
        <time>2022-05-26T12:18:48Z</time>
      </trkpt>
      <trkpt lat="46.78714" lon="5.97732">
        <ele>666.5</ele>
        <time>2022-05-26T12:18:53Z</time>
      </trkpt>
      <trkpt lat="46.78719" lon="5.97729">
        <ele>666.4</ele>
        <time>2022-05-26T12:18:59Z</time>
      </trkpt>
      <trkpt lat="46.78723" lon="5.97726">
        <ele>666.1</ele>
        <time>2022-05-26T12:19:04Z</time>
      </trkpt>
      <trkpt lat="46.78728" lon="5.97723">
        <ele>665.6</ele>
        <time>2022-05-26T12:19:10Z</time>
      </trkpt>
      <trkpt lat="46.78732" lon="5.9772">
        <ele>665.2</ele>
        <time>2022-05-26T12:19:14Z</time>
      </trkpt>
      <trkpt lat="46.78736" lon="5.97717">
        <ele>664.9</ele>
        <time>2022-05-26T12:19:19Z</time>
      </trkpt>
      <trkpt lat="46.78741" lon="5.97714">
        <ele>664.9</ele>
        <time>2022-05-26T12:19:23Z</time>
      </trkpt>
      <trkpt lat="46.78746" lon="5.97711">
        <ele>665.2</ele>
        <time>2022-05-26T12:19:27Z</time>
      </trkpt>
      <trkpt lat="46.78751" lon="5.97709">
        <ele>665.5</ele>
        <time>2022-05-26T12:19:31Z</time>
      </trkpt>
      <trkpt lat="46.78755" lon="5.97708">
        <ele>665.9</ele>
        <time>2022-05-26T12:19:35Z</time>
      </trkpt>
      <trkpt lat="46.7876" lon="5.97706">
        <ele>666.3</ele>
        <time>2022-05-26T12:19:40Z</time>
      </trkpt>
      <trkpt lat="46.78764" lon="5.97702">
        <ele>666.2</ele>
        <time>2022-05-26T12:19:45Z</time>
      </trkpt>
      <trkpt lat="46.78769" lon="5.977">
        <ele>666.2</ele>
        <time>2022-05-26T12:19:50Z</time>
      </trkpt>
      <trkpt lat="46.78773" lon="5.97697">
        <ele>665.8</ele>
        <time>2022-05-26T12:19:54Z</time>
      </trkpt>
      <trkpt lat="46.78778" lon="5.97694">
        <ele>665.1</ele>
        <time>2022-05-26T12:19:59Z</time>
      </trkpt>
      <trkpt lat="46.78783" lon="5.97691">
        <ele>664.3</ele>
        <time>2022-05-26T12:20:03Z</time>
      </trkpt>
      <trkpt lat="46.78787" lon="5.97687">
        <ele>663.5</ele>
        <time>2022-05-26T12:20:08Z</time>
      </trkpt>
      <trkpt lat="46.7879" lon="5.9768">
        <ele>662.3</ele>
        <time>2022-05-26T12:20:25Z</time>
      </trkpt>
      <trkpt lat="46.78794" lon="5.97677">
        <ele>661.3</ele>
        <time>2022-05-26T12:20:30Z</time>
      </trkpt>
      <trkpt lat="46.78799" lon="5.97675">
        <ele>660.9</ele>
        <time>2022-05-26T12:20:34Z</time>
      </trkpt>
      <trkpt lat="46.78804" lon="5.9767">
        <ele>661</ele>
        <time>2022-05-26T12:20:39Z</time>
      </trkpt>
      <trkpt lat="46.78807" lon="5.97665">
        <ele>661.3</ele>
        <time>2022-05-26T12:20:44Z</time>
      </trkpt>
      <trkpt lat="46.78809" lon="5.9766">
        <ele>661.8</ele>
        <time>2022-05-26T12:20:49Z</time>
      </trkpt>
      <trkpt lat="46.78812" lon="5.97654">
        <ele>662.2</ele>
        <time>2022-05-26T12:20:54Z</time>
      </trkpt>
      <trkpt lat="46.78814" lon="5.97647">
        <ele>662.2</ele>
        <time>2022-05-26T12:21:00Z</time>
      </trkpt>
      <trkpt lat="46.78816" lon="5.97641">
        <ele>662.3</ele>
        <time>2022-05-26T12:21:06Z</time>
      </trkpt>
      <trkpt lat="46.78819" lon="5.97634">
        <ele>662.9</ele>
        <time>2022-05-26T12:21:11Z</time>
      </trkpt>
      <trkpt lat="46.78821" lon="5.97629">
        <ele>663.9</ele>
        <time>2022-05-26T12:21:15Z</time>
      </trkpt>
      <trkpt lat="46.78823" lon="5.97622">
        <ele>665.6</ele>
        <time>2022-05-26T12:21:21Z</time>
      </trkpt>
      <trkpt lat="46.78825" lon="5.97616">
        <ele>666.3</ele>
        <time>2022-05-26T12:21:25Z</time>
      </trkpt>
      <trkpt lat="46.78827" lon="5.9761">
        <ele>667</ele>
        <time>2022-05-26T12:21:29Z</time>
      </trkpt>
      <trkpt lat="46.78828" lon="5.97602">
        <ele>667.6</ele>
        <time>2022-05-26T12:21:34Z</time>
      </trkpt>
      <trkpt lat="46.7883" lon="5.97597">
        <ele>668.2</ele>
        <time>2022-05-26T12:21:38Z</time>
      </trkpt>
      <trkpt lat="46.78831" lon="5.97589">
        <ele>668.5</ele>
        <time>2022-05-26T12:21:42Z</time>
      </trkpt>
      <trkpt lat="46.7883" lon="5.97582">
        <ele>668.7</ele>
        <time>2022-05-26T12:21:47Z</time>
      </trkpt>
      <trkpt lat="46.78833" lon="5.97577">
        <ele>669</ele>
        <time>2022-05-26T12:22:06Z</time>
      </trkpt>
      <trkpt lat="46.78836" lon="5.97572">
        <ele>669.5</ele>
        <time>2022-05-26T12:22:11Z</time>
      </trkpt>
      <trkpt lat="46.78838" lon="5.97565">
        <ele>669.8</ele>
        <time>2022-05-26T12:22:15Z</time>
      </trkpt>
      <trkpt lat="46.78839" lon="5.97558">
        <ele>670.5</ele>
        <time>2022-05-26T12:22:19Z</time>
      </trkpt>
      <trkpt lat="46.7884" lon="5.97551">
        <ele>671</ele>
        <time>2022-05-26T12:22:24Z</time>
      </trkpt>
      <trkpt lat="46.78842" lon="5.97544">
        <ele>671.3</ele>
        <time>2022-05-26T12:22:29Z</time>
      </trkpt>
      <trkpt lat="46.78843" lon="5.97537">
        <ele>671.5</ele>
        <time>2022-05-26T12:22:34Z</time>
      </trkpt>
      <trkpt lat="46.78844" lon="5.9753">
        <ele>671.2</ele>
        <time>2022-05-26T12:22:39Z</time>
      </trkpt>
      <trkpt lat="46.78846" lon="5.97523">
        <ele>670.6</ele>
        <time>2022-05-26T12:22:44Z</time>
      </trkpt>
      <trkpt lat="46.78846" lon="5.97517">
        <ele>670.5</ele>
        <time>2022-05-26T12:22:48Z</time>
      </trkpt>
      <trkpt lat="46.78847" lon="5.9751">
        <ele>670.7</ele>
        <time>2022-05-26T12:22:52Z</time>
      </trkpt>
      <trkpt lat="46.78848" lon="5.97502">
        <ele>671.2</ele>
        <time>2022-05-26T12:22:57Z</time>
      </trkpt>
      <trkpt lat="46.78848" lon="5.97495">
        <ele>671.8</ele>
        <time>2022-05-26T12:23:02Z</time>
      </trkpt>
      <trkpt lat="46.78849" lon="5.97488">
        <ele>673</ele>
        <time>2022-05-26T12:23:07Z</time>
      </trkpt>
      <trkpt lat="46.7885" lon="5.97481">
        <ele>673.9</ele>
        <time>2022-05-26T12:23:12Z</time>
      </trkpt>
      <trkpt lat="46.78853" lon="5.97474">
        <ele>674.6</ele>
        <time>2022-05-26T12:23:17Z</time>
      </trkpt>
      <trkpt lat="46.78855" lon="5.97469">
        <ele>674.9</ele>
        <time>2022-05-26T12:23:20Z</time>
      </trkpt>
      <trkpt lat="46.7886" lon="5.97464">
        <ele>675.2</ele>
        <time>2022-05-26T12:23:24Z</time>
      </trkpt>
      <trkpt lat="46.78864" lon="5.97461">
        <ele>675.2</ele>
        <time>2022-05-26T12:23:31Z</time>
      </trkpt>
      <trkpt lat="46.78865" lon="5.97454">
        <ele>674.8</ele>
        <time>2022-05-26T12:23:41Z</time>
      </trkpt>
      <trkpt lat="46.78867" lon="5.97448">
        <ele>674.2</ele>
        <time>2022-05-26T12:23:49Z</time>
      </trkpt>
      <trkpt lat="46.78871" lon="5.97443">
        <ele>674.2</ele>
        <time>2022-05-26T12:23:55Z</time>
      </trkpt>
      <trkpt lat="46.78876" lon="5.97438">
        <ele>674.7</ele>
        <time>2022-05-26T12:24:00Z</time>
      </trkpt>
      <trkpt lat="46.7888" lon="5.97434">
        <ele>675.3</ele>
        <time>2022-05-26T12:24:05Z</time>
      </trkpt>
      <trkpt lat="46.78884" lon="5.97432">
        <ele>675.9</ele>
        <time>2022-05-26T12:24:12Z</time>
      </trkpt>
      <trkpt lat="46.78889" lon="5.9743">
        <ele>676.5</ele>
        <time>2022-05-26T12:24:19Z</time>
      </trkpt>
      <trkpt lat="46.78893" lon="5.97428">
        <ele>676.6</ele>
        <time>2022-05-26T12:24:27Z</time>
      </trkpt>
      <trkpt lat="46.78898" lon="5.97426">
        <ele>677.3</ele>
        <time>2022-05-26T12:24:33Z</time>
      </trkpt>
      <trkpt lat="46.78903" lon="5.97426">
        <ele>678.6</ele>
        <time>2022-05-26T12:24:40Z</time>
      </trkpt>
      <trkpt lat="46.78908" lon="5.97426">
        <ele>678.7</ele>
        <time>2022-05-26T12:24:53Z</time>
      </trkpt>
      <trkpt lat="46.78912" lon="5.97424">
        <ele>678.9</ele>
        <time>2022-05-26T12:24:59Z</time>
      </trkpt>
      <trkpt lat="46.78916" lon="5.97421">
        <ele>678.7</ele>
        <time>2022-05-26T12:25:04Z</time>
      </trkpt>
      <trkpt lat="46.78921" lon="5.97419">
        <ele>678.5</ele>
        <time>2022-05-26T12:25:08Z</time>
      </trkpt>
      <trkpt lat="46.78926" lon="5.97419">
        <ele>678.4</ele>
        <time>2022-05-26T12:25:13Z</time>
      </trkpt>
      <trkpt lat="46.7893" lon="5.97417">
        <ele>677.7</ele>
        <time>2022-05-26T12:25:19Z</time>
      </trkpt>
      <trkpt lat="46.78935" lon="5.97415">
        <ele>677</ele>
        <time>2022-05-26T12:25:25Z</time>
      </trkpt>
      <trkpt lat="46.78941" lon="5.97415">
        <ele>677.2</ele>
        <time>2022-05-26T12:25:30Z</time>
      </trkpt>
      <trkpt lat="46.78945" lon="5.97414">
        <ele>677.4</ele>
        <time>2022-05-26T12:25:35Z</time>
      </trkpt>
      <trkpt lat="46.7895" lon="5.97413">
        <ele>677.6</ele>
        <time>2022-05-26T12:25:44Z</time>
      </trkpt>
      <trkpt lat="46.78955" lon="5.97412">
        <ele>676.9</ele>
        <time>2022-05-26T12:25:51Z</time>
      </trkpt>
      <trkpt lat="46.7896" lon="5.97411">
        <ele>675.4</ele>
        <time>2022-05-26T12:25:57Z</time>
      </trkpt>
      <trkpt lat="46.78964" lon="5.97407">
        <ele>674.7</ele>
        <time>2022-05-26T12:26:01Z</time>
      </trkpt>
      <trkpt lat="46.78969" lon="5.97406">
        <ele>673.8</ele>
        <time>2022-05-26T12:26:06Z</time>
      </trkpt>
      <trkpt lat="46.78974" lon="5.97405">
        <ele>673.2</ele>
        <time>2022-05-26T12:26:12Z</time>
      </trkpt>
      <trkpt lat="46.78979" lon="5.97406">
        <ele>672.6</ele>
        <time>2022-05-26T12:26:18Z</time>
      </trkpt>
      <trkpt lat="46.78984" lon="5.97408">
        <ele>673</ele>
        <time>2022-05-26T12:26:27Z</time>
      </trkpt>
      <trkpt lat="46.78988" lon="5.97406">
        <ele>674.1</ele>
        <time>2022-05-26T12:26:38Z</time>
      </trkpt>
      <trkpt lat="46.7899" lon="5.97399">
        <ele>674.4</ele>
        <time>2022-05-26T12:26:49Z</time>
      </trkpt>
      <trkpt lat="46.78992" lon="5.97393">
        <ele>674</ele>
        <time>2022-05-26T12:26:59Z</time>
      </trkpt>
      <trkpt lat="46.78996" lon="5.97388">
        <ele>673.6</ele>
        <time>2022-05-26T12:27:05Z</time>
      </trkpt>
      <trkpt lat="46.79" lon="5.97385">
        <ele>673.3</ele>
        <time>2022-05-26T12:27:11Z</time>
      </trkpt>
      <trkpt lat="46.79004" lon="5.9738">
        <ele>673.1</ele>
        <time>2022-05-26T12:27:18Z</time>
      </trkpt>
      <trkpt lat="46.79008" lon="5.97376">
        <ele>672.9</ele>
        <time>2022-05-26T12:27:24Z</time>
      </trkpt>
      <trkpt lat="46.79012" lon="5.97371">
        <ele>673.2</ele>
        <time>2022-05-26T12:27:30Z</time>
      </trkpt>
      <trkpt lat="46.79017" lon="5.97369">
        <ele>675.5</ele>
        <time>2022-05-26T12:27:49Z</time>
      </trkpt>
      <trkpt lat="46.79021" lon="5.97366">
        <ele>675.6</ele>
        <time>2022-05-26T12:27:54Z</time>
      </trkpt>
      <trkpt lat="46.79025" lon="5.97362">
        <ele>675.8</ele>
        <time>2022-05-26T12:27:58Z</time>
      </trkpt>
      <trkpt lat="46.79029" lon="5.97359">
        <ele>676.2</ele>
        <time>2022-05-26T12:28:02Z</time>
      </trkpt>
      <trkpt lat="46.79033" lon="5.97353">
        <ele>676.6</ele>
        <time>2022-05-26T12:28:07Z</time>
      </trkpt>
      <trkpt lat="46.79036" lon="5.97347">
        <ele>677.1</ele>
        <time>2022-05-26T12:28:13Z</time>
      </trkpt>
      <trkpt lat="46.7904" lon="5.97344">
        <ele>678</ele>
        <time>2022-05-26T12:28:20Z</time>
      </trkpt>
      <trkpt lat="46.79045" lon="5.97341">
        <ele>680.2</ele>
        <time>2022-05-26T12:28:30Z</time>
      </trkpt>
      <trkpt lat="46.79049" lon="5.97337">
        <ele>680.9</ele>
        <time>2022-05-26T12:28:35Z</time>
      </trkpt>
      <trkpt lat="46.79053" lon="5.97333">
        <ele>681.2</ele>
        <time>2022-05-26T12:28:40Z</time>
      </trkpt>
      <trkpt lat="46.79058" lon="5.97329">
        <ele>681.4</ele>
        <time>2022-05-26T12:28:46Z</time>
      </trkpt>
      <trkpt lat="46.79063" lon="5.97326">
        <ele>681.4</ele>
        <time>2022-05-26T12:28:51Z</time>
      </trkpt>
      <trkpt lat="46.79067" lon="5.97324">
        <ele>681.2</ele>
        <time>2022-05-26T12:28:57Z</time>
      </trkpt>
      <trkpt lat="46.79072" lon="5.97324">
        <ele>681.3</ele>
        <time>2022-05-26T12:29:05Z</time>
      </trkpt>
      <trkpt lat="46.79076" lon="5.97319">
        <ele>681.1</ele>
        <time>2022-05-26T12:29:12Z</time>
      </trkpt>
      <trkpt lat="46.7908" lon="5.97314">
        <ele>681.2</ele>
        <time>2022-05-26T12:29:17Z</time>
      </trkpt>
      <trkpt lat="46.79084" lon="5.9731">
        <ele>681.1</ele>
        <time>2022-05-26T12:29:24Z</time>
      </trkpt>
      <trkpt lat="46.79089" lon="5.9731">
        <ele>682.3</ele>
        <time>2022-05-26T12:29:30Z</time>
      </trkpt>
      <trkpt lat="46.79093" lon="5.9731">
        <ele>683.2</ele>
        <time>2022-05-26T12:29:34Z</time>
      </trkpt>
      <trkpt lat="46.79092" lon="5.97316">
        <ele>684.8</ele>
        <time>2022-05-26T12:30:08Z</time>
      </trkpt>
      <trkpt lat="46.79094" lon="5.97323">
        <ele>684.5</ele>
        <time>2022-05-26T12:30:21Z</time>
      </trkpt>
      <trkpt lat="46.79089" lon="5.97324">
        <ele>684.2</ele>
        <time>2022-05-26T12:30:39Z</time>
      </trkpt>
      <trkpt lat="46.79085" lon="5.97322">
        <ele>684.1</ele>
        <time>2022-05-26T12:30:42Z</time>
      </trkpt>
      <trkpt lat="46.7909" lon="5.97321">
        <ele>683.8</ele>
        <time>2022-05-26T12:31:04Z</time>
      </trkpt>
      <trkpt lat="46.79095" lon="5.97322">
        <ele>683.9</ele>
        <time>2022-05-26T12:31:08Z</time>
      </trkpt>
      <trkpt lat="46.79098" lon="5.97327">
        <ele>684.1</ele>
        <time>2022-05-26T12:31:13Z</time>
      </trkpt>
      <trkpt lat="46.79098" lon="5.97334">
        <ele>684.1</ele>
        <time>2022-05-26T12:31:23Z</time>
      </trkpt>
      <trkpt lat="46.79095" lon="5.97328">
        <ele>684.6</ele>
        <time>2022-05-26T12:31:29Z</time>
      </trkpt>
      <trkpt lat="46.79091" lon="5.97323">
        <ele>685.3</ele>
        <time>2022-05-26T12:31:33Z</time>
      </trkpt>
      <trkpt lat="46.79096" lon="5.9732">
        <ele>687.6</ele>
        <time>2022-05-26T12:31:46Z</time>
      </trkpt>
      <trkpt lat="46.79095" lon="5.97327">
        <ele>689.1</ele>
        <time>2022-05-26T12:32:26Z</time>
      </trkpt>
      <trkpt lat="46.7909" lon="5.97322">
        <ele>688</ele>
        <time>2022-05-26T12:33:00Z</time>
      </trkpt>
      <trkpt lat="46.79085" lon="5.97321">
        <ele>687.8</ele>
        <time>2022-05-26T12:33:08Z</time>
      </trkpt>
      <trkpt lat="46.79089" lon="5.97325">
        <ele>681</ele>
        <time>2022-05-26T12:33:35Z</time>
      </trkpt>
      <trkpt lat="46.79094" lon="5.97326">
        <ele>679.2</ele>
        <time>2022-05-26T12:34:03Z</time>
      </trkpt>
      <trkpt lat="46.79093" lon="5.97319">
        <ele>678.4</ele>
        <time>2022-05-26T12:34:21Z</time>
      </trkpt>
      <trkpt lat="46.79089" lon="5.97314">
        <ele>678.1</ele>
        <time>2022-05-26T12:34:31Z</time>
      </trkpt>
      <trkpt lat="46.7909" lon="5.97307">
        <ele>679.8</ele>
        <time>2022-05-26T12:35:24Z</time>
      </trkpt>
      <trkpt lat="46.79089" lon="5.973">
        <ele>680.1</ele>
        <time>2022-05-26T12:35:35Z</time>
      </trkpt>
      <trkpt lat="46.79088" lon="5.97293">
        <ele>680.5</ele>
        <time>2022-05-26T12:35:40Z</time>
      </trkpt>
      <trkpt lat="46.79087" lon="5.97287">
        <ele>681</ele>
        <time>2022-05-26T12:35:45Z</time>
      </trkpt>
      <trkpt lat="46.79086" lon="5.9728">
        <ele>681.1</ele>
        <time>2022-05-26T12:35:50Z</time>
      </trkpt>
      <trkpt lat="46.79084" lon="5.97273">
        <ele>680.9</ele>
        <time>2022-05-26T12:35:55Z</time>
      </trkpt>
      <trkpt lat="46.79083" lon="5.97266">
        <ele>680.8</ele>
        <time>2022-05-26T12:35:59Z</time>
      </trkpt>
      <trkpt lat="46.7908" lon="5.97261">
        <ele>680.5</ele>
        <time>2022-05-26T12:36:03Z</time>
      </trkpt>
      <trkpt lat="46.79075" lon="5.97258">
        <ele>678.9</ele>
        <time>2022-05-26T12:36:12Z</time>
      </trkpt>
      <trkpt lat="46.79071" lon="5.97256">
        <ele>678.7</ele>
        <time>2022-05-26T12:36:27Z</time>
      </trkpt>
      <trkpt lat="46.79066" lon="5.97254">
        <ele>679.3</ele>
        <time>2022-05-26T12:36:33Z</time>
      </trkpt>
      <trkpt lat="46.79061" lon="5.97253">
        <ele>679.9</ele>
        <time>2022-05-26T12:36:38Z</time>
      </trkpt>
      <trkpt lat="46.79056" lon="5.97252">
        <ele>680.9</ele>
        <time>2022-05-26T12:36:43Z</time>
      </trkpt>
      <trkpt lat="46.79051" lon="5.97251">
        <ele>681.9</ele>
        <time>2022-05-26T12:36:48Z</time>
      </trkpt>
      <trkpt lat="46.79046" lon="5.97252">
        <ele>682.6</ele>
        <time>2022-05-26T12:36:53Z</time>
      </trkpt>
      <trkpt lat="46.79041" lon="5.97252">
        <ele>683.1</ele>
        <time>2022-05-26T12:36:57Z</time>
      </trkpt>
      <trkpt lat="46.79036" lon="5.97253">
        <ele>683.8</ele>
        <time>2022-05-26T12:37:02Z</time>
      </trkpt>
      <trkpt lat="46.79031" lon="5.97253">
        <ele>684.5</ele>
        <time>2022-05-26T12:37:07Z</time>
      </trkpt>
      <trkpt lat="46.79026" lon="5.97253">
        <ele>685.7</ele>
        <time>2022-05-26T12:37:12Z</time>
      </trkpt>
      <trkpt lat="46.79022" lon="5.97255">
        <ele>686.2</ele>
        <time>2022-05-26T12:37:17Z</time>
      </trkpt>
      <trkpt lat="46.79016" lon="5.97255">
        <ele>686.8</ele>
        <time>2022-05-26T12:37:23Z</time>
      </trkpt>
      <trkpt lat="46.79011" lon="5.97256">
        <ele>686.9</ele>
        <time>2022-05-26T12:37:28Z</time>
      </trkpt>
      <trkpt lat="46.79006" lon="5.97256">
        <ele>687.8</ele>
        <time>2022-05-26T12:37:34Z</time>
      </trkpt>
      <trkpt lat="46.79002" lon="5.97255">
        <ele>689.2</ele>
        <time>2022-05-26T12:37:39Z</time>
      </trkpt>
      <trkpt lat="46.78997" lon="5.97255">
        <ele>689.9</ele>
        <time>2022-05-26T12:37:43Z</time>
      </trkpt>
      <trkpt lat="46.78991" lon="5.97254">
        <ele>689.8</ele>
        <time>2022-05-26T12:37:48Z</time>
      </trkpt>
      <trkpt lat="46.78987" lon="5.97252">
        <ele>689.4</ele>
        <time>2022-05-26T12:37:53Z</time>
      </trkpt>
      <trkpt lat="46.78982" lon="5.9725">
        <ele>689.5</ele>
        <time>2022-05-26T12:37:58Z</time>
      </trkpt>
      <trkpt lat="46.78978" lon="5.97247">
        <ele>689.5</ele>
        <time>2022-05-26T12:38:06Z</time>
      </trkpt>
      <trkpt lat="46.78974" lon="5.97243">
        <ele>689.3</ele>
        <time>2022-05-26T12:38:11Z</time>
      </trkpt>
      <trkpt lat="46.78969" lon="5.97239">
        <ele>688.8</ele>
        <time>2022-05-26T12:38:16Z</time>
      </trkpt>
      <trkpt lat="46.78965" lon="5.97235">
        <ele>688.5</ele>
        <time>2022-05-26T12:38:21Z</time>
      </trkpt>
      <trkpt lat="46.78962" lon="5.97229">
        <ele>688.4</ele>
        <time>2022-05-26T12:38:26Z</time>
      </trkpt>
      <trkpt lat="46.78959" lon="5.97223">
        <ele>689.2</ele>
        <time>2022-05-26T12:38:31Z</time>
      </trkpt>
      <trkpt lat="46.78956" lon="5.97218">
        <ele>690.4</ele>
        <time>2022-05-26T12:38:36Z</time>
      </trkpt>
      <trkpt lat="46.78952" lon="5.97213">
        <ele>691.8</ele>
        <time>2022-05-26T12:38:41Z</time>
      </trkpt>
      <trkpt lat="46.78949" lon="5.97207">
        <ele>692.5</ele>
        <time>2022-05-26T12:38:47Z</time>
      </trkpt>
      <trkpt lat="46.78945" lon="5.97203">
        <ele>692.9</ele>
        <time>2022-05-26T12:38:53Z</time>
      </trkpt>
      <trkpt lat="46.78941" lon="5.97201">
        <ele>694.1</ele>
        <time>2022-05-26T12:39:29Z</time>
      </trkpt>
      <trkpt lat="46.78939" lon="5.97195">
        <ele>694.8</ele>
        <time>2022-05-26T12:39:35Z</time>
      </trkpt>
      <trkpt lat="46.78941" lon="5.97189">
        <ele>697.2</ele>
        <time>2022-05-26T12:41:15Z</time>
      </trkpt>
      <trkpt lat="46.78946" lon="5.97185">
        <ele>697.8</ele>
        <time>2022-05-26T12:41:24Z</time>
      </trkpt>
      <trkpt lat="46.7895" lon="5.97182">
        <ele>697.6</ele>
        <time>2022-05-26T12:41:31Z</time>
      </trkpt>
      <trkpt lat="46.78954" lon="5.97183">
        <ele>697.3</ele>
        <time>2022-05-26T12:41:41Z</time>
      </trkpt>
      <trkpt lat="46.78959" lon="5.97183">
        <ele>696.3</ele>
        <time>2022-05-26T12:41:52Z</time>
      </trkpt>
      <trkpt lat="46.78964" lon="5.97186">
        <ele>695.8</ele>
        <time>2022-05-26T12:41:58Z</time>
      </trkpt>
      <trkpt lat="46.78969" lon="5.97189">
        <ele>696.4</ele>
        <time>2022-05-26T12:42:03Z</time>
      </trkpt>
      <trkpt lat="46.78974" lon="5.97192">
        <ele>697.7</ele>
        <time>2022-05-26T12:42:07Z</time>
      </trkpt>
      <trkpt lat="46.78979" lon="5.97195">
        <ele>699.2</ele>
        <time>2022-05-26T12:42:11Z</time>
      </trkpt>
      <trkpt lat="46.78983" lon="5.97197">
        <ele>700.5</ele>
        <time>2022-05-26T12:42:18Z</time>
      </trkpt>
      <trkpt lat="46.78988" lon="5.97198">
        <ele>701.4</ele>
        <time>2022-05-26T12:42:25Z</time>
      </trkpt>
      <trkpt lat="46.78993" lon="5.97198">
        <ele>701.6</ele>
        <time>2022-05-26T12:42:31Z</time>
      </trkpt>
      <trkpt lat="46.78998" lon="5.97199">
        <ele>701.7</ele>
        <time>2022-05-26T12:42:37Z</time>
      </trkpt>
      <trkpt lat="46.79002" lon="5.97198">
        <ele>702.3</ele>
        <time>2022-05-26T12:42:45Z</time>
      </trkpt>
      <trkpt lat="46.79008" lon="5.97197">
        <ele>701.9</ele>
        <time>2022-05-26T12:42:51Z</time>
      </trkpt>
      <trkpt lat="46.79013" lon="5.97196">
        <ele>701.6</ele>
        <time>2022-05-26T12:42:56Z</time>
      </trkpt>
      <trkpt lat="46.79017" lon="5.97195">
        <ele>701</ele>
        <time>2022-05-26T12:43:01Z</time>
      </trkpt>
      <trkpt lat="46.79022" lon="5.97192">
        <ele>701</ele>
        <time>2022-05-26T12:43:07Z</time>
      </trkpt>
      <trkpt lat="46.79027" lon="5.97189">
        <ele>701.4</ele>
        <time>2022-05-26T12:43:13Z</time>
      </trkpt>
      <trkpt lat="46.79031" lon="5.97187">
        <ele>701.9</ele>
        <time>2022-05-26T12:43:17Z</time>
      </trkpt>
      <trkpt lat="46.79035" lon="5.97184">
        <ele>702.4</ele>
        <time>2022-05-26T12:43:22Z</time>
      </trkpt>
      <trkpt lat="46.7904" lon="5.97182">
        <ele>702.4</ele>
        <time>2022-05-26T12:43:27Z</time>
      </trkpt>
      <trkpt lat="46.79045" lon="5.97179">
        <ele>702.4</ele>
        <time>2022-05-26T12:43:32Z</time>
      </trkpt>
      <trkpt lat="46.7905" lon="5.97177">
        <ele>702.1</ele>
        <time>2022-05-26T12:43:36Z</time>
      </trkpt>
      <trkpt lat="46.79054" lon="5.97173">
        <ele>701.9</ele>
        <time>2022-05-26T12:43:40Z</time>
      </trkpt>
      <trkpt lat="46.79059" lon="5.9717">
        <ele>701.7</ele>
        <time>2022-05-26T12:43:44Z</time>
      </trkpt>
      <trkpt lat="46.79063" lon="5.97167">
        <ele>701.8</ele>
        <time>2022-05-26T12:43:48Z</time>
      </trkpt>
      <trkpt lat="46.79068" lon="5.97165">
        <ele>702.4</ele>
        <time>2022-05-26T12:43:52Z</time>
      </trkpt>
      <trkpt lat="46.79073" lon="5.97163">
        <ele>703.8</ele>
        <time>2022-05-26T12:43:56Z</time>
      </trkpt>
      <trkpt lat="46.79078" lon="5.97163">
        <ele>706.2</ele>
        <time>2022-05-26T12:44:02Z</time>
      </trkpt>
      <trkpt lat="46.79083" lon="5.97161">
        <ele>708.4</ele>
        <time>2022-05-26T12:44:07Z</time>
      </trkpt>
      <trkpt lat="46.79087" lon="5.97159">
        <ele>710</ele>
        <time>2022-05-26T12:44:12Z</time>
      </trkpt>
      <trkpt lat="46.79092" lon="5.97157">
        <ele>711.1</ele>
        <time>2022-05-26T12:44:17Z</time>
      </trkpt>
      <trkpt lat="46.79098" lon="5.97157">
        <ele>712.1</ele>
        <time>2022-05-26T12:44:21Z</time>
      </trkpt>
      <trkpt lat="46.79102" lon="5.97157">
        <ele>713.4</ele>
        <time>2022-05-26T12:44:25Z</time>
      </trkpt>
      <trkpt lat="46.79107" lon="5.97156">
        <ele>714.7</ele>
        <time>2022-05-26T12:44:29Z</time>
      </trkpt>
      <trkpt lat="46.79112" lon="5.97153">
        <ele>715.1</ele>
        <time>2022-05-26T12:44:32Z</time>
      </trkpt>
      <trkpt lat="46.79116" lon="5.9715">
        <ele>715</ele>
        <time>2022-05-26T12:44:35Z</time>
      </trkpt>
      <trkpt lat="46.7912" lon="5.97147">
        <ele>714.3</ele>
        <time>2022-05-26T12:44:39Z</time>
      </trkpt>
      <trkpt lat="46.79125" lon="5.97145">
        <ele>712.4</ele>
        <time>2022-05-26T12:44:48Z</time>
      </trkpt>
      <trkpt lat="46.7913" lon="5.97144">
        <ele>711.5</ele>
        <time>2022-05-26T12:44:56Z</time>
      </trkpt>
      <trkpt lat="46.79135" lon="5.97144">
        <ele>711</ele>
        <time>2022-05-26T12:45:01Z</time>
      </trkpt>
      <trkpt lat="46.79139" lon="5.97142">
        <ele>710.4</ele>
        <time>2022-05-26T12:45:08Z</time>
      </trkpt>
      <trkpt lat="46.79144" lon="5.97141">
        <ele>711.2</ele>
        <time>2022-05-26T12:45:15Z</time>
      </trkpt>
      <trkpt lat="46.79149" lon="5.9714">
        <ele>712.2</ele>
        <time>2022-05-26T12:45:21Z</time>
      </trkpt>
      <trkpt lat="46.79155" lon="5.9714">
        <ele>713.3</ele>
        <time>2022-05-26T12:45:27Z</time>
      </trkpt>
      <trkpt lat="46.79159" lon="5.97141">
        <ele>714.3</ele>
        <time>2022-05-26T12:45:32Z</time>
      </trkpt>
      <trkpt lat="46.79164" lon="5.97141">
        <ele>715.4</ele>
        <time>2022-05-26T12:45:37Z</time>
      </trkpt>
      <trkpt lat="46.79169" lon="5.97141">
        <ele>716.3</ele>
        <time>2022-05-26T12:45:43Z</time>
      </trkpt>
      <trkpt lat="46.79173" lon="5.97138">
        <ele>716</ele>
        <time>2022-05-26T12:45:50Z</time>
      </trkpt>
      <trkpt lat="46.79179" lon="5.97139">
        <ele>714.9</ele>
        <time>2022-05-26T12:45:56Z</time>
      </trkpt>
      <trkpt lat="46.79184" lon="5.9714">
        <ele>714.2</ele>
        <time>2022-05-26T12:46:01Z</time>
      </trkpt>
      <trkpt lat="46.79189" lon="5.9714">
        <ele>714.2</ele>
        <time>2022-05-26T12:46:06Z</time>
      </trkpt>
      <trkpt lat="46.79194" lon="5.97139">
        <ele>714.7</ele>
        <time>2022-05-26T12:46:10Z</time>
      </trkpt>
      <trkpt lat="46.79199" lon="5.97135">
        <ele>714.9</ele>
        <time>2022-05-26T12:46:15Z</time>
      </trkpt>
      <trkpt lat="46.79203" lon="5.97131">
        <ele>713.2</ele>
        <time>2022-05-26T12:46:21Z</time>
      </trkpt>
      <trkpt lat="46.79207" lon="5.97127">
        <ele>713</ele>
        <time>2022-05-26T12:46:26Z</time>
      </trkpt>
      <trkpt lat="46.79211" lon="5.97123">
        <ele>714.4</ele>
        <time>2022-05-26T12:46:38Z</time>
      </trkpt>
      <trkpt lat="46.79214" lon="5.97117">
        <ele>713.2</ele>
        <time>2022-05-26T12:46:45Z</time>
      </trkpt>
      <trkpt lat="46.79218" lon="5.97115">
        <ele>712.3</ele>
        <time>2022-05-26T12:46:52Z</time>
      </trkpt>
      <trkpt lat="46.79223" lon="5.97115">
        <ele>712.5</ele>
        <time>2022-05-26T12:46:59Z</time>
      </trkpt>
      <trkpt lat="46.79228" lon="5.97109">
        <ele>713.4</ele>
        <time>2022-05-26T12:47:04Z</time>
      </trkpt>
      <trkpt lat="46.79232" lon="5.97107">
        <ele>714.2</ele>
        <time>2022-05-26T12:47:08Z</time>
      </trkpt>
      <trkpt lat="46.79236" lon="5.97102">
        <ele>715</ele>
        <time>2022-05-26T12:47:15Z</time>
      </trkpt>
      <trkpt lat="46.7924" lon="5.97097">
        <ele>715</ele>
        <time>2022-05-26T12:47:20Z</time>
      </trkpt>
      <trkpt lat="46.79246" lon="5.97095">
        <ele>714.9</ele>
        <time>2022-05-26T12:47:24Z</time>
      </trkpt>
      <trkpt lat="46.79251" lon="5.97093">
        <ele>714.7</ele>
        <time>2022-05-26T12:47:29Z</time>
      </trkpt>
      <trkpt lat="46.79256" lon="5.97089">
        <ele>715.3</ele>
        <time>2022-05-26T12:47:34Z</time>
      </trkpt>
      <trkpt lat="46.7926" lon="5.97086">
        <ele>715.8</ele>
        <time>2022-05-26T12:47:39Z</time>
      </trkpt>
      <trkpt lat="46.79265" lon="5.97085">
        <ele>716</ele>
        <time>2022-05-26T12:47:45Z</time>
      </trkpt>
      <trkpt lat="46.79269" lon="5.97087">
        <ele>716.8</ele>
        <time>2022-05-26T12:47:53Z</time>
      </trkpt>
      <trkpt lat="46.79276" lon="5.97089">
        <ele>718.2</ele>
        <time>2022-05-26T12:47:59Z</time>
      </trkpt>
      <trkpt lat="46.79281" lon="5.97088">
        <ele>718.8</ele>
        <time>2022-05-26T12:48:02Z</time>
      </trkpt>
      <trkpt lat="46.79285" lon="5.97085">
        <ele>719.6</ele>
        <time>2022-05-26T12:48:05Z</time>
      </trkpt>
      <trkpt lat="46.7929" lon="5.97082">
        <ele>720.6</ele>
        <time>2022-05-26T12:48:09Z</time>
      </trkpt>
      <trkpt lat="46.79295" lon="5.97078">
        <ele>721.6</ele>
        <time>2022-05-26T12:48:13Z</time>
      </trkpt>
      <trkpt lat="46.793" lon="5.97078">
        <ele>722.2</ele>
        <time>2022-05-26T12:48:17Z</time>
      </trkpt>
      <trkpt lat="46.79305" lon="5.97077">
        <ele>722.7</ele>
        <time>2022-05-26T12:48:21Z</time>
      </trkpt>
      <trkpt lat="46.7931" lon="5.97075">
        <ele>722.9</ele>
        <time>2022-05-26T12:48:26Z</time>
      </trkpt>
      <trkpt lat="46.79315" lon="5.97076">
        <ele>723.4</ele>
        <time>2022-05-26T12:48:33Z</time>
      </trkpt>
      <trkpt lat="46.79319" lon="5.97077">
        <ele>724.1</ele>
        <time>2022-05-26T12:48:37Z</time>
      </trkpt>
      <trkpt lat="46.79324" lon="5.9708">
        <ele>725.2</ele>
        <time>2022-05-26T12:48:42Z</time>
      </trkpt>
      <trkpt lat="46.7933" lon="5.9708">
        <ele>726</ele>
        <time>2022-05-26T12:48:49Z</time>
      </trkpt>
      <trkpt lat="46.79334" lon="5.97078">
        <ele>726.5</ele>
        <time>2022-05-26T12:48:54Z</time>
      </trkpt>
      <trkpt lat="46.79338" lon="5.97074">
        <ele>726.8</ele>
        <time>2022-05-26T12:48:59Z</time>
      </trkpt>
      <trkpt lat="46.79343" lon="5.97075">
        <ele>726.9</ele>
        <time>2022-05-26T12:49:04Z</time>
      </trkpt>
      <trkpt lat="46.79348" lon="5.97074">
        <ele>727.1</ele>
        <time>2022-05-26T12:49:08Z</time>
      </trkpt>
      <trkpt lat="46.79351" lon="5.97069">
        <ele>727.3</ele>
        <time>2022-05-26T12:49:13Z</time>
      </trkpt>
      <trkpt lat="46.79355" lon="5.97065">
        <ele>726.8</ele>
        <time>2022-05-26T12:49:17Z</time>
      </trkpt>
      <trkpt lat="46.79359" lon="5.97059">
        <ele>726.1</ele>
        <time>2022-05-26T12:49:20Z</time>
      </trkpt>
      <trkpt lat="46.79363" lon="5.97055">
        <ele>724.8</ele>
        <time>2022-05-26T12:49:24Z</time>
      </trkpt>
      <trkpt lat="46.79368" lon="5.97052">
        <ele>723.8</ele>
        <time>2022-05-26T12:49:28Z</time>
      </trkpt>
      <trkpt lat="46.79373" lon="5.97053">
        <ele>723</ele>
        <time>2022-05-26T12:49:35Z</time>
      </trkpt>
      <trkpt lat="46.79378" lon="5.97052">
        <ele>723.2</ele>
        <time>2022-05-26T12:49:40Z</time>
      </trkpt>
      <trkpt lat="46.79383" lon="5.97051">
        <ele>723.2</ele>
        <time>2022-05-26T12:49:44Z</time>
      </trkpt>
      <trkpt lat="46.79389" lon="5.97053">
        <ele>724.1</ele>
        <time>2022-05-26T12:49:48Z</time>
      </trkpt>
      <trkpt lat="46.79393" lon="5.97053">
        <ele>725.5</ele>
        <time>2022-05-26T12:49:52Z</time>
      </trkpt>
      <trkpt lat="46.79398" lon="5.97051">
        <ele>727.8</ele>
        <time>2022-05-26T12:49:58Z</time>
      </trkpt>
      <trkpt lat="46.79402" lon="5.97047">
        <ele>729.3</ele>
        <time>2022-05-26T12:50:03Z</time>
      </trkpt>
      <trkpt lat="46.79407" lon="5.97044">
        <ele>729.8</ele>
        <time>2022-05-26T12:50:08Z</time>
      </trkpt>
      <trkpt lat="46.79412" lon="5.97042">
        <ele>730.1</ele>
        <time>2022-05-26T12:50:15Z</time>
      </trkpt>
      <trkpt lat="46.79415" lon="5.97037">
        <ele>730.7</ele>
        <time>2022-05-26T12:50:25Z</time>
      </trkpt>
      <trkpt lat="46.7942" lon="5.97035">
        <ele>731.8</ele>
        <time>2022-05-26T12:50:31Z</time>
      </trkpt>
      <trkpt lat="46.79425" lon="5.97036">
        <ele>732.6</ele>
        <time>2022-05-26T12:50:34Z</time>
      </trkpt>
      <trkpt lat="46.7943" lon="5.97035">
        <ele>733.6</ele>
        <time>2022-05-26T12:50:38Z</time>
      </trkpt>
      <trkpt lat="46.79435" lon="5.97039">
        <ele>733.7</ele>
        <time>2022-05-26T12:50:42Z</time>
      </trkpt>
      <trkpt lat="46.79439" lon="5.97043">
        <ele>733.8</ele>
        <time>2022-05-26T12:50:46Z</time>
      </trkpt>
      <trkpt lat="46.79444" lon="5.97045">
        <ele>734.4</ele>
        <time>2022-05-26T12:50:51Z</time>
      </trkpt>
      <trkpt lat="46.79449" lon="5.97047">
        <ele>735.3</ele>
        <time>2022-05-26T12:50:56Z</time>
      </trkpt>
      <trkpt lat="46.79455" lon="5.97047">
        <ele>736.1</ele>
        <time>2022-05-26T12:51:00Z</time>
      </trkpt>
      <trkpt lat="46.7946" lon="5.97048">
        <ele>736.4</ele>
        <time>2022-05-26T12:51:05Z</time>
      </trkpt>
      <trkpt lat="46.79465" lon="5.97048">
        <ele>736.6</ele>
        <time>2022-05-26T12:51:10Z</time>
      </trkpt>
      <trkpt lat="46.79469" lon="5.97048">
        <ele>737.9</ele>
        <time>2022-05-26T12:51:17Z</time>
      </trkpt>
      <trkpt lat="46.79474" lon="5.97048">
        <ele>738.9</ele>
        <time>2022-05-26T12:51:22Z</time>
      </trkpt>
      <trkpt lat="46.79479" lon="5.97046">
        <ele>739.4</ele>
        <time>2022-05-26T12:51:27Z</time>
      </trkpt>
      <trkpt lat="46.79484" lon="5.97044">
        <ele>739.8</ele>
        <time>2022-05-26T12:51:33Z</time>
      </trkpt>
      <trkpt lat="46.79488" lon="5.97041">
        <ele>739.1</ele>
        <time>2022-05-26T12:51:39Z</time>
      </trkpt>
      <trkpt lat="46.79494" lon="5.97041">
        <ele>738.4</ele>
        <time>2022-05-26T12:51:44Z</time>
      </trkpt>
      <trkpt lat="46.79498" lon="5.9704">
        <ele>737.8</ele>
        <time>2022-05-26T12:51:48Z</time>
      </trkpt>
      <trkpt lat="46.79503" lon="5.97039">
        <ele>737.1</ele>
        <time>2022-05-26T12:51:52Z</time>
      </trkpt>
      <trkpt lat="46.79508" lon="5.97039">
        <ele>736.1</ele>
        <time>2022-05-26T12:51:56Z</time>
      </trkpt>
      <trkpt lat="46.79513" lon="5.97039">
        <ele>735</ele>
        <time>2022-05-26T12:52:00Z</time>
      </trkpt>
      <trkpt lat="46.79517" lon="5.97039">
        <ele>734</ele>
        <time>2022-05-26T12:52:06Z</time>
      </trkpt>
      <trkpt lat="46.79523" lon="5.97036">
        <ele>733.7</ele>
        <time>2022-05-26T12:52:13Z</time>
      </trkpt>
      <trkpt lat="46.79527" lon="5.97031">
        <ele>734.1</ele>
        <time>2022-05-26T12:52:17Z</time>
      </trkpt>
      <trkpt lat="46.79532" lon="5.97028">
        <ele>734.3</ele>
        <time>2022-05-26T12:52:21Z</time>
      </trkpt>
      <trkpt lat="46.79535" lon="5.97023">
        <ele>734.9</ele>
        <time>2022-05-26T12:52:29Z</time>
      </trkpt>
      <trkpt lat="46.79537" lon="5.97016">
        <ele>736.5</ele>
        <time>2022-05-26T12:52:47Z</time>
      </trkpt>
      <trkpt lat="46.79542" lon="5.97015">
        <ele>737.7</ele>
        <time>2022-05-26T12:52:55Z</time>
      </trkpt>
      <trkpt lat="46.79546" lon="5.97019">
        <ele>737.6</ele>
        <time>2022-05-26T12:53:02Z</time>
      </trkpt>
      <trkpt lat="46.7955" lon="5.97023">
        <ele>738.6</ele>
        <time>2022-05-26T12:53:08Z</time>
      </trkpt>
      <trkpt lat="46.79554" lon="5.97022">
        <ele>740.7</ele>
        <time>2022-05-26T12:53:15Z</time>
      </trkpt>
      <trkpt lat="46.79559" lon="5.97021">
        <ele>746.4</ele>
        <time>2022-05-26T12:53:37Z</time>
      </trkpt>
      <trkpt lat="46.79564" lon="5.97019">
        <ele>750.7</ele>
        <time>2022-05-26T12:53:53Z</time>
      </trkpt>
      <trkpt lat="46.79569" lon="5.97016">
        <ele>751.2</ele>
        <time>2022-05-26T12:54:02Z</time>
      </trkpt>
      <trkpt lat="46.79573" lon="5.97014">
        <ele>751.6</ele>
        <time>2022-05-26T12:54:08Z</time>
      </trkpt>
      <trkpt lat="46.79578" lon="5.97013">
        <ele>752.4</ele>
        <time>2022-05-26T12:54:13Z</time>
      </trkpt>
      <trkpt lat="46.79583" lon="5.97014">
        <ele>753.5</ele>
        <time>2022-05-26T12:54:17Z</time>
      </trkpt>
      <trkpt lat="46.79588" lon="5.97013">
        <ele>755</ele>
        <time>2022-05-26T12:54:22Z</time>
      </trkpt>
      <trkpt lat="46.79592" lon="5.97008">
        <ele>755.7</ele>
        <time>2022-05-26T12:54:27Z</time>
      </trkpt>
      <trkpt lat="46.79596" lon="5.97004">
        <ele>755.9</ele>
        <time>2022-05-26T12:54:31Z</time>
      </trkpt>
      <trkpt lat="46.796" lon="5.96999">
        <ele>755.5</ele>
        <time>2022-05-26T12:54:35Z</time>
      </trkpt>
      <trkpt lat="46.79605" lon="5.96996">
        <ele>754.3</ele>
        <time>2022-05-26T12:54:40Z</time>
      </trkpt>
      <trkpt lat="46.79609" lon="5.96993">
        <ele>751.9</ele>
        <time>2022-05-26T12:54:48Z</time>
      </trkpt>
      <trkpt lat="46.79614" lon="5.96994">
        <ele>749.7</ele>
        <time>2022-05-26T12:54:54Z</time>
      </trkpt>
      <trkpt lat="46.79619" lon="5.96995">
        <ele>748</ele>
        <time>2022-05-26T12:54:59Z</time>
      </trkpt>
      <trkpt lat="46.79623" lon="5.96993">
        <ele>747.4</ele>
        <time>2022-05-26T12:55:04Z</time>
      </trkpt>
      <trkpt lat="46.79628" lon="5.9699">
        <ele>748.2</ele>
        <time>2022-05-26T12:55:08Z</time>
      </trkpt>
      <trkpt lat="46.79633" lon="5.96988">
        <ele>749.5</ele>
        <time>2022-05-26T12:55:12Z</time>
      </trkpt>
      <trkpt lat="46.79638" lon="5.96984">
        <ele>750.1</ele>
        <time>2022-05-26T12:55:19Z</time>
      </trkpt>
      <trkpt lat="46.79642" lon="5.9698">
        <ele>750.3</ele>
        <time>2022-05-26T12:55:26Z</time>
      </trkpt>
      <trkpt lat="46.79646" lon="5.96976">
        <ele>750.2</ele>
        <time>2022-05-26T12:55:32Z</time>
      </trkpt>
      <trkpt lat="46.79651" lon="5.96974">
        <ele>749.8</ele>
        <time>2022-05-26T12:55:37Z</time>
      </trkpt>
      <trkpt lat="46.79656" lon="5.96973">
        <ele>749.4</ele>
        <time>2022-05-26T12:55:44Z</time>
      </trkpt>
      <trkpt lat="46.79661" lon="5.96971">
        <ele>750</ele>
        <time>2022-05-26T12:55:51Z</time>
      </trkpt>
      <trkpt lat="46.79666" lon="5.9697">
        <ele>750.7</ele>
        <time>2022-05-26T12:55:57Z</time>
      </trkpt>
      <trkpt lat="46.79671" lon="5.96969">
        <ele>751.7</ele>
        <time>2022-05-26T12:56:04Z</time>
      </trkpt>
      <trkpt lat="46.79675" lon="5.96967">
        <ele>752.1</ele>
        <time>2022-05-26T12:56:09Z</time>
      </trkpt>
      <trkpt lat="46.79679" lon="5.96971">
        <ele>752.9</ele>
        <time>2022-05-26T12:56:17Z</time>
      </trkpt>
      <trkpt lat="46.79683" lon="5.96965">
        <ele>752.4</ele>
        <time>2022-05-26T12:56:20Z</time>
      </trkpt>
      <trkpt lat="46.79687" lon="5.96963">
        <ele>751.1</ele>
        <time>2022-05-26T12:56:30Z</time>
      </trkpt>
      <trkpt lat="46.79683" lon="5.96959">
        <ele>752.8</ele>
        <time>2022-05-26T12:58:08Z</time>
      </trkpt>
      <trkpt lat="46.79689" lon="5.96955">
        <ele>753.1</ele>
        <time>2022-05-26T12:58:17Z</time>
      </trkpt>
      <trkpt lat="46.79694" lon="5.96955">
        <ele>752.4</ele>
        <time>2022-05-26T12:58:20Z</time>
      </trkpt>
      <trkpt lat="46.79698" lon="5.96955">
        <ele>751.1</ele>
        <time>2022-05-26T12:58:27Z</time>
      </trkpt>
      <trkpt lat="46.79703" lon="5.96953">
        <ele>750.6</ele>
        <time>2022-05-26T12:58:34Z</time>
      </trkpt>
      <trkpt lat="46.79708" lon="5.96952">
        <ele>751.4</ele>
        <time>2022-05-26T12:58:41Z</time>
      </trkpt>
      <trkpt lat="46.79714" lon="5.96953">
        <ele>752.5</ele>
        <time>2022-05-26T12:58:46Z</time>
      </trkpt>
      <trkpt lat="46.79718" lon="5.96952">
        <ele>753.4</ele>
        <time>2022-05-26T12:58:50Z</time>
      </trkpt>
      <trkpt lat="46.79723" lon="5.96951">
        <ele>753.4</ele>
        <time>2022-05-26T12:58:57Z</time>
      </trkpt>
      <trkpt lat="46.79728" lon="5.9695">
        <ele>752.8</ele>
        <time>2022-05-26T12:59:02Z</time>
      </trkpt>
      <trkpt lat="46.79733" lon="5.96949">
        <ele>752.2</ele>
        <time>2022-05-26T12:59:08Z</time>
      </trkpt>
      <trkpt lat="46.79738" lon="5.96948">
        <ele>752.1</ele>
        <time>2022-05-26T12:59:13Z</time>
      </trkpt>
      <trkpt lat="46.79743" lon="5.96947">
        <ele>752.7</ele>
        <time>2022-05-26T12:59:19Z</time>
      </trkpt>
      <trkpt lat="46.79748" lon="5.96945">
        <ele>753.6</ele>
        <time>2022-05-26T12:59:25Z</time>
      </trkpt>
      <trkpt lat="46.79752" lon="5.96944">
        <ele>755.6</ele>
        <time>2022-05-26T12:59:34Z</time>
      </trkpt>
      <trkpt lat="46.79757" lon="5.96943">
        <ele>757.1</ele>
        <time>2022-05-26T12:59:40Z</time>
      </trkpt>
      <trkpt lat="46.79762" lon="5.96943">
        <ele>759.4</ele>
        <time>2022-05-26T12:59:46Z</time>
      </trkpt>
      <trkpt lat="46.79767" lon="5.96943">
        <ele>762.8</ele>
        <time>2022-05-26T12:59:52Z</time>
      </trkpt>
      <trkpt lat="46.79772" lon="5.9694">
        <ele>764.8</ele>
        <time>2022-05-26T12:59:57Z</time>
      </trkpt>
      <trkpt lat="46.79776" lon="5.96937">
        <ele>765.2</ele>
        <time>2022-05-26T13:00:03Z</time>
      </trkpt>
      <trkpt lat="46.79781" lon="5.96938">
        <ele>762.4</ele>
        <time>2022-05-26T13:01:01Z</time>
      </trkpt>
      <trkpt lat="46.79786" lon="5.96939">
        <ele>761.1</ele>
        <time>2022-05-26T13:01:07Z</time>
      </trkpt>
      <trkpt lat="46.7979" lon="5.96943">
        <ele>760.2</ele>
        <time>2022-05-26T13:01:15Z</time>
      </trkpt>
      <trkpt lat="46.79794" lon="5.96948">
        <ele>758.8</ele>
        <time>2022-05-26T13:01:22Z</time>
      </trkpt>
      <trkpt lat="46.79798" lon="5.96952">
        <ele>758</ele>
        <time>2022-05-26T13:01:28Z</time>
      </trkpt>
      <trkpt lat="46.79802" lon="5.96954">
        <ele>757.2</ele>
        <time>2022-05-26T13:01:34Z</time>
      </trkpt>
      <trkpt lat="46.79806" lon="5.96957">
        <ele>756.3</ele>
        <time>2022-05-26T13:01:40Z</time>
      </trkpt>
      <trkpt lat="46.79811" lon="5.9696">
        <ele>755.5</ele>
        <time>2022-05-26T13:01:46Z</time>
      </trkpt>
      <trkpt lat="46.79816" lon="5.96961">
        <ele>754.6</ele>
        <time>2022-05-26T13:01:51Z</time>
      </trkpt>
      <trkpt lat="46.7982" lon="5.96961">
        <ele>753.8</ele>
        <time>2022-05-26T13:01:56Z</time>
      </trkpt>
      <trkpt lat="46.79825" lon="5.96959">
        <ele>753</ele>
        <time>2022-05-26T13:02:02Z</time>
      </trkpt>
      <trkpt lat="46.79829" lon="5.96963">
        <ele>751.7</ele>
        <time>2022-05-26T13:02:14Z</time>
      </trkpt>
      <trkpt lat="46.79833" lon="5.96966">
        <ele>751.1</ele>
        <time>2022-05-26T13:02:18Z</time>
      </trkpt>
      <trkpt lat="46.79838" lon="5.96968">
        <ele>750.8</ele>
        <time>2022-05-26T13:02:21Z</time>
      </trkpt>
      <trkpt lat="46.79843" lon="5.9697">
        <ele>750.6</ele>
        <time>2022-05-26T13:02:24Z</time>
      </trkpt>
      <trkpt lat="46.79848" lon="5.96971">
        <ele>750.8</ele>
        <time>2022-05-26T13:02:27Z</time>
      </trkpt>
      <trkpt lat="46.79854" lon="5.96972">
        <ele>750.8</ele>
        <time>2022-05-26T13:02:31Z</time>
      </trkpt>
      <trkpt lat="46.79859" lon="5.96973">
        <ele>750.7</ele>
        <time>2022-05-26T13:02:36Z</time>
      </trkpt>
      <trkpt lat="46.79864" lon="5.96973">
        <ele>750.3</ele>
        <time>2022-05-26T13:02:43Z</time>
      </trkpt>
      <trkpt lat="46.79869" lon="5.96974">
        <ele>750.4</ele>
        <time>2022-05-26T13:02:47Z</time>
      </trkpt>
      <trkpt lat="46.79873" lon="5.96974">
        <ele>750.6</ele>
        <time>2022-05-26T13:02:51Z</time>
      </trkpt>
      <trkpt lat="46.79879" lon="5.96975">
        <ele>750.9</ele>
        <time>2022-05-26T13:02:56Z</time>
      </trkpt>
      <trkpt lat="46.79884" lon="5.96977">
        <ele>751.2</ele>
        <time>2022-05-26T13:03:02Z</time>
      </trkpt>
      <trkpt lat="46.79889" lon="5.96976">
        <ele>751.3</ele>
        <time>2022-05-26T13:03:10Z</time>
      </trkpt>
      <trkpt lat="46.79894" lon="5.96975">
        <ele>750.9</ele>
        <time>2022-05-26T13:03:20Z</time>
      </trkpt>
      <trkpt lat="46.79898" lon="5.96976">
        <ele>750.7</ele>
        <time>2022-05-26T13:03:24Z</time>
      </trkpt>
      <trkpt lat="46.79903" lon="5.96974">
        <ele>750.3</ele>
        <time>2022-05-26T13:03:29Z</time>
      </trkpt>
      <trkpt lat="46.79907" lon="5.96973">
        <ele>750.6</ele>
        <time>2022-05-26T13:03:34Z</time>
      </trkpt>
      <trkpt lat="46.79912" lon="5.96976">
        <ele>750.8</ele>
        <time>2022-05-26T13:03:37Z</time>
      </trkpt>
      <trkpt lat="46.79915" lon="5.9698">
        <ele>751</ele>
        <time>2022-05-26T13:03:41Z</time>
      </trkpt>
      <trkpt lat="46.7992" lon="5.96985">
        <ele>751</ele>
        <time>2022-05-26T13:03:45Z</time>
      </trkpt>
      <trkpt lat="46.79925" lon="5.96988">
        <ele>751.2</ele>
        <time>2022-05-26T13:03:49Z</time>
      </trkpt>
      <trkpt lat="46.79929" lon="5.96989">
        <ele>751.8</ele>
        <time>2022-05-26T13:03:54Z</time>
      </trkpt>
      <trkpt lat="46.79934" lon="5.96988">
        <ele>752.4</ele>
        <time>2022-05-26T13:03:59Z</time>
      </trkpt>
      <trkpt lat="46.7994" lon="5.96989">
        <ele>753.4</ele>
        <time>2022-05-26T13:04:06Z</time>
      </trkpt>
      <trkpt lat="46.79944" lon="5.96991">
        <ele>754.2</ele>
        <time>2022-05-26T13:04:11Z</time>
      </trkpt>
      <trkpt lat="46.79952" lon="5.96993">
        <ele>755.4</ele>
        <time>2022-05-26T13:04:24Z</time>
      </trkpt>
      <trkpt lat="46.79957" lon="5.96993">
        <ele>755.5</ele>
        <time>2022-05-26T13:04:28Z</time>
      </trkpt>
      <trkpt lat="46.79962" lon="5.96992">
        <ele>754.8</ele>
        <time>2022-05-26T13:04:33Z</time>
      </trkpt>
      <trkpt lat="46.79967" lon="5.96992">
        <ele>754.3</ele>
        <time>2022-05-26T13:04:39Z</time>
      </trkpt>
      <trkpt lat="46.79971" lon="5.96996">
        <ele>753.9</ele>
        <time>2022-05-26T13:04:45Z</time>
      </trkpt>
      <trkpt lat="46.79976" lon="5.96998">
        <ele>753.1</ele>
        <time>2022-05-26T13:04:51Z</time>
      </trkpt>
      <trkpt lat="46.7998" lon="5.97002">
        <ele>751.5</ele>
        <time>2022-05-26T13:05:00Z</time>
      </trkpt>
      <trkpt lat="46.79982" lon="5.97008">
        <ele>750</ele>
        <time>2022-05-26T13:05:09Z</time>
      </trkpt>
      <trkpt lat="46.79986" lon="5.97013">
        <ele>749.1</ele>
        <time>2022-05-26T13:05:16Z</time>
      </trkpt>
      <trkpt lat="46.79992" lon="5.97014">
        <ele>748.5</ele>
        <time>2022-05-26T13:05:20Z</time>
      </trkpt>
      <trkpt lat="46.79997" lon="5.97013">
        <ele>747.7</ele>
        <time>2022-05-26T13:05:24Z</time>
      </trkpt>
      <trkpt lat="46.80002" lon="5.97012">
        <ele>746.4</ele>
        <time>2022-05-26T13:05:30Z</time>
      </trkpt>
      <trkpt lat="46.80006" lon="5.97009">
        <ele>743.9</ele>
        <time>2022-05-26T13:05:37Z</time>
      </trkpt>
      <trkpt lat="46.80011" lon="5.97008">
        <ele>741</ele>
        <time>2022-05-26T13:05:44Z</time>
      </trkpt>
      <trkpt lat="46.80016" lon="5.97007">
        <ele>739</ele>
        <time>2022-05-26T13:05:49Z</time>
      </trkpt>
      <trkpt lat="46.80021" lon="5.97007">
        <ele>738.3</ele>
        <time>2022-05-26T13:05:53Z</time>
      </trkpt>
      <trkpt lat="46.80027" lon="5.9701">
        <ele>738.5</ele>
        <time>2022-05-26T13:05:57Z</time>
      </trkpt>
      <trkpt lat="46.80032" lon="5.9701">
        <ele>739.4</ele>
        <time>2022-05-26T13:06:02Z</time>
      </trkpt>
      <trkpt lat="46.80036" lon="5.97012">
        <ele>740.4</ele>
        <time>2022-05-26T13:06:08Z</time>
      </trkpt>
      <trkpt lat="46.8004" lon="5.97015">
        <ele>740.8</ele>
        <time>2022-05-26T13:06:14Z</time>
      </trkpt>
      <trkpt lat="46.80046" lon="5.97017">
        <ele>740.7</ele>
        <time>2022-05-26T13:06:21Z</time>
      </trkpt>
      <trkpt lat="46.8005" lon="5.97021">
        <ele>741</ele>
        <time>2022-05-26T13:06:26Z</time>
      </trkpt>
      <trkpt lat="46.80055" lon="5.97018">
        <ele>740.2</ele>
        <time>2022-05-26T13:06:33Z</time>
      </trkpt>
      <trkpt lat="46.80059" lon="5.97017">
        <ele>739.6</ele>
        <time>2022-05-26T13:06:40Z</time>
      </trkpt>
      <trkpt lat="46.80062" lon="5.97022">
        <ele>739.1</ele>
        <time>2022-05-26T13:06:51Z</time>
      </trkpt>
      <trkpt lat="46.80067" lon="5.97025">
        <ele>738.7</ele>
        <time>2022-05-26T13:06:58Z</time>
      </trkpt>
      <trkpt lat="46.80072" lon="5.97024">
        <ele>738.5</ele>
        <time>2022-05-26T13:07:05Z</time>
      </trkpt>
      <trkpt lat="46.80077" lon="5.97022">
        <ele>737.7</ele>
        <time>2022-05-26T13:07:18Z</time>
      </trkpt>
      <trkpt lat="46.80081" lon="5.97021">
        <ele>737.1</ele>
        <time>2022-05-26T13:07:23Z</time>
      </trkpt>
      <trkpt lat="46.80086" lon="5.97021">
        <ele>736.3</ele>
        <time>2022-05-26T13:07:28Z</time>
      </trkpt>
      <trkpt lat="46.80091" lon="5.97021">
        <ele>735.9</ele>
        <time>2022-05-26T13:07:33Z</time>
      </trkpt>
      <trkpt lat="46.80096" lon="5.97022">
        <ele>735.9</ele>
        <time>2022-05-26T13:07:36Z</time>
      </trkpt>
      <trkpt lat="46.801" lon="5.97025">
        <ele>735.9</ele>
        <time>2022-05-26T13:07:41Z</time>
      </trkpt>
      <trkpt lat="46.80105" lon="5.97025">
        <ele>735.8</ele>
        <time>2022-05-26T13:07:47Z</time>
      </trkpt>
      <trkpt lat="46.80109" lon="5.97023">
        <ele>733.5</ele>
        <time>2022-05-26T13:08:04Z</time>
      </trkpt>
      <trkpt lat="46.80114" lon="5.97023">
        <ele>732.9</ele>
        <time>2022-05-26T13:08:10Z</time>
      </trkpt>
      <trkpt lat="46.80118" lon="5.97019">
        <ele>732.3</ele>
        <time>2022-05-26T13:08:14Z</time>
      </trkpt>
      <trkpt lat="46.80122" lon="5.97015">
        <ele>731.4</ele>
        <time>2022-05-26T13:08:18Z</time>
      </trkpt>
      <trkpt lat="46.80128" lon="5.97014">
        <ele>731</ele>
        <time>2022-05-26T13:08:23Z</time>
      </trkpt>
      <trkpt lat="46.80133" lon="5.97013">
        <ele>731.1</ele>
        <time>2022-05-26T13:08:28Z</time>
      </trkpt>
      <trkpt lat="46.80137" lon="5.97011">
        <ele>731.5</ele>
        <time>2022-05-26T13:08:31Z</time>
      </trkpt>
      <trkpt lat="46.80143" lon="5.97011">
        <ele>732.2</ele>
        <time>2022-05-26T13:08:35Z</time>
      </trkpt>
      <trkpt lat="46.80148" lon="5.97011">
        <ele>733.4</ele>
        <time>2022-05-26T13:08:41Z</time>
      </trkpt>
      <trkpt lat="46.80153" lon="5.97011">
        <ele>734.2</ele>
        <time>2022-05-26T13:08:48Z</time>
      </trkpt>
      <trkpt lat="46.80157" lon="5.97011">
        <ele>734</ele>
        <time>2022-05-26T13:08:56Z</time>
      </trkpt>
      <trkpt lat="46.80162" lon="5.97008">
        <ele>733.1</ele>
        <time>2022-05-26T13:09:02Z</time>
      </trkpt>
      <trkpt lat="46.80167" lon="5.9701">
        <ele>731.2</ele>
        <time>2022-05-26T13:09:10Z</time>
      </trkpt>
      <trkpt lat="46.80172" lon="5.97011">
        <ele>730.3</ele>
        <time>2022-05-26T13:09:16Z</time>
      </trkpt>
      <trkpt lat="46.80177" lon="5.97012">
        <ele>729.9</ele>
        <time>2022-05-26T13:09:21Z</time>
      </trkpt>
      <trkpt lat="46.80182" lon="5.9701">
        <ele>729.6</ele>
        <time>2022-05-26T13:09:28Z</time>
      </trkpt>
      <trkpt lat="46.80187" lon="5.97011">
        <ele>728.4</ele>
        <time>2022-05-26T13:09:37Z</time>
      </trkpt>
      <trkpt lat="46.80192" lon="5.97011">
        <ele>727.6</ele>
        <time>2022-05-26T13:09:43Z</time>
      </trkpt>
      <trkpt lat="46.80197" lon="5.97011">
        <ele>727.5</ele>
        <time>2022-05-26T13:09:48Z</time>
      </trkpt>
      <trkpt lat="46.80204" lon="5.97012">
        <ele>727.8</ele>
        <time>2022-05-26T13:10:01Z</time>
      </trkpt>
      <trkpt lat="46.8021" lon="5.97011">
        <ele>727.4</ele>
        <time>2022-05-26T13:10:04Z</time>
      </trkpt>
      <trkpt lat="46.80214" lon="5.97013">
        <ele>726.7</ele>
        <time>2022-05-26T13:10:08Z</time>
      </trkpt>
      <trkpt lat="46.80218" lon="5.97015">
        <ele>725</ele>
        <time>2022-05-26T13:10:16Z</time>
      </trkpt>
      <trkpt lat="46.80222" lon="5.97011">
        <ele>724</ele>
        <time>2022-05-26T13:10:25Z</time>
      </trkpt>
      <trkpt lat="46.80227" lon="5.97012">
        <ele>721.7</ele>
        <time>2022-05-26T13:10:55Z</time>
      </trkpt>
      <trkpt lat="46.80232" lon="5.97014">
        <ele>720.7</ele>
        <time>2022-05-26T13:11:01Z</time>
      </trkpt>
      <trkpt lat="46.80228" lon="5.97009">
        <ele>720.1</ele>
        <time>2022-05-26T13:11:12Z</time>
      </trkpt>
      <trkpt lat="46.80226" lon="5.97002">
        <ele>720.6</ele>
        <time>2022-05-26T13:11:40Z</time>
      </trkpt>
      <trkpt lat="46.80229" lon="5.97008">
        <ele>719.9</ele>
        <time>2022-05-26T13:11:59Z</time>
      </trkpt>
      <trkpt lat="46.80233" lon="5.97015">
        <ele>722.1</ele>
        <time>2022-05-26T13:12:29Z</time>
      </trkpt>
      <trkpt lat="46.80238" lon="5.97016">
        <ele>723.9</ele>
        <time>2022-05-26T13:12:33Z</time>
      </trkpt>
      <trkpt lat="46.80242" lon="5.97018">
        <ele>725.7</ele>
        <time>2022-05-26T13:12:39Z</time>
      </trkpt>
      <trkpt lat="46.80247" lon="5.97015">
        <ele>727.5</ele>
        <time>2022-05-26T13:12:50Z</time>
      </trkpt>
      <trkpt lat="46.8025" lon="5.97009">
        <ele>727.6</ele>
        <time>2022-05-26T13:12:54Z</time>
      </trkpt>
      <trkpt lat="46.80253" lon="5.97005">
        <ele>728.1</ele>
        <time>2022-05-26T13:13:00Z</time>
      </trkpt>
      <trkpt lat="46.80258" lon="5.97004">
        <ele>727.6</ele>
        <time>2022-05-26T13:13:09Z</time>
      </trkpt>
      <trkpt lat="46.80262" lon="5.97001">
        <ele>726.5</ele>
        <time>2022-05-26T13:13:18Z</time>
      </trkpt>
      <trkpt lat="46.80266" lon="5.96999">
        <ele>725.2</ele>
        <time>2022-05-26T13:13:23Z</time>
      </trkpt>
      <trkpt lat="46.8027" lon="5.96995">
        <ele>723.6</ele>
        <time>2022-05-26T13:13:28Z</time>
      </trkpt>
      <trkpt lat="46.80275" lon="5.96991">
        <ele>722.7</ele>
        <time>2022-05-26T13:13:33Z</time>
      </trkpt>
      <trkpt lat="46.8028" lon="5.96988">
        <ele>722.2</ele>
        <time>2022-05-26T13:13:38Z</time>
      </trkpt>
      <trkpt lat="46.80284" lon="5.96985">
        <ele>721.6</ele>
        <time>2022-05-26T13:13:43Z</time>
      </trkpt>
      <trkpt lat="46.8029" lon="5.96986">
        <ele>720.2</ele>
        <time>2022-05-26T13:13:51Z</time>
      </trkpt>
      <trkpt lat="46.80295" lon="5.96985">
        <ele>720.3</ele>
        <time>2022-05-26T13:13:56Z</time>
      </trkpt>
      <trkpt lat="46.803" lon="5.96981">
        <ele>721.2</ele>
        <time>2022-05-26T13:14:08Z</time>
      </trkpt>
      <trkpt lat="46.80306" lon="5.96977">
        <ele>721.8</ele>
        <time>2022-05-26T13:14:11Z</time>
      </trkpt>
      <trkpt lat="46.80311" lon="5.96973">
        <ele>722.3</ele>
        <time>2022-05-26T13:14:14Z</time>
      </trkpt>
      <trkpt lat="46.80316" lon="5.9697">
        <ele>722.3</ele>
        <time>2022-05-26T13:14:18Z</time>
      </trkpt>
      <trkpt lat="46.8032" lon="5.9697">
        <ele>722.5</ele>
        <time>2022-05-26T13:14:23Z</time>
      </trkpt>
      <trkpt lat="46.80325" lon="5.9697">
        <ele>722.8</ele>
        <time>2022-05-26T13:14:29Z</time>
      </trkpt>
      <trkpt lat="46.8033" lon="5.96969">
        <ele>722.9</ele>
        <time>2022-05-26T13:14:34Z</time>
      </trkpt>
      <trkpt lat="46.80335" lon="5.96966">
        <ele>723.8</ele>
        <time>2022-05-26T13:14:46Z</time>
      </trkpt>
      <trkpt lat="46.80339" lon="5.96964">
        <ele>724.1</ele>
        <time>2022-05-26T13:14:51Z</time>
      </trkpt>
      <trkpt lat="46.80344" lon="5.96961">
        <ele>724.5</ele>
        <time>2022-05-26T13:14:59Z</time>
      </trkpt>
      <trkpt lat="46.8035" lon="5.96958">
        <ele>724.8</ele>
        <time>2022-05-26T13:15:02Z</time>
      </trkpt>
      <trkpt lat="46.80355" lon="5.96957">
        <ele>725.2</ele>
        <time>2022-05-26T13:15:06Z</time>
      </trkpt>
      <trkpt lat="46.8036" lon="5.96958">
        <ele>725.8</ele>
        <time>2022-05-26T13:15:09Z</time>
      </trkpt>
      <trkpt lat="46.80365" lon="5.96956">
        <ele>726.7</ele>
        <time>2022-05-26T13:15:12Z</time>
      </trkpt>
      <trkpt lat="46.80369" lon="5.96959">
        <ele>731.7</ele>
        <time>2022-05-26T13:15:35Z</time>
      </trkpt>
      <trkpt lat="46.80374" lon="5.96956">
        <ele>730.9</ele>
        <time>2022-05-26T13:15:38Z</time>
      </trkpt>
      <trkpt lat="46.80378" lon="5.96953">
        <ele>729.9</ele>
        <time>2022-05-26T13:15:41Z</time>
      </trkpt>
      <trkpt lat="46.80382" lon="5.96949">
        <ele>727.8</ele>
        <time>2022-05-26T13:15:46Z</time>
      </trkpt>
      <trkpt lat="46.80388" lon="5.96949">
        <ele>724</ele>
        <time>2022-05-26T13:15:58Z</time>
      </trkpt>
      <trkpt lat="46.80392" lon="5.96946">
        <ele>723.4</ele>
        <time>2022-05-26T13:16:01Z</time>
      </trkpt>
      <trkpt lat="46.80396" lon="5.96942">
        <ele>722.6</ele>
        <time>2022-05-26T13:16:05Z</time>
      </trkpt>
      <trkpt lat="46.80401" lon="5.96939">
        <ele>722.4</ele>
        <time>2022-05-26T13:16:33Z</time>
      </trkpt>
      <trkpt lat="46.80403" lon="5.96933">
        <ele>725.3</ele>
        <time>2022-05-26T13:16:57Z</time>
      </trkpt>
      <trkpt lat="46.80408" lon="5.96935">
        <ele>725.9</ele>
        <time>2022-05-26T13:17:04Z</time>
      </trkpt>
      <trkpt lat="46.80413" lon="5.96937">
        <ele>726.5</ele>
        <time>2022-05-26T13:17:09Z</time>
      </trkpt>
      <trkpt lat="46.80419" lon="5.96936">
        <ele>727</ele>
        <time>2022-05-26T13:17:14Z</time>
      </trkpt>
      <trkpt lat="46.80425" lon="5.96936">
        <ele>726.9</ele>
        <time>2022-05-26T13:17:21Z</time>
      </trkpt>
      <trkpt lat="46.8043" lon="5.96938">
        <ele>726.2</ele>
        <time>2022-05-26T13:17:26Z</time>
      </trkpt>
      <trkpt lat="46.80434" lon="5.9694">
        <ele>725.3</ele>
        <time>2022-05-26T13:17:31Z</time>
      </trkpt>
      <trkpt lat="46.80439" lon="5.96942">
        <ele>724.5</ele>
        <time>2022-05-26T13:17:37Z</time>
      </trkpt>
      <trkpt lat="46.80444" lon="5.96944">
        <ele>723.1</ele>
        <time>2022-05-26T13:17:48Z</time>
      </trkpt>
      <trkpt lat="46.80449" lon="5.96945">
        <ele>722.4</ele>
        <time>2022-05-26T13:17:55Z</time>
      </trkpt>
      <trkpt lat="46.80453" lon="5.96948">
        <ele>719</ele>
        <time>2022-05-26T13:18:26Z</time>
      </trkpt>
      <trkpt lat="46.80457" lon="5.96951">
        <ele>718.4</ele>
        <time>2022-05-26T13:18:34Z</time>
      </trkpt>
      <trkpt lat="46.80461" lon="5.96955">
        <ele>718</ele>
        <time>2022-05-26T13:18:41Z</time>
      </trkpt>
      <trkpt lat="46.80465" lon="5.96957">
        <ele>717.3</ele>
        <time>2022-05-26T13:18:49Z</time>
      </trkpt>
      <trkpt lat="46.8047" lon="5.96959">
        <ele>717</ele>
        <time>2022-05-26T13:18:56Z</time>
      </trkpt>
      <trkpt lat="46.80474" lon="5.96959">
        <ele>716.5</ele>
        <time>2022-05-26T13:19:00Z</time>
      </trkpt>
      <trkpt lat="46.80479" lon="5.96958">
        <ele>715.8</ele>
        <time>2022-05-26T13:19:04Z</time>
      </trkpt>
      <trkpt lat="46.80484" lon="5.96958">
        <ele>714.6</ele>
        <time>2022-05-26T13:19:11Z</time>
      </trkpt>
      <trkpt lat="46.80489" lon="5.96956">
        <ele>712.3</ele>
        <time>2022-05-26T13:19:20Z</time>
      </trkpt>
      <trkpt lat="46.80494" lon="5.96955">
        <ele>710.8</ele>
        <time>2022-05-26T13:19:27Z</time>
      </trkpt>
      <trkpt lat="46.805" lon="5.96954">
        <ele>709.8</ele>
        <time>2022-05-26T13:19:31Z</time>
      </trkpt>
      <trkpt lat="46.80506" lon="5.96954">
        <ele>708.7</ele>
        <time>2022-05-26T13:19:35Z</time>
      </trkpt>
      <trkpt lat="46.8051" lon="5.96951">
        <ele>707.3</ele>
        <time>2022-05-26T13:19:39Z</time>
      </trkpt>
      <trkpt lat="46.80515" lon="5.96949">
        <ele>704.2</ele>
        <time>2022-05-26T13:19:46Z</time>
      </trkpt>
      <trkpt lat="46.80519" lon="5.96948">
        <ele>700.8</ele>
        <time>2022-05-26T13:20:00Z</time>
      </trkpt>
      <trkpt lat="46.80525" lon="5.96948">
        <ele>701.1</ele>
        <time>2022-05-26T13:20:23Z</time>
      </trkpt>
      <trkpt lat="46.80529" lon="5.96951">
        <ele>703.4</ele>
        <time>2022-05-26T13:20:30Z</time>
      </trkpt>
      <trkpt lat="46.80526" lon="5.96955">
        <ele>705.4</ele>
        <time>2022-05-26T13:20:51Z</time>
      </trkpt>
      <trkpt lat="46.8053" lon="5.96956">
        <ele>704</ele>
        <time>2022-05-26T13:21:04Z</time>
      </trkpt>
      <trkpt lat="46.80536" lon="5.96959">
        <ele>703.5</ele>
        <time>2022-05-26T13:21:09Z</time>
      </trkpt>
      <trkpt lat="46.80541" lon="5.9696">
        <ele>702.8</ele>
        <time>2022-05-26T13:21:14Z</time>
      </trkpt>
      <trkpt lat="46.80545" lon="5.96962">
        <ele>702.7</ele>
        <time>2022-05-26T13:21:18Z</time>
      </trkpt>
      <trkpt lat="46.8055" lon="5.96965">
        <ele>702.2</ele>
        <time>2022-05-26T13:21:25Z</time>
      </trkpt>
      <trkpt lat="46.80554" lon="5.96967">
        <ele>701.5</ele>
        <time>2022-05-26T13:21:32Z</time>
      </trkpt>
      <trkpt lat="46.80559" lon="5.96968">
        <ele>700.3</ele>
        <time>2022-05-26T13:21:40Z</time>
      </trkpt>
      <trkpt lat="46.80564" lon="5.96973">
        <ele>698.9</ele>
        <time>2022-05-26T13:21:46Z</time>
      </trkpt>
      <trkpt lat="46.80568" lon="5.96975">
        <ele>697.2</ele>
        <time>2022-05-26T13:21:52Z</time>
      </trkpt>
      <trkpt lat="46.80573" lon="5.96976">
        <ele>696.5</ele>
        <time>2022-05-26T13:21:56Z</time>
      </trkpt>
      <trkpt lat="46.80578" lon="5.96979">
        <ele>696</ele>
        <time>2022-05-26T13:22:01Z</time>
      </trkpt>
      <trkpt lat="46.80584" lon="5.96981">
        <ele>695.8</ele>
        <time>2022-05-26T13:22:06Z</time>
      </trkpt>
      <trkpt lat="46.80588" lon="5.96984">
        <ele>695.9</ele>
        <time>2022-05-26T13:22:10Z</time>
      </trkpt>
      <trkpt lat="46.80593" lon="5.96984">
        <ele>696</ele>
        <time>2022-05-26T13:22:16Z</time>
      </trkpt>
      <trkpt lat="46.80598" lon="5.96984">
        <ele>695.8</ele>
        <time>2022-05-26T13:22:21Z</time>
      </trkpt>
      <trkpt lat="46.80603" lon="5.96986">
        <ele>695.2</ele>
        <time>2022-05-26T13:22:27Z</time>
      </trkpt>
      <trkpt lat="46.80608" lon="5.96987">
        <ele>694.1</ele>
        <time>2022-05-26T13:22:35Z</time>
      </trkpt>
      <trkpt lat="46.80612" lon="5.9699">
        <ele>693.2</ele>
        <time>2022-05-26T13:22:42Z</time>
      </trkpt>
      <trkpt lat="46.80617" lon="5.96995">
        <ele>692.9</ele>
        <time>2022-05-26T13:22:47Z</time>
      </trkpt>
      <trkpt lat="46.8062" lon="5.96999">
        <ele>692.6</ele>
        <time>2022-05-26T13:22:52Z</time>
      </trkpt>
      <trkpt lat="46.80623" lon="5.97005">
        <ele>691.3</ele>
        <time>2022-05-26T13:23:01Z</time>
      </trkpt>
      <trkpt lat="46.80626" lon="5.97011">
        <ele>690.8</ele>
        <time>2022-05-26T13:23:05Z</time>
      </trkpt>
      <trkpt lat="46.8063" lon="5.97015">
        <ele>690.8</ele>
        <time>2022-05-26T13:23:08Z</time>
      </trkpt>
      <trkpt lat="46.80633" lon="5.9702">
        <ele>690.4</ele>
        <time>2022-05-26T13:23:12Z</time>
      </trkpt>
      <trkpt lat="46.80637" lon="5.97023">
        <ele>689.3</ele>
        <time>2022-05-26T13:23:18Z</time>
      </trkpt>
      <trkpt lat="46.80641" lon="5.97025">
        <ele>687.5</ele>
        <time>2022-05-26T13:23:29Z</time>
      </trkpt>
      <trkpt lat="46.80646" lon="5.97026">
        <ele>686.4</ele>
        <time>2022-05-26T13:23:34Z</time>
      </trkpt>
      <trkpt lat="46.80651" lon="5.97024">
        <ele>685.3</ele>
        <time>2022-05-26T13:23:39Z</time>
      </trkpt>
      <trkpt lat="46.80652" lon="5.97031">
        <ele>684.6</ele>
        <time>2022-05-26T13:23:47Z</time>
      </trkpt>
      <trkpt lat="46.80651" lon="5.97038">
        <ele>683.5</ele>
        <time>2022-05-26T13:23:54Z</time>
      </trkpt>
      <trkpt lat="46.80654" lon="5.97043">
        <ele>680.9</ele>
        <time>2022-05-26T13:24:13Z</time>
      </trkpt>
      <trkpt lat="46.80656" lon="5.9705">
        <ele>679.6</ele>
        <time>2022-05-26T13:24:19Z</time>
      </trkpt>
      <trkpt lat="46.80655" lon="5.97057">
        <ele>678.2</ele>
        <time>2022-05-26T13:24:25Z</time>
      </trkpt>
      <trkpt lat="46.80655" lon="5.97063">
        <ele>676.9</ele>
        <time>2022-05-26T13:24:33Z</time>
      </trkpt>
      <trkpt lat="46.80657" lon="5.9707">
        <ele>676.1</ele>
        <time>2022-05-26T13:24:39Z</time>
      </trkpt>
      <trkpt lat="46.80659" lon="5.97076">
        <ele>674.7</ele>
        <time>2022-05-26T13:24:45Z</time>
      </trkpt>
      <trkpt lat="46.80658" lon="5.97084">
        <ele>672.4</ele>
        <time>2022-05-26T13:24:51Z</time>
      </trkpt>
      <trkpt lat="46.80657" lon="5.97091">
        <ele>670.3</ele>
        <time>2022-05-26T13:24:58Z</time>
      </trkpt>
      <trkpt lat="46.80656" lon="5.97098">
        <ele>668.3</ele>
        <time>2022-05-26T13:25:04Z</time>
      </trkpt>
      <trkpt lat="46.80656" lon="5.97104">
        <ele>665.8</ele>
        <time>2022-05-26T13:25:11Z</time>
      </trkpt>
      <trkpt lat="46.80657" lon="5.97112">
        <ele>663.6</ele>
        <time>2022-05-26T13:25:18Z</time>
      </trkpt>
      <trkpt lat="46.80657" lon="5.97119">
        <ele>661.9</ele>
        <time>2022-05-26T13:25:24Z</time>
      </trkpt>
      <trkpt lat="46.80657" lon="5.97126">
        <ele>660.6</ele>
        <time>2022-05-26T13:25:29Z</time>
      </trkpt>
      <trkpt lat="46.80657" lon="5.97133">
        <ele>659</ele>
        <time>2022-05-26T13:25:35Z</time>
      </trkpt>
      <trkpt lat="46.80657" lon="5.9714">
        <ele>657.7</ele>
        <time>2022-05-26T13:25:41Z</time>
      </trkpt>
      <trkpt lat="46.80658" lon="5.97147">
        <ele>656.5</ele>
        <time>2022-05-26T13:25:46Z</time>
      </trkpt>
      <trkpt lat="46.80657" lon="5.97154">
        <ele>654.9</ele>
        <time>2022-05-26T13:25:52Z</time>
      </trkpt>
      <trkpt lat="46.80656" lon="5.97162">
        <ele>652.4</ele>
        <time>2022-05-26T13:25:59Z</time>
      </trkpt>
      <trkpt lat="46.80657" lon="5.97169">
        <ele>649.9</ele>
        <time>2022-05-26T13:26:06Z</time>
      </trkpt>
      <trkpt lat="46.80656" lon="5.97176">
        <ele>648.5</ele>
        <time>2022-05-26T13:26:13Z</time>
      </trkpt>
      <trkpt lat="46.80654" lon="5.97182">
        <ele>648.3</ele>
        <time>2022-05-26T13:26:18Z</time>
      </trkpt>
      <trkpt lat="46.80652" lon="5.97189">
        <ele>648.1</ele>
        <time>2022-05-26T13:26:24Z</time>
      </trkpt>
      <trkpt lat="46.80653" lon="5.97196">
        <ele>648.1</ele>
        <time>2022-05-26T13:26:30Z</time>
      </trkpt>
      <trkpt lat="46.80655" lon="5.97203">
        <ele>647</ele>
        <time>2022-05-26T13:26:37Z</time>
      </trkpt>
      <trkpt lat="46.80659" lon="5.97207">
        <ele>646.1</ele>
        <time>2022-05-26T13:26:42Z</time>
      </trkpt>
      <trkpt lat="46.80663" lon="5.9721">
        <ele>645.6</ele>
        <time>2022-05-26T13:26:54Z</time>
      </trkpt>
      <trkpt lat="46.80668" lon="5.97213">
        <ele>644.9</ele>
        <time>2022-05-26T13:27:13Z</time>
      </trkpt>
      <trkpt lat="46.80672" lon="5.97218">
        <ele>644.9</ele>
        <time>2022-05-26T13:27:17Z</time>
      </trkpt>
      <trkpt lat="46.80668" lon="5.97222">
        <ele>643.5</ele>
        <time>2022-05-26T13:27:31Z</time>
      </trkpt>
      <trkpt lat="46.80666" lon="5.97228">
        <ele>643.2</ele>
        <time>2022-05-26T13:27:38Z</time>
      </trkpt>
      <trkpt lat="46.80666" lon="5.97236">
        <ele>643.3</ele>
        <time>2022-05-26T13:27:57Z</time>
      </trkpt>
      <trkpt lat="46.80665" lon="5.97243">
        <ele>642.7</ele>
        <time>2022-05-26T13:28:02Z</time>
      </trkpt>
      <trkpt lat="46.80664" lon="5.97249">
        <ele>641.1</ele>
        <time>2022-05-26T13:28:11Z</time>
      </trkpt>
      <trkpt lat="46.80659" lon="5.97252">
        <ele>640.3</ele>
        <time>2022-05-26T13:28:28Z</time>
      </trkpt>
      <trkpt lat="46.80663" lon="5.97246">
        <ele>639.5</ele>
        <time>2022-05-26T13:29:43Z</time>
      </trkpt>
      <trkpt lat="46.80664" lon="5.9724">
        <ele>638.1</ele>
        <time>2022-05-26T13:29:47Z</time>
      </trkpt>
      <trkpt lat="46.80665" lon="5.97233">
        <ele>637.1</ele>
        <time>2022-05-26T13:29:51Z</time>
      </trkpt>
      <trkpt lat="46.80664" lon="5.97225">
        <ele>636</ele>
        <time>2022-05-26T13:29:56Z</time>
      </trkpt>
      <trkpt lat="46.80663" lon="5.97219">
        <ele>636.2</ele>
        <time>2022-05-26T13:30:01Z</time>
      </trkpt>
      <trkpt lat="46.80668" lon="5.97219">
        <ele>638.2</ele>
        <time>2022-05-26T13:30:14Z</time>
      </trkpt>
      <trkpt lat="46.80673" lon="5.97222">
        <ele>639.5</ele>
        <time>2022-05-26T13:30:18Z</time>
      </trkpt>
      <trkpt lat="46.80668" lon="5.97226">
        <ele>644.5</ele>
        <time>2022-05-26T13:30:51Z</time>
      </trkpt>
      <trkpt lat="46.80669" lon="5.97233">
        <ele>644</ele>
        <time>2022-05-26T13:30:57Z</time>
      </trkpt>
      <trkpt lat="46.80668" lon="5.97241">
        <ele>643.5</ele>
        <time>2022-05-26T13:31:03Z</time>
      </trkpt>
      <trkpt lat="46.80667" lon="5.97247">
        <ele>642.4</ele>
        <time>2022-05-26T13:31:08Z</time>
      </trkpt>
      <trkpt lat="46.80663" lon="5.9725">
        <ele>640.9</ele>
        <time>2022-05-26T13:31:13Z</time>
      </trkpt>
      <trkpt lat="46.80658" lon="5.97252">
        <ele>639.3</ele>
        <time>2022-05-26T13:31:19Z</time>
      </trkpt>
      <trkpt lat="46.80654" lon="5.97256">
        <ele>638.3</ele>
        <time>2022-05-26T13:31:23Z</time>
      </trkpt>
      <trkpt lat="46.80649" lon="5.9726">
        <ele>637.8</ele>
        <time>2022-05-26T13:31:27Z</time>
      </trkpt>
      <trkpt lat="46.80644" lon="5.97262">
        <ele>637.2</ele>
        <time>2022-05-26T13:31:31Z</time>
      </trkpt>
      <trkpt lat="46.8064" lon="5.97264">
        <ele>636.8</ele>
        <time>2022-05-26T13:31:35Z</time>
      </trkpt>
      <trkpt lat="46.80635" lon="5.97267">
        <ele>636.4</ele>
        <time>2022-05-26T13:31:40Z</time>
      </trkpt>
      <trkpt lat="46.80631" lon="5.9727">
        <ele>636.9</ele>
        <time>2022-05-26T13:31:46Z</time>
      </trkpt>
      <trkpt lat="46.80626" lon="5.97271">
        <ele>637.5</ele>
        <time>2022-05-26T13:31:50Z</time>
      </trkpt>
      <trkpt lat="46.80621" lon="5.97273">
        <ele>638.1</ele>
        <time>2022-05-26T13:31:54Z</time>
      </trkpt>
      <trkpt lat="46.80616" lon="5.97275">
        <ele>638.8</ele>
        <time>2022-05-26T13:31:59Z</time>
      </trkpt>
      <trkpt lat="46.80612" lon="5.97278">
        <ele>638.1</ele>
        <time>2022-05-26T13:32:07Z</time>
      </trkpt>
      <trkpt lat="46.80608" lon="5.97284">
        <ele>635.9</ele>
        <time>2022-05-26T13:32:16Z</time>
      </trkpt>
      <trkpt lat="46.80607" lon="5.97292">
        <ele>634.8</ele>
        <time>2022-05-26T13:32:21Z</time>
      </trkpt>
      <trkpt lat="46.80608" lon="5.973">
        <ele>634.6</ele>
        <time>2022-05-26T13:32:25Z</time>
      </trkpt>
      <trkpt lat="46.80609" lon="5.97307">
        <ele>634.9</ele>
        <time>2022-05-26T13:32:31Z</time>
      </trkpt>
      <trkpt lat="46.80608" lon="5.97314">
        <ele>636.1</ele>
        <time>2022-05-26T13:32:38Z</time>
      </trkpt>
      <trkpt lat="46.80607" lon="5.97321">
        <ele>636.9</ele>
        <time>2022-05-26T13:32:43Z</time>
      </trkpt>
      <trkpt lat="46.80605" lon="5.97327">
        <ele>637.3</ele>
        <time>2022-05-26T13:32:48Z</time>
      </trkpt>
      <trkpt lat="46.80605" lon="5.97334">
        <ele>637.9</ele>
        <time>2022-05-26T13:32:57Z</time>
      </trkpt>
      <trkpt lat="46.80605" lon="5.97341">
        <ele>638.7</ele>
        <time>2022-05-26T13:33:03Z</time>
      </trkpt>
      <trkpt lat="46.80603" lon="5.97348">
        <ele>639.2</ele>
        <time>2022-05-26T13:33:09Z</time>
      </trkpt>
      <trkpt lat="46.80601" lon="5.97353">
        <ele>639.2</ele>
        <time>2022-05-26T13:33:14Z</time>
      </trkpt>
      <trkpt lat="46.80599" lon="5.97359">
        <ele>638.9</ele>
        <time>2022-05-26T13:33:18Z</time>
      </trkpt>
      <trkpt lat="46.80596" lon="5.97365">
        <ele>639.4</ele>
        <time>2022-05-26T13:33:23Z</time>
      </trkpt>
      <trkpt lat="46.80593" lon="5.9737">
        <ele>640.4</ele>
        <time>2022-05-26T13:33:31Z</time>
      </trkpt>
      <trkpt lat="46.80589" lon="5.97375">
        <ele>642.1</ele>
        <time>2022-05-26T13:33:38Z</time>
      </trkpt>
      <trkpt lat="46.80588" lon="5.97382">
        <ele>643.6</ele>
        <time>2022-05-26T13:33:45Z</time>
      </trkpt>
      <trkpt lat="46.80588" lon="5.97389">
        <ele>646.9</ele>
        <time>2022-05-26T13:33:53Z</time>
      </trkpt>
      <trkpt lat="46.80586" lon="5.97395">
        <ele>649.7</ele>
        <time>2022-05-26T13:34:04Z</time>
      </trkpt>
      <trkpt lat="46.80581" lon="5.97394">
        <ele>654.2</ele>
        <time>2022-05-26T13:34:56Z</time>
      </trkpt>
      <trkpt lat="46.8058" lon="5.974">
        <ele>650.3</ele>
        <time>2022-05-26T13:35:43Z</time>
      </trkpt>
      <trkpt lat="46.80575" lon="5.97402">
        <ele>651.1</ele>
        <time>2022-05-26T13:35:53Z</time>
      </trkpt>
      <trkpt lat="46.80578" lon="5.97396">
        <ele>655.8</ele>
        <time>2022-05-26T13:36:13Z</time>
      </trkpt>
      <trkpt lat="46.80582" lon="5.97398">
        <ele>657</ele>
        <time>2022-05-26T13:36:17Z</time>
      </trkpt>
      <trkpt lat="46.80587" lon="5.97394">
        <ele>658.7</ele>
        <time>2022-05-26T13:36:33Z</time>
      </trkpt>
      <trkpt lat="46.80592" lon="5.97396">
        <ele>658.6</ele>
        <time>2022-05-26T13:36:38Z</time>
      </trkpt>
      <trkpt lat="46.80595" lon="5.97401">
        <ele>660.2</ele>
        <time>2022-05-26T13:37:08Z</time>
      </trkpt>
      <trkpt lat="46.806" lon="5.97402">
        <ele>661.7</ele>
        <time>2022-05-26T13:37:11Z</time>
      </trkpt>
      <trkpt lat="46.80605" lon="5.97404">
        <ele>662.8</ele>
        <time>2022-05-26T13:37:14Z</time>
      </trkpt>
      <trkpt lat="46.80609" lon="5.97407">
        <ele>664.3</ele>
        <time>2022-05-26T13:37:19Z</time>
      </trkpt>
      <trkpt lat="46.80614" lon="5.97409">
        <ele>665.5</ele>
        <time>2022-05-26T13:37:24Z</time>
      </trkpt>
      <trkpt lat="46.80619" lon="5.97412">
        <ele>666.4</ele>
        <time>2022-05-26T13:37:29Z</time>
      </trkpt>
      <trkpt lat="46.80623" lon="5.97415">
        <ele>666.9</ele>
        <time>2022-05-26T13:37:33Z</time>
      </trkpt>
      <trkpt lat="46.80627" lon="5.9742">
        <ele>665.7</ele>
        <time>2022-05-26T13:37:44Z</time>
      </trkpt>
      <trkpt lat="46.8063" lon="5.97425">
        <ele>662.9</ele>
        <time>2022-05-26T13:37:58Z</time>
      </trkpt>
      <trkpt lat="46.80635" lon="5.97428">
        <ele>662.4</ele>
        <time>2022-05-26T13:38:01Z</time>
      </trkpt>
      <trkpt lat="46.8064" lon="5.9743">
        <ele>661.9</ele>
        <time>2022-05-26T13:38:04Z</time>
      </trkpt>
      <trkpt lat="46.80644" lon="5.97432">
        <ele>661.6</ele>
        <time>2022-05-26T13:38:07Z</time>
      </trkpt>
      <trkpt lat="46.8065" lon="5.97433">
        <ele>661.7</ele>
        <time>2022-05-26T13:38:11Z</time>
      </trkpt>
      <trkpt lat="46.80655" lon="5.97436">
        <ele>662.7</ele>
        <time>2022-05-26T13:38:16Z</time>
      </trkpt>
      <trkpt lat="46.80659" lon="5.97437">
        <ele>663.5</ele>
        <time>2022-05-26T13:38:20Z</time>
      </trkpt>
      <trkpt lat="46.80663" lon="5.9744">
        <ele>664.3</ele>
        <time>2022-05-26T13:38:27Z</time>
      </trkpt>
      <trkpt lat="46.80668" lon="5.97443">
        <ele>666</ele>
        <time>2022-05-26T13:38:35Z</time>
      </trkpt>
      <trkpt lat="46.80672" lon="5.97445">
        <ele>668.1</ele>
        <time>2022-05-26T13:38:41Z</time>
      </trkpt>
      <trkpt lat="46.80677" lon="5.97449">
        <ele>670.5</ele>
        <time>2022-05-26T13:38:48Z</time>
      </trkpt>
      <trkpt lat="46.80682" lon="5.9745">
        <ele>671.5</ele>
        <time>2022-05-26T13:38:52Z</time>
      </trkpt>
      <trkpt lat="46.80687" lon="5.9745">
        <ele>672.2</ele>
        <time>2022-05-26T13:38:56Z</time>
      </trkpt>
      <trkpt lat="46.80692" lon="5.9745">
        <ele>672.9</ele>
        <time>2022-05-26T13:39:01Z</time>
      </trkpt>
      <trkpt lat="46.80696" lon="5.9745">
        <ele>674.3</ele>
        <time>2022-05-26T13:39:15Z</time>
      </trkpt>
      <trkpt lat="46.80701" lon="5.97451">
        <ele>675.6</ele>
        <time>2022-05-26T13:39:20Z</time>
      </trkpt>
      <trkpt lat="46.80706" lon="5.9745">
        <ele>678.6</ele>
        <time>2022-05-26T13:39:32Z</time>
      </trkpt>
      <trkpt lat="46.8071" lon="5.97447">
        <ele>680</ele>
        <time>2022-05-26T13:39:51Z</time>
      </trkpt>
      <trkpt lat="46.80715" lon="5.97446">
        <ele>680.8</ele>
        <time>2022-05-26T13:39:57Z</time>
      </trkpt>
      <trkpt lat="46.80719" lon="5.97445">
        <ele>681</ele>
        <time>2022-05-26T13:40:01Z</time>
      </trkpt>
      <trkpt lat="46.80724" lon="5.97443">
        <ele>681</ele>
        <time>2022-05-26T13:40:06Z</time>
      </trkpt>
      <trkpt lat="46.80729" lon="5.97441">
        <ele>681.1</ele>
        <time>2022-05-26T13:40:10Z</time>
      </trkpt>
      <trkpt lat="46.80735" lon="5.97442">
        <ele>681.4</ele>
        <time>2022-05-26T13:40:14Z</time>
      </trkpt>
      <trkpt lat="46.8074" lon="5.97444">
        <ele>682.1</ele>
        <time>2022-05-26T13:40:19Z</time>
      </trkpt>
      <trkpt lat="46.80744" lon="5.97443">
        <ele>683</ele>
        <time>2022-05-26T13:40:30Z</time>
      </trkpt>
      <trkpt lat="46.80749" lon="5.97442">
        <ele>683.1</ele>
        <time>2022-05-26T13:40:36Z</time>
      </trkpt>
      <trkpt lat="46.80755" lon="5.97442">
        <ele>682.4</ele>
        <time>2022-05-26T13:40:40Z</time>
      </trkpt>
      <trkpt lat="46.8076" lon="5.97443">
        <ele>681.5</ele>
        <time>2022-05-26T13:40:44Z</time>
      </trkpt>
      <trkpt lat="46.80764" lon="5.97441">
        <ele>681.1</ele>
        <time>2022-05-26T13:40:52Z</time>
      </trkpt>
      <trkpt lat="46.80769" lon="5.97439">
        <ele>681.1</ele>
        <time>2022-05-26T13:41:00Z</time>
      </trkpt>
      <trkpt lat="46.80773" lon="5.97441">
        <ele>680.4</ele>
        <time>2022-05-26T13:41:04Z</time>
      </trkpt>
      <trkpt lat="46.80778" lon="5.97437">
        <ele>679.7</ele>
        <time>2022-05-26T13:41:10Z</time>
      </trkpt>
      <trkpt lat="46.80783" lon="5.97434">
        <ele>681.2</ele>
        <time>2022-05-26T13:41:20Z</time>
      </trkpt>
      <trkpt lat="46.80788" lon="5.97433">
        <ele>681.2</ele>
        <time>2022-05-26T13:41:23Z</time>
      </trkpt>
      <trkpt lat="46.80793" lon="5.97433">
        <ele>681.1</ele>
        <time>2022-05-26T13:41:26Z</time>
      </trkpt>
      <trkpt lat="46.80798" lon="5.97432">
        <ele>680.4</ele>
        <time>2022-05-26T13:41:34Z</time>
      </trkpt>
      <trkpt lat="46.80804" lon="5.97432">
        <ele>680.3</ele>
        <time>2022-05-26T13:41:37Z</time>
      </trkpt>
      <trkpt lat="46.8081" lon="5.97433">
        <ele>680.5</ele>
        <time>2022-05-26T13:41:40Z</time>
      </trkpt>
      <trkpt lat="46.80815" lon="5.97432">
        <ele>681.7</ele>
        <time>2022-05-26T13:41:45Z</time>
      </trkpt>
      <trkpt lat="46.8082" lon="5.97432">
        <ele>682.4</ele>
        <time>2022-05-26T13:41:50Z</time>
      </trkpt>
      <trkpt lat="46.80825" lon="5.97433">
        <ele>682.2</ele>
        <time>2022-05-26T13:41:54Z</time>
      </trkpt>
      <trkpt lat="46.8083" lon="5.97434">
        <ele>681.7</ele>
        <time>2022-05-26T13:41:59Z</time>
      </trkpt>
      <trkpt lat="46.80835" lon="5.97436">
        <ele>681.3</ele>
        <time>2022-05-26T13:42:05Z</time>
      </trkpt>
      <trkpt lat="46.8084" lon="5.97435">
        <ele>681.2</ele>
        <time>2022-05-26T13:42:08Z</time>
      </trkpt>
      <trkpt lat="46.80845" lon="5.97432">
        <ele>680.8</ele>
        <time>2022-05-26T13:42:12Z</time>
      </trkpt>
      <trkpt lat="46.8085" lon="5.97431">
        <ele>680.5</ele>
        <time>2022-05-26T13:42:16Z</time>
      </trkpt>
      <trkpt lat="46.80854" lon="5.97431">
        <ele>680.3</ele>
        <time>2022-05-26T13:42:21Z</time>
      </trkpt>
      <trkpt lat="46.8086" lon="5.9743">
        <ele>680.7</ele>
        <time>2022-05-26T13:42:25Z</time>
      </trkpt>
      <trkpt lat="46.80864" lon="5.97429">
        <ele>681.4</ele>
        <time>2022-05-26T13:42:32Z</time>
      </trkpt>
      <trkpt lat="46.80869" lon="5.9743">
        <ele>681.8</ele>
        <time>2022-05-26T13:42:39Z</time>
      </trkpt>
      <trkpt lat="46.80874" lon="5.9743">
        <ele>680.7</ele>
        <time>2022-05-26T13:42:48Z</time>
      </trkpt>
      <trkpt lat="46.80879" lon="5.9743">
        <ele>680.6</ele>
        <time>2022-05-26T13:42:53Z</time>
      </trkpt>
      <trkpt lat="46.80884" lon="5.9743">
        <ele>681.1</ele>
        <time>2022-05-26T13:42:59Z</time>
      </trkpt>
      <trkpt lat="46.80889" lon="5.97429">
        <ele>681.4</ele>
        <time>2022-05-26T13:43:04Z</time>
      </trkpt>
      <trkpt lat="46.80894" lon="5.97429">
        <ele>681.4</ele>
        <time>2022-05-26T13:43:07Z</time>
      </trkpt>
      <trkpt lat="46.80899" lon="5.97428">
        <ele>681.1</ele>
        <time>2022-05-26T13:43:10Z</time>
      </trkpt>
      <trkpt lat="46.80903" lon="5.97427">
        <ele>680.9</ele>
        <time>2022-05-26T13:43:14Z</time>
      </trkpt>
      <trkpt lat="46.80908" lon="5.97425">
        <ele>680.8</ele>
        <time>2022-05-26T13:43:18Z</time>
      </trkpt>
      <trkpt lat="46.80913" lon="5.97426">
        <ele>680.7</ele>
        <time>2022-05-26T13:43:22Z</time>
      </trkpt>
      <trkpt lat="46.80918" lon="5.97426">
        <ele>680.7</ele>
        <time>2022-05-26T13:43:27Z</time>
      </trkpt>
      <trkpt lat="46.80922" lon="5.97424">
        <ele>680.6</ele>
        <time>2022-05-26T13:43:30Z</time>
      </trkpt>
      <trkpt lat="46.80927" lon="5.97423">
        <ele>680.5</ele>
        <time>2022-05-26T13:43:34Z</time>
      </trkpt>
      <trkpt lat="46.80932" lon="5.97424">
        <ele>680.4</ele>
        <time>2022-05-26T13:43:38Z</time>
      </trkpt>
      <trkpt lat="46.80938" lon="5.97425">
        <ele>680.5</ele>
        <time>2022-05-26T13:43:43Z</time>
      </trkpt>
      <trkpt lat="46.80943" lon="5.97422">
        <ele>680.7</ele>
        <time>2022-05-26T13:43:47Z</time>
      </trkpt>
      <trkpt lat="46.80947" lon="5.9742">
        <ele>681.4</ele>
        <time>2022-05-26T13:43:51Z</time>
      </trkpt>
      <trkpt lat="46.80952" lon="5.97418">
        <ele>683.1</ele>
        <time>2022-05-26T13:43:57Z</time>
      </trkpt>
      <trkpt lat="46.80956" lon="5.97413">
        <ele>685</ele>
        <time>2022-05-26T13:44:04Z</time>
      </trkpt>
      <trkpt lat="46.80961" lon="5.97411">
        <ele>686.2</ele>
        <time>2022-05-26T13:44:08Z</time>
      </trkpt>
      <trkpt lat="46.80966" lon="5.97408">
        <ele>687.2</ele>
        <time>2022-05-26T13:44:11Z</time>
      </trkpt>
      <trkpt lat="46.80971" lon="5.97406">
        <ele>688.5</ele>
        <time>2022-05-26T13:44:15Z</time>
      </trkpt>
      <trkpt lat="46.80976" lon="5.97405">
        <ele>689.2</ele>
        <time>2022-05-26T13:44:19Z</time>
      </trkpt>
      <trkpt lat="46.80982" lon="5.97405">
        <ele>690.1</ele>
        <time>2022-05-26T13:44:23Z</time>
      </trkpt>
      <trkpt lat="46.80987" lon="5.97403">
        <ele>691.5</ele>
        <time>2022-05-26T13:44:27Z</time>
      </trkpt>
      <trkpt lat="46.80991" lon="5.97398">
        <ele>693.6</ele>
        <time>2022-05-26T13:44:32Z</time>
      </trkpt>
      <trkpt lat="46.80995" lon="5.97394">
        <ele>696</ele>
        <time>2022-05-26T13:44:38Z</time>
      </trkpt>
      <trkpt lat="46.81" lon="5.97393">
        <ele>698</ele>
        <time>2022-05-26T13:44:43Z</time>
      </trkpt>
      <trkpt lat="46.81005" lon="5.97396">
        <ele>699.6</ele>
        <time>2022-05-26T13:44:47Z</time>
      </trkpt>
      <trkpt lat="46.81009" lon="5.97399">
        <ele>701</ele>
        <time>2022-05-26T13:44:51Z</time>
      </trkpt>
      <trkpt lat="46.81014" lon="5.97401">
        <ele>702.3</ele>
        <time>2022-05-26T13:44:56Z</time>
      </trkpt>
      <trkpt lat="46.81019" lon="5.974">
        <ele>703.4</ele>
        <time>2022-05-26T13:45:02Z</time>
      </trkpt>
      <trkpt lat="46.81023" lon="5.97397">
        <ele>703.7</ele>
        <time>2022-05-26T13:45:07Z</time>
      </trkpt>
      <trkpt lat="46.81028" lon="5.97395">
        <ele>703.5</ele>
        <time>2022-05-26T13:45:12Z</time>
      </trkpt>
      <trkpt lat="46.81033" lon="5.97393">
        <ele>703.2</ele>
        <time>2022-05-26T13:45:17Z</time>
      </trkpt>
      <trkpt lat="46.81039" lon="5.97392">
        <ele>703</ele>
        <time>2022-05-26T13:45:21Z</time>
      </trkpt>
      <trkpt lat="46.81045" lon="5.9739">
        <ele>702.2</ele>
        <time>2022-05-26T13:45:25Z</time>
      </trkpt>
      <trkpt lat="46.8105" lon="5.97391">
        <ele>701.6</ele>
        <time>2022-05-26T13:45:29Z</time>
      </trkpt>
      <trkpt lat="46.81054" lon="5.97393">
        <ele>701.1</ele>
        <time>2022-05-26T13:45:34Z</time>
      </trkpt>
      <trkpt lat="46.8106" lon="5.97395">
        <ele>701</ele>
        <time>2022-05-26T13:45:39Z</time>
      </trkpt>
      <trkpt lat="46.81064" lon="5.97395">
        <ele>701.2</ele>
        <time>2022-05-26T13:45:43Z</time>
      </trkpt>
      <trkpt lat="46.81069" lon="5.97396">
        <ele>701.6</ele>
        <time>2022-05-26T13:45:47Z</time>
      </trkpt>
      <trkpt lat="46.81074" lon="5.97397">
        <ele>702</ele>
        <time>2022-05-26T13:45:51Z</time>
      </trkpt>
      <trkpt lat="46.81079" lon="5.97398">
        <ele>702.1</ele>
        <time>2022-05-26T13:45:56Z</time>
      </trkpt>
      <trkpt lat="46.81084" lon="5.97395">
        <ele>701.7</ele>
        <time>2022-05-26T13:46:01Z</time>
      </trkpt>
      <trkpt lat="46.81089" lon="5.97395">
        <ele>701.2</ele>
        <time>2022-05-26T13:46:05Z</time>
      </trkpt>
      <trkpt lat="46.81094" lon="5.97394">
        <ele>700.5</ele>
        <time>2022-05-26T13:46:10Z</time>
      </trkpt>
      <trkpt lat="46.81099" lon="5.97392">
        <ele>700.6</ele>
        <time>2022-05-26T13:46:17Z</time>
      </trkpt>
      <trkpt lat="46.81104" lon="5.9739">
        <ele>701.3</ele>
        <time>2022-05-26T13:46:22Z</time>
      </trkpt>
      <trkpt lat="46.81109" lon="5.97387">
        <ele>702.1</ele>
        <time>2022-05-26T13:46:26Z</time>
      </trkpt>
      <trkpt lat="46.81114" lon="5.97388">
        <ele>702.5</ele>
        <time>2022-05-26T13:46:29Z</time>
      </trkpt>
      <trkpt lat="46.81119" lon="5.97389">
        <ele>703.1</ele>
        <time>2022-05-26T13:46:33Z</time>
      </trkpt>
      <trkpt lat="46.81124" lon="5.9739">
        <ele>703.9</ele>
        <time>2022-05-26T13:46:38Z</time>
      </trkpt>
      <trkpt lat="46.81128" lon="5.9739">
        <ele>704</ele>
        <time>2022-05-26T13:46:42Z</time>
      </trkpt>
      <trkpt lat="46.81134" lon="5.9739">
        <ele>703.9</ele>
        <time>2022-05-26T13:46:46Z</time>
      </trkpt>
      <trkpt lat="46.81138" lon="5.97387">
        <ele>703.7</ele>
        <time>2022-05-26T13:46:50Z</time>
      </trkpt>
      <trkpt lat="46.81144" lon="5.97387">
        <ele>703.3</ele>
        <time>2022-05-26T13:46:56Z</time>
      </trkpt>
      <trkpt lat="46.81149" lon="5.97386">
        <ele>703.2</ele>
        <time>2022-05-26T13:47:01Z</time>
      </trkpt>
      <trkpt lat="46.81153" lon="5.97386">
        <ele>703.3</ele>
        <time>2022-05-26T13:47:07Z</time>
      </trkpt>
      <trkpt lat="46.81158" lon="5.97383">
        <ele>703.9</ele>
        <time>2022-05-26T13:47:14Z</time>
      </trkpt>
      <trkpt lat="46.81163" lon="5.97382">
        <ele>704.6</ele>
        <time>2022-05-26T13:47:19Z</time>
      </trkpt>
      <trkpt lat="46.81167" lon="5.97381">
        <ele>705.4</ele>
        <time>2022-05-26T13:47:24Z</time>
      </trkpt>
      <trkpt lat="46.81172" lon="5.97378">
        <ele>706.2</ele>
        <time>2022-05-26T13:47:29Z</time>
      </trkpt>
      <trkpt lat="46.81177" lon="5.97376">
        <ele>705.8</ele>
        <time>2022-05-26T13:47:33Z</time>
      </trkpt>
      <trkpt lat="46.81182" lon="5.97377">
        <ele>705.4</ele>
        <time>2022-05-26T13:47:36Z</time>
      </trkpt>
      <trkpt lat="46.81186" lon="5.97375">
        <ele>705.6</ele>
        <time>2022-05-26T13:47:41Z</time>
      </trkpt>
      <trkpt lat="46.81191" lon="5.97373">
        <ele>706.1</ele>
        <time>2022-05-26T13:47:48Z</time>
      </trkpt>
      <trkpt lat="46.81196" lon="5.9737">
        <ele>706</ele>
        <time>2022-05-26T13:47:53Z</time>
      </trkpt>
      <trkpt lat="46.81203" lon="5.9737">
        <ele>705.3</ele>
        <time>2022-05-26T13:47:57Z</time>
      </trkpt>
      <trkpt lat="46.81207" lon="5.97371">
        <ele>704.3</ele>
        <time>2022-05-26T13:48:01Z</time>
      </trkpt>
      <trkpt lat="46.81212" lon="5.9737">
        <ele>702.8</ele>
        <time>2022-05-26T13:48:09Z</time>
      </trkpt>
      <trkpt lat="46.81218" lon="5.97368">
        <ele>702.1</ele>
        <time>2022-05-26T13:48:13Z</time>
      </trkpt>
      <trkpt lat="46.81223" lon="5.97369">
        <ele>701.2</ele>
        <time>2022-05-26T13:48:16Z</time>
      </trkpt>
      <trkpt lat="46.81228" lon="5.9737">
        <ele>700.4</ele>
        <time>2022-05-26T13:48:19Z</time>
      </trkpt>
      <trkpt lat="46.81234" lon="5.9737">
        <ele>699.4</ele>
        <time>2022-05-26T13:48:24Z</time>
      </trkpt>
      <trkpt lat="46.81238" lon="5.9737">
        <ele>698.7</ele>
        <time>2022-05-26T13:48:28Z</time>
      </trkpt>
      <trkpt lat="46.81243" lon="5.9737">
        <ele>697.7</ele>
        <time>2022-05-26T13:48:32Z</time>
      </trkpt>
      <trkpt lat="46.81248" lon="5.97369">
        <ele>696.7</ele>
        <time>2022-05-26T13:48:38Z</time>
      </trkpt>
      <trkpt lat="46.81254" lon="5.97367">
        <ele>696.2</ele>
        <time>2022-05-26T13:48:44Z</time>
      </trkpt>
      <trkpt lat="46.81259" lon="5.97367">
        <ele>695.3</ele>
        <time>2022-05-26T13:48:47Z</time>
      </trkpt>
      <trkpt lat="46.81264" lon="5.97367">
        <ele>694.2</ele>
        <time>2022-05-26T13:48:50Z</time>
      </trkpt>
      <trkpt lat="46.81269" lon="5.97367">
        <ele>692.8</ele>
        <time>2022-05-26T13:48:55Z</time>
      </trkpt>
      <trkpt lat="46.81274" lon="5.97368">
        <ele>691.6</ele>
        <time>2022-05-26T13:48:59Z</time>
      </trkpt>
      <trkpt lat="46.81279" lon="5.97368">
        <ele>690.2</ele>
        <time>2022-05-26T13:49:04Z</time>
      </trkpt>
      <trkpt lat="46.81284" lon="5.97366">
        <ele>689.3</ele>
        <time>2022-05-26T13:49:10Z</time>
      </trkpt>
      <trkpt lat="46.81289" lon="5.97368">
        <ele>688.6</ele>
        <time>2022-05-26T13:49:16Z</time>
      </trkpt>
      <trkpt lat="46.81293" lon="5.97368">
        <ele>687.3</ele>
        <time>2022-05-26T13:49:23Z</time>
      </trkpt>
      <trkpt lat="46.81298" lon="5.97367">
        <ele>686.2</ele>
        <time>2022-05-26T13:49:27Z</time>
      </trkpt>
      <trkpt lat="46.81305" lon="5.97366">
        <ele>685</ele>
        <time>2022-05-26T13:49:30Z</time>
      </trkpt>
      <trkpt lat="46.8131" lon="5.97365">
        <ele>683.8</ele>
        <time>2022-05-26T13:49:33Z</time>
      </trkpt>
      <trkpt lat="46.81314" lon="5.97365">
        <ele>682.7</ele>
        <time>2022-05-26T13:49:37Z</time>
      </trkpt>
      <trkpt lat="46.81319" lon="5.97363">
        <ele>681.7</ele>
        <time>2022-05-26T13:49:42Z</time>
      </trkpt>
      <trkpt lat="46.81324" lon="5.97364">
        <ele>681.6</ele>
        <time>2022-05-26T13:49:48Z</time>
      </trkpt>
      <trkpt lat="46.81329" lon="5.97365">
        <ele>681.9</ele>
        <time>2022-05-26T13:49:53Z</time>
      </trkpt>
      <trkpt lat="46.81333" lon="5.97368">
        <ele>682.3</ele>
        <time>2022-05-26T13:49:59Z</time>
      </trkpt>
      <trkpt lat="46.81338" lon="5.97369">
        <ele>682.5</ele>
        <time>2022-05-26T13:50:04Z</time>
      </trkpt>
      <trkpt lat="46.81343" lon="5.97367">
        <ele>683.3</ele>
        <time>2022-05-26T13:50:09Z</time>
      </trkpt>
      <trkpt lat="46.81348" lon="5.97365">
        <ele>684.1</ele>
        <time>2022-05-26T13:50:14Z</time>
      </trkpt>
      <trkpt lat="46.81353" lon="5.97362">
        <ele>684.9</ele>
        <time>2022-05-26T13:50:19Z</time>
      </trkpt>
      <trkpt lat="46.81357" lon="5.9736">
        <ele>685.6</ele>
        <time>2022-05-26T13:50:24Z</time>
      </trkpt>
      <trkpt lat="46.81362" lon="5.97362">
        <ele>685.6</ele>
        <time>2022-05-26T13:50:28Z</time>
      </trkpt>
      <trkpt lat="46.81367" lon="5.97362">
        <ele>685.3</ele>
        <time>2022-05-26T13:50:31Z</time>
      </trkpt>
      <trkpt lat="46.81372" lon="5.97362">
        <ele>684.9</ele>
        <time>2022-05-26T13:50:34Z</time>
      </trkpt>
      <trkpt lat="46.81377" lon="5.97362">
        <ele>684.5</ele>
        <time>2022-05-26T13:50:39Z</time>
      </trkpt>
      <trkpt lat="46.81382" lon="5.97362">
        <ele>684.6</ele>
        <time>2022-05-26T13:50:45Z</time>
      </trkpt>
      <trkpt lat="46.81386" lon="5.97359">
        <ele>684.7</ele>
        <time>2022-05-26T13:50:49Z</time>
      </trkpt>
      <trkpt lat="46.81391" lon="5.97358">
        <ele>684.8</ele>
        <time>2022-05-26T13:50:54Z</time>
      </trkpt>
      <trkpt lat="46.81396" lon="5.97358">
        <ele>685.2</ele>
        <time>2022-05-26T13:50:59Z</time>
      </trkpt>
      <trkpt lat="46.81401" lon="5.97356">
        <ele>686</ele>
        <time>2022-05-26T13:51:05Z</time>
      </trkpt>
      <trkpt lat="46.81406" lon="5.97358">
        <ele>686.7</ele>
        <time>2022-05-26T13:51:12Z</time>
      </trkpt>
      <trkpt lat="46.81411" lon="5.97357">
        <ele>687.1</ele>
        <time>2022-05-26T13:51:16Z</time>
      </trkpt>
      <trkpt lat="46.81416" lon="5.97356">
        <ele>687.5</ele>
        <time>2022-05-26T13:51:20Z</time>
      </trkpt>
      <trkpt lat="46.81422" lon="5.97355">
        <ele>688.1</ele>
        <time>2022-05-26T13:51:24Z</time>
      </trkpt>
      <trkpt lat="46.81426" lon="5.97354">
        <ele>688.5</ele>
        <time>2022-05-26T13:51:28Z</time>
      </trkpt>
      <trkpt lat="46.81431" lon="5.97354">
        <ele>689</ele>
        <time>2022-05-26T13:51:34Z</time>
      </trkpt>
      <trkpt lat="46.81436" lon="5.97356">
        <ele>690</ele>
        <time>2022-05-26T13:51:40Z</time>
      </trkpt>
      <trkpt lat="46.81441" lon="5.97355">
        <ele>690.9</ele>
        <time>2022-05-26T13:51:44Z</time>
      </trkpt>
      <trkpt lat="46.81446" lon="5.97356">
        <ele>691.7</ele>
        <time>2022-05-26T13:51:48Z</time>
      </trkpt>
      <trkpt lat="46.81451" lon="5.97354">
        <ele>692.4</ele>
        <time>2022-05-26T13:51:52Z</time>
      </trkpt>
      <trkpt lat="46.81456" lon="5.97354">
        <ele>693.5</ele>
        <time>2022-05-26T13:51:56Z</time>
      </trkpt>
      <trkpt lat="46.81461" lon="5.97354">
        <ele>694.6</ele>
        <time>2022-05-26T13:51:59Z</time>
      </trkpt>
      <trkpt lat="46.81466" lon="5.97352">
        <ele>695.6</ele>
        <time>2022-05-26T13:52:02Z</time>
      </trkpt>
      <trkpt lat="46.8147" lon="5.97351">
        <ele>696.8</ele>
        <time>2022-05-26T13:52:06Z</time>
      </trkpt>
      <trkpt lat="46.81475" lon="5.9735">
        <ele>698.3</ele>
        <time>2022-05-26T13:52:12Z</time>
      </trkpt>
      <trkpt lat="46.81481" lon="5.97349">
        <ele>699.4</ele>
        <time>2022-05-26T13:52:19Z</time>
      </trkpt>
      <trkpt lat="46.81486" lon="5.97351">
        <ele>699.8</ele>
        <time>2022-05-26T13:52:22Z</time>
      </trkpt>
      <trkpt lat="46.81491" lon="5.97354">
        <ele>700.2</ele>
        <time>2022-05-26T13:52:25Z</time>
      </trkpt>
      <trkpt lat="46.81495" lon="5.97356">
        <ele>700.7</ele>
        <time>2022-05-26T13:52:28Z</time>
      </trkpt>
      <trkpt lat="46.815" lon="5.97356">
        <ele>701.2</ele>
        <time>2022-05-26T13:52:31Z</time>
      </trkpt>
      <trkpt lat="46.81505" lon="5.97355">
        <ele>702</ele>
        <time>2022-05-26T13:52:35Z</time>
      </trkpt>
      <trkpt lat="46.81509" lon="5.97353">
        <ele>702.8</ele>
        <time>2022-05-26T13:52:42Z</time>
      </trkpt>
      <trkpt lat="46.81514" lon="5.9735">
        <ele>703.7</ele>
        <time>2022-05-26T13:52:49Z</time>
      </trkpt>
      <trkpt lat="46.81519" lon="5.97347">
        <ele>704.7</ele>
        <time>2022-05-26T13:52:54Z</time>
      </trkpt>
      <trkpt lat="46.81524" lon="5.97344">
        <ele>705.3</ele>
        <time>2022-05-26T13:52:58Z</time>
      </trkpt>
      <trkpt lat="46.81529" lon="5.97346">
        <ele>705.8</ele>
        <time>2022-05-26T13:53:03Z</time>
      </trkpt>
      <trkpt lat="46.81534" lon="5.97345">
        <ele>706.3</ele>
        <time>2022-05-26T13:53:07Z</time>
      </trkpt>
      <trkpt lat="46.81538" lon="5.97343">
        <ele>707.5</ele>
        <time>2022-05-26T13:53:12Z</time>
      </trkpt>
      <trkpt lat="46.81543" lon="5.97343">
        <ele>708.6</ele>
        <time>2022-05-26T13:53:17Z</time>
      </trkpt>
      <trkpt lat="46.81548" lon="5.97343">
        <ele>709.3</ele>
        <time>2022-05-26T13:53:21Z</time>
      </trkpt>
      <trkpt lat="46.81553" lon="5.97343">
        <ele>709.9</ele>
        <time>2022-05-26T13:53:25Z</time>
      </trkpt>
      <trkpt lat="46.81559" lon="5.97344">
        <ele>710.3</ele>
        <time>2022-05-26T13:53:29Z</time>
      </trkpt>
      <trkpt lat="46.81564" lon="5.97346">
        <ele>710.6</ele>
        <time>2022-05-26T13:53:33Z</time>
      </trkpt>
      <trkpt lat="46.81569" lon="5.97345">
        <ele>710.8</ele>
        <time>2022-05-26T13:53:39Z</time>
      </trkpt>
      <trkpt lat="46.81573" lon="5.97343">
        <ele>710.4</ele>
        <time>2022-05-26T13:53:45Z</time>
      </trkpt>
      <trkpt lat="46.81578" lon="5.97344">
        <ele>709.4</ele>
        <time>2022-05-26T13:53:50Z</time>
      </trkpt>
      <trkpt lat="46.81583" lon="5.97344">
        <ele>708.3</ele>
        <time>2022-05-26T13:53:58Z</time>
      </trkpt>
      <trkpt lat="46.81588" lon="5.97348">
        <ele>708.1</ele>
        <time>2022-05-26T13:54:02Z</time>
      </trkpt>
      <trkpt lat="46.81592" lon="5.97347">
        <ele>707.7</ele>
        <time>2022-05-26T13:54:07Z</time>
      </trkpt>
      <trkpt lat="46.81597" lon="5.97348">
        <ele>707.8</ele>
        <time>2022-05-26T13:54:14Z</time>
      </trkpt>
      <trkpt lat="46.81603" lon="5.97347">
        <ele>707.7</ele>
        <time>2022-05-26T13:54:20Z</time>
      </trkpt>
      <trkpt lat="46.81608" lon="5.97347">
        <ele>707</ele>
        <time>2022-05-26T13:54:25Z</time>
      </trkpt>
      <trkpt lat="46.81613" lon="5.97347">
        <ele>706.8</ele>
        <time>2022-05-26T13:54:29Z</time>
      </trkpt>
      <trkpt lat="46.81618" lon="5.97347">
        <ele>709.2</ele>
        <time>2022-05-26T13:55:08Z</time>
      </trkpt>
      <trkpt lat="46.81624" lon="5.97346">
        <ele>711</ele>
        <time>2022-05-26T13:55:33Z</time>
      </trkpt>
      <trkpt lat="46.81628" lon="5.97345">
        <ele>711.1</ele>
        <time>2022-05-26T13:55:38Z</time>
      </trkpt>
      <trkpt lat="46.81633" lon="5.97346">
        <ele>711.3</ele>
        <time>2022-05-26T13:55:44Z</time>
      </trkpt>
      <trkpt lat="46.81638" lon="5.97349">
        <ele>707.3</ele>
        <time>2022-05-26T13:58:48Z</time>
      </trkpt>
      <trkpt lat="46.81641" lon="5.97344">
        <ele>709.4</ele>
        <time>2022-05-26T13:59:11Z</time>
      </trkpt>
      <trkpt lat="46.81646" lon="5.97342">
        <ele>710.2</ele>
        <time>2022-05-26T13:59:18Z</time>
      </trkpt>
      <trkpt lat="46.81651" lon="5.97344">
        <ele>710.7</ele>
        <time>2022-05-26T13:59:24Z</time>
      </trkpt>
      <trkpt lat="46.81655" lon="5.97346">
        <ele>711.2</ele>
        <time>2022-05-26T13:59:30Z</time>
      </trkpt>
      <trkpt lat="46.8166" lon="5.97347">
        <ele>711.6</ele>
        <time>2022-05-26T13:59:35Z</time>
      </trkpt>
      <trkpt lat="46.81665" lon="5.97349">
        <ele>712.2</ele>
        <time>2022-05-26T13:59:40Z</time>
      </trkpt>
      <trkpt lat="46.81669" lon="5.97354">
        <ele>712.6</ele>
        <time>2022-05-26T13:59:46Z</time>
      </trkpt>
      <trkpt lat="46.81673" lon="5.97358">
        <ele>712.4</ele>
        <time>2022-05-26T13:59:51Z</time>
      </trkpt>
      <trkpt lat="46.81679" lon="5.97361">
        <ele>711.8</ele>
        <time>2022-05-26T13:59:55Z</time>
      </trkpt>
      <trkpt lat="46.81684" lon="5.97362">
        <ele>711</ele>
        <time>2022-05-26T13:59:58Z</time>
      </trkpt>
      <trkpt lat="46.8169" lon="5.97362">
        <ele>710</ele>
        <time>2022-05-26T14:00:01Z</time>
      </trkpt>
      <trkpt lat="46.81695" lon="5.97362">
        <ele>708.9</ele>
        <time>2022-05-26T14:00:05Z</time>
      </trkpt>
      <trkpt lat="46.81699" lon="5.97365">
        <ele>707.7</ele>
        <time>2022-05-26T14:00:10Z</time>
      </trkpt>
      <trkpt lat="46.81702" lon="5.97371">
        <ele>707.3</ele>
        <time>2022-05-26T14:00:17Z</time>
      </trkpt>
      <trkpt lat="46.81707" lon="5.97373">
        <ele>707.8</ele>
        <time>2022-05-26T14:00:22Z</time>
      </trkpt>
      <trkpt lat="46.81712" lon="5.97373">
        <ele>708.3</ele>
        <time>2022-05-26T14:00:25Z</time>
      </trkpt>
      <trkpt lat="46.81716" lon="5.97374">
        <ele>709.1</ele>
        <time>2022-05-26T14:00:29Z</time>
      </trkpt>
      <trkpt lat="46.81721" lon="5.97375">
        <ele>710.9</ele>
        <time>2022-05-26T14:00:37Z</time>
      </trkpt>
      <trkpt lat="46.81725" lon="5.97378">
        <ele>713.3</ele>
        <time>2022-05-26T14:00:44Z</time>
      </trkpt>
      <trkpt lat="46.81729" lon="5.97382">
        <ele>716.4</ele>
        <time>2022-05-26T14:00:52Z</time>
      </trkpt>
      <trkpt lat="46.81732" lon="5.97388">
        <ele>717.4</ele>
        <time>2022-05-26T14:01:01Z</time>
      </trkpt>
      <trkpt lat="46.81736" lon="5.97392">
        <ele>717.1</ele>
        <time>2022-05-26T14:01:07Z</time>
      </trkpt>
      <trkpt lat="46.81741" lon="5.97393">
        <ele>716.6</ele>
        <time>2022-05-26T14:01:11Z</time>
      </trkpt>
      <trkpt lat="46.81747" lon="5.97393">
        <ele>716</ele>
        <time>2022-05-26T14:01:15Z</time>
      </trkpt>
      <trkpt lat="46.81752" lon="5.97396">
        <ele>715.6</ele>
        <time>2022-05-26T14:01:19Z</time>
      </trkpt>
      <trkpt lat="46.81757" lon="5.97398">
        <ele>715.6</ele>
        <time>2022-05-26T14:01:23Z</time>
      </trkpt>
      <trkpt lat="46.8176" lon="5.97403">
        <ele>715.9</ele>
        <time>2022-05-26T14:01:28Z</time>
      </trkpt>
      <trkpt lat="46.81764" lon="5.97407">
        <ele>716.3</ele>
        <time>2022-05-26T14:01:36Z</time>
      </trkpt>
      <trkpt lat="46.81769" lon="5.97411">
        <ele>717</ele>
        <time>2022-05-26T14:01:42Z</time>
      </trkpt>
      <trkpt lat="46.81773" lon="5.97414">
        <ele>717.3</ele>
        <time>2022-05-26T14:01:46Z</time>
      </trkpt>
      <trkpt lat="46.81778" lon="5.97417">
        <ele>717.1</ele>
        <time>2022-05-26T14:01:51Z</time>
      </trkpt>
      <trkpt lat="46.81781" lon="5.97422">
        <ele>717.1</ele>
        <time>2022-05-26T14:01:57Z</time>
      </trkpt>
      <trkpt lat="46.81785" lon="5.97427">
        <ele>717.1</ele>
        <time>2022-05-26T14:02:07Z</time>
      </trkpt>
      <trkpt lat="46.81788" lon="5.97434">
        <ele>717.4</ele>
        <time>2022-05-26T14:02:13Z</time>
      </trkpt>
      <trkpt lat="46.81792" lon="5.97438">
        <ele>717.5</ele>
        <time>2022-05-26T14:02:17Z</time>
      </trkpt>
      <trkpt lat="46.81796" lon="5.97442">
        <ele>717.1</ele>
        <time>2022-05-26T14:02:22Z</time>
      </trkpt>
      <trkpt lat="46.81799" lon="5.97448">
        <ele>716.3</ele>
        <time>2022-05-26T14:02:28Z</time>
      </trkpt>
      <trkpt lat="46.818" lon="5.97455">
        <ele>715.6</ele>
        <time>2022-05-26T14:02:33Z</time>
      </trkpt>
      <trkpt lat="46.81803" lon="5.97461">
        <ele>715.4</ele>
        <time>2022-05-26T14:02:42Z</time>
      </trkpt>
      <trkpt lat="46.81806" lon="5.97466">
        <ele>714.3</ele>
        <time>2022-05-26T14:02:49Z</time>
      </trkpt>
      <trkpt lat="46.8181" lon="5.9747">
        <ele>713.4</ele>
        <time>2022-05-26T14:02:55Z</time>
      </trkpt>
      <trkpt lat="46.81814" lon="5.97473">
        <ele>713.4</ele>
        <time>2022-05-26T14:03:01Z</time>
      </trkpt>
      <trkpt lat="46.81818" lon="5.97479">
        <ele>713.4</ele>
        <time>2022-05-26T14:03:06Z</time>
      </trkpt>
      <trkpt lat="46.81822" lon="5.97484">
        <ele>712.5</ele>
        <time>2022-05-26T14:03:13Z</time>
      </trkpt>
      <trkpt lat="46.81824" lon="5.9749">
        <ele>712.2</ele>
        <time>2022-05-26T14:03:17Z</time>
      </trkpt>
      <trkpt lat="46.8183" lon="5.97495">
        <ele>713.1</ele>
        <time>2022-05-26T14:03:21Z</time>
      </trkpt>
      <trkpt lat="46.81834" lon="5.97497">
        <ele>714.2</ele>
        <time>2022-05-26T14:03:24Z</time>
      </trkpt>
      <trkpt lat="46.81839" lon="5.97501">
        <ele>715.6</ele>
        <time>2022-05-26T14:03:28Z</time>
      </trkpt>
      <trkpt lat="46.81842" lon="5.97507">
        <ele>717.6</ele>
        <time>2022-05-26T14:03:37Z</time>
      </trkpt>
      <trkpt lat="46.81847" lon="5.97511">
        <ele>719.6</ele>
        <time>2022-05-26T14:03:42Z</time>
      </trkpt>
      <trkpt lat="46.8185" lon="5.97516">
        <ele>721.4</ele>
        <time>2022-05-26T14:03:45Z</time>
      </trkpt>
      <trkpt lat="46.81854" lon="5.97521">
        <ele>729.5</ele>
        <time>2022-05-26T14:04:02Z</time>
      </trkpt>
      <trkpt lat="46.81858" lon="5.97525">
        <ele>738</ele>
        <time>2022-05-26T14:05:08Z</time>
      </trkpt>
      <trkpt lat="46.81861" lon="5.97529">
        <ele>737.9</ele>
        <time>2022-05-26T14:05:14Z</time>
      </trkpt>
      <trkpt lat="46.81863" lon="5.97536">
        <ele>737.9</ele>
        <time>2022-05-26T14:05:23Z</time>
      </trkpt>
      <trkpt lat="46.81865" lon="5.97542">
        <ele>737.4</ele>
        <time>2022-05-26T14:05:31Z</time>
      </trkpt>
      <trkpt lat="46.81869" lon="5.97544">
        <ele>736.8</ele>
        <time>2022-05-26T14:05:35Z</time>
      </trkpt>
      <trkpt lat="46.81874" lon="5.97547">
        <ele>736.5</ele>
        <time>2022-05-26T14:05:39Z</time>
      </trkpt>
      <trkpt lat="46.81879" lon="5.9755">
        <ele>736.6</ele>
        <time>2022-05-26T14:05:44Z</time>
      </trkpt>
      <trkpt lat="46.81882" lon="5.97555">
        <ele>736.6</ele>
        <time>2022-05-26T14:05:51Z</time>
      </trkpt>
      <trkpt lat="46.81886" lon="5.9756">
        <ele>735.7</ele>
        <time>2022-05-26T14:05:57Z</time>
      </trkpt>
      <trkpt lat="46.8189" lon="5.97563">
        <ele>736.1</ele>
        <time>2022-05-26T14:06:03Z</time>
      </trkpt>
      <trkpt lat="46.81893" lon="5.97567">
        <ele>738.7</ele>
        <time>2022-05-26T14:06:22Z</time>
      </trkpt>
      <trkpt lat="46.81898" lon="5.9757">
        <ele>739.8</ele>
        <time>2022-05-26T14:06:26Z</time>
      </trkpt>
      <trkpt lat="46.81903" lon="5.97573">
        <ele>740.9</ele>
        <time>2022-05-26T14:06:31Z</time>
      </trkpt>
      <trkpt lat="46.81908" lon="5.97574">
        <ele>741.5</ele>
        <time>2022-05-26T14:06:36Z</time>
      </trkpt>
      <trkpt lat="46.81913" lon="5.97575">
        <ele>741.7</ele>
        <time>2022-05-26T14:06:41Z</time>
      </trkpt>
      <trkpt lat="46.81915" lon="5.97581">
        <ele>742.5</ele>
        <time>2022-05-26T14:06:50Z</time>
      </trkpt>
      <trkpt lat="46.8192" lon="5.97582">
        <ele>743.8</ele>
        <time>2022-05-26T14:06:56Z</time>
      </trkpt>
      <trkpt lat="46.81924" lon="5.97583">
        <ele>744.4</ele>
        <time>2022-05-26T14:07:00Z</time>
      </trkpt>
      <trkpt lat="46.81929" lon="5.97587">
        <ele>744.7</ele>
        <time>2022-05-26T14:07:05Z</time>
      </trkpt>
      <trkpt lat="46.81934" lon="5.97591">
        <ele>744.8</ele>
        <time>2022-05-26T14:07:13Z</time>
      </trkpt>
      <trkpt lat="46.81939" lon="5.97594">
        <ele>744.4</ele>
        <time>2022-05-26T14:07:17Z</time>
      </trkpt>
      <trkpt lat="46.81944" lon="5.97596">
        <ele>743.7</ele>
        <time>2022-05-26T14:07:21Z</time>
      </trkpt>
      <trkpt lat="46.81948" lon="5.976">
        <ele>743.3</ele>
        <time>2022-05-26T14:07:27Z</time>
      </trkpt>
      <trkpt lat="46.81953" lon="5.97605">
        <ele>742.8</ele>
        <time>2022-05-26T14:07:34Z</time>
      </trkpt>
      <trkpt lat="46.81957" lon="5.97608">
        <ele>742.5</ele>
        <time>2022-05-26T14:07:40Z</time>
      </trkpt>
      <trkpt lat="46.81961" lon="5.97612">
        <ele>742.7</ele>
        <time>2022-05-26T14:07:46Z</time>
      </trkpt>
      <trkpt lat="46.81965" lon="5.97616">
        <ele>742.5</ele>
        <time>2022-05-26T14:07:51Z</time>
      </trkpt>
      <trkpt lat="46.81969" lon="5.9762">
        <ele>742.6</ele>
        <time>2022-05-26T14:07:58Z</time>
      </trkpt>
      <trkpt lat="46.81973" lon="5.97625">
        <ele>742.6</ele>
        <time>2022-05-26T14:08:04Z</time>
      </trkpt>
      <trkpt lat="46.81978" lon="5.97627">
        <ele>743.4</ele>
        <time>2022-05-26T14:08:10Z</time>
      </trkpt>
      <trkpt lat="46.81983" lon="5.97627">
        <ele>744.3</ele>
        <time>2022-05-26T14:08:15Z</time>
      </trkpt>
      <trkpt lat="46.81987" lon="5.97629">
        <ele>745.6</ele>
        <time>2022-05-26T14:08:21Z</time>
      </trkpt>
      <trkpt lat="46.81992" lon="5.9763">
        <ele>746.9</ele>
        <time>2022-05-26T14:08:26Z</time>
      </trkpt>
      <trkpt lat="46.81997" lon="5.97628">
        <ele>748</ele>
        <time>2022-05-26T14:08:31Z</time>
      </trkpt>
      <trkpt lat="46.82002" lon="5.97627">
        <ele>749</ele>
        <time>2022-05-26T14:08:35Z</time>
      </trkpt>
      <trkpt lat="46.82007" lon="5.97628">
        <ele>750.4</ele>
        <time>2022-05-26T14:08:41Z</time>
      </trkpt>
      <trkpt lat="46.82012" lon="5.9763">
        <ele>751.3</ele>
        <time>2022-05-26T14:08:46Z</time>
      </trkpt>
      <trkpt lat="46.82017" lon="5.97631">
        <ele>751.8</ele>
        <time>2022-05-26T14:08:50Z</time>
      </trkpt>
      <trkpt lat="46.82022" lon="5.9763">
        <ele>751.7</ele>
        <time>2022-05-26T14:08:54Z</time>
      </trkpt>
      <trkpt lat="46.82027" lon="5.9763">
        <ele>751</ele>
        <time>2022-05-26T14:08:58Z</time>
      </trkpt>
      <trkpt lat="46.82032" lon="5.97629">
        <ele>750.9</ele>
        <time>2022-05-26T14:09:01Z</time>
      </trkpt>
      <trkpt lat="46.82038" lon="5.97628">
        <ele>750.8</ele>
        <time>2022-05-26T14:09:04Z</time>
      </trkpt>
      <trkpt lat="46.82043" lon="5.97628">
        <ele>750.9</ele>
        <time>2022-05-26T14:09:08Z</time>
      </trkpt>
      <trkpt lat="46.82047" lon="5.97626">
        <ele>751.8</ele>
        <time>2022-05-26T14:09:15Z</time>
      </trkpt>
      <trkpt lat="46.82052" lon="5.97624">
        <ele>752.5</ele>
        <time>2022-05-26T14:09:19Z</time>
      </trkpt>
      <trkpt lat="46.82055" lon="5.97619">
        <ele>753.1</ele>
        <time>2022-05-26T14:09:25Z</time>
      </trkpt>
      <trkpt lat="46.82059" lon="5.97614">
        <ele>753.1</ele>
        <time>2022-05-26T14:09:32Z</time>
      </trkpt>
      <trkpt lat="46.82064" lon="5.97612">
        <ele>753.5</ele>
        <time>2022-05-26T14:09:37Z</time>
      </trkpt>
      <trkpt lat="46.8207" lon="5.9761">
        <ele>754</ele>
        <time>2022-05-26T14:09:41Z</time>
      </trkpt>
      <trkpt lat="46.82075" lon="5.97609">
        <ele>754.7</ele>
        <time>2022-05-26T14:09:45Z</time>
      </trkpt>
      <trkpt lat="46.82081" lon="5.97609">
        <ele>755.4</ele>
        <time>2022-05-26T14:09:49Z</time>
      </trkpt>
      <trkpt lat="46.82086" lon="5.97609">
        <ele>756</ele>
        <time>2022-05-26T14:09:54Z</time>
      </trkpt>
      <trkpt lat="46.82092" lon="5.97609">
        <ele>756.2</ele>
        <time>2022-05-26T14:09:57Z</time>
      </trkpt>
      <trkpt lat="46.82096" lon="5.97609">
        <ele>756.6</ele>
        <time>2022-05-26T14:10:01Z</time>
      </trkpt>
      <trkpt lat="46.821" lon="5.97614">
        <ele>756.1</ele>
        <time>2022-05-26T14:10:10Z</time>
      </trkpt>
      <trkpt lat="46.82103" lon="5.97618">
        <ele>755.3</ele>
        <time>2022-05-26T14:10:14Z</time>
      </trkpt>
      <trkpt lat="46.82108" lon="5.97623">
        <ele>754.7</ele>
        <time>2022-05-26T14:10:18Z</time>
      </trkpt>
      <trkpt lat="46.82112" lon="5.97627">
        <ele>754.3</ele>
        <time>2022-05-26T14:10:22Z</time>
      </trkpt>
      <trkpt lat="46.82115" lon="5.97633">
        <ele>754.3</ele>
        <time>2022-05-26T14:10:27Z</time>
      </trkpt>
      <trkpt lat="46.82117" lon="5.9764">
        <ele>755.3</ele>
        <time>2022-05-26T14:10:34Z</time>
      </trkpt>
      <trkpt lat="46.82119" lon="5.97647">
        <ele>755.1</ele>
        <time>2022-05-26T14:10:41Z</time>
      </trkpt>
      <trkpt lat="46.82123" lon="5.97649">
        <ele>754.3</ele>
        <time>2022-05-26T14:10:46Z</time>
      </trkpt>
      <trkpt lat="46.82129" lon="5.9765">
        <ele>753.8</ele>
        <time>2022-05-26T14:10:50Z</time>
      </trkpt>
      <trkpt lat="46.82134" lon="5.97651">
        <ele>754.1</ele>
        <time>2022-05-26T14:10:54Z</time>
      </trkpt>
      <trkpt lat="46.8214" lon="5.9765">
        <ele>755</ele>
        <time>2022-05-26T14:10:58Z</time>
      </trkpt>
      <trkpt lat="46.82146" lon="5.97649">
        <ele>755.8</ele>
        <time>2022-05-26T14:11:01Z</time>
      </trkpt>
      <trkpt lat="46.82151" lon="5.9765">
        <ele>756.9</ele>
        <time>2022-05-26T14:11:06Z</time>
      </trkpt>
      <trkpt lat="46.82156" lon="5.97649">
        <ele>757.9</ele>
        <time>2022-05-26T14:11:10Z</time>
      </trkpt>
      <trkpt lat="46.8216" lon="5.97647">
        <ele>758.7</ele>
        <time>2022-05-26T14:11:15Z</time>
      </trkpt>
      <trkpt lat="46.82165" lon="5.97645">
        <ele>759.4</ele>
        <time>2022-05-26T14:11:20Z</time>
      </trkpt>
      <trkpt lat="46.82169" lon="5.97642">
        <ele>759.7</ele>
        <time>2022-05-26T14:11:27Z</time>
      </trkpt>
      <trkpt lat="46.82173" lon="5.97639">
        <ele>759</ele>
        <time>2022-05-26T14:11:32Z</time>
      </trkpt>
      <trkpt lat="46.82177" lon="5.97635">
        <ele>758.3</ele>
        <time>2022-05-26T14:11:39Z</time>
      </trkpt>
      <trkpt lat="46.82181" lon="5.9763">
        <ele>758.9</ele>
        <time>2022-05-26T14:11:45Z</time>
      </trkpt>
      <trkpt lat="46.82184" lon="5.97624">
        <ele>759.4</ele>
        <time>2022-05-26T14:11:51Z</time>
      </trkpt>
      <trkpt lat="46.82187" lon="5.9762">
        <ele>758.9</ele>
        <time>2022-05-26T14:12:00Z</time>
      </trkpt>
      <trkpt lat="46.82191" lon="5.97616">
        <ele>759.3</ele>
        <time>2022-05-26T14:12:07Z</time>
      </trkpt>
      <trkpt lat="46.82196" lon="5.97614">
        <ele>760.3</ele>
        <time>2022-05-26T14:12:12Z</time>
      </trkpt>
      <trkpt lat="46.82202" lon="5.97615">
        <ele>760.9</ele>
        <time>2022-05-26T14:12:17Z</time>
      </trkpt>
      <trkpt lat="46.82207" lon="5.97615">
        <ele>761</ele>
        <time>2022-05-26T14:12:21Z</time>
      </trkpt>
      <trkpt lat="46.82212" lon="5.97617">
        <ele>761.1</ele>
        <time>2022-05-26T14:12:27Z</time>
      </trkpt>
      <trkpt lat="46.82217" lon="5.97617">
        <ele>761.4</ele>
        <time>2022-05-26T14:12:32Z</time>
      </trkpt>
      <trkpt lat="46.82222" lon="5.97614">
        <ele>761.6</ele>
        <time>2022-05-26T14:12:38Z</time>
      </trkpt>
      <trkpt lat="46.82227" lon="5.97612">
        <ele>761.6</ele>
        <time>2022-05-26T14:12:44Z</time>
      </trkpt>
      <trkpt lat="46.82231" lon="5.97609">
        <ele>762</ele>
        <time>2022-05-26T14:12:50Z</time>
      </trkpt>
      <trkpt lat="46.82235" lon="5.97605">
        <ele>762.4</ele>
        <time>2022-05-26T14:12:55Z</time>
      </trkpt>
      <trkpt lat="46.82239" lon="5.976">
        <ele>763.3</ele>
        <time>2022-05-26T14:13:01Z</time>
      </trkpt>
      <trkpt lat="46.82242" lon="5.97595">
        <ele>765.3</ele>
        <time>2022-05-26T14:13:10Z</time>
      </trkpt>
      <trkpt lat="46.82246" lon="5.97592">
        <ele>766.5</ele>
        <time>2022-05-26T14:13:16Z</time>
      </trkpt>
      <trkpt lat="46.82251" lon="5.97589">
        <ele>767.6</ele>
        <time>2022-05-26T14:13:21Z</time>
      </trkpt>
      <trkpt lat="46.82255" lon="5.97584">
        <ele>769.5</ele>
        <time>2022-05-26T14:13:29Z</time>
      </trkpt>
      <trkpt lat="46.8226" lon="5.97583">
        <ele>771.2</ele>
        <time>2022-05-26T14:13:35Z</time>
      </trkpt>
      <trkpt lat="46.82265" lon="5.97583">
        <ele>772.2</ele>
        <time>2022-05-26T14:13:39Z</time>
      </trkpt>
      <trkpt lat="46.8227" lon="5.97584">
        <ele>773.1</ele>
        <time>2022-05-26T14:13:45Z</time>
      </trkpt>
      <trkpt lat="46.82275" lon="5.97587">
        <ele>773.6</ele>
        <time>2022-05-26T14:13:50Z</time>
      </trkpt>
      <trkpt lat="46.8228" lon="5.97589">
        <ele>774.5</ele>
        <time>2022-05-26T14:13:56Z</time>
      </trkpt>
      <trkpt lat="46.82285" lon="5.97591">
        <ele>775.7</ele>
        <time>2022-05-26T14:14:01Z</time>
      </trkpt>
      <trkpt lat="46.82289" lon="5.97594">
        <ele>776.4</ele>
        <time>2022-05-26T14:14:04Z</time>
      </trkpt>
      <trkpt lat="46.82293" lon="5.97599">
        <ele>776.9</ele>
        <time>2022-05-26T14:14:07Z</time>
      </trkpt>
      <trkpt lat="46.82298" lon="5.97602">
        <ele>777.2</ele>
        <time>2022-05-26T14:14:10Z</time>
      </trkpt>
      <trkpt lat="46.82302" lon="5.97605">
        <ele>777.5</ele>
        <time>2022-05-26T14:14:13Z</time>
      </trkpt>
      <trkpt lat="46.82305" lon="5.97611">
        <ele>777.9</ele>
        <time>2022-05-26T14:14:19Z</time>
      </trkpt>
      <trkpt lat="46.82307" lon="5.97617">
        <ele>777.8</ele>
        <time>2022-05-26T14:14:26Z</time>
      </trkpt>
      <trkpt lat="46.82311" lon="5.97621">
        <ele>777.8</ele>
        <time>2022-05-26T14:14:36Z</time>
      </trkpt>
      <trkpt lat="46.82317" lon="5.9762">
        <ele>777.3</ele>
        <time>2022-05-26T14:14:42Z</time>
      </trkpt>
      <trkpt lat="46.82322" lon="5.97618">
        <ele>776.8</ele>
        <time>2022-05-26T14:14:47Z</time>
      </trkpt>
      <trkpt lat="46.82325" lon="5.97614">
        <ele>775.9</ele>
        <time>2022-05-26T14:14:55Z</time>
      </trkpt>
      <trkpt lat="46.8233" lon="5.97611">
        <ele>775.7</ele>
        <time>2022-05-26T14:15:01Z</time>
      </trkpt>
      <trkpt lat="46.82336" lon="5.9761">
        <ele>775.3</ele>
        <time>2022-05-26T14:15:05Z</time>
      </trkpt>
      <trkpt lat="46.82342" lon="5.97611">
        <ele>774.9</ele>
        <time>2022-05-26T14:15:09Z</time>
      </trkpt>
      <trkpt lat="46.82347" lon="5.97613">
        <ele>774.8</ele>
        <time>2022-05-26T14:15:13Z</time>
      </trkpt>
      <trkpt lat="46.82351" lon="5.97614">
        <ele>774.1</ele>
        <time>2022-05-26T14:15:25Z</time>
      </trkpt>
      <trkpt lat="46.82356" lon="5.97616">
        <ele>774.1</ele>
        <time>2022-05-26T14:15:30Z</time>
      </trkpt>
      <trkpt lat="46.82361" lon="5.97616">
        <ele>774.5</ele>
        <time>2022-05-26T14:15:34Z</time>
      </trkpt>
      <trkpt lat="46.82367" lon="5.97617">
        <ele>775.1</ele>
        <time>2022-05-26T14:15:38Z</time>
      </trkpt>
      <trkpt lat="46.82371" lon="5.9762">
        <ele>775.9</ele>
        <time>2022-05-26T14:15:45Z</time>
      </trkpt>
      <trkpt lat="46.82375" lon="5.97622">
        <ele>776.9</ele>
        <time>2022-05-26T14:15:52Z</time>
      </trkpt>
      <trkpt lat="46.8238" lon="5.97626">
        <ele>778.9</ele>
        <time>2022-05-26T14:16:01Z</time>
      </trkpt>
      <trkpt lat="46.82385" lon="5.97626">
        <ele>780.4</ele>
        <time>2022-05-26T14:16:07Z</time>
      </trkpt>
      <trkpt lat="46.8239" lon="5.97628">
        <ele>781.7</ele>
        <time>2022-05-26T14:16:11Z</time>
      </trkpt>
      <trkpt lat="46.82395" lon="5.97624">
        <ele>783.7</ele>
        <time>2022-05-26T14:16:16Z</time>
      </trkpt>
      <trkpt lat="46.82395" lon="5.97616">
        <ele>786.4</ele>
        <time>2022-05-26T14:16:23Z</time>
      </trkpt>
      <trkpt lat="46.82396" lon="5.9761">
        <ele>788.5</ele>
        <time>2022-05-26T14:16:37Z</time>
      </trkpt>
      <trkpt lat="46.82397" lon="5.97603">
        <ele>789.2</ele>
        <time>2022-05-26T14:16:45Z</time>
      </trkpt>
      <trkpt lat="46.82399" lon="5.97597">
        <ele>789.1</ele>
        <time>2022-05-26T14:16:51Z</time>
      </trkpt>
      <trkpt lat="46.82396" lon="5.97591">
        <ele>787.4</ele>
        <time>2022-05-26T14:17:02Z</time>
      </trkpt>
      <trkpt lat="46.82391" lon="5.97589">
        <ele>786.6</ele>
        <time>2022-05-26T14:17:07Z</time>
      </trkpt>
      <trkpt lat="46.82395" lon="5.97594">
        <ele>783.1</ele>
        <time>2022-05-26T14:17:23Z</time>
      </trkpt>
      <trkpt lat="46.82411" lon="5.97586">
        <ele>785</ele>
        <time>2022-05-26T14:18:14Z</time>
      </trkpt>
      <trkpt lat="46.82416" lon="5.97584">
        <ele>787.2</ele>
        <time>2022-05-26T14:18:18Z</time>
      </trkpt>
      <trkpt lat="46.8242" lon="5.9759">
        <ele>786.7</ele>
        <time>2022-05-26T14:18:31Z</time>
      </trkpt>
      <trkpt lat="46.82388" lon="5.97583">
        <ele>783.4</ele>
        <time>2022-05-26T14:19:50Z</time>
      </trkpt>
      <trkpt lat="46.82393" lon="5.97581">
        <ele>785.4</ele>
        <time>2022-05-26T14:19:53Z</time>
      </trkpt>
      <trkpt lat="46.82398" lon="5.97583">
        <ele>782.9</ele>
        <time>2022-05-26T14:20:11Z</time>
      </trkpt>
      <trkpt lat="46.82402" lon="5.97586">
        <ele>781.3</ele>
        <time>2022-05-26T14:20:16Z</time>
      </trkpt>
      <trkpt lat="46.82409" lon="5.97589">
        <ele>779.2</ele>
        <time>2022-05-26T14:20:21Z</time>
      </trkpt>
      <trkpt lat="46.82407" lon="5.97595">
        <ele>776.9</ele>
        <time>2022-05-26T14:20:27Z</time>
      </trkpt>
      <trkpt lat="46.82405" lon="5.97601">
        <ele>778</ele>
        <time>2022-05-26T14:20:36Z</time>
      </trkpt>
      <trkpt lat="46.82409" lon="5.976">
        <ele>779.8</ele>
        <time>2022-05-26T14:20:46Z</time>
      </trkpt>
      <trkpt lat="46.82402" lon="5.976">
        <ele>782</ele>
        <time>2022-05-26T14:21:11Z</time>
      </trkpt>
      <trkpt lat="46.82398" lon="5.97598">
        <ele>783.4</ele>
        <time>2022-05-26T14:21:21Z</time>
      </trkpt>
      <trkpt lat="46.82402" lon="5.97597">
        <ele>784.1</ele>
        <time>2022-05-26T14:21:48Z</time>
      </trkpt>
      <trkpt lat="46.82407" lon="5.97593">
        <ele>785</ele>
        <time>2022-05-26T14:22:19Z</time>
      </trkpt>
      <trkpt lat="46.82403" lon="5.97597">
        <ele>786.8</ele>
        <time>2022-05-26T14:22:48Z</time>
      </trkpt>
      <trkpt lat="46.82399" lon="5.97598">
        <ele>784.5</ele>
        <time>2022-05-26T14:22:59Z</time>
      </trkpt>
      <trkpt lat="46.82397" lon="5.97605">
        <ele>784.1</ele>
        <time>2022-05-26T14:23:13Z</time>
      </trkpt>
      <trkpt lat="46.82398" lon="5.97613">
        <ele>784.7</ele>
        <time>2022-05-26T14:23:20Z</time>
      </trkpt>
      <trkpt lat="46.82398" lon="5.9762">
        <ele>785</ele>
        <time>2022-05-26T14:23:27Z</time>
      </trkpt>
      <trkpt lat="46.82399" lon="5.97626">
        <ele>784.9</ele>
        <time>2022-05-26T14:23:32Z</time>
      </trkpt>
      <trkpt lat="46.82401" lon="5.97633">
        <ele>784.8</ele>
        <time>2022-05-26T14:23:37Z</time>
      </trkpt>
      <trkpt lat="46.82405" lon="5.97636">
        <ele>785</ele>
        <time>2022-05-26T14:23:50Z</time>
      </trkpt>
      <trkpt lat="46.82409" lon="5.97633">
        <ele>784.9</ele>
        <time>2022-05-26T14:23:58Z</time>
      </trkpt>
      <trkpt lat="46.82415" lon="5.97634">
        <ele>784.6</ele>
        <time>2022-05-26T14:24:07Z</time>
      </trkpt>
      <trkpt lat="46.82419" lon="5.97637">
        <ele>784.3</ele>
        <time>2022-05-26T14:24:11Z</time>
      </trkpt>
      <trkpt lat="46.82422" lon="5.97642">
        <ele>783.7</ele>
        <time>2022-05-26T14:24:16Z</time>
      </trkpt>
      <trkpt lat="46.82427" lon="5.97647">
        <ele>783.4</ele>
        <time>2022-05-26T14:24:22Z</time>
      </trkpt>
      <trkpt lat="46.82432" lon="5.97651">
        <ele>783.4</ele>
        <time>2022-05-26T14:24:26Z</time>
      </trkpt>
      <trkpt lat="46.82436" lon="5.97654">
        <ele>783.4</ele>
        <time>2022-05-26T14:24:31Z</time>
      </trkpt>
      <trkpt lat="46.82438" lon="5.97661">
        <ele>783.5</ele>
        <time>2022-05-26T14:24:40Z</time>
      </trkpt>
      <trkpt lat="46.82437" lon="5.97667">
        <ele>783.1</ele>
        <time>2022-05-26T14:24:50Z</time>
      </trkpt>
      <trkpt lat="46.82436" lon="5.97675">
        <ele>782.4</ele>
        <time>2022-05-26T14:24:57Z</time>
      </trkpt>
      <trkpt lat="46.82435" lon="5.97682">
        <ele>782.2</ele>
        <time>2022-05-26T14:25:03Z</time>
      </trkpt>
      <trkpt lat="46.82434" lon="5.97689">
        <ele>781.9</ele>
        <time>2022-05-26T14:25:09Z</time>
      </trkpt>
      <trkpt lat="46.82434" lon="5.97697">
        <ele>781.6</ele>
        <time>2022-05-26T14:25:13Z</time>
      </trkpt>
      <trkpt lat="46.82434" lon="5.97704">
        <ele>781.1</ele>
        <time>2022-05-26T14:25:27Z</time>
      </trkpt>
      <trkpt lat="46.82433" lon="5.97711">
        <ele>780.6</ele>
        <time>2022-05-26T14:25:33Z</time>
      </trkpt>
      <trkpt lat="46.82431" lon="5.97718">
        <ele>780.7</ele>
        <time>2022-05-26T14:25:38Z</time>
      </trkpt>
      <trkpt lat="46.82429" lon="5.97725">
        <ele>781.1</ele>
        <time>2022-05-26T14:25:43Z</time>
      </trkpt>
      <trkpt lat="46.82429" lon="5.97732">
        <ele>781.1</ele>
        <time>2022-05-26T14:25:49Z</time>
      </trkpt>
      <trkpt lat="46.82427" lon="5.97738">
        <ele>781.3</ele>
        <time>2022-05-26T14:25:56Z</time>
      </trkpt>
      <trkpt lat="46.82428" lon="5.97744">
        <ele>781.9</ele>
        <time>2022-05-26T14:26:02Z</time>
      </trkpt>
      <trkpt lat="46.82432" lon="5.97748">
        <ele>782.5</ele>
        <time>2022-05-26T14:26:06Z</time>
      </trkpt>
      <trkpt lat="46.82435" lon="5.97754">
        <ele>782.9</ele>
        <time>2022-05-26T14:26:11Z</time>
      </trkpt>
      <trkpt lat="46.82438" lon="5.9776">
        <ele>783.2</ele>
        <time>2022-05-26T14:26:16Z</time>
      </trkpt>
      <trkpt lat="46.8244" lon="5.97766">
        <ele>783.2</ele>
        <time>2022-05-26T14:26:21Z</time>
      </trkpt>
      <trkpt lat="46.82441" lon="5.97773">
        <ele>783.3</ele>
        <time>2022-05-26T14:26:26Z</time>
      </trkpt>
      <trkpt lat="46.82443" lon="5.9778">
        <ele>783.3</ele>
        <time>2022-05-26T14:26:32Z</time>
      </trkpt>
      <trkpt lat="46.82445" lon="5.97786">
        <ele>783</ele>
        <time>2022-05-26T14:26:39Z</time>
      </trkpt>
      <trkpt lat="46.82446" lon="5.97793">
        <ele>782.2</ele>
        <time>2022-05-26T14:26:45Z</time>
      </trkpt>
      <trkpt lat="46.82448" lon="5.97799">
        <ele>781.3</ele>
        <time>2022-05-26T14:26:50Z</time>
      </trkpt>
      <trkpt lat="46.8245" lon="5.97808">
        <ele>781.2</ele>
        <time>2022-05-26T14:26:54Z</time>
      </trkpt>
      <trkpt lat="46.82451" lon="5.97814">
        <ele>780.8</ele>
        <time>2022-05-26T14:26:57Z</time>
      </trkpt>
      <trkpt lat="46.82454" lon="5.97821">
        <ele>780.5</ele>
        <time>2022-05-26T14:27:01Z</time>
      </trkpt>
      <trkpt lat="46.82457" lon="5.97829">
        <ele>779.8</ele>
        <time>2022-05-26T14:27:05Z</time>
      </trkpt>
      <trkpt lat="46.82459" lon="5.97836">
        <ele>779</ele>
        <time>2022-05-26T14:27:09Z</time>
      </trkpt>
      <trkpt lat="46.82461" lon="5.97843">
        <ele>778.1</ele>
        <time>2022-05-26T14:27:13Z</time>
      </trkpt>
      <trkpt lat="46.82463" lon="5.9785">
        <ele>777.1</ele>
        <time>2022-05-26T14:27:18Z</time>
      </trkpt>
      <trkpt lat="46.82464" lon="5.97857">
        <ele>776.3</ele>
        <time>2022-05-26T14:27:22Z</time>
      </trkpt>
      <trkpt lat="46.82465" lon="5.97864">
        <ele>775.2</ele>
        <time>2022-05-26T14:27:28Z</time>
      </trkpt>
      <trkpt lat="46.82467" lon="5.97872">
        <ele>773.5</ele>
        <time>2022-05-26T14:27:36Z</time>
      </trkpt>
      <trkpt lat="46.82469" lon="5.97878">
        <ele>772.9</ele>
        <time>2022-05-26T14:27:40Z</time>
      </trkpt>
      <trkpt lat="46.8247" lon="5.97885">
        <ele>772.3</ele>
        <time>2022-05-26T14:27:46Z</time>
      </trkpt>
      <trkpt lat="46.8247" lon="5.97892">
        <ele>772</ele>
        <time>2022-05-26T14:27:51Z</time>
      </trkpt>
      <trkpt lat="46.82471" lon="5.97899">
        <ele>771.6</ele>
        <time>2022-05-26T14:27:55Z</time>
      </trkpt>
      <trkpt lat="46.8247" lon="5.97906">
        <ele>771.1</ele>
        <time>2022-05-26T14:27:59Z</time>
      </trkpt>
      <trkpt lat="46.82468" lon="5.97913">
        <ele>770.1</ele>
        <time>2022-05-26T14:28:04Z</time>
      </trkpt>
      <trkpt lat="46.82465" lon="5.9792">
        <ele>769.3</ele>
        <time>2022-05-26T14:28:08Z</time>
      </trkpt>
      <trkpt lat="46.82465" lon="5.97927">
        <ele>768.4</ele>
        <time>2022-05-26T14:28:12Z</time>
      </trkpt>
      <trkpt lat="46.82464" lon="5.97934">
        <ele>767.6</ele>
        <time>2022-05-26T14:28:16Z</time>
      </trkpt>
      <trkpt lat="46.82462" lon="5.97941">
        <ele>767.5</ele>
        <time>2022-05-26T14:28:20Z</time>
      </trkpt>
      <trkpt lat="46.8246" lon="5.97948">
        <ele>767.6</ele>
        <time>2022-05-26T14:28:26Z</time>
      </trkpt>
      <trkpt lat="46.82457" lon="5.97954">
        <ele>767.5</ele>
        <time>2022-05-26T14:28:32Z</time>
      </trkpt>
      <trkpt lat="46.82454" lon="5.9796">
        <ele>767.5</ele>
        <time>2022-05-26T14:28:36Z</time>
      </trkpt>
      <trkpt lat="46.82451" lon="5.97966">
        <ele>767.7</ele>
        <time>2022-05-26T14:28:41Z</time>
      </trkpt>
      <trkpt lat="46.82447" lon="5.97971">
        <ele>768.1</ele>
        <time>2022-05-26T14:28:45Z</time>
      </trkpt>
      <trkpt lat="46.82443" lon="5.97976">
        <ele>768.1</ele>
        <time>2022-05-26T14:28:52Z</time>
      </trkpt>
      <trkpt lat="46.82439" lon="5.97977">
        <ele>768.1</ele>
        <time>2022-05-26T14:28:57Z</time>
      </trkpt>
      <trkpt lat="46.82434" lon="5.97979">
        <ele>768.3</ele>
        <time>2022-05-26T14:29:00Z</time>
      </trkpt>
      <trkpt lat="46.82429" lon="5.97978">
        <ele>769.1</ele>
        <time>2022-05-26T14:29:04Z</time>
      </trkpt>
      <trkpt lat="46.82424" lon="5.97977">
        <ele>770.4</ele>
        <time>2022-05-26T14:29:08Z</time>
      </trkpt>
      <trkpt lat="46.82419" lon="5.97977">
        <ele>771.5</ele>
        <time>2022-05-26T14:29:12Z</time>
      </trkpt>
      <trkpt lat="46.82415" lon="5.97975">
        <ele>773.5</ele>
        <time>2022-05-26T14:29:18Z</time>
      </trkpt>
      <trkpt lat="46.82409" lon="5.97976">
        <ele>775</ele>
        <time>2022-05-26T14:29:23Z</time>
      </trkpt>
      <trkpt lat="46.82404" lon="5.97976">
        <ele>776.2</ele>
        <time>2022-05-26T14:29:27Z</time>
      </trkpt>
      <trkpt lat="46.82399" lon="5.97973">
        <ele>777.2</ele>
        <time>2022-05-26T14:29:31Z</time>
      </trkpt>
      <trkpt lat="46.82394" lon="5.97972">
        <ele>777.5</ele>
        <time>2022-05-26T14:29:36Z</time>
      </trkpt>
      <trkpt lat="46.82389" lon="5.9797">
        <ele>777.7</ele>
        <time>2022-05-26T14:29:40Z</time>
      </trkpt>
      <trkpt lat="46.82384" lon="5.97969">
        <ele>777.9</ele>
        <time>2022-05-26T14:29:44Z</time>
      </trkpt>
      <trkpt lat="46.82379" lon="5.97967">
        <ele>778.8</ele>
        <time>2022-05-26T14:29:48Z</time>
      </trkpt>
      <trkpt lat="46.82374" lon="5.97966">
        <ele>778.8</ele>
        <time>2022-05-26T14:29:53Z</time>
      </trkpt>
      <trkpt lat="46.8237" lon="5.97969">
        <ele>778.7</ele>
        <time>2022-05-26T14:29:57Z</time>
      </trkpt>
      <trkpt lat="46.82366" lon="5.97972">
        <ele>779.2</ele>
        <time>2022-05-26T14:30:02Z</time>
      </trkpt>
      <trkpt lat="46.82361" lon="5.97975">
        <ele>780.1</ele>
        <time>2022-05-26T14:30:08Z</time>
      </trkpt>
      <trkpt lat="46.82358" lon="5.97981">
        <ele>781.5</ele>
        <time>2022-05-26T14:30:12Z</time>
      </trkpt>
      <trkpt lat="46.82356" lon="5.97988">
        <ele>782.7</ele>
        <time>2022-05-26T14:30:16Z</time>
      </trkpt>
      <trkpt lat="46.82357" lon="5.97996">
        <ele>783.4</ele>
        <time>2022-05-26T14:30:21Z</time>
      </trkpt>
      <trkpt lat="46.82358" lon="5.98003">
        <ele>783.5</ele>
        <time>2022-05-26T14:30:25Z</time>
      </trkpt>
      <trkpt lat="46.82357" lon="5.9801">
        <ele>783.1</ele>
        <time>2022-05-26T14:30:30Z</time>
      </trkpt>
      <trkpt lat="46.82356" lon="5.98017">
        <ele>782.3</ele>
        <time>2022-05-26T14:30:37Z</time>
      </trkpt>
      <trkpt lat="46.82357" lon="5.98024">
        <ele>781.6</ele>
        <time>2022-05-26T14:30:42Z</time>
      </trkpt>
      <trkpt lat="46.82358" lon="5.98031">
        <ele>781.5</ele>
        <time>2022-05-26T14:30:46Z</time>
      </trkpt>
      <trkpt lat="46.82358" lon="5.98039">
        <ele>782</ele>
        <time>2022-05-26T14:30:49Z</time>
      </trkpt>
      <trkpt lat="46.82359" lon="5.98047">
        <ele>782.4</ele>
        <time>2022-05-26T14:30:52Z</time>
      </trkpt>
      <trkpt lat="46.82359" lon="5.98054">
        <ele>782.4</ele>
        <time>2022-05-26T14:30:55Z</time>
      </trkpt>
      <trkpt lat="46.82358" lon="5.98061">
        <ele>782</ele>
        <time>2022-05-26T14:30:59Z</time>
      </trkpt>
      <trkpt lat="46.82358" lon="5.98068">
        <ele>780.8</ele>
        <time>2022-05-26T14:31:09Z</time>
      </trkpt>
      <trkpt lat="46.82358" lon="5.98075">
        <ele>779.8</ele>
        <time>2022-05-26T14:31:16Z</time>
      </trkpt>
      <trkpt lat="46.82358" lon="5.98083">
        <ele>779</ele>
        <time>2022-05-26T14:31:22Z</time>
      </trkpt>
      <trkpt lat="46.82362" lon="5.98088">
        <ele>778.6</ele>
        <time>2022-05-26T14:31:27Z</time>
      </trkpt>
      <trkpt lat="46.82358" lon="5.98093">
        <ele>776.4</ele>
        <time>2022-05-26T14:31:33Z</time>
      </trkpt>
      <trkpt lat="46.82361" lon="5.981">
        <ele>775.1</ele>
        <time>2022-05-26T14:31:40Z</time>
      </trkpt>
      <trkpt lat="46.82362" lon="5.98107">
        <ele>774.6</ele>
        <time>2022-05-26T14:31:44Z</time>
      </trkpt>
      <trkpt lat="46.82363" lon="5.98116">
        <ele>774.6</ele>
        <time>2022-05-26T14:31:47Z</time>
      </trkpt>
      <trkpt lat="46.82364" lon="5.98123">
        <ele>775</ele>
        <time>2022-05-26T14:31:50Z</time>
      </trkpt>
      <trkpt lat="46.82367" lon="5.9813">
        <ele>775.8</ele>
        <time>2022-05-26T14:31:53Z</time>
      </trkpt>
      <trkpt lat="46.8237" lon="5.98136">
        <ele>777.3</ele>
        <time>2022-05-26T14:31:57Z</time>
      </trkpt>
      <trkpt lat="46.82371" lon="5.98143">
        <ele>779</ele>
        <time>2022-05-26T14:32:02Z</time>
      </trkpt>
      <trkpt lat="46.82372" lon="5.98151">
        <ele>780.3</ele>
        <time>2022-05-26T14:32:06Z</time>
      </trkpt>
      <trkpt lat="46.82373" lon="5.98159">
        <ele>781.5</ele>
        <time>2022-05-26T14:32:10Z</time>
      </trkpt>
      <trkpt lat="46.82373" lon="5.98166">
        <ele>782.8</ele>
        <time>2022-05-26T14:32:14Z</time>
      </trkpt>
      <trkpt lat="46.82371" lon="5.98173">
        <ele>784.9</ele>
        <time>2022-05-26T14:32:18Z</time>
      </trkpt>
      <trkpt lat="46.82372" lon="5.98181">
        <ele>787.1</ele>
        <time>2022-05-26T14:32:24Z</time>
      </trkpt>
      <trkpt lat="46.82374" lon="5.98187">
        <ele>787.8</ele>
        <time>2022-05-26T14:32:29Z</time>
      </trkpt>
      <trkpt lat="46.82376" lon="5.98193">
        <ele>788.2</ele>
        <time>2022-05-26T14:32:32Z</time>
      </trkpt>
      <trkpt lat="46.82377" lon="5.98201">
        <ele>788.9</ele>
        <time>2022-05-26T14:32:36Z</time>
      </trkpt>
      <trkpt lat="46.82378" lon="5.98208">
        <ele>789.6</ele>
        <time>2022-05-26T14:32:40Z</time>
      </trkpt>
      <trkpt lat="46.82379" lon="5.98215">
        <ele>789.9</ele>
        <time>2022-05-26T14:32:44Z</time>
      </trkpt>
      <trkpt lat="46.82379" lon="5.98223">
        <ele>790.5</ele>
        <time>2022-05-26T14:32:49Z</time>
      </trkpt>
      <trkpt lat="46.8238" lon="5.9823">
        <ele>790.6</ele>
        <time>2022-05-26T14:32:54Z</time>
      </trkpt>
      <trkpt lat="46.82383" lon="5.98237">
        <ele>790.6</ele>
        <time>2022-05-26T14:33:00Z</time>
      </trkpt>
      <trkpt lat="46.82385" lon="5.98243">
        <ele>790.5</ele>
        <time>2022-05-26T14:33:05Z</time>
      </trkpt>
      <trkpt lat="46.82388" lon="5.98249">
        <ele>790.4</ele>
        <time>2022-05-26T14:33:09Z</time>
      </trkpt>
      <trkpt lat="46.82389" lon="5.98255">
        <ele>790.3</ele>
        <time>2022-05-26T14:33:14Z</time>
      </trkpt>
      <trkpt lat="46.82392" lon="5.98262">
        <ele>789.8</ele>
        <time>2022-05-26T14:33:20Z</time>
      </trkpt>
      <trkpt lat="46.82393" lon="5.98269">
        <ele>789.6</ele>
        <time>2022-05-26T14:33:24Z</time>
      </trkpt>
      <trkpt lat="46.82395" lon="5.98278">
        <ele>789.6</ele>
        <time>2022-05-26T14:33:27Z</time>
      </trkpt>
      <trkpt lat="46.82395" lon="5.98285">
        <ele>789.5</ele>
        <time>2022-05-26T14:33:30Z</time>
      </trkpt>
      <trkpt lat="46.82397" lon="5.98293">
        <ele>789.4</ele>
        <time>2022-05-26T14:33:34Z</time>
      </trkpt>
      <trkpt lat="46.824" lon="5.98299">
        <ele>789.6</ele>
        <time>2022-05-26T14:33:38Z</time>
      </trkpt>
      <trkpt lat="46.82402" lon="5.98305">
        <ele>790.3</ele>
        <time>2022-05-26T14:33:42Z</time>
      </trkpt>
      <trkpt lat="46.82402" lon="5.98313">
        <ele>790.5</ele>
        <time>2022-05-26T14:33:46Z</time>
      </trkpt>
      <trkpt lat="46.82403" lon="5.98321">
        <ele>790.6</ele>
        <time>2022-05-26T14:33:51Z</time>
      </trkpt>
      <trkpt lat="46.82405" lon="5.98327">
        <ele>790.8</ele>
        <time>2022-05-26T14:33:55Z</time>
      </trkpt>
      <trkpt lat="46.82405" lon="5.98336">
        <ele>791.3</ele>
        <time>2022-05-26T14:33:59Z</time>
      </trkpt>
      <trkpt lat="46.82406" lon="5.98342">
        <ele>792</ele>
        <time>2022-05-26T14:34:02Z</time>
      </trkpt>
      <trkpt lat="46.82406" lon="5.98349">
        <ele>792.8</ele>
        <time>2022-05-26T14:34:06Z</time>
      </trkpt>
      <trkpt lat="46.82408" lon="5.98356">
        <ele>793.9</ele>
        <time>2022-05-26T14:34:10Z</time>
      </trkpt>
      <trkpt lat="46.82408" lon="5.98363">
        <ele>794.9</ele>
        <time>2022-05-26T14:34:14Z</time>
      </trkpt>
      <trkpt lat="46.82409" lon="5.9837">
        <ele>794.9</ele>
        <time>2022-05-26T14:34:23Z</time>
      </trkpt>
      <trkpt lat="46.82408" lon="5.98378">
        <ele>794.1</ele>
        <time>2022-05-26T14:34:28Z</time>
      </trkpt>
      <trkpt lat="46.8241" lon="5.98386">
        <ele>793.5</ele>
        <time>2022-05-26T14:34:32Z</time>
      </trkpt>
      <trkpt lat="46.82411" lon="5.98393">
        <ele>792.6</ele>
        <time>2022-05-26T14:34:36Z</time>
      </trkpt>
      <trkpt lat="46.82411" lon="5.98401">
        <ele>791.6</ele>
        <time>2022-05-26T14:34:40Z</time>
      </trkpt>
      <trkpt lat="46.8241" lon="5.98409">
        <ele>791.2</ele>
        <time>2022-05-26T14:34:43Z</time>
      </trkpt>
      <trkpt lat="46.82411" lon="5.98416">
        <ele>790.5</ele>
        <time>2022-05-26T14:34:49Z</time>
      </trkpt>
      <trkpt lat="46.8241" lon="5.98423">
        <ele>790.4</ele>
        <time>2022-05-26T14:34:53Z</time>
      </trkpt>
      <trkpt lat="46.8241" lon="5.98431">
        <ele>790.3</ele>
        <time>2022-05-26T14:34:57Z</time>
      </trkpt>
      <trkpt lat="46.82411" lon="5.98438">
        <ele>790</ele>
        <time>2022-05-26T14:35:00Z</time>
      </trkpt>
      <trkpt lat="46.82412" lon="5.98447">
        <ele>789.7</ele>
        <time>2022-05-26T14:35:04Z</time>
      </trkpt>
      <trkpt lat="46.82413" lon="5.98454">
        <ele>789.3</ele>
        <time>2022-05-26T14:35:08Z</time>
      </trkpt>
      <trkpt lat="46.82412" lon="5.98461">
        <ele>789.1</ele>
        <time>2022-05-26T14:35:12Z</time>
      </trkpt>
      <trkpt lat="46.8241" lon="5.98467">
        <ele>788.7</ele>
        <time>2022-05-26T14:35:17Z</time>
      </trkpt>
      <trkpt lat="46.82406" lon="5.98471">
        <ele>786.9</ele>
        <time>2022-05-26T14:35:26Z</time>
      </trkpt>
      <trkpt lat="46.82407" lon="5.98479">
        <ele>785</ele>
        <time>2022-05-26T14:35:32Z</time>
      </trkpt>
      <trkpt lat="46.82408" lon="5.98487">
        <ele>783.9</ele>
        <time>2022-05-26T14:35:35Z</time>
      </trkpt>
      <trkpt lat="46.82407" lon="5.98495">
        <ele>782.9</ele>
        <time>2022-05-26T14:35:38Z</time>
      </trkpt>
      <trkpt lat="46.82405" lon="5.98501">
        <ele>782.4</ele>
        <time>2022-05-26T14:35:41Z</time>
      </trkpt>
      <trkpt lat="46.82404" lon="5.98508">
        <ele>782.6</ele>
        <time>2022-05-26T14:35:44Z</time>
      </trkpt>
      <trkpt lat="46.82403" lon="5.98516">
        <ele>783.1</ele>
        <time>2022-05-26T14:35:47Z</time>
      </trkpt>
      <trkpt lat="46.82403" lon="5.98524">
        <ele>783.8</ele>
        <time>2022-05-26T14:35:50Z</time>
      </trkpt>
      <trkpt lat="46.82403" lon="5.9853">
        <ele>784.5</ele>
        <time>2022-05-26T14:35:53Z</time>
      </trkpt>
      <trkpt lat="46.82402" lon="5.98538">
        <ele>785.6</ele>
        <time>2022-05-26T14:35:57Z</time>
      </trkpt>
      <trkpt lat="46.82401" lon="5.98545">
        <ele>787</ele>
        <time>2022-05-26T14:36:02Z</time>
      </trkpt>
      <trkpt lat="46.824" lon="5.98551">
        <ele>787.8</ele>
        <time>2022-05-26T14:36:06Z</time>
      </trkpt>
      <trkpt lat="46.82401" lon="5.9856">
        <ele>788.4</ele>
        <time>2022-05-26T14:36:10Z</time>
      </trkpt>
      <trkpt lat="46.82401" lon="5.98568">
        <ele>788.5</ele>
        <time>2022-05-26T14:36:14Z</time>
      </trkpt>
      <trkpt lat="46.82398" lon="5.98575">
        <ele>788.4</ele>
        <time>2022-05-26T14:36:20Z</time>
      </trkpt>
      <trkpt lat="46.82399" lon="5.98581">
        <ele>788.2</ele>
        <time>2022-05-26T14:36:26Z</time>
      </trkpt>
      <trkpt lat="46.82402" lon="5.98585">
        <ele>787.4</ele>
        <time>2022-05-26T14:36:31Z</time>
      </trkpt>
      <trkpt lat="46.82405" lon="5.98592">
        <ele>787</ele>
        <time>2022-05-26T14:36:34Z</time>
      </trkpt>
      <trkpt lat="46.82407" lon="5.98601">
        <ele>786.6</ele>
        <time>2022-05-26T14:36:37Z</time>
      </trkpt>
      <trkpt lat="46.8241" lon="5.98609">
        <ele>786.3</ele>
        <time>2022-05-26T14:36:40Z</time>
      </trkpt>
      <trkpt lat="46.82411" lon="5.98616">
        <ele>786.1</ele>
        <time>2022-05-26T14:36:43Z</time>
      </trkpt>
      <trkpt lat="46.82411" lon="5.98623">
        <ele>786.1</ele>
        <time>2022-05-26T14:36:47Z</time>
      </trkpt>
      <trkpt lat="46.8241" lon="5.98631">
        <ele>787</ele>
        <time>2022-05-26T14:36:52Z</time>
      </trkpt>
      <trkpt lat="46.82413" lon="5.98637">
        <ele>787.7</ele>
        <time>2022-05-26T14:36:57Z</time>
      </trkpt>
      <trkpt lat="46.82417" lon="5.98641">
        <ele>787.9</ele>
        <time>2022-05-26T14:37:01Z</time>
      </trkpt>
      <trkpt lat="46.82421" lon="5.98646">
        <ele>788.1</ele>
        <time>2022-05-26T14:37:06Z</time>
      </trkpt>
      <trkpt lat="46.82424" lon="5.98651">
        <ele>788.3</ele>
        <time>2022-05-26T14:37:11Z</time>
      </trkpt>
      <trkpt lat="46.82427" lon="5.98657">
        <ele>788.4</ele>
        <time>2022-05-26T14:37:15Z</time>
      </trkpt>
      <trkpt lat="46.8243" lon="5.98665">
        <ele>788.5</ele>
        <time>2022-05-26T14:37:20Z</time>
      </trkpt>
      <trkpt lat="46.82434" lon="5.98674">
        <ele>788.2</ele>
        <time>2022-05-26T14:37:23Z</time>
      </trkpt>
      <trkpt lat="46.82438" lon="5.98683">
        <ele>788.2</ele>
        <time>2022-05-26T14:37:26Z</time>
      </trkpt>
      <trkpt lat="46.82441" lon="5.9869">
        <ele>788.5</ele>
        <time>2022-05-26T14:37:29Z</time>
      </trkpt>
      <trkpt lat="46.82444" lon="5.98696">
        <ele>789.1</ele>
        <time>2022-05-26T14:37:32Z</time>
      </trkpt>
      <trkpt lat="46.82449" lon="5.987">
        <ele>790.1</ele>
        <time>2022-05-26T14:37:35Z</time>
      </trkpt>
      <trkpt lat="46.82453" lon="5.98704">
        <ele>791.1</ele>
        <time>2022-05-26T14:37:38Z</time>
      </trkpt>
      <trkpt lat="46.82455" lon="5.98711">
        <ele>791.7</ele>
        <time>2022-05-26T14:37:43Z</time>
      </trkpt>
      <trkpt lat="46.82458" lon="5.98716">
        <ele>792</ele>
        <time>2022-05-26T14:37:48Z</time>
      </trkpt>
      <trkpt lat="46.8246" lon="5.98722">
        <ele>792.4</ele>
        <time>2022-05-26T14:37:54Z</time>
      </trkpt>
      <trkpt lat="46.82465" lon="5.98727">
        <ele>791.7</ele>
        <time>2022-05-26T14:38:00Z</time>
      </trkpt>
      <trkpt lat="46.82469" lon="5.98732">
        <ele>790.9</ele>
        <time>2022-05-26T14:38:05Z</time>
      </trkpt>
      <trkpt lat="46.82473" lon="5.98737">
        <ele>790.2</ele>
        <time>2022-05-26T14:38:09Z</time>
      </trkpt>
      <trkpt lat="46.82476" lon="5.98742">
        <ele>789.9</ele>
        <time>2022-05-26T14:38:13Z</time>
      </trkpt>
      <trkpt lat="46.82479" lon="5.98747">
        <ele>790.2</ele>
        <time>2022-05-26T14:38:17Z</time>
      </trkpt>
      <trkpt lat="46.82481" lon="5.98753">
        <ele>790.9</ele>
        <time>2022-05-26T14:38:22Z</time>
      </trkpt>
      <trkpt lat="46.82484" lon="5.98759">
        <ele>791</ele>
        <time>2022-05-26T14:38:27Z</time>
      </trkpt>
      <trkpt lat="46.82488" lon="5.98764">
        <ele>790.3</ele>
        <time>2022-05-26T14:38:30Z</time>
      </trkpt>
      <trkpt lat="46.8249" lon="5.9877">
        <ele>789.2</ele>
        <time>2022-05-26T14:38:34Z</time>
      </trkpt>
      <trkpt lat="46.82493" lon="5.98776">
        <ele>788.7</ele>
        <time>2022-05-26T14:38:39Z</time>
      </trkpt>
      <trkpt lat="46.82497" lon="5.98781">
        <ele>789.5</ele>
        <time>2022-05-26T14:38:44Z</time>
      </trkpt>
      <trkpt lat="46.82499" lon="5.98788">
        <ele>790.2</ele>
        <time>2022-05-26T14:38:49Z</time>
      </trkpt>
      <trkpt lat="46.82501" lon="5.98796">
        <ele>790.7</ele>
        <time>2022-05-26T14:38:53Z</time>
      </trkpt>
      <trkpt lat="46.82503" lon="5.98801">
        <ele>790.8</ele>
        <time>2022-05-26T14:38:57Z</time>
      </trkpt>
      <trkpt lat="46.82504" lon="5.98808">
        <ele>791</ele>
        <time>2022-05-26T14:39:01Z</time>
      </trkpt>
      <trkpt lat="46.82504" lon="5.98815">
        <ele>791.8</ele>
        <time>2022-05-26T14:39:07Z</time>
      </trkpt>
      <trkpt lat="46.82507" lon="5.98823">
        <ele>792.7</ele>
        <time>2022-05-26T14:39:11Z</time>
      </trkpt>
      <trkpt lat="46.8251" lon="5.98829">
        <ele>793.3</ele>
        <time>2022-05-26T14:39:15Z</time>
      </trkpt>
      <trkpt lat="46.82513" lon="5.98835">
        <ele>793.4</ele>
        <time>2022-05-26T14:39:20Z</time>
      </trkpt>
      <trkpt lat="46.82516" lon="5.98841">
        <ele>793</ele>
        <time>2022-05-26T14:39:24Z</time>
      </trkpt>
      <trkpt lat="46.8252" lon="5.98846">
        <ele>792.3</ele>
        <time>2022-05-26T14:39:27Z</time>
      </trkpt>
      <trkpt lat="46.82524" lon="5.9885">
        <ele>790.9</ele>
        <time>2022-05-26T14:39:32Z</time>
      </trkpt>
      <trkpt lat="46.82526" lon="5.98856">
        <ele>789.4</ele>
        <time>2022-05-26T14:39:39Z</time>
      </trkpt>
      <trkpt lat="46.8253" lon="5.98863">
        <ele>788.8</ele>
        <time>2022-05-26T14:39:43Z</time>
      </trkpt>
      <trkpt lat="46.82534" lon="5.98867">
        <ele>788.3</ele>
        <time>2022-05-26T14:39:46Z</time>
      </trkpt>
      <trkpt lat="46.82537" lon="5.98871">
        <ele>787.8</ele>
        <time>2022-05-26T14:39:50Z</time>
      </trkpt>
      <trkpt lat="46.82542" lon="5.98877">
        <ele>787.3</ele>
        <time>2022-05-26T14:39:54Z</time>
      </trkpt>
      <trkpt lat="46.82544" lon="5.98884">
        <ele>786.9</ele>
        <time>2022-05-26T14:39:57Z</time>
      </trkpt>
      <trkpt lat="46.82547" lon="5.9889">
        <ele>786.9</ele>
        <time>2022-05-26T14:40:00Z</time>
      </trkpt>
      <trkpt lat="46.8255" lon="5.98895">
        <ele>787.2</ele>
        <time>2022-05-26T14:40:04Z</time>
      </trkpt>
      <trkpt lat="46.82555" lon="5.989">
        <ele>787.7</ele>
        <time>2022-05-26T14:40:08Z</time>
      </trkpt>
      <trkpt lat="46.82558" lon="5.98904">
        <ele>788</ele>
        <time>2022-05-26T14:40:11Z</time>
      </trkpt>
      <trkpt lat="46.82561" lon="5.9891">
        <ele>787.8</ele>
        <time>2022-05-26T14:40:17Z</time>
      </trkpt>
      <trkpt lat="46.82564" lon="5.98914">
        <ele>787.5</ele>
        <time>2022-05-26T14:40:21Z</time>
      </trkpt>
      <trkpt lat="46.82567" lon="5.9892">
        <ele>787.2</ele>
        <time>2022-05-26T14:40:25Z</time>
      </trkpt>
      <trkpt lat="46.82571" lon="5.98926">
        <ele>787.6</ele>
        <time>2022-05-26T14:40:30Z</time>
      </trkpt>
      <trkpt lat="46.82575" lon="5.98931">
        <ele>788.2</ele>
        <time>2022-05-26T14:40:34Z</time>
      </trkpt>
      <trkpt lat="46.82579" lon="5.98937">
        <ele>788.8</ele>
        <time>2022-05-26T14:40:38Z</time>
      </trkpt>
      <trkpt lat="46.82583" lon="5.98941">
        <ele>789.1</ele>
        <time>2022-05-26T14:40:42Z</time>
      </trkpt>
      <trkpt lat="46.82586" lon="5.98948">
        <ele>789</ele>
        <time>2022-05-26T14:40:46Z</time>
      </trkpt>
      <trkpt lat="46.82587" lon="5.98954">
        <ele>788.7</ele>
        <time>2022-05-26T14:40:50Z</time>
      </trkpt>
      <trkpt lat="46.82588" lon="5.98961">
        <ele>787.9</ele>
        <time>2022-05-26T14:40:55Z</time>
      </trkpt>
      <trkpt lat="46.82592" lon="5.98965">
        <ele>786.8</ele>
        <time>2022-05-26T14:41:00Z</time>
      </trkpt>
      <trkpt lat="46.82595" lon="5.98971">
        <ele>785.3</ele>
        <time>2022-05-26T14:41:06Z</time>
      </trkpt>
      <trkpt lat="46.82599" lon="5.98977">
        <ele>785.1</ele>
        <time>2022-05-26T14:41:10Z</time>
      </trkpt>
      <trkpt lat="46.82602" lon="5.98982">
        <ele>784.8</ele>
        <time>2022-05-26T14:41:13Z</time>
      </trkpt>
      <trkpt lat="46.82604" lon="5.98989">
        <ele>784.4</ele>
        <time>2022-05-26T14:41:17Z</time>
      </trkpt>
      <trkpt lat="46.82607" lon="5.98995">
        <ele>784.5</ele>
        <time>2022-05-26T14:41:22Z</time>
      </trkpt>
      <trkpt lat="46.82608" lon="5.99002">
        <ele>785.6</ele>
        <time>2022-05-26T14:41:27Z</time>
      </trkpt>
      <trkpt lat="46.8261" lon="5.99008">
        <ele>787.2</ele>
        <time>2022-05-26T14:41:32Z</time>
      </trkpt>
      <trkpt lat="46.82613" lon="5.99014">
        <ele>788.8</ele>
        <time>2022-05-26T14:41:36Z</time>
      </trkpt>
      <trkpt lat="46.82617" lon="5.9902">
        <ele>790.6</ele>
        <time>2022-05-26T14:41:40Z</time>
      </trkpt>
      <trkpt lat="46.82618" lon="5.99027">
        <ele>792.3</ele>
        <time>2022-05-26T14:41:45Z</time>
      </trkpt>
      <trkpt lat="46.82621" lon="5.99032">
        <ele>794.4</ele>
        <time>2022-05-26T14:41:50Z</time>
      </trkpt>
      <trkpt lat="46.82622" lon="5.99039">
        <ele>797.1</ele>
        <time>2022-05-26T14:41:56Z</time>
      </trkpt>
      <trkpt lat="46.82623" lon="5.99046">
        <ele>798.1</ele>
        <time>2022-05-26T14:42:00Z</time>
      </trkpt>
      <trkpt lat="46.82624" lon="5.99053">
        <ele>799.3</ele>
        <time>2022-05-26T14:42:05Z</time>
      </trkpt>
      <trkpt lat="46.82626" lon="5.99059">
        <ele>800.9</ele>
        <time>2022-05-26T14:42:12Z</time>
      </trkpt>
      <trkpt lat="46.82629" lon="5.99065">
        <ele>801.4</ele>
        <time>2022-05-26T14:42:19Z</time>
      </trkpt>
      <trkpt lat="46.82631" lon="5.99071">
        <ele>801.9</ele>
        <time>2022-05-26T14:42:24Z</time>
      </trkpt>
      <trkpt lat="46.82635" lon="5.99076">
        <ele>802.6</ele>
        <time>2022-05-26T14:42:28Z</time>
      </trkpt>
      <trkpt lat="46.82639" lon="5.99081">
        <ele>803.7</ele>
        <time>2022-05-26T14:42:33Z</time>
      </trkpt>
      <trkpt lat="46.82642" lon="5.99087">
        <ele>804.2</ele>
        <time>2022-05-26T14:42:37Z</time>
      </trkpt>
      <trkpt lat="46.82645" lon="5.99092">
        <ele>804.4</ele>
        <time>2022-05-26T14:42:41Z</time>
      </trkpt>
      <trkpt lat="46.82647" lon="5.99099">
        <ele>804.1</ele>
        <time>2022-05-26T14:42:45Z</time>
      </trkpt>
      <trkpt lat="46.82647" lon="5.99107">
        <ele>803.4</ele>
        <time>2022-05-26T14:42:49Z</time>
      </trkpt>
      <trkpt lat="46.82647" lon="5.99114">
        <ele>803.6</ele>
        <time>2022-05-26T14:42:52Z</time>
      </trkpt>
      <trkpt lat="46.82648" lon="5.9912">
        <ele>804.9</ele>
        <time>2022-05-26T14:42:56Z</time>
      </trkpt>
      <trkpt lat="46.82652" lon="5.99125">
        <ele>806.8</ele>
        <time>2022-05-26T14:43:00Z</time>
      </trkpt>
      <trkpt lat="46.82656" lon="5.99129">
        <ele>808.2</ele>
        <time>2022-05-26T14:43:04Z</time>
      </trkpt>
      <trkpt lat="46.82661" lon="5.99132">
        <ele>807.6</ele>
        <time>2022-05-26T14:43:08Z</time>
      </trkpt>
      <trkpt lat="46.82665" lon="5.99136">
        <ele>807</ele>
        <time>2022-05-26T14:43:12Z</time>
      </trkpt>
      <trkpt lat="46.82668" lon="5.99141">
        <ele>804.8</ele>
        <time>2022-05-26T14:43:18Z</time>
      </trkpt>
      <trkpt lat="46.82672" lon="5.99144">
        <ele>802.8</ele>
        <time>2022-05-26T14:43:22Z</time>
      </trkpt>
      <trkpt lat="46.82677" lon="5.99144">
        <ele>798.8</ele>
        <time>2022-05-26T14:43:30Z</time>
      </trkpt>
      <trkpt lat="46.8268" lon="5.99149">
        <ele>797.4</ele>
        <time>2022-05-26T14:43:35Z</time>
      </trkpt>
      <trkpt lat="46.82684" lon="5.99154">
        <ele>797.1</ele>
        <time>2022-05-26T14:43:39Z</time>
      </trkpt>
      <trkpt lat="46.82684" lon="5.99162">
        <ele>797</ele>
        <time>2022-05-26T14:43:42Z</time>
      </trkpt>
      <trkpt lat="46.82683" lon="5.99169">
        <ele>797.1</ele>
        <time>2022-05-26T14:43:45Z</time>
      </trkpt>
      <trkpt lat="46.82683" lon="5.99176">
        <ele>797.8</ele>
        <time>2022-05-26T14:43:49Z</time>
      </trkpt>
      <trkpt lat="46.82685" lon="5.99183">
        <ele>798.9</ele>
        <time>2022-05-26T14:43:53Z</time>
      </trkpt>
      <trkpt lat="46.82686" lon="5.9919">
        <ele>799.9</ele>
        <time>2022-05-26T14:43:59Z</time>
      </trkpt>
      <trkpt lat="46.82689" lon="5.99195">
        <ele>799.9</ele>
        <time>2022-05-26T14:44:17Z</time>
      </trkpt>
      <trkpt lat="46.82691" lon="5.99202">
        <ele>800.8</ele>
        <time>2022-05-26T14:44:21Z</time>
      </trkpt>
      <trkpt lat="46.82691" lon="5.9921">
        <ele>801.8</ele>
        <time>2022-05-26T14:44:25Z</time>
      </trkpt>
      <trkpt lat="46.82693" lon="5.99217">
        <ele>802.5</ele>
        <time>2022-05-26T14:44:29Z</time>
      </trkpt>
      <trkpt lat="46.82695" lon="5.99225">
        <ele>803.1</ele>
        <time>2022-05-26T14:44:33Z</time>
      </trkpt>
      <trkpt lat="46.82695" lon="5.99233">
        <ele>803.5</ele>
        <time>2022-05-26T14:44:38Z</time>
      </trkpt>
      <trkpt lat="46.82694" lon="5.99239">
        <ele>804.3</ele>
        <time>2022-05-26T14:44:42Z</time>
      </trkpt>
      <trkpt lat="46.82691" lon="5.99244">
        <ele>805.5</ele>
        <time>2022-05-26T14:44:47Z</time>
      </trkpt>
      <trkpt lat="46.82688" lon="5.9925">
        <ele>806.2</ele>
        <time>2022-05-26T14:44:51Z</time>
      </trkpt>
      <trkpt lat="46.82686" lon="5.99256">
        <ele>806.3</ele>
        <time>2022-05-26T14:44:54Z</time>
      </trkpt>
      <trkpt lat="46.82686" lon="5.99264">
        <ele>806.1</ele>
        <time>2022-05-26T14:44:59Z</time>
      </trkpt>
      <trkpt lat="46.82686" lon="5.99271">
        <ele>805.4</ele>
        <time>2022-05-26T14:45:04Z</time>
      </trkpt>
      <trkpt lat="46.82687" lon="5.99279">
        <ele>803.7</ele>
        <time>2022-05-26T14:45:10Z</time>
      </trkpt>
      <trkpt lat="46.82687" lon="5.99285">
        <ele>803.3</ele>
        <time>2022-05-26T14:45:14Z</time>
      </trkpt>
      <trkpt lat="46.82685" lon="5.99293">
        <ele>800.5</ele>
        <time>2022-05-26T14:45:24Z</time>
      </trkpt>
      <trkpt lat="46.82684" lon="5.993">
        <ele>799.3</ele>
        <time>2022-05-26T14:45:29Z</time>
      </trkpt>
      <trkpt lat="46.82683" lon="5.99309">
        <ele>799</ele>
        <time>2022-05-26T14:45:33Z</time>
      </trkpt>
      <trkpt lat="46.82682" lon="5.99317">
        <ele>798.7</ele>
        <time>2022-05-26T14:45:36Z</time>
      </trkpt>
      <trkpt lat="46.8268" lon="5.99324">
        <ele>798.4</ele>
        <time>2022-05-26T14:45:39Z</time>
      </trkpt>
      <trkpt lat="46.82679" lon="5.99332">
        <ele>798.1</ele>
        <time>2022-05-26T14:45:42Z</time>
      </trkpt>
      <trkpt lat="46.82678" lon="5.9934">
        <ele>797.9</ele>
        <time>2022-05-26T14:45:45Z</time>
      </trkpt>
      <trkpt lat="46.82678" lon="5.99346">
        <ele>798</ele>
        <time>2022-05-26T14:45:48Z</time>
      </trkpt>
      <trkpt lat="46.82678" lon="5.99353">
        <ele>798.1</ele>
        <time>2022-05-26T14:45:52Z</time>
      </trkpt>
      <trkpt lat="46.82677" lon="5.9936">
        <ele>797.8</ele>
        <time>2022-05-26T14:45:56Z</time>
      </trkpt>
      <trkpt lat="46.82673" lon="5.99366">
        <ele>796.9</ele>
        <time>2022-05-26T14:46:01Z</time>
      </trkpt>
      <trkpt lat="46.82671" lon="5.99373">
        <ele>795.7</ele>
        <time>2022-05-26T14:46:07Z</time>
      </trkpt>
      <trkpt lat="46.82673" lon="5.9938">
        <ele>794.9</ele>
        <time>2022-05-26T14:46:12Z</time>
      </trkpt>
      <trkpt lat="46.82672" lon="5.99387">
        <ele>794.6</ele>
        <time>2022-05-26T14:46:16Z</time>
      </trkpt>
      <trkpt lat="46.8267" lon="5.99394">
        <ele>794.5</ele>
        <time>2022-05-26T14:46:20Z</time>
      </trkpt>
      <trkpt lat="46.8267" lon="5.99401">
        <ele>794.7</ele>
        <time>2022-05-26T14:46:24Z</time>
      </trkpt>
      <trkpt lat="46.82669" lon="5.99409">
        <ele>795</ele>
        <time>2022-05-26T14:46:28Z</time>
      </trkpt>
      <trkpt lat="46.82668" lon="5.99416">
        <ele>795.1</ele>
        <time>2022-05-26T14:46:32Z</time>
      </trkpt>
      <trkpt lat="46.82665" lon="5.9942">
        <ele>794.9</ele>
        <time>2022-05-26T14:46:37Z</time>
      </trkpt>
      <trkpt lat="46.82663" lon="5.99427">
        <ele>794.8</ele>
        <time>2022-05-26T14:46:41Z</time>
      </trkpt>
      <trkpt lat="46.82661" lon="5.99435">
        <ele>794.8</ele>
        <time>2022-05-26T14:46:45Z</time>
      </trkpt>
      <trkpt lat="46.82659" lon="5.99441">
        <ele>795</ele>
        <time>2022-05-26T14:46:48Z</time>
      </trkpt>
      <trkpt lat="46.82657" lon="5.99447">
        <ele>795.6</ele>
        <time>2022-05-26T14:46:51Z</time>
      </trkpt>
      <trkpt lat="46.82654" lon="5.99453">
        <ele>796.2</ele>
        <time>2022-05-26T14:46:55Z</time>
      </trkpt>
      <trkpt lat="46.82651" lon="5.99459">
        <ele>797</ele>
        <time>2022-05-26T14:47:01Z</time>
      </trkpt>
      <trkpt lat="46.82646" lon="5.99463">
        <ele>797.3</ele>
        <time>2022-05-26T14:47:05Z</time>
      </trkpt>
      <trkpt lat="46.82641" lon="5.99468">
        <ele>798</ele>
        <time>2022-05-26T14:47:09Z</time>
      </trkpt>
      <trkpt lat="46.82638" lon="5.99473">
        <ele>798.4</ele>
        <time>2022-05-26T14:47:13Z</time>
      </trkpt>
      <trkpt lat="46.82637" lon="5.9948">
        <ele>798.1</ele>
        <time>2022-05-26T14:47:18Z</time>
      </trkpt>
      <trkpt lat="46.82636" lon="5.99486">
        <ele>798.2</ele>
        <time>2022-05-26T14:47:21Z</time>
      </trkpt>
      <trkpt lat="46.82632" lon="5.99492">
        <ele>798.6</ele>
        <time>2022-05-26T14:47:25Z</time>
      </trkpt>
      <trkpt lat="46.8263" lon="5.99499">
        <ele>799.1</ele>
        <time>2022-05-26T14:47:30Z</time>
      </trkpt>
      <trkpt lat="46.82628" lon="5.99506">
        <ele>799.6</ele>
        <time>2022-05-26T14:47:34Z</time>
      </trkpt>
      <trkpt lat="46.82626" lon="5.99512">
        <ele>800.3</ele>
        <time>2022-05-26T14:47:39Z</time>
      </trkpt>
      <trkpt lat="46.82625" lon="5.9952">
        <ele>800.3</ele>
        <time>2022-05-26T14:47:45Z</time>
      </trkpt>
      <trkpt lat="46.82624" lon="5.99527">
        <ele>800.2</ele>
        <time>2022-05-26T14:47:49Z</time>
      </trkpt>
      <trkpt lat="46.82623" lon="5.99534">
        <ele>800</ele>
        <time>2022-05-26T14:47:53Z</time>
      </trkpt>
      <trkpt lat="46.8262" lon="5.9954">
        <ele>799.9</ele>
        <time>2022-05-26T14:47:57Z</time>
      </trkpt>
      <trkpt lat="46.82618" lon="5.99546">
        <ele>799.6</ele>
        <time>2022-05-26T14:48:01Z</time>
      </trkpt>
      <trkpt lat="46.82617" lon="5.99553">
        <ele>799.1</ele>
        <time>2022-05-26T14:48:07Z</time>
      </trkpt>
      <trkpt lat="46.82617" lon="5.9956">
        <ele>799</ele>
        <time>2022-05-26T14:48:12Z</time>
      </trkpt>
      <trkpt lat="46.82617" lon="5.99567">
        <ele>798.8</ele>
        <time>2022-05-26T14:48:21Z</time>
      </trkpt>
      <trkpt lat="46.82618" lon="5.99575">
        <ele>798.4</ele>
        <time>2022-05-26T14:48:27Z</time>
      </trkpt>
      <trkpt lat="46.82619" lon="5.99583">
        <ele>797.2</ele>
        <time>2022-05-26T14:48:33Z</time>
      </trkpt>
      <trkpt lat="46.8262" lon="5.9959">
        <ele>796.7</ele>
        <time>2022-05-26T14:48:38Z</time>
      </trkpt>
      <trkpt lat="46.82622" lon="5.99596">
        <ele>796.4</ele>
        <time>2022-05-26T14:48:42Z</time>
      </trkpt>
      <trkpt lat="46.82624" lon="5.99602">
        <ele>796.3</ele>
        <time>2022-05-26T14:48:46Z</time>
      </trkpt>
      <trkpt lat="46.82627" lon="5.99608">
        <ele>796.3</ele>
        <time>2022-05-26T14:48:50Z</time>
      </trkpt>
      <trkpt lat="46.82629" lon="5.99615">
        <ele>796.3</ele>
        <time>2022-05-26T14:48:54Z</time>
      </trkpt>
      <trkpt lat="46.82631" lon="5.99622">
        <ele>796.4</ele>
        <time>2022-05-26T14:48:59Z</time>
      </trkpt>
      <trkpt lat="46.82633" lon="5.99629">
        <ele>796.9</ele>
        <time>2022-05-26T14:49:04Z</time>
      </trkpt>
      <trkpt lat="46.82635" lon="5.99635">
        <ele>797.7</ele>
        <time>2022-05-26T14:49:10Z</time>
      </trkpt>
      <trkpt lat="46.82639" lon="5.9964">
        <ele>798.4</ele>
        <time>2022-05-26T14:49:16Z</time>
      </trkpt>
      <trkpt lat="46.82643" lon="5.99645">
        <ele>798.8</ele>
        <time>2022-05-26T14:49:20Z</time>
      </trkpt>
      <trkpt lat="46.82647" lon="5.99642">
        <ele>798.8</ele>
        <time>2022-05-26T14:49:40Z</time>
      </trkpt>
      <trkpt lat="46.8265" lon="5.99637">
        <ele>791.6</ele>
        <time>2022-05-26T14:50:41Z</time>
      </trkpt>
    </trkseg>
  </trk>
</gpx>